<?xml version="1.0" encoding="UTF-8"?>
<gpx version="1.1" creator="RoadTrp.org" xmlns="http://www.topografix.com/GPX/1/1">
<trk><name>Nature, Outer Loop, &amp; Inner Loops — Booker T. Washington State Park — August 8, 2026</name><trkseg>
<trkpt lat="35.111898" lon="-85.175095"><ele>212.8</ele><time>2026-08-08T19:17:50Z</time></trkpt>
<trkpt lat="35.111892" lon="-85.175128"><ele>212.1</ele><time>2026-08-08T19:17:52Z</time></trkpt>
<trkpt lat="35.111896" lon="-85.175161"><ele>212.4</ele><time>2026-08-08T19:17:54Z</time></trkpt>
<trkpt lat="35.111906" lon="-85.175198"><ele>212.8</ele><time>2026-08-08T19:17:56Z</time></trkpt>
<trkpt lat="35.111928" lon="-85.175228"><ele>212.1</ele><time>2026-08-08T19:17:58Z</time></trkpt>
<trkpt lat="35.111962" lon="-85.175239"><ele>212.4</ele><time>2026-08-08T19:18:00Z</time></trkpt>
<trkpt lat="35.111994" lon="-85.175244"><ele>212.4</ele><time>2026-08-08T19:18:02Z</time></trkpt>
<trkpt lat="35.112025" lon="-85.175243"><ele>211.8</ele><time>2026-08-08T19:18:04Z</time></trkpt>
<trkpt lat="35.112057" lon="-85.17524"><ele>211.8</ele><time>2026-08-08T19:18:06Z</time></trkpt>
<trkpt lat="35.112086" lon="-85.175238"><ele>212.1</ele><time>2026-08-08T19:18:08Z</time></trkpt>
<trkpt lat="35.112116" lon="-85.175239"><ele>212.4</ele><time>2026-08-08T19:18:10Z</time></trkpt>
<trkpt lat="35.112148" lon="-85.175239"><ele>212.8</ele><time>2026-08-08T19:18:12Z</time></trkpt>
<trkpt lat="35.112176" lon="-85.175245"><ele>212.4</ele><time>2026-08-08T19:18:14Z</time></trkpt>
<trkpt lat="35.112207" lon="-85.175259"><ele>212.8</ele><time>2026-08-08T19:18:17Z</time></trkpt>
<trkpt lat="35.112241" lon="-85.175276"><ele>213.4</ele><time>2026-08-08T19:18:20Z</time></trkpt>
<trkpt lat="35.11228" lon="-85.175282"><ele>213.7</ele><time>2026-08-08T19:18:23Z</time></trkpt>
<trkpt lat="35.112319" lon="-85.175286"><ele>212.8</ele><time>2026-08-08T19:18:26Z</time></trkpt>
<trkpt lat="35.112347" lon="-85.175277"><ele>213.4</ele><time>2026-08-08T19:18:28Z</time></trkpt>
<trkpt lat="35.112369" lon="-85.175253"><ele>213.7</ele><time>2026-08-08T19:18:30Z</time></trkpt>
<trkpt lat="35.112385" lon="-85.175218"><ele>214.3</ele><time>2026-08-08T19:18:32Z</time></trkpt>
<trkpt lat="35.112392" lon="-85.175179"><ele>214.6</ele><time>2026-08-08T19:18:34Z</time></trkpt>
<trkpt lat="35.112406" lon="-85.175139"><ele>214.0</ele><time>2026-08-08T19:18:36Z</time></trkpt>
<trkpt lat="35.112418" lon="-85.175106"><ele>213.7</ele><time>2026-08-08T19:18:38Z</time></trkpt>
<trkpt lat="35.112432" lon="-85.175074"><ele>213.1</ele><time>2026-08-08T19:18:40Z</time></trkpt>
<trkpt lat="35.112444" lon="-85.175043"><ele>213.1</ele><time>2026-08-08T19:18:42Z</time></trkpt>
<trkpt lat="35.112461" lon="-85.175007"><ele>213.1</ele><time>2026-08-08T19:18:44Z</time></trkpt>
<trkpt lat="35.112469" lon="-85.174971"><ele>212.4</ele><time>2026-08-08T19:18:46Z</time></trkpt>
<trkpt lat="35.112478" lon="-85.174938"><ele>212.4</ele><time>2026-08-08T19:18:48Z</time></trkpt>
<trkpt lat="35.112498" lon="-85.17491"><ele>212.8</ele><time>2026-08-08T19:18:50Z</time></trkpt>
<trkpt lat="35.112528" lon="-85.174875"><ele>211.2</ele><time>2026-08-08T19:18:53Z</time></trkpt>
<trkpt lat="35.112549" lon="-85.174838"><ele>210.0</ele><time>2026-08-08T19:18:57Z</time></trkpt>
<trkpt lat="35.112574" lon="-85.174824"><ele>210.0</ele><time>2026-08-08T19:18:59Z</time></trkpt>
<trkpt lat="35.112603" lon="-85.174818"><ele>210.9</ele><time>2026-08-08T19:19:01Z</time></trkpt>
<trkpt lat="35.112635" lon="-85.174826"><ele>211.8</ele><time>2026-08-08T19:19:03Z</time></trkpt>
<trkpt lat="35.112673" lon="-85.174828"><ele>212.8</ele><time>2026-08-08T19:19:06Z</time></trkpt>
<trkpt lat="35.112698" lon="-85.174815"><ele>213.4</ele><time>2026-08-08T19:19:09Z</time></trkpt>
<trkpt lat="35.112725" lon="-85.174805"><ele>214.6</ele><time>2026-08-08T19:19:12Z</time></trkpt>
<trkpt lat="35.112753" lon="-85.174779"><ele>214.3</ele><time>2026-08-08T19:19:15Z</time></trkpt>
<trkpt lat="35.112775" lon="-85.174742"><ele>214.0</ele><time>2026-08-08T19:19:18Z</time></trkpt>
<trkpt lat="35.112796" lon="-85.174705"><ele>214.6</ele><time>2026-08-08T19:19:21Z</time></trkpt>
<trkpt lat="35.11281" lon="-85.17467"><ele>214.3</ele><time>2026-08-08T19:19:24Z</time></trkpt>
<trkpt lat="35.112833" lon="-85.174643"><ele>216.1</ele><time>2026-08-08T19:19:27Z</time></trkpt>
<trkpt lat="35.112851" lon="-85.174612"><ele>216.7</ele><time>2026-08-08T19:19:30Z</time></trkpt>
<trkpt lat="35.112861" lon="-85.174571"><ele>216.4</ele><time>2026-08-08T19:19:33Z</time></trkpt>
<trkpt lat="35.112876" lon="-85.174539"><ele>217.3</ele><time>2026-08-08T19:19:35Z</time></trkpt>
<trkpt lat="35.112892" lon="-85.174495"><ele>217.3</ele><time>2026-08-08T19:19:38Z</time></trkpt>
<trkpt lat="35.112881" lon="-85.174448"><ele>218.5</ele><time>2026-08-08T19:19:41Z</time></trkpt>
<trkpt lat="35.112865" lon="-85.17442"><ele>218.5</ele><time>2026-08-08T19:19:44Z</time></trkpt>
<trkpt lat="35.112842" lon="-85.174387"><ele>218.5</ele><time>2026-08-08T19:19:48Z</time></trkpt>
<trkpt lat="35.112813" lon="-85.174375"><ele>219.8</ele><time>2026-08-08T19:19:50Z</time></trkpt>
<trkpt lat="35.112776" lon="-85.174384"><ele>220.7</ele><time>2026-08-08T19:19:52Z</time></trkpt>
<trkpt lat="35.112743" lon="-85.174387"><ele>222.2</ele><time>2026-08-08T19:19:54Z</time></trkpt>
<trkpt lat="35.11271" lon="-85.174394"><ele>223.4</ele><time>2026-08-08T19:19:56Z</time></trkpt>
<trkpt lat="35.11274" lon="-85.174399"><ele>220.4</ele><time>2026-08-08T19:20:03Z</time></trkpt>
<trkpt lat="35.112772" lon="-85.17438"><ele>221.0</ele><time>2026-08-08T19:20:05Z</time></trkpt>
<trkpt lat="35.112801" lon="-85.174372"><ele>219.8</ele><time>2026-08-08T19:20:07Z</time></trkpt>
<trkpt lat="35.112834" lon="-85.174387"><ele>218.2</ele><time>2026-08-08T19:20:10Z</time></trkpt>
<trkpt lat="35.112856" lon="-85.174422"><ele>216.4</ele><time>2026-08-08T19:20:13Z</time></trkpt>
<trkpt lat="35.112875" lon="-85.174448"><ele>216.4</ele><time>2026-08-08T19:20:15Z</time></trkpt>
<trkpt lat="35.112898" lon="-85.174487"><ele>217.3</ele><time>2026-08-08T19:20:17Z</time></trkpt>
<trkpt lat="35.112924" lon="-85.17451"><ele>218.5</ele><time>2026-08-08T19:20:19Z</time></trkpt>
<trkpt lat="35.112958" lon="-85.17448"><ele>217.6</ele><time>2026-08-08T19:20:21Z</time></trkpt>
<trkpt lat="35.112984" lon="-85.174441"><ele>217.6</ele><time>2026-08-08T19:20:23Z</time></trkpt>
<trkpt lat="35.113006" lon="-85.1744"><ele>217.3</ele><time>2026-08-08T19:20:26Z</time></trkpt>
<trkpt lat="35.113011" lon="-85.174349"><ele>216.4</ele><time>2026-08-08T19:20:29Z</time></trkpt>
<trkpt lat="35.113021" lon="-85.174312"><ele>219.2</ele><time>2026-08-08T19:20:32Z</time></trkpt>
<trkpt lat="35.113026" lon="-85.174276"><ele>218.8</ele><time>2026-08-08T19:20:34Z</time></trkpt>
<trkpt lat="35.113027" lon="-85.174242"><ele>220.1</ele><time>2026-08-08T19:20:36Z</time></trkpt>
<trkpt lat="35.113047" lon="-85.174204"><ele>219.8</ele><time>2026-08-08T19:20:39Z</time></trkpt>
<trkpt lat="35.113063" lon="-85.174158"><ele>220.7</ele><time>2026-08-08T19:20:42Z</time></trkpt>
<trkpt lat="35.113075" lon="-85.17412"><ele>221.0</ele><time>2026-08-08T19:20:44Z</time></trkpt>
<trkpt lat="35.113082" lon="-85.174074"><ele>220.4</ele><time>2026-08-08T19:20:47Z</time></trkpt>
<trkpt lat="35.113084" lon="-85.174031"><ele>221.0</ele><time>2026-08-08T19:20:50Z</time></trkpt>
<trkpt lat="35.113099" lon="-85.173998"><ele>221.6</ele><time>2026-08-08T19:20:53Z</time></trkpt>
<trkpt lat="35.113122" lon="-85.17398"><ele>222.5</ele><time>2026-08-08T19:20:55Z</time></trkpt>
<trkpt lat="35.113148" lon="-85.173968"><ele>221.0</ele><time>2026-08-08T19:20:57Z</time></trkpt>
<trkpt lat="35.113172" lon="-85.173952"><ele>221.9</ele><time>2026-08-08T19:20:59Z</time></trkpt>
<trkpt lat="35.113192" lon="-85.173928"><ele>221.0</ele><time>2026-08-08T19:21:01Z</time></trkpt>
<trkpt lat="35.11322" lon="-85.173895"><ele>222.2</ele><time>2026-08-08T19:21:04Z</time></trkpt>
<trkpt lat="35.113229" lon="-85.17386"><ele>223.4</ele><time>2026-08-08T19:21:06Z</time></trkpt>
<trkpt lat="35.113221" lon="-85.173814"><ele>223.1</ele><time>2026-08-08T19:21:09Z</time></trkpt>
<trkpt lat="35.113189" lon="-85.173799"><ele>224.3</ele><time>2026-08-08T19:21:11Z</time></trkpt>
<trkpt lat="35.113155" lon="-85.173783"><ele>226.8</ele><time>2026-08-08T19:21:13Z</time></trkpt>
<trkpt lat="35.113124" lon="-85.173778"><ele>226.8</ele><time>2026-08-08T19:21:15Z</time></trkpt>
<trkpt lat="35.113099" lon="-85.173791"><ele>225.2</ele><time>2026-08-08T19:21:17Z</time></trkpt>
<trkpt lat="35.113061" lon="-85.173802"><ele>224.0</ele><time>2026-08-08T19:21:20Z</time></trkpt>
<trkpt lat="35.113032" lon="-85.173808"><ele>224.3</ele><time>2026-08-08T19:21:22Z</time></trkpt>
<trkpt lat="35.113004" lon="-85.173812"><ele>227.4</ele><time>2026-08-08T19:21:25Z</time></trkpt>
<trkpt lat="35.112974" lon="-85.173817"><ele>226.8</ele><time>2026-08-08T19:21:28Z</time></trkpt>
<trkpt lat="35.112947" lon="-85.173827"><ele>225.9</ele><time>2026-08-08T19:21:30Z</time></trkpt>
<trkpt lat="35.11291" lon="-85.173835"><ele>228.9</ele><time>2026-08-08T19:21:33Z</time></trkpt>
<trkpt lat="35.11287" lon="-85.173841"><ele>228.9</ele><time>2026-08-08T19:21:36Z</time></trkpt>
<trkpt lat="35.112832" lon="-85.173852"><ele>229.2</ele><time>2026-08-08T19:21:39Z</time></trkpt>
<trkpt lat="35.112803" lon="-85.17388"><ele>229.2</ele><time>2026-08-08T19:21:42Z</time></trkpt>
<trkpt lat="35.112775" lon="-85.173903"><ele>227.1</ele><time>2026-08-08T19:21:45Z</time></trkpt>
<trkpt lat="35.112746" lon="-85.173931"><ele>227.7</ele><time>2026-08-08T19:21:48Z</time></trkpt>
<trkpt lat="35.112704" lon="-85.173952"><ele>228.0</ele><time>2026-08-08T19:21:51Z</time></trkpt>
<trkpt lat="35.112677" lon="-85.17396"><ele>228.9</ele><time>2026-08-08T19:21:53Z</time></trkpt>
<trkpt lat="35.112642" lon="-85.173954"><ele>228.6</ele><time>2026-08-08T19:21:57Z</time></trkpt>
<trkpt lat="35.112611" lon="-85.173942"><ele>229.5</ele><time>2026-08-08T19:22:00Z</time></trkpt>
<trkpt lat="35.112579" lon="-85.173936"><ele>230.1</ele><time>2026-08-08T19:22:03Z</time></trkpt>
<trkpt lat="35.112546" lon="-85.173916"><ele>232.3</ele><time>2026-08-08T19:22:06Z</time></trkpt>
<trkpt lat="35.112504" lon="-85.1739"><ele>233.8</ele><time>2026-08-08T19:22:09Z</time></trkpt>
<trkpt lat="35.112479" lon="-85.173881"><ele>234.7</ele><time>2026-08-08T19:22:11Z</time></trkpt>
<trkpt lat="35.112454" lon="-85.173855"><ele>236.2</ele><time>2026-08-08T19:22:13Z</time></trkpt>
<trkpt lat="35.112445" lon="-85.173808"><ele>232.6</ele><time>2026-08-08T19:22:16Z</time></trkpt>
<trkpt lat="35.112413" lon="-85.173781"><ele>235.3</ele><time>2026-08-08T19:22:19Z</time></trkpt>
<trkpt lat="35.112391" lon="-85.173749"><ele>236.5</ele><time>2026-08-08T19:22:22Z</time></trkpt>
<trkpt lat="35.112371" lon="-85.173711"><ele>234.7</ele><time>2026-08-08T19:22:25Z</time></trkpt>
<trkpt lat="35.11235" lon="-85.17368"><ele>233.8</ele><time>2026-08-08T19:22:28Z</time></trkpt>
<trkpt lat="35.112323" lon="-85.173672"><ele>235.3</ele><time>2026-08-08T19:22:31Z</time></trkpt>
<trkpt lat="35.112295" lon="-85.173664"><ele>233.5</ele><time>2026-08-08T19:22:33Z</time></trkpt>
<trkpt lat="35.112263" lon="-85.173669"><ele>233.2</ele><time>2026-08-08T19:22:35Z</time></trkpt>
<trkpt lat="35.112229" lon="-85.173675"><ele>235.0</ele><time>2026-08-08T19:22:37Z</time></trkpt>
<trkpt lat="35.112199" lon="-85.173678"><ele>235.6</ele><time>2026-08-08T19:22:39Z</time></trkpt>
<trkpt lat="35.11217" lon="-85.173685"><ele>238.0</ele><time>2026-08-08T19:22:41Z</time></trkpt>
<trkpt lat="35.112141" lon="-85.173669"><ele>236.8</ele><time>2026-08-08T19:22:43Z</time></trkpt>
<trkpt lat="35.112115" lon="-85.173639"><ele>234.4</ele><time>2026-08-08T19:22:45Z</time></trkpt>
<trkpt lat="35.112085" lon="-85.173619"><ele>234.1</ele><time>2026-08-08T19:22:47Z</time></trkpt>
<trkpt lat="35.112059" lon="-85.173609"><ele>233.8</ele><time>2026-08-08T19:22:49Z</time></trkpt>
<trkpt lat="35.112025" lon="-85.173603"><ele>235.6</ele><time>2026-08-08T19:22:52Z</time></trkpt>
<trkpt lat="35.111992" lon="-85.173604"><ele>233.2</ele><time>2026-08-08T19:22:55Z</time></trkpt>
<trkpt lat="35.111952" lon="-85.173606"><ele>233.2</ele><time>2026-08-08T19:22:58Z</time></trkpt>
<trkpt lat="35.111925" lon="-85.173603"><ele>231.6</ele><time>2026-08-08T19:23:00Z</time></trkpt>
<trkpt lat="35.111897" lon="-85.173598"><ele>232.9</ele><time>2026-08-08T19:23:02Z</time></trkpt>
<trkpt lat="35.111871" lon="-85.173575"><ele>232.6</ele><time>2026-08-08T19:23:04Z</time></trkpt>
<trkpt lat="35.111844" lon="-85.173548"><ele>231.3</ele><time>2026-08-08T19:23:07Z</time></trkpt>
<trkpt lat="35.111823" lon="-85.173511"><ele>231.6</ele><time>2026-08-08T19:23:10Z</time></trkpt>
<trkpt lat="35.111795" lon="-85.173496"><ele>232.3</ele><time>2026-08-08T19:23:12Z</time></trkpt>
<trkpt lat="35.111757" lon="-85.173475"><ele>231.3</ele><time>2026-08-08T19:23:15Z</time></trkpt>
<trkpt lat="35.111717" lon="-85.173459"><ele>229.2</ele><time>2026-08-08T19:23:18Z</time></trkpt>
<trkpt lat="35.111689" lon="-85.173452"><ele>229.8</ele><time>2026-08-08T19:23:20Z</time></trkpt>
<trkpt lat="35.111651" lon="-85.173455"><ele>232.9</ele><time>2026-08-08T19:23:23Z</time></trkpt>
<trkpt lat="35.111609" lon="-85.173457"><ele>235.0</ele><time>2026-08-08T19:23:26Z</time></trkpt>
<trkpt lat="35.111583" lon="-85.173437"><ele>235.0</ele><time>2026-08-08T19:23:28Z</time></trkpt>
<trkpt lat="35.111558" lon="-85.173401"><ele>232.9</ele><time>2026-08-08T19:23:31Z</time></trkpt>
<trkpt lat="35.111534" lon="-85.173365"><ele>233.8</ele><time>2026-08-08T19:23:34Z</time></trkpt>
<trkpt lat="35.111506" lon="-85.173357"><ele>235.9</ele><time>2026-08-08T19:23:36Z</time></trkpt>
<trkpt lat="35.111468" lon="-85.173353"><ele>238.7</ele><time>2026-08-08T19:23:39Z</time></trkpt>
<trkpt lat="35.111442" lon="-85.173335"><ele>239.0</ele><time>2026-08-08T19:23:42Z</time></trkpt>
<trkpt lat="35.11144" lon="-85.173374"><ele>232.0</ele><time>2026-08-08T19:23:45Z</time></trkpt>
<trkpt lat="35.111441" lon="-85.173389"><ele>229.8</ele><time>2026-08-08T19:23:48Z</time></trkpt>
<trkpt lat="35.111443" lon="-85.173384"><ele>229.8</ele><time>2026-08-08T19:23:49Z</time></trkpt>
<trkpt lat="35.111444" lon="-85.173382"><ele>229.8</ele><time>2026-08-08T19:23:50Z</time></trkpt>
<trkpt lat="35.11144" lon="-85.173378"><ele>229.2</ele><time>2026-08-08T19:23:51Z</time></trkpt>
<trkpt lat="35.111417" lon="-85.173359"><ele>229.8</ele><time>2026-08-08T19:23:53Z</time></trkpt>
<trkpt lat="35.111403" lon="-85.173323"><ele>229.8</ele><time>2026-08-08T19:23:55Z</time></trkpt>
<trkpt lat="35.111379" lon="-85.173296"><ele>225.9</ele><time>2026-08-08T19:23:58Z</time></trkpt>
<trkpt lat="35.111358" lon="-85.173259"><ele>224.6</ele><time>2026-08-08T19:24:02Z</time></trkpt>
<trkpt lat="35.11133" lon="-85.173239"><ele>222.2</ele><time>2026-08-08T19:24:06Z</time></trkpt>
<trkpt lat="35.111316" lon="-85.173274"><ele>221.6</ele><time>2026-08-08T19:24:09Z</time></trkpt>
<trkpt lat="35.111306" lon="-85.173316"><ele>221.9</ele><time>2026-08-08T19:24:12Z</time></trkpt>
<trkpt lat="35.111301" lon="-85.173325"><ele>221.9</ele><time>2026-08-08T19:24:13Z</time></trkpt>
<trkpt lat="35.111303" lon="-85.17333"><ele>219.8</ele><time>2026-08-08T19:24:14Z</time></trkpt>
<trkpt lat="35.111293" lon="-85.173332"><ele>219.8</ele><time>2026-08-08T19:24:15Z</time></trkpt>
<trkpt lat="35.111299" lon="-85.173294"><ele>220.4</ele><time>2026-08-08T19:24:18Z</time></trkpt>
<trkpt lat="35.111313" lon="-85.173263"><ele>221.3</ele><time>2026-08-08T19:24:21Z</time></trkpt>
<trkpt lat="35.111319" lon="-85.173228"><ele>222.2</ele><time>2026-08-08T19:24:24Z</time></trkpt>
<trkpt lat="35.11131" lon="-85.173189"><ele>220.4</ele><time>2026-08-08T19:24:27Z</time></trkpt>
<trkpt lat="35.111296" lon="-85.173154"><ele>220.1</ele><time>2026-08-08T19:24:30Z</time></trkpt>
<trkpt lat="35.111279" lon="-85.173116"><ele>219.8</ele><time>2026-08-08T19:24:33Z</time></trkpt>
<trkpt lat="35.111259" lon="-85.173073"><ele>219.8</ele><time>2026-08-08T19:24:36Z</time></trkpt>
<trkpt lat="35.111238" lon="-85.173052"><ele>220.4</ele><time>2026-08-08T19:24:38Z</time></trkpt>
<trkpt lat="35.111204" lon="-85.173061"><ele>221.3</ele><time>2026-08-08T19:24:41Z</time></trkpt>
<trkpt lat="35.111181" lon="-85.173092"><ele>221.9</ele><time>2026-08-08T19:24:44Z</time></trkpt>
<trkpt lat="35.111152" lon="-85.173124"><ele>224.0</ele><time>2026-08-08T19:24:47Z</time></trkpt>
<trkpt lat="35.111132" lon="-85.173156"><ele>226.5</ele><time>2026-08-08T19:24:50Z</time></trkpt>
<trkpt lat="35.111103" lon="-85.173178"><ele>228.0</ele><time>2026-08-08T19:24:53Z</time></trkpt>
<trkpt lat="35.111071" lon="-85.173186"><ele>229.5</ele><time>2026-08-08T19:24:56Z</time></trkpt>
<trkpt lat="35.111037" lon="-85.173185"><ele>230.7</ele><time>2026-08-08T19:24:59Z</time></trkpt>
<trkpt lat="35.111011" lon="-85.173168"><ele>232.0</ele><time>2026-08-08T19:25:01Z</time></trkpt>
<trkpt lat="35.111003" lon="-85.173125"><ele>233.5</ele><time>2026-08-08T19:25:04Z</time></trkpt>
<trkpt lat="35.111008" lon="-85.173075"><ele>231.3</ele><time>2026-08-08T19:25:07Z</time></trkpt>
<trkpt lat="35.111017" lon="-85.173035"><ele>230.4</ele><time>2026-08-08T19:25:09Z</time></trkpt>
<trkpt lat="35.111027" lon="-85.172997"><ele>230.4</ele><time>2026-08-08T19:25:11Z</time></trkpt>
<trkpt lat="35.111037" lon="-85.172964"><ele>231.3</ele><time>2026-08-08T19:25:13Z</time></trkpt>
<trkpt lat="35.111054" lon="-85.172937"><ele>229.8</ele><time>2026-08-08T19:25:15Z</time></trkpt>
<trkpt lat="35.111072" lon="-85.172911"><ele>230.1</ele><time>2026-08-08T19:25:17Z</time></trkpt>
<trkpt lat="35.111098" lon="-85.172874"><ele>228.6</ele><time>2026-08-08T19:25:20Z</time></trkpt>
<trkpt lat="35.111116" lon="-85.172836"><ele>227.1</ele><time>2026-08-08T19:25:23Z</time></trkpt>
<trkpt lat="35.11114" lon="-85.172809"><ele>226.8</ele><time>2026-08-08T19:25:26Z</time></trkpt>
<trkpt lat="35.111174" lon="-85.172791"><ele>227.4</ele><time>2026-08-08T19:25:29Z</time></trkpt>
<trkpt lat="35.111212" lon="-85.172789"><ele>228.0</ele><time>2026-08-08T19:25:32Z</time></trkpt>
<trkpt lat="35.111244" lon="-85.172819"><ele>227.1</ele><time>2026-08-08T19:25:35Z</time></trkpt>
<trkpt lat="35.111279" lon="-85.17284"><ele>228.6</ele><time>2026-08-08T19:25:38Z</time></trkpt>
<trkpt lat="35.11131" lon="-85.172864"><ele>228.6</ele><time>2026-08-08T19:25:41Z</time></trkpt>
<trkpt lat="35.111337" lon="-85.172898"><ele>228.9</ele><time>2026-08-08T19:25:44Z</time></trkpt>
<trkpt lat="35.111364" lon="-85.172925"><ele>228.3</ele><time>2026-08-08T19:25:47Z</time></trkpt>
<trkpt lat="35.111397" lon="-85.17294"><ele>229.2</ele><time>2026-08-08T19:25:50Z</time></trkpt>
<trkpt lat="35.111438" lon="-85.172944"><ele>229.5</ele><time>2026-08-08T19:25:53Z</time></trkpt>
<trkpt lat="35.111468" lon="-85.172944"><ele>229.8</ele><time>2026-08-08T19:25:55Z</time></trkpt>
<trkpt lat="35.111497" lon="-85.172947"><ele>229.5</ele><time>2026-08-08T19:25:57Z</time></trkpt>
<trkpt lat="35.111534" lon="-85.172951"><ele>230.7</ele><time>2026-08-08T19:26:00Z</time></trkpt>
<trkpt lat="35.111562" lon="-85.172949"><ele>230.4</ele><time>2026-08-08T19:26:02Z</time></trkpt>
<trkpt lat="35.111602" lon="-85.172954"><ele>230.7</ele><time>2026-08-08T19:26:05Z</time></trkpt>
<trkpt lat="35.111627" lon="-85.172974"><ele>230.7</ele><time>2026-08-08T19:26:07Z</time></trkpt>
<trkpt lat="35.111657" lon="-85.173007"><ele>231.6</ele><time>2026-08-08T19:26:10Z</time></trkpt>
<trkpt lat="35.111683" lon="-85.173039"><ele>233.2</ele><time>2026-08-08T19:26:13Z</time></trkpt>
<trkpt lat="35.111706" lon="-85.17306"><ele>231.0</ele><time>2026-08-08T19:26:15Z</time></trkpt>
<trkpt lat="35.111736" lon="-85.173091"><ele>231.0</ele><time>2026-08-08T19:26:18Z</time></trkpt>
<trkpt lat="35.111767" lon="-85.173114"><ele>231.0</ele><time>2026-08-08T19:26:21Z</time></trkpt>
<trkpt lat="35.111798" lon="-85.173141"><ele>231.0</ele><time>2026-08-08T19:26:24Z</time></trkpt>
<trkpt lat="35.111833" lon="-85.173163"><ele>229.2</ele><time>2026-08-08T19:26:27Z</time></trkpt>
<trkpt lat="35.111859" lon="-85.173198"><ele>231.3</ele><time>2026-08-08T19:26:30Z</time></trkpt>
<trkpt lat="35.11188" lon="-85.173219"><ele>231.6</ele><time>2026-08-08T19:26:32Z</time></trkpt>
<trkpt lat="35.111913" lon="-85.173248"><ele>231.6</ele><time>2026-08-08T19:26:35Z</time></trkpt>
<trkpt lat="35.11195" lon="-85.173267"><ele>229.8</ele><time>2026-08-08T19:26:38Z</time></trkpt>
<trkpt lat="35.111978" lon="-85.173275"><ele>228.6</ele><time>2026-08-08T19:26:40Z</time></trkpt>
<trkpt lat="35.112005" lon="-85.173289"><ele>228.9</ele><time>2026-08-08T19:26:42Z</time></trkpt>
<trkpt lat="35.112033" lon="-85.173301"><ele>228.6</ele><time>2026-08-08T19:26:44Z</time></trkpt>
<trkpt lat="35.112068" lon="-85.173324"><ele>230.1</ele><time>2026-08-08T19:26:47Z</time></trkpt>
<trkpt lat="35.112104" lon="-85.173346"><ele>230.1</ele><time>2026-08-08T19:26:50Z</time></trkpt>
<trkpt lat="35.112125" lon="-85.17337"><ele>230.4</ele><time>2026-08-08T19:26:52Z</time></trkpt>
<trkpt lat="35.112146" lon="-85.173393"><ele>231.0</ele><time>2026-08-08T19:26:54Z</time></trkpt>
<trkpt lat="35.112176" lon="-85.173421"><ele>232.0</ele><time>2026-08-08T19:26:57Z</time></trkpt>
<trkpt lat="35.112191" lon="-85.173466"><ele>232.6</ele><time>2026-08-08T19:27:00Z</time></trkpt>
<trkpt lat="35.112202" lon="-85.173501"><ele>233.8</ele><time>2026-08-08T19:27:02Z</time></trkpt>
<trkpt lat="35.11222" lon="-85.173528"><ele>234.1</ele><time>2026-08-08T19:27:04Z</time></trkpt>
<trkpt lat="35.112245" lon="-85.173565"><ele>233.5</ele><time>2026-08-08T19:27:07Z</time></trkpt>
<trkpt lat="35.112275" lon="-85.173597"><ele>232.9</ele><time>2026-08-08T19:27:10Z</time></trkpt>
<trkpt lat="35.112309" lon="-85.173622"><ele>231.6</ele><time>2026-08-08T19:27:13Z</time></trkpt>
<trkpt lat="35.112347" lon="-85.173639"><ele>232.0</ele><time>2026-08-08T19:27:16Z</time></trkpt>
<trkpt lat="35.112383" lon="-85.173658"><ele>233.2</ele><time>2026-08-08T19:27:19Z</time></trkpt>
<trkpt lat="35.11242" lon="-85.173666"><ele>233.8</ele><time>2026-08-08T19:27:22Z</time></trkpt>
<trkpt lat="35.112458" lon="-85.173675"><ele>233.2</ele><time>2026-08-08T19:27:25Z</time></trkpt>
<trkpt lat="35.112487" lon="-85.173669"><ele>231.3</ele><time>2026-08-08T19:27:27Z</time></trkpt>
<trkpt lat="35.112516" lon="-85.173662"><ele>232.9</ele><time>2026-08-08T19:27:29Z</time></trkpt>
<trkpt lat="35.112555" lon="-85.173653"><ele>233.2</ele><time>2026-08-08T19:27:32Z</time></trkpt>
<trkpt lat="35.11259" lon="-85.173637"><ele>233.2</ele><time>2026-08-08T19:27:35Z</time></trkpt>
<trkpt lat="35.112632" lon="-85.173631"><ele>236.2</ele><time>2026-08-08T19:27:38Z</time></trkpt>
<trkpt lat="35.112659" lon="-85.173617"><ele>235.6</ele><time>2026-08-08T19:27:40Z</time></trkpt>
<trkpt lat="35.112683" lon="-85.173592"><ele>235.3</ele><time>2026-08-08T19:27:42Z</time></trkpt>
<trkpt lat="35.11271" lon="-85.173556"><ele>234.1</ele><time>2026-08-08T19:27:45Z</time></trkpt>
<trkpt lat="35.112738" lon="-85.173529"><ele>233.8</ele><time>2026-08-08T19:27:48Z</time></trkpt>
<trkpt lat="35.112773" lon="-85.173503"><ele>234.7</ele><time>2026-08-08T19:27:51Z</time></trkpt>
<trkpt lat="35.112798" lon="-85.173471"><ele>235.0</ele><time>2026-08-08T19:27:54Z</time></trkpt>
<trkpt lat="35.112829" lon="-85.173444"><ele>234.4</ele><time>2026-08-08T19:27:57Z</time></trkpt>
<trkpt lat="35.112857" lon="-85.173419"><ele>235.0</ele><time>2026-08-08T19:28:00Z</time></trkpt>
<trkpt lat="35.112883" lon="-85.173393"><ele>235.0</ele><time>2026-08-08T19:28:03Z</time></trkpt>
<trkpt lat="35.112909" lon="-85.173356"><ele>234.4</ele><time>2026-08-08T19:28:06Z</time></trkpt>
<trkpt lat="35.112926" lon="-85.173309"><ele>233.8</ele><time>2026-08-08T19:28:09Z</time></trkpt>
<trkpt lat="35.11294" lon="-85.173277"><ele>234.4</ele><time>2026-08-08T19:28:11Z</time></trkpt>
<trkpt lat="35.112938" lon="-85.17324"><ele>234.7</ele><time>2026-08-08T19:28:13Z</time></trkpt>
<trkpt lat="35.112946" lon="-85.173206"><ele>232.9</ele><time>2026-08-08T19:28:15Z</time></trkpt>
<trkpt lat="35.112955" lon="-85.173156"><ele>232.3</ele><time>2026-08-08T19:28:18Z</time></trkpt>
<trkpt lat="35.112965" lon="-85.173109"><ele>232.3</ele><time>2026-08-08T19:28:21Z</time></trkpt>
<trkpt lat="35.112966" lon="-85.173072"><ele>232.9</ele><time>2026-08-08T19:28:23Z</time></trkpt>
<trkpt lat="35.112969" lon="-85.173022"><ele>232.6</ele><time>2026-08-08T19:28:26Z</time></trkpt>
<trkpt lat="35.112962" lon="-85.172989"><ele>232.6</ele><time>2026-08-08T19:28:28Z</time></trkpt>
<trkpt lat="35.112937" lon="-85.172947"><ele>231.0</ele><time>2026-08-08T19:28:31Z</time></trkpt>
<trkpt lat="35.112919" lon="-85.172917"><ele>231.3</ele><time>2026-08-08T19:28:33Z</time></trkpt>
<trkpt lat="35.112908" lon="-85.172879"><ele>232.0</ele><time>2026-08-08T19:28:35Z</time></trkpt>
<trkpt lat="35.112894" lon="-85.172848"><ele>232.0</ele><time>2026-08-08T19:28:37Z</time></trkpt>
<trkpt lat="35.11288" lon="-85.172817"><ele>232.0</ele><time>2026-08-08T19:28:39Z</time></trkpt>
<trkpt lat="35.112873" lon="-85.172782"><ele>232.3</ele><time>2026-08-08T19:28:41Z</time></trkpt>
<trkpt lat="35.112866" lon="-85.172749"><ele>232.9</ele><time>2026-08-08T19:28:43Z</time></trkpt>
<trkpt lat="35.112853" lon="-85.172703"><ele>233.8</ele><time>2026-08-08T19:28:46Z</time></trkpt>
<trkpt lat="35.112844" lon="-85.172657"><ele>234.4</ele><time>2026-08-08T19:28:49Z</time></trkpt>
<trkpt lat="35.112819" lon="-85.17262"><ele>234.4</ele><time>2026-08-08T19:28:52Z</time></trkpt>
<trkpt lat="35.112813" lon="-85.172585"><ele>234.4</ele><time>2026-08-08T19:28:54Z</time></trkpt>
<trkpt lat="35.112808" lon="-85.172549"><ele>235.6</ele><time>2026-08-08T19:28:56Z</time></trkpt>
<trkpt lat="35.112805" lon="-85.172513"><ele>235.9</ele><time>2026-08-08T19:28:58Z</time></trkpt>
<trkpt lat="35.112808" lon="-85.172466"><ele>235.9</ele><time>2026-08-08T19:29:01Z</time></trkpt>
<trkpt lat="35.112827" lon="-85.172439"><ele>235.3</ele><time>2026-08-08T19:29:03Z</time></trkpt>
<trkpt lat="35.112848" lon="-85.172416"><ele>236.2</ele><time>2026-08-08T19:29:05Z</time></trkpt>
<trkpt lat="35.112871" lon="-85.172392"><ele>235.9</ele><time>2026-08-08T19:29:07Z</time></trkpt>
<trkpt lat="35.112896" lon="-85.172371"><ele>235.0</ele><time>2026-08-08T19:29:09Z</time></trkpt>
<trkpt lat="35.112922" lon="-85.172358"><ele>235.3</ele><time>2026-08-08T19:29:11Z</time></trkpt>
<trkpt lat="35.112948" lon="-85.172341"><ele>233.2</ele><time>2026-08-08T19:29:13Z</time></trkpt>
<trkpt lat="35.112976" lon="-85.172331"><ele>232.3</ele><time>2026-08-08T19:29:15Z</time></trkpt>
<trkpt lat="35.113007" lon="-85.172324"><ele>232.3</ele><time>2026-08-08T19:29:17Z</time></trkpt>
<trkpt lat="35.113035" lon="-85.172314"><ele>231.6</ele><time>2026-08-08T19:29:19Z</time></trkpt>
<trkpt lat="35.113064" lon="-85.172318"><ele>233.5</ele><time>2026-08-08T19:29:21Z</time></trkpt>
<trkpt lat="35.113094" lon="-85.17232"><ele>234.7</ele><time>2026-08-08T19:29:23Z</time></trkpt>
<trkpt lat="35.113122" lon="-85.172338"><ele>231.6</ele><time>2026-08-08T19:29:25Z</time></trkpt>
<trkpt lat="35.113149" lon="-85.172353"><ele>231.3</ele><time>2026-08-08T19:29:27Z</time></trkpt>
<trkpt lat="35.113176" lon="-85.172367"><ele>232.0</ele><time>2026-08-08T19:29:29Z</time></trkpt>
<trkpt lat="35.113201" lon="-85.172383"><ele>232.3</ele><time>2026-08-08T19:29:31Z</time></trkpt>
<trkpt lat="35.113226" lon="-85.172399"><ele>232.6</ele><time>2026-08-08T19:29:33Z</time></trkpt>
<trkpt lat="35.113261" lon="-85.172413"><ele>231.6</ele><time>2026-08-08T19:29:36Z</time></trkpt>
<trkpt lat="35.113297" lon="-85.17242"><ele>231.0</ele><time>2026-08-08T19:29:39Z</time></trkpt>
<trkpt lat="35.11333" lon="-85.172432"><ele>230.1</ele><time>2026-08-08T19:29:42Z</time></trkpt>
<trkpt lat="35.113349" lon="-85.172466"><ele>230.4</ele><time>2026-08-08T19:29:45Z</time></trkpt>
<trkpt lat="35.113378" lon="-85.172486"><ele>230.7</ele><time>2026-08-08T19:29:48Z</time></trkpt>
<trkpt lat="35.113415" lon="-85.172468"><ele>230.1</ele><time>2026-08-08T19:29:51Z</time></trkpt>
<trkpt lat="35.113446" lon="-85.172456"><ele>231.0</ele><time>2026-08-08T19:29:53Z</time></trkpt>
<trkpt lat="35.113474" lon="-85.172453"><ele>230.7</ele><time>2026-08-08T19:29:55Z</time></trkpt>
<trkpt lat="35.113505" lon="-85.172449"><ele>230.1</ele><time>2026-08-08T19:29:57Z</time></trkpt>
<trkpt lat="35.113538" lon="-85.172442"><ele>228.9</ele><time>2026-08-08T19:29:59Z</time></trkpt>
<trkpt lat="35.113575" lon="-85.172437"><ele>229.5</ele><time>2026-08-08T19:30:01Z</time></trkpt>
<trkpt lat="35.113603" lon="-85.172426"><ele>230.1</ele><time>2026-08-08T19:30:03Z</time></trkpt>
<trkpt lat="35.113626" lon="-85.172406"><ele>229.5</ele><time>2026-08-08T19:30:05Z</time></trkpt>
<trkpt lat="35.113648" lon="-85.17238"><ele>228.6</ele><time>2026-08-08T19:30:07Z</time></trkpt>
<trkpt lat="35.113659" lon="-85.172347"><ele>228.0</ele><time>2026-08-08T19:30:09Z</time></trkpt>
<trkpt lat="35.113671" lon="-85.172314"><ele>227.1</ele><time>2026-08-08T19:30:11Z</time></trkpt>
<trkpt lat="35.113691" lon="-85.172273"><ele>226.5</ele><time>2026-08-08T19:30:14Z</time></trkpt>
<trkpt lat="35.113716" lon="-85.17224"><ele>226.5</ele><time>2026-08-08T19:30:17Z</time></trkpt>
<trkpt lat="35.113742" lon="-85.172204"><ele>226.8</ele><time>2026-08-08T19:30:20Z</time></trkpt>
<trkpt lat="35.113756" lon="-85.172174"><ele>227.1</ele><time>2026-08-08T19:30:22Z</time></trkpt>
<trkpt lat="35.113763" lon="-85.172141"><ele>225.9</ele><time>2026-08-08T19:30:24Z</time></trkpt>
<trkpt lat="35.113762" lon="-85.172094"><ele>226.5</ele><time>2026-08-08T19:30:27Z</time></trkpt>
<trkpt lat="35.113764" lon="-85.17205"><ele>225.2</ele><time>2026-08-08T19:30:30Z</time></trkpt>
<trkpt lat="35.11377" lon="-85.172015"><ele>226.5</ele><time>2026-08-08T19:30:32Z</time></trkpt>
<trkpt lat="35.113785" lon="-85.171985"><ele>226.2</ele><time>2026-08-08T19:30:34Z</time></trkpt>
<trkpt lat="35.113807" lon="-85.171956"><ele>225.2</ele><time>2026-08-08T19:30:36Z</time></trkpt>
<trkpt lat="35.113832" lon="-85.171919"><ele>225.6</ele><time>2026-08-08T19:30:39Z</time></trkpt>
<trkpt lat="35.11386" lon="-85.171908"><ele>224.9</ele><time>2026-08-08T19:30:41Z</time></trkpt>
<trkpt lat="35.113893" lon="-85.171901"><ele>227.1</ele><time>2026-08-08T19:30:43Z</time></trkpt>
<trkpt lat="35.113929" lon="-85.171894"><ele>225.6</ele><time>2026-08-08T19:30:46Z</time></trkpt>
<trkpt lat="35.113958" lon="-85.171906"><ele>226.5</ele><time>2026-08-08T19:30:49Z</time></trkpt>
<trkpt lat="35.113983" lon="-85.171934"><ele>225.6</ele><time>2026-08-08T19:30:52Z</time></trkpt>
<trkpt lat="35.114011" lon="-85.171963"><ele>224.9</ele><time>2026-08-08T19:30:55Z</time></trkpt>
<trkpt lat="35.114038" lon="-85.171985"><ele>225.6</ele><time>2026-08-08T19:30:58Z</time></trkpt>
<trkpt lat="35.114071" lon="-85.171982"><ele>224.6</ele><time>2026-08-08T19:31:01Z</time></trkpt>
<trkpt lat="35.114108" lon="-85.171973"><ele>224.6</ele><time>2026-08-08T19:31:04Z</time></trkpt>
<trkpt lat="35.114146" lon="-85.171964"><ele>224.0</ele><time>2026-08-08T19:31:07Z</time></trkpt>
<trkpt lat="35.114174" lon="-85.171958"><ele>223.1</ele><time>2026-08-08T19:31:09Z</time></trkpt>
<trkpt lat="35.114207" lon="-85.171939"><ele>223.7</ele><time>2026-08-08T19:31:12Z</time></trkpt>
<trkpt lat="35.114227" lon="-85.171908"><ele>222.8</ele><time>2026-08-08T19:31:14Z</time></trkpt>
<trkpt lat="35.114253" lon="-85.171886"><ele>222.8</ele><time>2026-08-08T19:31:16Z</time></trkpt>
<trkpt lat="35.114282" lon="-85.171884"><ele>222.5</ele><time>2026-08-08T19:31:18Z</time></trkpt>
<trkpt lat="35.114319" lon="-85.17187"><ele>222.2</ele><time>2026-08-08T19:31:21Z</time></trkpt>
<trkpt lat="35.114346" lon="-85.171851"><ele>221.3</ele><time>2026-08-08T19:31:23Z</time></trkpt>
<trkpt lat="35.114371" lon="-85.171833"><ele>221.0</ele><time>2026-08-08T19:31:25Z</time></trkpt>
<trkpt lat="35.114397" lon="-85.171817"><ele>220.4</ele><time>2026-08-08T19:31:27Z</time></trkpt>
<trkpt lat="35.114425" lon="-85.171812"><ele>220.4</ele><time>2026-08-08T19:31:29Z</time></trkpt>
<trkpt lat="35.114464" lon="-85.171809"><ele>221.9</ele><time>2026-08-08T19:31:32Z</time></trkpt>
<trkpt lat="35.114493" lon="-85.171803"><ele>222.5</ele><time>2026-08-08T19:31:34Z</time></trkpt>
<trkpt lat="35.114522" lon="-85.171804"><ele>222.5</ele><time>2026-08-08T19:31:36Z</time></trkpt>
<trkpt lat="35.11455" lon="-85.171807"><ele>222.8</ele><time>2026-08-08T19:31:38Z</time></trkpt>
<trkpt lat="35.114577" lon="-85.171817"><ele>223.4</ele><time>2026-08-08T19:31:40Z</time></trkpt>
<trkpt lat="35.114612" lon="-85.171839"><ele>223.7</ele><time>2026-08-08T19:31:43Z</time></trkpt>
<trkpt lat="35.114647" lon="-85.171859"><ele>222.8</ele><time>2026-08-08T19:31:46Z</time></trkpt>
<trkpt lat="35.114682" lon="-85.17188"><ele>221.3</ele><time>2026-08-08T19:31:49Z</time></trkpt>
<trkpt lat="35.114709" lon="-85.171891"><ele>220.7</ele><time>2026-08-08T19:31:51Z</time></trkpt>
<trkpt lat="35.114748" lon="-85.17189"><ele>219.8</ele><time>2026-08-08T19:31:54Z</time></trkpt>
<trkpt lat="35.114781" lon="-85.171865"><ele>219.8</ele><time>2026-08-08T19:31:57Z</time></trkpt>
<trkpt lat="35.11481" lon="-85.171839"><ele>219.2</ele><time>2026-08-08T19:32:00Z</time></trkpt>
<trkpt lat="35.114835" lon="-85.171824"><ele>219.5</ele><time>2026-08-08T19:32:02Z</time></trkpt>
<trkpt lat="35.114861" lon="-85.171802"><ele>219.5</ele><time>2026-08-08T19:32:04Z</time></trkpt>
<trkpt lat="35.114887" lon="-85.17178"><ele>220.7</ele><time>2026-08-08T19:32:06Z</time></trkpt>
<trkpt lat="35.114915" lon="-85.171759"><ele>221.3</ele><time>2026-08-08T19:32:08Z</time></trkpt>
<trkpt lat="35.114948" lon="-85.171738"><ele>220.4</ele><time>2026-08-08T19:32:10Z</time></trkpt>
<trkpt lat="35.114973" lon="-85.171713"><ele>219.5</ele><time>2026-08-08T19:32:12Z</time></trkpt>
<trkpt lat="35.115003" lon="-85.171684"><ele>221.6</ele><time>2026-08-08T19:32:14Z</time></trkpt>
<trkpt lat="35.115038" lon="-85.171674"><ele>221.9</ele><time>2026-08-08T19:32:17Z</time></trkpt>
<trkpt lat="35.11509" lon="-85.171659"><ele>222.5</ele><time>2026-08-08T19:32:18Z</time></trkpt>
<trkpt lat="35.115102" lon="-85.171618"><ele>221.9</ele><time>2026-08-08T19:32:22Z</time></trkpt>
<trkpt lat="35.115114" lon="-85.171587"><ele>221.6</ele><time>2026-08-08T19:32:25Z</time></trkpt>
<trkpt lat="35.115136" lon="-85.171568"><ele>220.7</ele><time>2026-08-08T19:32:28Z</time></trkpt>
<trkpt lat="35.115167" lon="-85.171551"><ele>218.2</ele><time>2026-08-08T19:32:31Z</time></trkpt>
<trkpt lat="35.115194" lon="-85.171518"><ele>216.4</ele><time>2026-08-08T19:32:34Z</time></trkpt>
<trkpt lat="35.115216" lon="-85.17148"><ele>217.6</ele><time>2026-08-08T19:32:37Z</time></trkpt>
<trkpt lat="35.115229" lon="-85.171449"><ele>217.3</ele><time>2026-08-08T19:32:39Z</time></trkpt>
<trkpt lat="35.115256" lon="-85.171414"><ele>217.0</ele><time>2026-08-08T19:32:42Z</time></trkpt>
<trkpt lat="35.115277" lon="-85.171385"><ele>217.3</ele><time>2026-08-08T19:32:45Z</time></trkpt>
<trkpt lat="35.115311" lon="-85.171372"><ele>216.4</ele><time>2026-08-08T19:32:48Z</time></trkpt>
<trkpt lat="35.115341" lon="-85.17139"><ele>217.0</ele><time>2026-08-08T19:32:51Z</time></trkpt>
<trkpt lat="35.115367" lon="-85.171367"><ele>216.4</ele><time>2026-08-08T19:32:54Z</time></trkpt>
<trkpt lat="35.115381" lon="-85.17133"><ele>215.8</ele><time>2026-08-08T19:32:57Z</time></trkpt>
<trkpt lat="35.115405" lon="-85.171301"><ele>214.9</ele><time>2026-08-08T19:33:00Z</time></trkpt>
<trkpt lat="35.115428" lon="-85.171273"><ele>213.7</ele><time>2026-08-08T19:33:03Z</time></trkpt>
<trkpt lat="35.115452" lon="-85.171243"><ele>213.4</ele><time>2026-08-08T19:33:06Z</time></trkpt>
<trkpt lat="35.115477" lon="-85.171225"><ele>214.9</ele><time>2026-08-08T19:33:08Z</time></trkpt>
<trkpt lat="35.115503" lon="-85.171209"><ele>214.6</ele><time>2026-08-08T19:33:10Z</time></trkpt>
<trkpt lat="35.115528" lon="-85.17119"><ele>213.7</ele><time>2026-08-08T19:33:12Z</time></trkpt>
<trkpt lat="35.115553" lon="-85.171169"><ele>214.0</ele><time>2026-08-08T19:33:14Z</time></trkpt>
<trkpt lat="35.115586" lon="-85.171143"><ele>214.9</ele><time>2026-08-08T19:33:17Z</time></trkpt>
<trkpt lat="35.115612" lon="-85.171124"><ele>214.3</ele><time>2026-08-08T19:33:19Z</time></trkpt>
<trkpt lat="35.115631" lon="-85.171097"><ele>215.2</ele><time>2026-08-08T19:33:21Z</time></trkpt>
<trkpt lat="35.115652" lon="-85.171069"><ele>213.4</ele><time>2026-08-08T19:33:23Z</time></trkpt>
<trkpt lat="35.115662" lon="-85.171037"><ele>213.4</ele><time>2026-08-08T19:33:25Z</time></trkpt>
<trkpt lat="35.115675" lon="-85.170989"><ele>213.4</ele><time>2026-08-08T19:33:28Z</time></trkpt>
<trkpt lat="35.115688" lon="-85.170956"><ele>214.3</ele><time>2026-08-08T19:33:30Z</time></trkpt>
<trkpt lat="35.115716" lon="-85.170933"><ele>214.0</ele><time>2026-08-08T19:33:32Z</time></trkpt>
<trkpt lat="35.115725" lon="-85.170896"><ele>214.0</ele><time>2026-08-08T19:33:34Z</time></trkpt>
<trkpt lat="35.115736" lon="-85.170849"><ele>213.7</ele><time>2026-08-08T19:33:37Z</time></trkpt>
<trkpt lat="35.115745" lon="-85.170815"><ele>212.4</ele><time>2026-08-08T19:33:39Z</time></trkpt>
<trkpt lat="35.115757" lon="-85.170782"><ele>210.9</ele><time>2026-08-08T19:33:41Z</time></trkpt>
<trkpt lat="35.115772" lon="-85.170753"><ele>210.6</ele><time>2026-08-08T19:33:43Z</time></trkpt>
<trkpt lat="35.115777" lon="-85.170717"><ele>211.5</ele><time>2026-08-08T19:33:45Z</time></trkpt>
<trkpt lat="35.115789" lon="-85.170685"><ele>212.8</ele><time>2026-08-08T19:33:47Z</time></trkpt>
<trkpt lat="35.115804" lon="-85.170642"><ele>213.7</ele><time>2026-08-08T19:33:50Z</time></trkpt>
<trkpt lat="35.115815" lon="-85.170597"><ele>213.1</ele><time>2026-08-08T19:33:53Z</time></trkpt>
<trkpt lat="35.115825" lon="-85.170559"><ele>213.7</ele><time>2026-08-08T19:33:55Z</time></trkpt>
<trkpt lat="35.115838" lon="-85.170522"><ele>214.9</ele><time>2026-08-08T19:33:57Z</time></trkpt>
<trkpt lat="35.115858" lon="-85.170496"><ele>216.4</ele><time>2026-08-08T19:33:59Z</time></trkpt>
<trkpt lat="35.115881" lon="-85.170476"><ele>216.7</ele><time>2026-08-08T19:34:01Z</time></trkpt>
<trkpt lat="35.115903" lon="-85.170451"><ele>217.6</ele><time>2026-08-08T19:34:03Z</time></trkpt>
<trkpt lat="35.115913" lon="-85.170419"><ele>218.2</ele><time>2026-08-08T19:34:05Z</time></trkpt>
<trkpt lat="35.115918" lon="-85.170385"><ele>219.2</ele><time>2026-08-08T19:34:07Z</time></trkpt>
<trkpt lat="35.115936" lon="-85.170359"><ele>217.9</ele><time>2026-08-08T19:34:09Z</time></trkpt>
<trkpt lat="35.115964" lon="-85.170324"><ele>217.3</ele><time>2026-08-08T19:34:12Z</time></trkpt>
<trkpt lat="35.115983" lon="-85.170298"><ele>217.0</ele><time>2026-08-08T19:34:14Z</time></trkpt>
<trkpt lat="35.116002" lon="-85.170273"><ele>216.4</ele><time>2026-08-08T19:34:16Z</time></trkpt>
<trkpt lat="35.116026" lon="-85.170255"><ele>216.4</ele><time>2026-08-08T19:34:18Z</time></trkpt>
<trkpt lat="35.116051" lon="-85.17024"><ele>216.1</ele><time>2026-08-08T19:34:20Z</time></trkpt>
<trkpt lat="35.116086" lon="-85.170216"><ele>216.1</ele><time>2026-08-08T19:34:23Z</time></trkpt>
<trkpt lat="35.116107" lon="-85.17019"><ele>214.0</ele><time>2026-08-08T19:34:25Z</time></trkpt>
<trkpt lat="35.116132" lon="-85.170173"><ele>212.8</ele><time>2026-08-08T19:34:27Z</time></trkpt>
<trkpt lat="35.116156" lon="-85.170154"><ele>212.8</ele><time>2026-08-08T19:34:29Z</time></trkpt>
<trkpt lat="35.116173" lon="-85.170128"><ele>212.8</ele><time>2026-08-08T19:34:31Z</time></trkpt>
<trkpt lat="35.116203" lon="-85.170096"><ele>213.1</ele><time>2026-08-08T19:34:34Z</time></trkpt>
<trkpt lat="35.116225" lon="-85.170074"><ele>213.7</ele><time>2026-08-08T19:34:36Z</time></trkpt>
<trkpt lat="35.116255" lon="-85.170057"><ele>213.4</ele><time>2026-08-08T19:34:38Z</time></trkpt>
<trkpt lat="35.116282" lon="-85.170046"><ele>213.7</ele><time>2026-08-08T19:34:40Z</time></trkpt>
<trkpt lat="35.116321" lon="-85.170037"><ele>214.6</ele><time>2026-08-08T19:34:43Z</time></trkpt>
<trkpt lat="35.116358" lon="-85.170023"><ele>214.6</ele><time>2026-08-08T19:34:46Z</time></trkpt>
<trkpt lat="35.116384" lon="-85.169983"><ele>214.9</ele><time>2026-08-08T19:34:49Z</time></trkpt>
<trkpt lat="35.11641" lon="-85.169947"><ele>215.2</ele><time>2026-08-08T19:34:52Z</time></trkpt>
<trkpt lat="35.116441" lon="-85.169933"><ele>216.4</ele><time>2026-08-08T19:34:54Z</time></trkpt>
<trkpt lat="35.116468" lon="-85.169918"><ele>217.0</ele><time>2026-08-08T19:34:56Z</time></trkpt>
<trkpt lat="35.116498" lon="-85.169893"><ele>216.4</ele><time>2026-08-08T19:34:59Z</time></trkpt>
<trkpt lat="35.116525" lon="-85.169859"><ele>217.0</ele><time>2026-08-08T19:35:02Z</time></trkpt>
<trkpt lat="35.116547" lon="-85.169836"><ele>216.7</ele><time>2026-08-08T19:35:04Z</time></trkpt>
<trkpt lat="35.116574" lon="-85.169823"><ele>217.3</ele><time>2026-08-08T19:35:06Z</time></trkpt>
<trkpt lat="35.116608" lon="-85.169805"><ele>217.3</ele><time>2026-08-08T19:35:09Z</time></trkpt>
<trkpt lat="35.116641" lon="-85.169793"><ele>219.2</ele><time>2026-08-08T19:35:12Z</time></trkpt>
<trkpt lat="35.116665" lon="-85.169773"><ele>218.5</ele><time>2026-08-08T19:35:15Z</time></trkpt>
<trkpt lat="35.1167" lon="-85.169762"><ele>222.8</ele><time>2026-08-08T19:35:18Z</time></trkpt>
<trkpt lat="35.116733" lon="-85.169736"><ele>222.2</ele><time>2026-08-08T19:35:21Z</time></trkpt>
<trkpt lat="35.116767" lon="-85.169722"><ele>222.8</ele><time>2026-08-08T19:35:24Z</time></trkpt>
<trkpt lat="35.116804" lon="-85.169719"><ele>223.7</ele><time>2026-08-08T19:35:27Z</time></trkpt>
<trkpt lat="35.116844" lon="-85.169723"><ele>224.3</ele><time>2026-08-08T19:35:30Z</time></trkpt>
<trkpt lat="35.116885" lon="-85.169732"><ele>225.9</ele><time>2026-08-08T19:35:33Z</time></trkpt>
<trkpt lat="35.116913" lon="-85.169739"><ele>225.9</ele><time>2026-08-08T19:35:35Z</time></trkpt>
<trkpt lat="35.116943" lon="-85.169745"><ele>222.2</ele><time>2026-08-08T19:35:37Z</time></trkpt>
<trkpt lat="35.116974" lon="-85.169777"><ele>221.6</ele><time>2026-08-08T19:35:40Z</time></trkpt>
<trkpt lat="35.117001" lon="-85.169803"><ele>221.9</ele><time>2026-08-08T19:35:43Z</time></trkpt>
<trkpt lat="35.117025" lon="-85.169827"><ele>221.0</ele><time>2026-08-08T19:35:45Z</time></trkpt>
<trkpt lat="35.117047" lon="-85.169851"><ele>221.9</ele><time>2026-08-08T19:35:47Z</time></trkpt>
<trkpt lat="35.117081" lon="-85.169864"><ele>222.2</ele><time>2026-08-08T19:35:50Z</time></trkpt>
<trkpt lat="35.117118" lon="-85.169889"><ele>223.4</ele><time>2026-08-08T19:35:53Z</time></trkpt>
<trkpt lat="35.11714" lon="-85.169916"><ele>222.5</ele><time>2026-08-08T19:35:55Z</time></trkpt>
<trkpt lat="35.11717" lon="-85.169937"><ele>222.8</ele><time>2026-08-08T19:35:58Z</time></trkpt>
<trkpt lat="35.117199" lon="-85.169957"><ele>225.6</ele><time>2026-08-08T19:36:01Z</time></trkpt>
<trkpt lat="35.117239" lon="-85.169958"><ele>225.6</ele><time>2026-08-08T19:36:04Z</time></trkpt>
<trkpt lat="35.117274" lon="-85.16996"><ele>224.6</ele><time>2026-08-08T19:36:06Z</time></trkpt>
<trkpt lat="35.117307" lon="-85.169951"><ele>225.2</ele><time>2026-08-08T19:36:08Z</time></trkpt>
<trkpt lat="35.117308" lon="-85.169903"><ele>224.6</ele><time>2026-08-08T19:36:11Z</time></trkpt>
<trkpt lat="35.11729" lon="-85.169864"><ele>225.6</ele><time>2026-08-08T19:36:14Z</time></trkpt>
<trkpt lat="35.117267" lon="-85.169841"><ele>226.5</ele><time>2026-08-08T19:36:16Z</time></trkpt>
<trkpt lat="35.117241" lon="-85.169817"><ele>228.6</ele><time>2026-08-08T19:36:18Z</time></trkpt>
<trkpt lat="35.117215" lon="-85.169801"><ele>228.6</ele><time>2026-08-08T19:36:20Z</time></trkpt>
<trkpt lat="35.117182" lon="-85.169782"><ele>228.6</ele><time>2026-08-08T19:36:23Z</time></trkpt>
<trkpt lat="35.117154" lon="-85.169766"><ele>229.5</ele><time>2026-08-08T19:36:25Z</time></trkpt>
<trkpt lat="35.117126" lon="-85.169752"><ele>231.3</ele><time>2026-08-08T19:36:27Z</time></trkpt>
<trkpt lat="35.117089" lon="-85.16973"><ele>229.5</ele><time>2026-08-08T19:36:30Z</time></trkpt>
<trkpt lat="35.117059" lon="-85.169721"><ele>226.5</ele><time>2026-08-08T19:36:32Z</time></trkpt>
<trkpt lat="35.117035" lon="-85.169704"><ele>226.8</ele><time>2026-08-08T19:36:34Z</time></trkpt>
<trkpt lat="35.117013" lon="-85.169663"><ele>227.1</ele><time>2026-08-08T19:36:37Z</time></trkpt>
<trkpt lat="35.117" lon="-85.16963"><ele>226.2</ele><time>2026-08-08T19:36:39Z</time></trkpt>
<trkpt lat="35.116977" lon="-85.169607"><ele>226.2</ele><time>2026-08-08T19:36:41Z</time></trkpt>
<trkpt lat="35.116955" lon="-85.169587"><ele>226.5</ele><time>2026-08-08T19:36:43Z</time></trkpt>
<trkpt lat="35.116939" lon="-85.169552"><ele>227.4</ele><time>2026-08-08T19:36:46Z</time></trkpt>
<trkpt lat="35.116938" lon="-85.169515"><ele>228.3</ele><time>2026-08-08T19:36:48Z</time></trkpt>
<trkpt lat="35.116963" lon="-85.169472"><ele>227.4</ele><time>2026-08-08T19:36:51Z</time></trkpt>
<trkpt lat="35.116993" lon="-85.169455"><ele>227.4</ele><time>2026-08-08T19:36:53Z</time></trkpt>
<trkpt lat="35.117031" lon="-85.169456"><ele>226.5</ele><time>2026-08-08T19:36:56Z</time></trkpt>
<trkpt lat="35.117063" lon="-85.169469"><ele>226.2</ele><time>2026-08-08T19:36:59Z</time></trkpt>
<trkpt lat="35.117094" lon="-85.169504"><ele>226.5</ele><time>2026-08-08T19:37:02Z</time></trkpt>
<trkpt lat="35.117117" lon="-85.169538"><ele>224.3</ele><time>2026-08-08T19:37:04Z</time></trkpt>
<trkpt lat="35.117142" lon="-85.169557"><ele>221.9</ele><time>2026-08-08T19:37:06Z</time></trkpt>
<trkpt lat="35.117173" lon="-85.169572"><ele>222.8</ele><time>2026-08-08T19:37:08Z</time></trkpt>
<trkpt lat="35.117205" lon="-85.169557"><ele>223.7</ele><time>2026-08-08T19:37:11Z</time></trkpt>
<trkpt lat="35.117233" lon="-85.169538"><ele>226.5</ele><time>2026-08-08T19:37:14Z</time></trkpt>
<trkpt lat="35.117263" lon="-85.169524"><ele>226.2</ele><time>2026-08-08T19:37:17Z</time></trkpt>
<trkpt lat="35.1173" lon="-85.169513"><ele>226.5</ele><time>2026-08-08T19:37:20Z</time></trkpt>
<trkpt lat="35.117337" lon="-85.169505"><ele>225.9</ele><time>2026-08-08T19:37:23Z</time></trkpt>
<trkpt lat="35.117378" lon="-85.169506"><ele>224.3</ele><time>2026-08-08T19:37:26Z</time></trkpt>
<trkpt lat="35.117406" lon="-85.169514"><ele>224.3</ele><time>2026-08-08T19:37:28Z</time></trkpt>
<trkpt lat="35.117434" lon="-85.169501"><ele>224.3</ele><time>2026-08-08T19:37:30Z</time></trkpt>
<trkpt lat="35.117469" lon="-85.169481"><ele>224.6</ele><time>2026-08-08T19:37:33Z</time></trkpt>
<trkpt lat="35.117492" lon="-85.169454"><ele>224.9</ele><time>2026-08-08T19:37:35Z</time></trkpt>
<trkpt lat="35.117514" lon="-85.169419"><ele>226.5</ele><time>2026-08-08T19:37:38Z</time></trkpt>
<trkpt lat="35.117536" lon="-85.169397"><ele>227.1</ele><time>2026-08-08T19:37:40Z</time></trkpt>
<trkpt lat="35.117564" lon="-85.169399"><ele>227.4</ele><time>2026-08-08T19:37:42Z</time></trkpt>
<trkpt lat="35.117602" lon="-85.169406"><ele>226.5</ele><time>2026-08-08T19:37:45Z</time></trkpt>
<trkpt lat="35.117636" lon="-85.169419"><ele>226.5</ele><time>2026-08-08T19:37:48Z</time></trkpt>
<trkpt lat="35.117669" lon="-85.169445"><ele>224.0</ele><time>2026-08-08T19:37:52Z</time></trkpt>
<trkpt lat="35.117704" lon="-85.16945"><ele>224.6</ele><time>2026-08-08T19:37:55Z</time></trkpt>
<trkpt lat="35.117735" lon="-85.169429"><ele>224.3</ele><time>2026-08-08T19:37:58Z</time></trkpt>
<trkpt lat="35.11776" lon="-85.169405"><ele>224.3</ele><time>2026-08-08T19:38:01Z</time></trkpt>
<trkpt lat="35.117797" lon="-85.169395"><ele>224.9</ele><time>2026-08-08T19:38:04Z</time></trkpt>
<trkpt lat="35.117823" lon="-85.169411"><ele>225.9</ele><time>2026-08-08T19:38:06Z</time></trkpt>
<trkpt lat="35.117848" lon="-85.169431"><ele>226.8</ele><time>2026-08-08T19:38:08Z</time></trkpt>
<trkpt lat="35.117876" lon="-85.16946"><ele>225.9</ele><time>2026-08-08T19:38:11Z</time></trkpt>
<trkpt lat="35.117909" lon="-85.169485"><ele>225.9</ele><time>2026-08-08T19:38:14Z</time></trkpt>
<trkpt lat="35.117949" lon="-85.169484"><ele>226.2</ele><time>2026-08-08T19:38:17Z</time></trkpt>
<trkpt lat="35.117977" lon="-85.169485"><ele>226.8</ele><time>2026-08-08T19:38:19Z</time></trkpt>
<trkpt lat="35.118004" lon="-85.169477"><ele>225.9</ele><time>2026-08-08T19:38:21Z</time></trkpt>
<trkpt lat="35.11804" lon="-85.169478"><ele>228.3</ele><time>2026-08-08T19:38:23Z</time></trkpt>
<trkpt lat="35.11807" lon="-85.169475"><ele>228.3</ele><time>2026-08-08T19:38:25Z</time></trkpt>
<trkpt lat="35.118102" lon="-85.169475"><ele>229.8</ele><time>2026-08-08T19:38:27Z</time></trkpt>
<trkpt lat="35.11813" lon="-85.169478"><ele>229.5</ele><time>2026-08-08T19:38:29Z</time></trkpt>
<trkpt lat="35.118161" lon="-85.169502"><ele>229.5</ele><time>2026-08-08T19:38:32Z</time></trkpt>
<trkpt lat="35.118191" lon="-85.169527"><ele>228.9</ele><time>2026-08-08T19:38:35Z</time></trkpt>
<trkpt lat="35.118224" lon="-85.169527"><ele>229.5</ele><time>2026-08-08T19:38:38Z</time></trkpt>
<trkpt lat="35.118253" lon="-85.169522"><ele>229.5</ele><time>2026-08-08T19:38:40Z</time></trkpt>
<trkpt lat="35.118283" lon="-85.169514"><ele>230.1</ele><time>2026-08-08T19:38:42Z</time></trkpt>
<trkpt lat="35.118321" lon="-85.169499"><ele>230.4</ele><time>2026-08-08T19:38:45Z</time></trkpt>
<trkpt lat="35.118335" lon="-85.169464"><ele>229.2</ele><time>2026-08-08T19:38:47Z</time></trkpt>
<trkpt lat="35.118336" lon="-85.16943"><ele>228.0</ele><time>2026-08-08T19:38:49Z</time></trkpt>
<trkpt lat="35.118348" lon="-85.169384"><ele>226.5</ele><time>2026-08-08T19:38:52Z</time></trkpt>
<trkpt lat="35.118368" lon="-85.169354"><ele>227.4</ele><time>2026-08-08T19:38:54Z</time></trkpt>
<trkpt lat="35.118396" lon="-85.169337"><ele>227.1</ele><time>2026-08-08T19:38:56Z</time></trkpt>
<trkpt lat="35.118425" lon="-85.169337"><ele>226.8</ele><time>2026-08-08T19:38:58Z</time></trkpt>
<trkpt lat="35.118449" lon="-85.169366"><ele>226.5</ele><time>2026-08-08T19:39:01Z</time></trkpt>
<trkpt lat="35.11847" lon="-85.169406"><ele>226.2</ele><time>2026-08-08T19:39:04Z</time></trkpt>
<trkpt lat="35.118497" lon="-85.169429"><ele>228.6</ele><time>2026-08-08T19:39:07Z</time></trkpt>
<trkpt lat="35.118521" lon="-85.169464"><ele>229.8</ele><time>2026-08-08T19:39:10Z</time></trkpt>
<trkpt lat="35.118547" lon="-85.169491"><ele>230.7</ele><time>2026-08-08T19:39:13Z</time></trkpt>
<trkpt lat="35.118572" lon="-85.169528"><ele>232.3</ele><time>2026-08-08T19:39:16Z</time></trkpt>
<trkpt lat="35.118589" lon="-85.169567"><ele>234.4</ele><time>2026-08-08T19:39:19Z</time></trkpt>
<trkpt lat="35.118599" lon="-85.16961"><ele>235.6</ele><time>2026-08-08T19:39:22Z</time></trkpt>
<trkpt lat="35.118608" lon="-85.169655"><ele>235.9</ele><time>2026-08-08T19:39:25Z</time></trkpt>
<trkpt lat="35.118623" lon="-85.169691"><ele>238.7</ele><time>2026-08-08T19:39:28Z</time></trkpt>
<trkpt lat="35.118656" lon="-85.169709"><ele>238.4</ele><time>2026-08-08T19:39:31Z</time></trkpt>
<trkpt lat="35.118685" lon="-85.169711"><ele>236.8</ele><time>2026-08-08T19:39:33Z</time></trkpt>
<trkpt lat="35.118718" lon="-85.169709"><ele>235.6</ele><time>2026-08-08T19:39:35Z</time></trkpt>
<trkpt lat="35.118748" lon="-85.169706"><ele>235.3</ele><time>2026-08-08T19:39:37Z</time></trkpt>
<trkpt lat="35.118778" lon="-85.169707"><ele>233.8</ele><time>2026-08-08T19:39:39Z</time></trkpt>
<trkpt lat="35.118809" lon="-85.169715"><ele>234.4</ele><time>2026-08-08T19:39:41Z</time></trkpt>
<trkpt lat="35.118837" lon="-85.169719"><ele>234.1</ele><time>2026-08-08T19:39:43Z</time></trkpt>
<trkpt lat="35.118876" lon="-85.169709"><ele>235.6</ele><time>2026-08-08T19:39:46Z</time></trkpt>
<trkpt lat="35.118901" lon="-85.169697"><ele>235.6</ele><time>2026-08-08T19:39:48Z</time></trkpt>
<trkpt lat="35.118938" lon="-85.169674"><ele>234.1</ele><time>2026-08-08T19:39:51Z</time></trkpt>
<trkpt lat="35.118961" lon="-85.169655"><ele>232.3</ele><time>2026-08-08T19:39:53Z</time></trkpt>
<trkpt lat="35.118984" lon="-85.16963"><ele>231.6</ele><time>2026-08-08T19:39:55Z</time></trkpt>
<trkpt lat="35.11901" lon="-85.169611"><ele>232.0</ele><time>2026-08-08T19:39:57Z</time></trkpt>
<trkpt lat="35.11904" lon="-85.169595"><ele>231.3</ele><time>2026-08-08T19:39:59Z</time></trkpt>
<trkpt lat="35.119074" lon="-85.169595"><ele>232.6</ele><time>2026-08-08T19:40:01Z</time></trkpt>
<trkpt lat="35.119109" lon="-85.169583"><ele>233.8</ele><time>2026-08-08T19:40:03Z</time></trkpt>
<trkpt lat="35.119138" lon="-85.169552"><ele>233.5</ele><time>2026-08-08T19:40:06Z</time></trkpt>
<trkpt lat="35.119165" lon="-85.169541"><ele>234.4</ele><time>2026-08-08T19:40:08Z</time></trkpt>
<trkpt lat="35.119204" lon="-85.169534"><ele>235.9</ele><time>2026-08-08T19:40:11Z</time></trkpt>
<trkpt lat="35.119232" lon="-85.169526"><ele>235.6</ele><time>2026-08-08T19:40:13Z</time></trkpt>
<trkpt lat="35.119261" lon="-85.16952"><ele>235.0</ele><time>2026-08-08T19:40:15Z</time></trkpt>
<trkpt lat="35.119289" lon="-85.16951"><ele>235.6</ele><time>2026-08-08T19:40:17Z</time></trkpt>
<trkpt lat="35.119311" lon="-85.169476"><ele>235.3</ele><time>2026-08-08T19:40:19Z</time></trkpt>
<trkpt lat="35.119332" lon="-85.16945"><ele>235.0</ele><time>2026-08-08T19:40:21Z</time></trkpt>
<trkpt lat="35.119357" lon="-85.169431"><ele>232.9</ele><time>2026-08-08T19:40:23Z</time></trkpt>
<trkpt lat="35.119382" lon="-85.169415"><ele>233.2</ele><time>2026-08-08T19:40:25Z</time></trkpt>
<trkpt lat="35.1194" lon="-85.169373"><ele>233.5</ele><time>2026-08-08T19:40:28Z</time></trkpt>
<trkpt lat="35.119391" lon="-85.169334"><ele>234.1</ele><time>2026-08-08T19:40:30Z</time></trkpt>
<trkpt lat="35.119389" lon="-85.169293"><ele>236.5</ele><time>2026-08-08T19:40:32Z</time></trkpt>
<trkpt lat="35.119397" lon="-85.169259"><ele>234.4</ele><time>2026-08-08T19:40:34Z</time></trkpt>
<trkpt lat="35.119409" lon="-85.169225"><ele>233.5</ele><time>2026-08-08T19:40:36Z</time></trkpt>
<trkpt lat="35.119429" lon="-85.169188"><ele>231.3</ele><time>2026-08-08T19:40:39Z</time></trkpt>
<trkpt lat="35.119425" lon="-85.169148"><ele>233.2</ele><time>2026-08-08T19:40:41Z</time></trkpt>
<trkpt lat="35.119435" lon="-85.169116"><ele>232.3</ele><time>2026-08-08T19:40:44Z</time></trkpt>
<trkpt lat="35.119435" lon="-85.169064"><ele>230.1</ele><time>2026-08-08T19:40:48Z</time></trkpt>
<trkpt lat="35.119456" lon="-85.169038"><ele>229.2</ele><time>2026-08-08T19:40:50Z</time></trkpt>
<trkpt lat="35.119499" lon="-85.169052"><ele>232.6</ele><time>2026-08-08T19:40:52Z</time></trkpt>
<trkpt lat="35.119537" lon="-85.169062"><ele>232.6</ele><time>2026-08-08T19:40:55Z</time></trkpt>
<trkpt lat="35.119573" lon="-85.169059"><ele>232.9</ele><time>2026-08-08T19:40:58Z</time></trkpt>
<trkpt lat="35.119605" lon="-85.169044"><ele>232.6</ele><time>2026-08-08T19:41:01Z</time></trkpt>
<trkpt lat="35.119641" lon="-85.169025"><ele>231.3</ele><time>2026-08-08T19:41:04Z</time></trkpt>
<trkpt lat="35.119663" lon="-85.169003"><ele>230.7</ele><time>2026-08-08T19:41:06Z</time></trkpt>
<trkpt lat="35.119685" lon="-85.168977"><ele>231.0</ele><time>2026-08-08T19:41:08Z</time></trkpt>
<trkpt lat="35.1197" lon="-85.168941"><ele>230.7</ele><time>2026-08-08T19:41:10Z</time></trkpt>
<trkpt lat="35.119704" lon="-85.168899"><ele>228.6</ele><time>2026-08-08T19:41:12Z</time></trkpt>
<trkpt lat="35.119707" lon="-85.16886"><ele>226.8</ele><time>2026-08-08T19:41:14Z</time></trkpt>
<trkpt lat="35.119714" lon="-85.168817"><ele>226.8</ele><time>2026-08-08T19:41:17Z</time></trkpt>
<trkpt lat="35.119731" lon="-85.168779"><ele>226.5</ele><time>2026-08-08T19:41:20Z</time></trkpt>
<trkpt lat="35.119759" lon="-85.168761"><ele>225.2</ele><time>2026-08-08T19:41:23Z</time></trkpt>
<trkpt lat="35.119769" lon="-85.168762"><ele>226.2</ele><time>2026-08-08T19:41:26Z</time></trkpt>
<trkpt lat="35.119767" lon="-85.16876"><ele>227.7</ele><time>2026-08-08T19:41:27Z</time></trkpt>
<trkpt lat="35.119767" lon="-85.168759"><ele>227.7</ele><time>2026-08-08T19:41:31Z</time></trkpt>
<trkpt lat="35.119769" lon="-85.168763"><ele>228.0</ele><time>2026-08-08T19:41:32Z</time></trkpt>
<trkpt lat="35.119769" lon="-85.168764"><ele>228.0</ele><time>2026-08-08T19:41:33Z</time></trkpt>
<trkpt lat="35.119772" lon="-85.168766"><ele>227.7</ele><time>2026-08-08T19:41:34Z</time></trkpt>
<trkpt lat="35.1198" lon="-85.16878"><ele>229.5</ele><time>2026-08-08T19:41:38Z</time></trkpt>
<trkpt lat="35.119836" lon="-85.168792"><ele>229.5</ele><time>2026-08-08T19:41:43Z</time></trkpt>
<trkpt lat="35.119858" lon="-85.168772"><ele>228.3</ele><time>2026-08-08T19:41:46Z</time></trkpt>
<trkpt lat="35.119891" lon="-85.168752"><ele>228.3</ele><time>2026-08-08T19:41:50Z</time></trkpt>
<trkpt lat="35.119929" lon="-85.16875"><ele>229.5</ele><time>2026-08-08T19:41:53Z</time></trkpt>
<trkpt lat="35.119964" lon="-85.168761"><ele>232.9</ele><time>2026-08-08T19:41:56Z</time></trkpt>
<trkpt lat="35.120003" lon="-85.168766"><ele>232.9</ele><time>2026-08-08T19:41:59Z</time></trkpt>
<trkpt lat="35.120043" lon="-85.168748"><ele>230.1</ele><time>2026-08-08T19:42:02Z</time></trkpt>
<trkpt lat="35.120068" lon="-85.168734"><ele>228.9</ele><time>2026-08-08T19:42:04Z</time></trkpt>
<trkpt lat="35.120097" lon="-85.168717"><ele>228.0</ele><time>2026-08-08T19:42:06Z</time></trkpt>
<trkpt lat="35.120127" lon="-85.16871"><ele>228.6</ele><time>2026-08-08T19:42:08Z</time></trkpt>
<trkpt lat="35.120157" lon="-85.16869"><ele>227.1</ele><time>2026-08-08T19:42:10Z</time></trkpt>
<trkpt lat="35.12018" lon="-85.168667"><ele>228.0</ele><time>2026-08-08T19:42:12Z</time></trkpt>
<trkpt lat="35.120192" lon="-85.168634"><ele>227.7</ele><time>2026-08-08T19:42:14Z</time></trkpt>
<trkpt lat="35.120202" lon="-85.168601"><ele>226.8</ele><time>2026-08-08T19:42:16Z</time></trkpt>
<trkpt lat="35.12023" lon="-85.168576"><ele>228.0</ele><time>2026-08-08T19:42:19Z</time></trkpt>
<trkpt lat="35.120252" lon="-85.168542"><ele>229.2</ele><time>2026-08-08T19:42:22Z</time></trkpt>
<trkpt lat="35.120265" lon="-85.168512"><ele>228.0</ele><time>2026-08-08T19:42:24Z</time></trkpt>
<trkpt lat="35.120281" lon="-85.168469"><ele>228.3</ele><time>2026-08-08T19:42:27Z</time></trkpt>
<trkpt lat="35.120289" lon="-85.168437"><ele>228.6</ele><time>2026-08-08T19:42:29Z</time></trkpt>
<trkpt lat="35.120292" lon="-85.168394"><ele>230.7</ele><time>2026-08-08T19:42:32Z</time></trkpt>
<trkpt lat="35.120303" lon="-85.16835"><ele>231.3</ele><time>2026-08-08T19:42:35Z</time></trkpt>
<trkpt lat="35.120303" lon="-85.168304"><ele>230.7</ele><time>2026-08-08T19:42:38Z</time></trkpt>
<trkpt lat="35.12032" lon="-85.168272"><ele>229.5</ele><time>2026-08-08T19:42:41Z</time></trkpt>
<trkpt lat="35.120351" lon="-85.168251"><ele>228.3</ele><time>2026-08-08T19:42:44Z</time></trkpt>
<trkpt lat="35.120376" lon="-85.168236"><ele>228.6</ele><time>2026-08-08T19:42:46Z</time></trkpt>
<trkpt lat="35.120403" lon="-85.168229"><ele>229.8</ele><time>2026-08-08T19:42:48Z</time></trkpt>
<trkpt lat="35.120434" lon="-85.168221"><ele>230.1</ele><time>2026-08-08T19:42:50Z</time></trkpt>
<trkpt lat="35.120473" lon="-85.168215"><ele>231.0</ele><time>2026-08-08T19:42:53Z</time></trkpt>
<trkpt lat="35.1205" lon="-85.168218"><ele>228.9</ele><time>2026-08-08T19:42:55Z</time></trkpt>
<trkpt lat="35.120533" lon="-85.168235"><ele>228.6</ele><time>2026-08-08T19:42:57Z</time></trkpt>
<trkpt lat="35.120568" lon="-85.168247"><ele>227.7</ele><time>2026-08-08T19:42:59Z</time></trkpt>
<trkpt lat="35.120596" lon="-85.16825"><ele>227.7</ele><time>2026-08-08T19:43:01Z</time></trkpt>
<trkpt lat="35.120624" lon="-85.168255"><ele>228.0</ele><time>2026-08-08T19:43:03Z</time></trkpt>
<trkpt lat="35.120652" lon="-85.168261"><ele>229.2</ele><time>2026-08-08T19:43:05Z</time></trkpt>
<trkpt lat="35.120694" lon="-85.16826"><ele>229.5</ele><time>2026-08-08T19:43:08Z</time></trkpt>
<trkpt lat="35.120724" lon="-85.168268"><ele>226.8</ele><time>2026-08-08T19:43:10Z</time></trkpt>
<trkpt lat="35.120754" lon="-85.168274"><ele>225.9</ele><time>2026-08-08T19:43:12Z</time></trkpt>
<trkpt lat="35.120791" lon="-85.168288"><ele>226.5</ele><time>2026-08-08T19:43:15Z</time></trkpt>
<trkpt lat="35.120829" lon="-85.1683"><ele>228.3</ele><time>2026-08-08T19:43:18Z</time></trkpt>
<trkpt lat="35.120855" lon="-85.168289"><ele>227.7</ele><time>2026-08-08T19:43:20Z</time></trkpt>
<trkpt lat="35.120874" lon="-85.168262"><ele>228.0</ele><time>2026-08-08T19:43:22Z</time></trkpt>
<trkpt lat="35.120901" lon="-85.168234"><ele>228.6</ele><time>2026-08-08T19:43:25Z</time></trkpt>
<trkpt lat="35.120921" lon="-85.168205"><ele>225.9</ele><time>2026-08-08T19:43:27Z</time></trkpt>
<trkpt lat="35.120919" lon="-85.168155"><ele>225.2</ele><time>2026-08-08T19:43:30Z</time></trkpt>
<trkpt lat="35.120899" lon="-85.168127"><ele>226.5</ele><time>2026-08-08T19:43:32Z</time></trkpt>
<trkpt lat="35.120873" lon="-85.168107"><ele>225.2</ele><time>2026-08-08T19:43:34Z</time></trkpt>
<trkpt lat="35.120845" lon="-85.1681"><ele>226.8</ele><time>2026-08-08T19:43:36Z</time></trkpt>
<trkpt lat="35.120817" lon="-85.168094"><ele>227.1</ele><time>2026-08-08T19:43:38Z</time></trkpt>
<trkpt lat="35.120788" lon="-85.168097"><ele>229.2</ele><time>2026-08-08T19:43:40Z</time></trkpt>
<trkpt lat="35.120758" lon="-85.168101"><ele>228.3</ele><time>2026-08-08T19:43:42Z</time></trkpt>
<trkpt lat="35.120731" lon="-85.168111"><ele>227.1</ele><time>2026-08-08T19:43:44Z</time></trkpt>
<trkpt lat="35.120703" lon="-85.16812"><ele>229.2</ele><time>2026-08-08T19:43:46Z</time></trkpt>
<trkpt lat="35.120662" lon="-85.168121"><ele>229.5</ele><time>2026-08-08T19:43:49Z</time></trkpt>
<trkpt lat="35.120636" lon="-85.168105"><ele>228.9</ele><time>2026-08-08T19:43:51Z</time></trkpt>
<trkpt lat="35.120607" lon="-85.168077"><ele>227.1</ele><time>2026-08-08T19:43:54Z</time></trkpt>
<trkpt lat="35.120578" lon="-85.168044"><ele>227.1</ele><time>2026-08-08T19:43:57Z</time></trkpt>
<trkpt lat="35.120559" lon="-85.168018"><ele>227.7</ele><time>2026-08-08T19:43:59Z</time></trkpt>
<trkpt lat="35.120532" lon="-85.16801"><ele>228.0</ele><time>2026-08-08T19:44:01Z</time></trkpt>
<trkpt lat="35.120491" lon="-85.168005"><ele>231.0</ele><time>2026-08-08T19:44:04Z</time></trkpt>
<trkpt lat="35.120455" lon="-85.168002"><ele>233.2</ele><time>2026-08-08T19:44:07Z</time></trkpt>
<trkpt lat="35.120418" lon="-85.168"><ele>232.3</ele><time>2026-08-08T19:44:10Z</time></trkpt>
<trkpt lat="35.12038" lon="-85.167999"><ele>232.0</ele><time>2026-08-08T19:44:13Z</time></trkpt>
<trkpt lat="35.120342" lon="-85.168016"><ele>231.6</ele><time>2026-08-08T19:44:16Z</time></trkpt>
<trkpt lat="35.120311" lon="-85.168023"><ele>231.3</ele><time>2026-08-08T19:44:18Z</time></trkpt>
<trkpt lat="35.120284" lon="-85.168032"><ele>229.8</ele><time>2026-08-08T19:44:20Z</time></trkpt>
<trkpt lat="35.120256" lon="-85.168034"><ele>230.7</ele><time>2026-08-08T19:44:22Z</time></trkpt>
<trkpt lat="35.120228" lon="-85.168028"><ele>232.3</ele><time>2026-08-08T19:44:24Z</time></trkpt>
<trkpt lat="35.120196" lon="-85.168039"><ele>233.2</ele><time>2026-08-08T19:44:27Z</time></trkpt>
<trkpt lat="35.120167" lon="-85.16804"><ele>234.7</ele><time>2026-08-08T19:44:29Z</time></trkpt>
<trkpt lat="35.120133" lon="-85.168051"><ele>235.0</ele><time>2026-08-08T19:44:32Z</time></trkpt>
<trkpt lat="35.120093" lon="-85.168063"><ele>236.2</ele><time>2026-08-08T19:44:35Z</time></trkpt>
<trkpt lat="35.12006" lon="-85.168084"><ele>235.6</ele><time>2026-08-08T19:44:38Z</time></trkpt>
<trkpt lat="35.120024" lon="-85.168093"><ele>236.5</ele><time>2026-08-08T19:44:41Z</time></trkpt>
<trkpt lat="35.119996" lon="-85.168122"><ele>236.5</ele><time>2026-08-08T19:44:44Z</time></trkpt>
<trkpt lat="35.119961" lon="-85.168146"><ele>235.9</ele><time>2026-08-08T19:44:47Z</time></trkpt>
<trkpt lat="35.119933" lon="-85.168177"><ele>234.7</ele><time>2026-08-08T19:44:50Z</time></trkpt>
<trkpt lat="35.119912" lon="-85.168215"><ele>232.9</ele><time>2026-08-08T19:44:53Z</time></trkpt>
<trkpt lat="35.119884" lon="-85.168244"><ele>232.3</ele><time>2026-08-08T19:44:56Z</time></trkpt>
<trkpt lat="35.119845" lon="-85.168244"><ele>233.2</ele><time>2026-08-08T19:44:59Z</time></trkpt>
<trkpt lat="35.119811" lon="-85.168228"><ele>232.9</ele><time>2026-08-08T19:45:02Z</time></trkpt>
<trkpt lat="35.119791" lon="-85.168187"><ele>231.0</ele><time>2026-08-08T19:45:05Z</time></trkpt>
<trkpt lat="35.119778" lon="-85.168142"><ele>231.6</ele><time>2026-08-08T19:45:08Z</time></trkpt>
<trkpt lat="35.119785" lon="-85.168108"><ele>231.0</ele><time>2026-08-08T19:45:10Z</time></trkpt>
<trkpt lat="35.119806" lon="-85.168064"><ele>228.9</ele><time>2026-08-08T19:45:13Z</time></trkpt>
<trkpt lat="35.119827" lon="-85.168028"><ele>227.7</ele><time>2026-08-08T19:45:16Z</time></trkpt>
<trkpt lat="35.119865" lon="-85.168015"><ele>228.3</ele><time>2026-08-08T19:45:19Z</time></trkpt>
<trkpt lat="35.119905" lon="-85.168006"><ele>226.5</ele><time>2026-08-08T19:45:22Z</time></trkpt>
<trkpt lat="35.119944" lon="-85.168001"><ele>226.5</ele><time>2026-08-08T19:45:25Z</time></trkpt>
<trkpt lat="35.119973" lon="-85.168009"><ele>228.9</ele><time>2026-08-08T19:45:27Z</time></trkpt>
<trkpt lat="35.120003" lon="-85.168034"><ele>229.5</ele><time>2026-08-08T19:45:30Z</time></trkpt>
<trkpt lat="35.120041" lon="-85.168047"><ele>230.1</ele><time>2026-08-08T19:45:33Z</time></trkpt>
<trkpt lat="35.120076" lon="-85.168041"><ele>232.0</ele><time>2026-08-08T19:45:36Z</time></trkpt>
<trkpt lat="35.120097" lon="-85.168018"><ele>231.0</ele><time>2026-08-08T19:45:38Z</time></trkpt>
<trkpt lat="35.12012" lon="-85.167993"><ele>229.8</ele><time>2026-08-08T19:45:40Z</time></trkpt>
<trkpt lat="35.120143" lon="-85.16797"><ele>229.2</ele><time>2026-08-08T19:45:42Z</time></trkpt>
<trkpt lat="35.120169" lon="-85.167956"><ele>228.0</ele><time>2026-08-08T19:45:44Z</time></trkpt>
<trkpt lat="35.120195" lon="-85.167938"><ele>227.7</ele><time>2026-08-08T19:45:46Z</time></trkpt>
<trkpt lat="35.120231" lon="-85.167918"><ele>228.6</ele><time>2026-08-08T19:45:49Z</time></trkpt>
<trkpt lat="35.120266" lon="-85.167903"><ele>228.9</ele><time>2026-08-08T19:45:52Z</time></trkpt>
<trkpt lat="35.120289" lon="-85.167882"><ele>226.8</ele><time>2026-08-08T19:45:54Z</time></trkpt>
<trkpt lat="35.120322" lon="-85.167858"><ele>228.3</ele><time>2026-08-08T19:45:57Z</time></trkpt>
<trkpt lat="35.120358" lon="-85.167862"><ele>228.3</ele><time>2026-08-08T19:46:00Z</time></trkpt>
<trkpt lat="35.120389" lon="-85.167856"><ele>227.7</ele><time>2026-08-08T19:46:02Z</time></trkpt>
<trkpt lat="35.120419" lon="-85.167857"><ele>227.7</ele><time>2026-08-08T19:46:04Z</time></trkpt>
<trkpt lat="35.120459" lon="-85.167855"><ele>229.8</ele><time>2026-08-08T19:46:07Z</time></trkpt>
<trkpt lat="35.120488" lon="-85.16786"><ele>231.6</ele><time>2026-08-08T19:46:09Z</time></trkpt>
<trkpt lat="35.120525" lon="-85.167871"><ele>233.2</ele><time>2026-08-08T19:46:12Z</time></trkpt>
<trkpt lat="35.120563" lon="-85.167878"><ele>233.2</ele><time>2026-08-08T19:46:15Z</time></trkpt>
<trkpt lat="35.120598" lon="-85.167868"><ele>232.3</ele><time>2026-08-08T19:46:18Z</time></trkpt>
<trkpt lat="35.120634" lon="-85.167843"><ele>231.6</ele><time>2026-08-08T19:46:21Z</time></trkpt>
<trkpt lat="35.120665" lon="-85.167821"><ele>232.9</ele><time>2026-08-08T19:46:24Z</time></trkpt>
<trkpt lat="35.120697" lon="-85.167808"><ele>232.3</ele><time>2026-08-08T19:46:27Z</time></trkpt>
<trkpt lat="35.120735" lon="-85.167804"><ele>232.9</ele><time>2026-08-08T19:46:30Z</time></trkpt>
<trkpt lat="35.120773" lon="-85.167805"><ele>233.5</ele><time>2026-08-08T19:46:33Z</time></trkpt>
<trkpt lat="35.12081" lon="-85.167798"><ele>234.1</ele><time>2026-08-08T19:46:36Z</time></trkpt>
<trkpt lat="35.120846" lon="-85.16779"><ele>234.1</ele><time>2026-08-08T19:46:39Z</time></trkpt>
<trkpt lat="35.120878" lon="-85.167777"><ele>233.5</ele><time>2026-08-08T19:46:42Z</time></trkpt>
<trkpt lat="35.1209" lon="-85.167755"><ele>231.3</ele><time>2026-08-08T19:46:44Z</time></trkpt>
<trkpt lat="35.120911" lon="-85.167719"><ele>230.4</ele><time>2026-08-08T19:46:46Z</time></trkpt>
<trkpt lat="35.120913" lon="-85.167684"><ele>230.1</ele><time>2026-08-08T19:46:48Z</time></trkpt>
<trkpt lat="35.120907" lon="-85.16765"><ele>229.5</ele><time>2026-08-08T19:46:50Z</time></trkpt>
<trkpt lat="35.120893" lon="-85.16762"><ele>230.7</ele><time>2026-08-08T19:46:52Z</time></trkpt>
<trkpt lat="35.12086" lon="-85.167591"><ele>232.0</ele><time>2026-08-08T19:46:55Z</time></trkpt>
<trkpt lat="35.120831" lon="-85.167588"><ele>231.0</ele><time>2026-08-08T19:46:57Z</time></trkpt>
<trkpt lat="35.120802" lon="-85.167589"><ele>231.6</ele><time>2026-08-08T19:46:59Z</time></trkpt>
<trkpt lat="35.120774" lon="-85.167595"><ele>232.3</ele><time>2026-08-08T19:47:01Z</time></trkpt>
<trkpt lat="35.120743" lon="-85.167596"><ele>232.0</ele><time>2026-08-08T19:47:03Z</time></trkpt>
<trkpt lat="35.120713" lon="-85.167585"><ele>234.1</ele><time>2026-08-08T19:47:05Z</time></trkpt>
<trkpt lat="35.120664" lon="-85.16756"><ele>235.3</ele><time>2026-08-08T19:47:06Z</time></trkpt>
<trkpt lat="35.120647" lon="-85.167532"><ele>234.7</ele><time>2026-08-08T19:47:09Z</time></trkpt>
<trkpt lat="35.120628" lon="-85.167482"><ele>236.8</ele><time>2026-08-08T19:47:11Z</time></trkpt>
<trkpt lat="35.120618" lon="-85.167441"><ele>237.1</ele><time>2026-08-08T19:47:14Z</time></trkpt>
<trkpt lat="35.120611" lon="-85.167404"><ele>238.7</ele><time>2026-08-08T19:47:17Z</time></trkpt>
<trkpt lat="35.120607" lon="-85.167367"><ele>239.6</ele><time>2026-08-08T19:47:20Z</time></trkpt>
<trkpt lat="35.120598" lon="-85.167333"><ele>239.6</ele><time>2026-08-08T19:47:23Z</time></trkpt>
<trkpt lat="35.120588" lon="-85.167293"><ele>237.4</ele><time>2026-08-08T19:47:27Z</time></trkpt>
<trkpt lat="35.120597" lon="-85.167251"><ele>236.8</ele><time>2026-08-08T19:47:30Z</time></trkpt>
<trkpt lat="35.12061" lon="-85.167221"><ele>237.7</ele><time>2026-08-08T19:47:32Z</time></trkpt>
<trkpt lat="35.120629" lon="-85.167184"><ele>237.4</ele><time>2026-08-08T19:47:35Z</time></trkpt>
<trkpt lat="35.120654" lon="-85.167152"><ele>235.9</ele><time>2026-08-08T19:47:38Z</time></trkpt>
<trkpt lat="35.120679" lon="-85.167123"><ele>235.0</ele><time>2026-08-08T19:47:41Z</time></trkpt>
<trkpt lat="35.120694" lon="-85.167093"><ele>235.3</ele><time>2026-08-08T19:47:43Z</time></trkpt>
<trkpt lat="35.120705" lon="-85.167061"><ele>235.9</ele><time>2026-08-08T19:47:45Z</time></trkpt>
<trkpt lat="35.12072" lon="-85.16703"><ele>235.6</ele><time>2026-08-08T19:47:47Z</time></trkpt>
<trkpt lat="35.120753" lon="-85.167005"><ele>235.0</ele><time>2026-08-08T19:47:50Z</time></trkpt>
<trkpt lat="35.120782" lon="-85.167007"><ele>234.4</ele><time>2026-08-08T19:47:52Z</time></trkpt>
<trkpt lat="35.120809" lon="-85.167025"><ele>234.1</ele><time>2026-08-08T19:47:55Z</time></trkpt>
<trkpt lat="35.120841" lon="-85.167053"><ele>234.7</ele><time>2026-08-08T19:47:58Z</time></trkpt>
<trkpt lat="35.120871" lon="-85.167082"><ele>233.2</ele><time>2026-08-08T19:48:01Z</time></trkpt>
<trkpt lat="35.120897" lon="-85.167111"><ele>232.6</ele><time>2026-08-08T19:48:04Z</time></trkpt>
<trkpt lat="35.120924" lon="-85.16715"><ele>232.0</ele><time>2026-08-08T19:48:07Z</time></trkpt>
<trkpt lat="35.120948" lon="-85.167186"><ele>231.0</ele><time>2026-08-08T19:48:10Z</time></trkpt>
<trkpt lat="35.120968" lon="-85.167211"><ele>230.4</ele><time>2026-08-08T19:48:12Z</time></trkpt>
<trkpt lat="35.120978" lon="-85.167243"><ele>230.4</ele><time>2026-08-08T19:48:14Z</time></trkpt>
<trkpt lat="35.120987" lon="-85.167275"><ele>229.8</ele><time>2026-08-08T19:48:16Z</time></trkpt>
<trkpt lat="35.121001" lon="-85.167306"><ele>230.4</ele><time>2026-08-08T19:48:18Z</time></trkpt>
<trkpt lat="35.121017" lon="-85.16735"><ele>231.0</ele><time>2026-08-08T19:48:21Z</time></trkpt>
<trkpt lat="35.121039" lon="-85.167389"><ele>232.0</ele><time>2026-08-08T19:48:24Z</time></trkpt>
<trkpt lat="35.12105" lon="-85.167422"><ele>231.6</ele><time>2026-08-08T19:48:26Z</time></trkpt>
<trkpt lat="35.12106" lon="-85.167454"><ele>231.0</ele><time>2026-08-08T19:48:28Z</time></trkpt>
<trkpt lat="35.12107" lon="-85.167491"><ele>231.3</ele><time>2026-08-08T19:48:30Z</time></trkpt>
<trkpt lat="35.121076" lon="-85.167524"><ele>229.5</ele><time>2026-08-08T19:48:32Z</time></trkpt>
<trkpt lat="35.121086" lon="-85.167556"><ele>228.3</ele><time>2026-08-08T19:48:34Z</time></trkpt>
<trkpt lat="35.12109" lon="-85.16759"><ele>227.4</ele><time>2026-08-08T19:48:36Z</time></trkpt>
<trkpt lat="35.121092" lon="-85.167626"><ele>227.4</ele><time>2026-08-08T19:48:38Z</time></trkpt>
<trkpt lat="35.121083" lon="-85.167673"><ele>228.6</ele><time>2026-08-08T19:48:41Z</time></trkpt>
<trkpt lat="35.121083" lon="-85.167717"><ele>228.3</ele><time>2026-08-08T19:48:44Z</time></trkpt>
<trkpt lat="35.12108" lon="-85.167764"><ele>229.2</ele><time>2026-08-08T19:48:47Z</time></trkpt>
<trkpt lat="35.121077" lon="-85.167815"><ele>230.1</ele><time>2026-08-08T19:48:50Z</time></trkpt>
<trkpt lat="35.121081" lon="-85.167864"><ele>230.1</ele><time>2026-08-08T19:48:53Z</time></trkpt>
<trkpt lat="35.121084" lon="-85.1679"><ele>229.2</ele><time>2026-08-08T19:48:55Z</time></trkpt>
<trkpt lat="35.12108" lon="-85.167935"><ele>228.9</ele><time>2026-08-08T19:48:57Z</time></trkpt>
<trkpt lat="35.121072" lon="-85.167972"><ele>228.3</ele><time>2026-08-08T19:48:59Z</time></trkpt>
<trkpt lat="35.121073" lon="-85.168008"><ele>228.0</ele><time>2026-08-08T19:49:01Z</time></trkpt>
<trkpt lat="35.121083" lon="-85.168056"><ele>228.0</ele><time>2026-08-08T19:49:04Z</time></trkpt>
<trkpt lat="35.121098" lon="-85.1681"><ele>229.5</ele><time>2026-08-08T19:49:07Z</time></trkpt>
<trkpt lat="35.121116" lon="-85.168127"><ele>229.5</ele><time>2026-08-08T19:49:09Z</time></trkpt>
<trkpt lat="35.121133" lon="-85.168155"><ele>229.5</ele><time>2026-08-08T19:49:11Z</time></trkpt>
<trkpt lat="35.121149" lon="-85.168184"><ele>229.2</ele><time>2026-08-08T19:49:13Z</time></trkpt>
<trkpt lat="35.121166" lon="-85.168212"><ele>230.4</ele><time>2026-08-08T19:49:15Z</time></trkpt>
<trkpt lat="35.121189" lon="-85.168241"><ele>228.9</ele><time>2026-08-08T19:49:18Z</time></trkpt>
<trkpt lat="35.121215" lon="-85.16827"><ele>229.8</ele><time>2026-08-08T19:49:21Z</time></trkpt>
<trkpt lat="35.121244" lon="-85.168293"><ele>230.4</ele><time>2026-08-08T19:49:24Z</time></trkpt>
<trkpt lat="35.121271" lon="-85.168315"><ele>230.1</ele><time>2026-08-08T19:49:27Z</time></trkpt>
<trkpt lat="35.121269" lon="-85.16831"><ele>229.8</ele><time>2026-08-08T19:49:28Z</time></trkpt>
<trkpt lat="35.121267" lon="-85.168309"><ele>229.8</ele><time>2026-08-08T19:49:34Z</time></trkpt>
<trkpt lat="35.121269" lon="-85.168305"><ele>230.4</ele><time>2026-08-08T19:49:35Z</time></trkpt>
<trkpt lat="35.121278" lon="-85.168266"><ele>228.6</ele><time>2026-08-08T19:49:39Z</time></trkpt>
<trkpt lat="35.121276" lon="-85.168265"><ele>227.7</ele><time>2026-08-08T19:49:40Z</time></trkpt>
<trkpt lat="35.121274" lon="-85.168264"><ele>227.7</ele><time>2026-08-08T19:49:49Z</time></trkpt>
<trkpt lat="35.121272" lon="-85.168262"><ele>228.0</ele><time>2026-08-08T19:49:50Z</time></trkpt>
<trkpt lat="35.121235" lon="-85.168284"><ele>232.3</ele><time>2026-08-08T19:49:54Z</time></trkpt>
<trkpt lat="35.121233" lon="-85.16832"><ele>233.8</ele><time>2026-08-08T19:49:58Z</time></trkpt>
<trkpt lat="35.121229" lon="-85.168365"><ele>230.7</ele><time>2026-08-08T19:50:01Z</time></trkpt>
<trkpt lat="35.121226" lon="-85.168412"><ele>229.5</ele><time>2026-08-08T19:50:06Z</time></trkpt>
<trkpt lat="35.121212" lon="-85.168449"><ele>227.4</ele><time>2026-08-08T19:50:09Z</time></trkpt>
<trkpt lat="35.121209" lon="-85.168487"><ele>227.1</ele><time>2026-08-08T19:50:12Z</time></trkpt>
<trkpt lat="35.121204" lon="-85.168527"><ele>226.5</ele><time>2026-08-08T19:50:16Z</time></trkpt>
<trkpt lat="35.121185" lon="-85.168553"><ele>227.1</ele><time>2026-08-08T19:50:19Z</time></trkpt>
<trkpt lat="35.12118" lon="-85.168592"><ele>227.1</ele><time>2026-08-08T19:50:22Z</time></trkpt>
<trkpt lat="35.121176" lon="-85.16863"><ele>228.9</ele><time>2026-08-08T19:50:24Z</time></trkpt>
<trkpt lat="35.121186" lon="-85.168672"><ele>227.7</ele><time>2026-08-08T19:50:26Z</time></trkpt>
<trkpt lat="35.121187" lon="-85.168716"><ele>226.2</ele><time>2026-08-08T19:50:29Z</time></trkpt>
<trkpt lat="35.121198" lon="-85.168762"><ele>225.6</ele><time>2026-08-08T19:50:32Z</time></trkpt>
<trkpt lat="35.1212" lon="-85.168715"><ele>221.9</ele><time>2026-08-08T19:50:33Z</time></trkpt>
<trkpt lat="35.121199" lon="-85.168697"><ele>221.9</ele><time>2026-08-08T19:50:37Z</time></trkpt>
<trkpt lat="35.121194" lon="-85.168694"><ele>222.2</ele><time>2026-08-08T19:50:38Z</time></trkpt>
<trkpt lat="35.121191" lon="-85.16869"><ele>220.7</ele><time>2026-08-08T19:50:39Z</time></trkpt>
<trkpt lat="35.121192" lon="-85.16869"><ele>221.0</ele><time>2026-08-08T19:50:40Z</time></trkpt>
<trkpt lat="35.1212" lon="-85.168693"><ele>222.2</ele><time>2026-08-08T19:50:42Z</time></trkpt>
<trkpt lat="35.121195" lon="-85.168705"><ele>221.0</ele><time>2026-08-08T19:50:43Z</time></trkpt>
<trkpt lat="35.12119" lon="-85.168751"><ele>222.2</ele><time>2026-08-08T19:50:47Z</time></trkpt>
<trkpt lat="35.121171" lon="-85.168789"><ele>222.5</ele><time>2026-08-08T19:50:49Z</time></trkpt>
<trkpt lat="35.121155" lon="-85.168824"><ele>222.8</ele><time>2026-08-08T19:50:51Z</time></trkpt>
<trkpt lat="35.121174" lon="-85.168862"><ele>223.1</ele><time>2026-08-08T19:50:53Z</time></trkpt>
<trkpt lat="35.121188" lon="-85.168904"><ele>224.9</ele><time>2026-08-08T19:50:55Z</time></trkpt>
<trkpt lat="35.121186" lon="-85.168945"><ele>225.6</ele><time>2026-08-08T19:50:57Z</time></trkpt>
<trkpt lat="35.121184" lon="-85.168982"><ele>226.8</ele><time>2026-08-08T19:50:59Z</time></trkpt>
<trkpt lat="35.121208" lon="-85.169006"><ele>228.6</ele><time>2026-08-08T19:51:02Z</time></trkpt>
<trkpt lat="35.121233" lon="-85.169034"><ele>228.6</ele><time>2026-08-08T19:51:05Z</time></trkpt>
<trkpt lat="35.121257" lon="-85.169071"><ele>229.8</ele><time>2026-08-08T19:51:08Z</time></trkpt>
<trkpt lat="35.121278" lon="-85.169094"><ele>229.2</ele><time>2026-08-08T19:51:10Z</time></trkpt>
<trkpt lat="35.121301" lon="-85.169115"><ele>226.8</ele><time>2026-08-08T19:51:12Z</time></trkpt>
<trkpt lat="35.121327" lon="-85.169136"><ele>227.4</ele><time>2026-08-08T19:51:14Z</time></trkpt>
<trkpt lat="35.12135" lon="-85.169157"><ele>226.8</ele><time>2026-08-08T19:51:16Z</time></trkpt>
<trkpt lat="35.121381" lon="-85.169168"><ele>226.5</ele><time>2026-08-08T19:51:18Z</time></trkpt>
<trkpt lat="35.121419" lon="-85.169173"><ele>225.9</ele><time>2026-08-08T19:51:21Z</time></trkpt>
<trkpt lat="35.121456" lon="-85.169189"><ele>225.2</ele><time>2026-08-08T19:51:24Z</time></trkpt>
<trkpt lat="35.121496" lon="-85.169199"><ele>224.3</ele><time>2026-08-08T19:51:27Z</time></trkpt>
<trkpt lat="35.121524" lon="-85.169186"><ele>225.2</ele><time>2026-08-08T19:51:29Z</time></trkpt>
<trkpt lat="35.121545" lon="-85.169163"><ele>223.7</ele><time>2026-08-08T19:51:31Z</time></trkpt>
<trkpt lat="35.121554" lon="-85.169125"><ele>220.1</ele><time>2026-08-08T19:51:33Z</time></trkpt>
<trkpt lat="35.121564" lon="-85.169089"><ele>218.2</ele><time>2026-08-08T19:51:35Z</time></trkpt>
<trkpt lat="35.121572" lon="-85.169054"><ele>216.4</ele><time>2026-08-08T19:51:37Z</time></trkpt>
<trkpt lat="35.121578" lon="-85.169005"><ele>216.7</ele><time>2026-08-08T19:51:40Z</time></trkpt>
<trkpt lat="35.121608" lon="-85.168974"><ele>217.9</ele><time>2026-08-08T19:51:43Z</time></trkpt>
<trkpt lat="35.121641" lon="-85.16898"><ele>217.9</ele><time>2026-08-08T19:51:45Z</time></trkpt>
<trkpt lat="35.121654" lon="-85.169012"><ele>218.8</ele><time>2026-08-08T19:51:47Z</time></trkpt>
<trkpt lat="35.121664" lon="-85.169048"><ele>220.1</ele><time>2026-08-08T19:51:49Z</time></trkpt>
<trkpt lat="35.121688" lon="-85.169087"><ele>217.9</ele><time>2026-08-08T19:51:52Z</time></trkpt>
<trkpt lat="35.121717" lon="-85.169094"><ele>217.9</ele><time>2026-08-08T19:51:55Z</time></trkpt>
<trkpt lat="35.121746" lon="-85.169104"><ele>215.5</ele><time>2026-08-08T19:51:57Z</time></trkpt>
<trkpt lat="35.121778" lon="-85.169121"><ele>216.1</ele><time>2026-08-08T19:52:00Z</time></trkpt>
<trkpt lat="35.121808" lon="-85.169138"><ele>217.6</ele><time>2026-08-08T19:52:03Z</time></trkpt>
<trkpt lat="35.121843" lon="-85.169144"><ele>219.5</ele><time>2026-08-08T19:52:07Z</time></trkpt>
<trkpt lat="35.12187" lon="-85.16916"><ele>220.1</ele><time>2026-08-08T19:52:09Z</time></trkpt>
<trkpt lat="35.12191" lon="-85.169173"><ele>221.9</ele><time>2026-08-08T19:52:12Z</time></trkpt>
<trkpt lat="35.12194" lon="-85.169175"><ele>221.3</ele><time>2026-08-08T19:52:14Z</time></trkpt>
<trkpt lat="35.121972" lon="-85.169171"><ele>218.5</ele><time>2026-08-08T19:52:16Z</time></trkpt>
<trkpt lat="35.122002" lon="-85.169177"><ele>217.0</ele><time>2026-08-08T19:52:18Z</time></trkpt>
<trkpt lat="35.122039" lon="-85.169188"><ele>219.2</ele><time>2026-08-08T19:52:21Z</time></trkpt>
<trkpt lat="35.122075" lon="-85.169206"><ele>219.5</ele><time>2026-08-08T19:52:24Z</time></trkpt>
<trkpt lat="35.122096" lon="-85.169229"><ele>221.0</ele><time>2026-08-08T19:52:26Z</time></trkpt>
<trkpt lat="35.122125" lon="-85.169237"><ele>220.7</ele><time>2026-08-08T19:52:28Z</time></trkpt>
<trkpt lat="35.122155" lon="-85.169276"><ele>217.6</ele><time>2026-08-08T19:52:31Z</time></trkpt>
<trkpt lat="35.12217" lon="-85.169315"><ele>217.0</ele><time>2026-08-08T19:52:33Z</time></trkpt>
<trkpt lat="35.122195" lon="-85.169349"><ele>216.4</ele><time>2026-08-08T19:52:36Z</time></trkpt>
<trkpt lat="35.122215" lon="-85.169388"><ele>213.4</ele><time>2026-08-08T19:52:39Z</time></trkpt>
<trkpt lat="35.122247" lon="-85.169412"><ele>214.0</ele><time>2026-08-08T19:52:42Z</time></trkpt>
<trkpt lat="35.122283" lon="-85.169434"><ele>214.6</ele><time>2026-08-08T19:52:45Z</time></trkpt>
<trkpt lat="35.122307" lon="-85.169452"><ele>214.6</ele><time>2026-08-08T19:52:47Z</time></trkpt>
<trkpt lat="35.12233" lon="-85.169473"><ele>215.5</ele><time>2026-08-08T19:52:49Z</time></trkpt>
<trkpt lat="35.122365" lon="-85.169493"><ele>216.1</ele><time>2026-08-08T19:52:52Z</time></trkpt>
<trkpt lat="35.122402" lon="-85.169502"><ele>216.1</ele><time>2026-08-08T19:52:55Z</time></trkpt>
<trkpt lat="35.12243" lon="-85.169485"><ele>215.8</ele><time>2026-08-08T19:52:57Z</time></trkpt>
<trkpt lat="35.122455" lon="-85.169466"><ele>215.5</ele><time>2026-08-08T19:52:59Z</time></trkpt>
<trkpt lat="35.122481" lon="-85.169452"><ele>215.5</ele><time>2026-08-08T19:53:01Z</time></trkpt>
<trkpt lat="35.122511" lon="-85.169438"><ele>217.3</ele><time>2026-08-08T19:53:03Z</time></trkpt>
<trkpt lat="35.122539" lon="-85.169417"><ele>219.8</ele><time>2026-08-08T19:53:05Z</time></trkpt>
<trkpt lat="35.122569" lon="-85.169414"><ele>220.1</ele><time>2026-08-08T19:53:07Z</time></trkpt>
<trkpt lat="35.122607" lon="-85.169417"><ele>217.6</ele><time>2026-08-08T19:53:10Z</time></trkpt>
<trkpt lat="35.122642" lon="-85.169423"><ele>217.0</ele><time>2026-08-08T19:53:13Z</time></trkpt>
<trkpt lat="35.12267" lon="-85.169431"><ele>216.4</ele><time>2026-08-08T19:53:15Z</time></trkpt>
<trkpt lat="35.122709" lon="-85.169448"><ele>216.7</ele><time>2026-08-08T19:53:18Z</time></trkpt>
<trkpt lat="35.122743" lon="-85.169477"><ele>218.2</ele><time>2026-08-08T19:53:21Z</time></trkpt>
<trkpt lat="35.122768" lon="-85.169512"><ele>217.9</ele><time>2026-08-08T19:53:24Z</time></trkpt>
<trkpt lat="35.122788" lon="-85.169535"><ele>217.6</ele><time>2026-08-08T19:53:26Z</time></trkpt>
<trkpt lat="35.122815" lon="-85.16957"><ele>216.4</ele><time>2026-08-08T19:53:29Z</time></trkpt>
<trkpt lat="35.122842" lon="-85.169599"><ele>216.1</ele><time>2026-08-08T19:53:32Z</time></trkpt>
<trkpt lat="35.122875" lon="-85.169625"><ele>214.9</ele><time>2026-08-08T19:53:35Z</time></trkpt>
<trkpt lat="35.122908" lon="-85.169648"><ele>214.3</ele><time>2026-08-08T19:53:38Z</time></trkpt>
<trkpt lat="35.122939" lon="-85.169664"><ele>214.3</ele><time>2026-08-08T19:53:41Z</time></trkpt>
<trkpt lat="35.122978" lon="-85.169683"><ele>214.9</ele><time>2026-08-08T19:53:44Z</time></trkpt>
<trkpt lat="35.123004" lon="-85.169694"><ele>213.7</ele><time>2026-08-08T19:53:46Z</time></trkpt>
<trkpt lat="35.123039" lon="-85.169711"><ele>212.8</ele><time>2026-08-08T19:53:49Z</time></trkpt>
<trkpt lat="35.123068" lon="-85.169713"><ele>212.8</ele><time>2026-08-08T19:53:51Z</time></trkpt>
<trkpt lat="35.123096" lon="-85.169713"><ele>211.5</ele><time>2026-08-08T19:53:53Z</time></trkpt>
<trkpt lat="35.123123" lon="-85.169705"><ele>210.9</ele><time>2026-08-08T19:53:55Z</time></trkpt>
<trkpt lat="35.123151" lon="-85.169691"><ele>210.6</ele><time>2026-08-08T19:53:57Z</time></trkpt>
<trkpt lat="35.123178" lon="-85.169679"><ele>210.3</ele><time>2026-08-08T19:53:59Z</time></trkpt>
<trkpt lat="35.12321" lon="-85.16966"><ele>210.9</ele><time>2026-08-08T19:54:02Z</time></trkpt>
<trkpt lat="35.123244" lon="-85.169634"><ele>214.3</ele><time>2026-08-08T19:54:05Z</time></trkpt>
<trkpt lat="35.123258" lon="-85.169604"><ele>214.0</ele><time>2026-08-08T19:54:07Z</time></trkpt>
<trkpt lat="35.123289" lon="-85.169581"><ele>214.6</ele><time>2026-08-08T19:54:10Z</time></trkpt>
<trkpt lat="35.123315" lon="-85.169601"><ele>214.9</ele><time>2026-08-08T19:54:12Z</time></trkpt>
<trkpt lat="35.123343" lon="-85.169636"><ele>213.1</ele><time>2026-08-08T19:54:15Z</time></trkpt>
<trkpt lat="35.123369" lon="-85.169651"><ele>213.4</ele><time>2026-08-08T19:54:17Z</time></trkpt>
<trkpt lat="35.123406" lon="-85.169669"><ele>212.4</ele><time>2026-08-08T19:54:20Z</time></trkpt>
<trkpt lat="35.123423" lon="-85.169698"><ele>210.6</ele><time>2026-08-08T19:54:22Z</time></trkpt>
<trkpt lat="35.123433" lon="-85.16973"><ele>210.6</ele><time>2026-08-08T19:54:24Z</time></trkpt>
<trkpt lat="35.123451" lon="-85.169758"><ele>210.6</ele><time>2026-08-08T19:54:26Z</time></trkpt>
<trkpt lat="35.123488" lon="-85.169757"><ele>211.2</ele><time>2026-08-08T19:54:29Z</time></trkpt>
<trkpt lat="35.123522" lon="-85.169759"><ele>211.8</ele><time>2026-08-08T19:54:32Z</time></trkpt>
<trkpt lat="35.123552" lon="-85.169764"><ele>212.4</ele><time>2026-08-08T19:54:35Z</time></trkpt>
<trkpt lat="35.123594" lon="-85.169774"><ele>213.7</ele><time>2026-08-08T19:54:38Z</time></trkpt>
<trkpt lat="35.123634" lon="-85.169778"><ele>214.3</ele><time>2026-08-08T19:54:41Z</time></trkpt>
<trkpt lat="35.123663" lon="-85.169777"><ele>215.5</ele><time>2026-08-08T19:54:43Z</time></trkpt>
<trkpt lat="35.123699" lon="-85.169783"><ele>215.8</ele><time>2026-08-08T19:54:46Z</time></trkpt>
<trkpt lat="35.123734" lon="-85.169799"><ele>215.5</ele><time>2026-08-08T19:54:49Z</time></trkpt>
<trkpt lat="35.123746" lon="-85.169798"><ele>215.5</ele><time>2026-08-08T19:54:50Z</time></trkpt>
<trkpt lat="35.123742" lon="-85.169801"><ele>215.2</ele><time>2026-08-08T19:54:51Z</time></trkpt>
<trkpt lat="35.123743" lon="-85.169796"><ele>215.2</ele><time>2026-08-08T19:54:52Z</time></trkpt>
<trkpt lat="35.123741" lon="-85.169793"><ele>215.2</ele><time>2026-08-08T19:54:53Z</time></trkpt>
<trkpt lat="35.12374" lon="-85.169793"><ele>215.2</ele><time>2026-08-08T19:54:54Z</time></trkpt>
<trkpt lat="35.123743" lon="-85.169794"><ele>214.6</ele><time>2026-08-08T19:54:55Z</time></trkpt>
<trkpt lat="35.123766" lon="-85.169806"><ele>215.5</ele><time>2026-08-08T19:55:00Z</time></trkpt>
<trkpt lat="35.123766" lon="-85.169805"><ele>215.5</ele><time>2026-08-08T19:55:01Z</time></trkpt>
<trkpt lat="35.123765" lon="-85.169801"><ele>215.5</ele><time>2026-08-08T19:55:02Z</time></trkpt>
<trkpt lat="35.123766" lon="-85.169798"><ele>215.5</ele><time>2026-08-08T19:55:03Z</time></trkpt>
<trkpt lat="35.123767" lon="-85.169797"><ele>215.5</ele><time>2026-08-08T19:55:04Z</time></trkpt>
<trkpt lat="35.123767" lon="-85.169796"><ele>215.8</ele><time>2026-08-08T19:55:05Z</time></trkpt>
<trkpt lat="35.123767" lon="-85.169796"><ele>215.8</ele><time>2026-08-08T19:55:06Z</time></trkpt>
<trkpt lat="35.123768" lon="-85.169796"><ele>215.8</ele><time>2026-08-08T19:55:11Z</time></trkpt>
<trkpt lat="35.123772" lon="-85.169794"><ele>215.8</ele><time>2026-08-08T19:55:12Z</time></trkpt>
<trkpt lat="35.123807" lon="-85.169803"><ele>216.7</ele><time>2026-08-08T19:55:16Z</time></trkpt>
<trkpt lat="35.123843" lon="-85.169812"><ele>218.5</ele><time>2026-08-08T19:55:19Z</time></trkpt>
<trkpt lat="35.123872" lon="-85.169836"><ele>217.6</ele><time>2026-08-08T19:55:22Z</time></trkpt>
<trkpt lat="35.123897" lon="-85.16985"><ele>219.2</ele><time>2026-08-08T19:55:24Z</time></trkpt>
<trkpt lat="35.123927" lon="-85.16986"><ele>220.1</ele><time>2026-08-08T19:55:26Z</time></trkpt>
<trkpt lat="35.123957" lon="-85.169881"><ele>221.3</ele><time>2026-08-08T19:55:29Z</time></trkpt>
<trkpt lat="35.123988" lon="-85.169894"><ele>220.1</ele><time>2026-08-08T19:55:32Z</time></trkpt>
<trkpt lat="35.124023" lon="-85.169881"><ele>220.4</ele><time>2026-08-08T19:55:35Z</time></trkpt>
<trkpt lat="35.124054" lon="-85.169898"><ele>219.8</ele><time>2026-08-08T19:55:38Z</time></trkpt>
<trkpt lat="35.124088" lon="-85.169893"><ele>217.9</ele><time>2026-08-08T19:55:41Z</time></trkpt>
<trkpt lat="35.124125" lon="-85.169875"><ele>217.9</ele><time>2026-08-08T19:55:44Z</time></trkpt>
<trkpt lat="35.12416" lon="-85.16987"><ele>217.3</ele><time>2026-08-08T19:55:47Z</time></trkpt>
<trkpt lat="35.124192" lon="-85.169876"><ele>217.9</ele><time>2026-08-08T19:55:50Z</time></trkpt>
<trkpt lat="35.124222" lon="-85.169886"><ele>217.9</ele><time>2026-08-08T19:55:52Z</time></trkpt>
<trkpt lat="35.124243" lon="-85.169911"><ele>215.2</ele><time>2026-08-08T19:55:54Z</time></trkpt>
<trkpt lat="35.124265" lon="-85.16994"><ele>216.4</ele><time>2026-08-08T19:55:56Z</time></trkpt>
<trkpt lat="35.124296" lon="-85.169958"><ele>217.6</ele><time>2026-08-08T19:55:59Z</time></trkpt>
<trkpt lat="35.124327" lon="-85.16996"><ele>217.9</ele><time>2026-08-08T19:56:02Z</time></trkpt>
<trkpt lat="35.124358" lon="-85.169968"><ele>215.5</ele><time>2026-08-08T19:56:05Z</time></trkpt>
<trkpt lat="35.124386" lon="-85.169977"><ele>216.7</ele><time>2026-08-08T19:56:09Z</time></trkpt>
<trkpt lat="35.124364" lon="-85.169973"><ele>215.2</ele><time>2026-08-08T19:56:10Z</time></trkpt>
<trkpt lat="35.124358" lon="-85.169963"><ele>214.9</ele><time>2026-08-08T19:56:11Z</time></trkpt>
<trkpt lat="35.124351" lon="-85.169941"><ele>214.9</ele><time>2026-08-08T19:56:14Z</time></trkpt>
<trkpt lat="35.124351" lon="-85.169941"><ele>214.9</ele><time>2026-08-08T19:56:15Z</time></trkpt>
<trkpt lat="35.124351" lon="-85.169941"><ele>214.9</ele><time>2026-08-08T19:56:18Z</time></trkpt>
<trkpt lat="35.12435" lon="-85.169943"><ele>214.3</ele><time>2026-08-08T19:56:19Z</time></trkpt>
<trkpt lat="35.124344" lon="-85.169961"><ele>213.7</ele><time>2026-08-08T19:56:22Z</time></trkpt>
<trkpt lat="35.124345" lon="-85.169965"><ele>213.7</ele><time>2026-08-08T19:56:23Z</time></trkpt>
<trkpt lat="35.124344" lon="-85.169967"><ele>213.4</ele><time>2026-08-08T19:56:24Z</time></trkpt>
<trkpt lat="35.12434" lon="-85.169967"><ele>213.4</ele><time>2026-08-08T19:56:25Z</time></trkpt>
<trkpt lat="35.124314" lon="-85.169983"><ele>212.1</ele><time>2026-08-08T19:56:28Z</time></trkpt>
<trkpt lat="35.124282" lon="-85.169991"><ele>214.3</ele><time>2026-08-08T19:56:31Z</time></trkpt>
<trkpt lat="35.124252" lon="-85.170013"><ele>215.2</ele><time>2026-08-08T19:56:34Z</time></trkpt>
<trkpt lat="35.124233" lon="-85.17005"><ele>216.4</ele><time>2026-08-08T19:56:37Z</time></trkpt>
<trkpt lat="35.124204" lon="-85.170079"><ele>216.7</ele><time>2026-08-08T19:56:40Z</time></trkpt>
<trkpt lat="35.124175" lon="-85.170083"><ele>217.0</ele><time>2026-08-08T19:56:44Z</time></trkpt>
<trkpt lat="35.124147" lon="-85.170065"><ele>217.9</ele><time>2026-08-08T19:56:48Z</time></trkpt>
<trkpt lat="35.124134" lon="-85.170089"><ele>216.4</ele><time>2026-08-08T19:56:51Z</time></trkpt>
<trkpt lat="35.12414" lon="-85.170089"><ele>216.7</ele><time>2026-08-08T19:56:52Z</time></trkpt>
<trkpt lat="35.124142" lon="-85.170088"><ele>216.4</ele><time>2026-08-08T19:56:54Z</time></trkpt>
<trkpt lat="35.124144" lon="-85.170089"><ele>216.4</ele><time>2026-08-08T19:56:55Z</time></trkpt>
<trkpt lat="35.124147" lon="-85.170095"><ele>216.1</ele><time>2026-08-08T19:56:58Z</time></trkpt>
<trkpt lat="35.124146" lon="-85.170094"><ele>216.1</ele><time>2026-08-08T19:56:59Z</time></trkpt>
<trkpt lat="35.124145" lon="-85.170094"><ele>216.1</ele><time>2026-08-08T19:57:06Z</time></trkpt>
<trkpt lat="35.124143" lon="-85.17009"><ele>215.8</ele><time>2026-08-08T19:57:07Z</time></trkpt>
<trkpt lat="35.124133" lon="-85.170089"><ele>217.0</ele><time>2026-08-08T19:57:09Z</time></trkpt>
<trkpt lat="35.124133" lon="-85.170089"><ele>217.0</ele><time>2026-08-08T19:57:10Z</time></trkpt>
<trkpt lat="35.124132" lon="-85.17009"><ele>217.0</ele><time>2026-08-08T19:57:11Z</time></trkpt>
<trkpt lat="35.12413" lon="-85.170091"><ele>217.0</ele><time>2026-08-08T19:57:12Z</time></trkpt>
<trkpt lat="35.124132" lon="-85.170091"><ele>217.0</ele><time>2026-08-08T19:57:13Z</time></trkpt>
<trkpt lat="35.124132" lon="-85.170091"><ele>217.3</ele><time>2026-08-08T19:57:14Z</time></trkpt>
<trkpt lat="35.124128" lon="-85.17009"><ele>217.3</ele><time>2026-08-08T19:57:15Z</time></trkpt>
<trkpt lat="35.124096" lon="-85.170086"><ele>216.7</ele><time>2026-08-08T19:57:18Z</time></trkpt>
<trkpt lat="35.12407" lon="-85.170099"><ele>219.5</ele><time>2026-08-08T19:57:21Z</time></trkpt>
<trkpt lat="35.124043" lon="-85.170109"><ele>217.6</ele><time>2026-08-08T19:57:24Z</time></trkpt>
<trkpt lat="35.124015" lon="-85.170117"><ele>218.5</ele><time>2026-08-08T19:57:27Z</time></trkpt>
<trkpt lat="35.123987" lon="-85.170132"><ele>219.8</ele><time>2026-08-08T19:57:30Z</time></trkpt>
<trkpt lat="35.123955" lon="-85.170144"><ele>219.8</ele><time>2026-08-08T19:57:33Z</time></trkpt>
<trkpt lat="35.123926" lon="-85.170147"><ele>218.2</ele><time>2026-08-08T19:57:36Z</time></trkpt>
<trkpt lat="35.123899" lon="-85.170155"><ele>218.2</ele><time>2026-08-08T19:57:39Z</time></trkpt>
<trkpt lat="35.12387" lon="-85.170157"><ele>220.1</ele><time>2026-08-08T19:57:42Z</time></trkpt>
<trkpt lat="35.123839" lon="-85.170164"><ele>220.4</ele><time>2026-08-08T19:57:45Z</time></trkpt>
<trkpt lat="35.123804" lon="-85.170171"><ele>221.3</ele><time>2026-08-08T19:57:48Z</time></trkpt>
<trkpt lat="35.123768" lon="-85.170176"><ele>220.4</ele><time>2026-08-08T19:57:51Z</time></trkpt>
<trkpt lat="35.123738" lon="-85.170183"><ele>223.1</ele><time>2026-08-08T19:57:54Z</time></trkpt>
<trkpt lat="35.123703" lon="-85.170189"><ele>221.0</ele><time>2026-08-08T19:57:57Z</time></trkpt>
<trkpt lat="35.123672" lon="-85.170207"><ele>220.1</ele><time>2026-08-08T19:58:00Z</time></trkpt>
<trkpt lat="35.123641" lon="-85.170233"><ele>219.8</ele><time>2026-08-08T19:58:03Z</time></trkpt>
<trkpt lat="35.123607" lon="-85.170253"><ele>221.3</ele><time>2026-08-08T19:58:06Z</time></trkpt>
<trkpt lat="35.12357" lon="-85.170265"><ele>221.3</ele><time>2026-08-08T19:58:09Z</time></trkpt>
<trkpt lat="35.123543" lon="-85.170296"><ele>221.3</ele><time>2026-08-08T19:58:12Z</time></trkpt>
<trkpt lat="35.123514" lon="-85.170322"><ele>222.8</ele><time>2026-08-08T19:58:15Z</time></trkpt>
<trkpt lat="35.12348" lon="-85.170334"><ele>225.6</ele><time>2026-08-08T19:58:18Z</time></trkpt>
<trkpt lat="35.123451" lon="-85.170332"><ele>224.9</ele><time>2026-08-08T19:58:21Z</time></trkpt>
<trkpt lat="35.12341" lon="-85.170337"><ele>224.3</ele><time>2026-08-08T19:58:24Z</time></trkpt>
<trkpt lat="35.123377" lon="-85.170365"><ele>222.8</ele><time>2026-08-08T19:58:27Z</time></trkpt>
<trkpt lat="35.123354" lon="-85.17039"><ele>222.2</ele><time>2026-08-08T19:58:29Z</time></trkpt>
<trkpt lat="35.123329" lon="-85.17042"><ele>221.3</ele><time>2026-08-08T19:58:31Z</time></trkpt>
<trkpt lat="35.123305" lon="-85.170447"><ele>220.7</ele><time>2026-08-08T19:58:33Z</time></trkpt>
<trkpt lat="35.123277" lon="-85.170466"><ele>221.6</ele><time>2026-08-08T19:58:35Z</time></trkpt>
<trkpt lat="35.123247" lon="-85.170472"><ele>221.6</ele><time>2026-08-08T19:58:37Z</time></trkpt>
<trkpt lat="35.123215" lon="-85.170475"><ele>221.9</ele><time>2026-08-08T19:58:39Z</time></trkpt>
<trkpt lat="35.123183" lon="-85.170481"><ele>221.6</ele><time>2026-08-08T19:58:41Z</time></trkpt>
<trkpt lat="35.123147" lon="-85.170502"><ele>220.7</ele><time>2026-08-08T19:58:44Z</time></trkpt>
<trkpt lat="35.12312" lon="-85.170521"><ele>221.3</ele><time>2026-08-08T19:58:46Z</time></trkpt>
<trkpt lat="35.123105" lon="-85.170561"><ele>224.0</ele><time>2026-08-08T19:58:49Z</time></trkpt>
<trkpt lat="35.123091" lon="-85.170594"><ele>224.6</ele><time>2026-08-08T19:58:51Z</time></trkpt>
<trkpt lat="35.123064" lon="-85.170626"><ele>225.6</ele><time>2026-08-08T19:58:54Z</time></trkpt>
<trkpt lat="35.12303" lon="-85.170641"><ele>226.2</ele><time>2026-08-08T19:58:57Z</time></trkpt>
<trkpt lat="35.122993" lon="-85.170633"><ele>227.1</ele><time>2026-08-08T19:59:00Z</time></trkpt>
<trkpt lat="35.122963" lon="-85.170617"><ele>226.5</ele><time>2026-08-08T19:59:03Z</time></trkpt>
<trkpt lat="35.122935" lon="-85.170623"><ele>225.9</ele><time>2026-08-08T19:59:05Z</time></trkpt>
<trkpt lat="35.122915" lon="-85.170655"><ele>226.2</ele><time>2026-08-08T19:59:07Z</time></trkpt>
<trkpt lat="35.122908" lon="-85.17069"><ele>227.1</ele><time>2026-08-08T19:59:09Z</time></trkpt>
<trkpt lat="35.122896" lon="-85.170735"><ele>227.1</ele><time>2026-08-08T19:59:12Z</time></trkpt>
<trkpt lat="35.122872" lon="-85.170763"><ele>227.4</ele><time>2026-08-08T19:59:15Z</time></trkpt>
<trkpt lat="35.122837" lon="-85.17077"><ele>227.4</ele><time>2026-08-08T19:59:18Z</time></trkpt>
<trkpt lat="35.1228" lon="-85.170755"><ele>227.1</ele><time>2026-08-08T19:59:21Z</time></trkpt>
<trkpt lat="35.122776" lon="-85.170737"><ele>228.3</ele><time>2026-08-08T19:59:23Z</time></trkpt>
<trkpt lat="35.122748" lon="-85.17072"><ele>231.3</ele><time>2026-08-08T19:59:26Z</time></trkpt>
<trkpt lat="35.122712" lon="-85.170701"><ele>230.7</ele><time>2026-08-08T19:59:29Z</time></trkpt>
<trkpt lat="35.122675" lon="-85.170689"><ele>230.4</ele><time>2026-08-08T19:59:32Z</time></trkpt>
<trkpt lat="35.122647" lon="-85.170679"><ele>231.0</ele><time>2026-08-08T19:59:34Z</time></trkpt>
<trkpt lat="35.122618" lon="-85.170672"><ele>229.8</ele><time>2026-08-08T19:59:36Z</time></trkpt>
<trkpt lat="35.122587" lon="-85.170672"><ele>229.8</ele><time>2026-08-08T19:59:38Z</time></trkpt>
<trkpt lat="35.122557" lon="-85.170666"><ele>232.0</ele><time>2026-08-08T19:59:40Z</time></trkpt>
<trkpt lat="35.122529" lon="-85.170653"><ele>232.9</ele><time>2026-08-08T19:59:42Z</time></trkpt>
<trkpt lat="35.12249" lon="-85.170646"><ele>233.2</ele><time>2026-08-08T19:59:45Z</time></trkpt>
<trkpt lat="35.122461" lon="-85.170637"><ele>234.1</ele><time>2026-08-08T19:59:47Z</time></trkpt>
<trkpt lat="35.122432" lon="-85.17063"><ele>234.1</ele><time>2026-08-08T19:59:49Z</time></trkpt>
<trkpt lat="35.122403" lon="-85.170623"><ele>232.9</ele><time>2026-08-08T19:59:51Z</time></trkpt>
<trkpt lat="35.122365" lon="-85.170611"><ele>232.0</ele><time>2026-08-08T19:59:54Z</time></trkpt>
<trkpt lat="35.122327" lon="-85.170598"><ele>232.3</ele><time>2026-08-08T19:59:57Z</time></trkpt>
<trkpt lat="35.122298" lon="-85.170609"><ele>231.0</ele><time>2026-08-08T19:59:59Z</time></trkpt>
<trkpt lat="35.122262" lon="-85.170611"><ele>232.3</ele><time>2026-08-08T20:00:01Z</time></trkpt>
<trkpt lat="35.122234" lon="-85.170608"><ele>231.0</ele><time>2026-08-08T20:00:03Z</time></trkpt>
<trkpt lat="35.122192" lon="-85.170602"><ele>231.3</ele><time>2026-08-08T20:00:06Z</time></trkpt>
<trkpt lat="35.122159" lon="-85.170583"><ele>231.0</ele><time>2026-08-08T20:00:09Z</time></trkpt>
<trkpt lat="35.122123" lon="-85.170575"><ele>231.0</ele><time>2026-08-08T20:00:12Z</time></trkpt>
<trkpt lat="35.122095" lon="-85.17057"><ele>232.0</ele><time>2026-08-08T20:00:14Z</time></trkpt>
<trkpt lat="35.122072" lon="-85.170553"><ele>231.6</ele><time>2026-08-08T20:00:16Z</time></trkpt>
<trkpt lat="35.12205" lon="-85.170531"><ele>231.6</ele><time>2026-08-08T20:00:18Z</time></trkpt>
<trkpt lat="35.122015" lon="-85.170518"><ele>231.0</ele><time>2026-08-08T20:00:21Z</time></trkpt>
<trkpt lat="35.121978" lon="-85.170506"><ele>232.0</ele><time>2026-08-08T20:00:24Z</time></trkpt>
<trkpt lat="35.121952" lon="-85.170492"><ele>232.3</ele><time>2026-08-08T20:00:26Z</time></trkpt>
<trkpt lat="35.121927" lon="-85.170454"><ele>233.8</ele><time>2026-08-08T20:00:28Z</time></trkpt>
<trkpt lat="35.121905" lon="-85.170425"><ele>233.5</ele><time>2026-08-08T20:00:30Z</time></trkpt>
<trkpt lat="35.121871" lon="-85.170406"><ele>233.2</ele><time>2026-08-08T20:00:33Z</time></trkpt>
<trkpt lat="35.121845" lon="-85.170395"><ele>232.3</ele><time>2026-08-08T20:00:35Z</time></trkpt>
<trkpt lat="35.121824" lon="-85.170368"><ele>232.0</ele><time>2026-08-08T20:00:37Z</time></trkpt>
<trkpt lat="35.121802" lon="-85.170345"><ele>232.0</ele><time>2026-08-08T20:00:39Z</time></trkpt>
<trkpt lat="35.121773" lon="-85.170314"><ele>228.6</ele><time>2026-08-08T20:00:42Z</time></trkpt>
<trkpt lat="35.121745" lon="-85.170277"><ele>228.9</ele><time>2026-08-08T20:00:45Z</time></trkpt>
<trkpt lat="35.121719" lon="-85.170241"><ele>229.8</ele><time>2026-08-08T20:00:48Z</time></trkpt>
<trkpt lat="35.121687" lon="-85.170218"><ele>231.0</ele><time>2026-08-08T20:00:51Z</time></trkpt>
<trkpt lat="35.121653" lon="-85.170199"><ele>230.1</ele><time>2026-08-08T20:00:54Z</time></trkpt>
<trkpt lat="35.121648" lon="-85.170152"><ele>229.8</ele><time>2026-08-08T20:00:57Z</time></trkpt>
<trkpt lat="35.121642" lon="-85.170118"><ele>230.1</ele><time>2026-08-08T20:00:59Z</time></trkpt>
<trkpt lat="35.121623" lon="-85.170075"><ele>229.8</ele><time>2026-08-08T20:01:02Z</time></trkpt>
<trkpt lat="35.121614" lon="-85.170037"><ele>229.5</ele><time>2026-08-08T20:01:04Z</time></trkpt>
<trkpt lat="35.121603" lon="-85.17"><ele>228.3</ele><time>2026-08-08T20:01:06Z</time></trkpt>
<trkpt lat="35.121574" lon="-85.169977"><ele>226.8</ele><time>2026-08-08T20:01:08Z</time></trkpt>
<trkpt lat="35.121538" lon="-85.169945"><ele>226.2</ele><time>2026-08-08T20:01:10Z</time></trkpt>
<trkpt lat="35.12151" lon="-85.169916"><ele>228.3</ele><time>2026-08-08T20:01:12Z</time></trkpt>
<trkpt lat="35.121474" lon="-85.169896"><ele>228.3</ele><time>2026-08-08T20:01:15Z</time></trkpt>
<trkpt lat="35.121443" lon="-85.169894"><ele>227.4</ele><time>2026-08-08T20:01:17Z</time></trkpt>
<trkpt lat="35.121413" lon="-85.169888"><ele>229.5</ele><time>2026-08-08T20:01:19Z</time></trkpt>
<trkpt lat="35.121379" lon="-85.169862"><ele>229.8</ele><time>2026-08-08T20:01:22Z</time></trkpt>
<trkpt lat="35.12136" lon="-85.169818"><ele>231.0</ele><time>2026-08-08T20:01:25Z</time></trkpt>
<trkpt lat="35.121335" lon="-85.169797"><ele>231.6</ele><time>2026-08-08T20:01:27Z</time></trkpt>
<trkpt lat="35.121312" lon="-85.169778"><ele>232.3</ele><time>2026-08-08T20:01:29Z</time></trkpt>
<trkpt lat="35.121275" lon="-85.169754"><ele>231.6</ele><time>2026-08-08T20:01:32Z</time></trkpt>
<trkpt lat="35.12124" lon="-85.16973"><ele>233.2</ele><time>2026-08-08T20:01:35Z</time></trkpt>
<trkpt lat="35.121216" lon="-85.169711"><ele>234.1</ele><time>2026-08-08T20:01:37Z</time></trkpt>
<trkpt lat="35.121195" lon="-85.169671"><ele>232.3</ele><time>2026-08-08T20:01:40Z</time></trkpt>
<trkpt lat="35.121167" lon="-85.169638"><ele>231.3</ele><time>2026-08-08T20:01:43Z</time></trkpt>
<trkpt lat="35.121144" lon="-85.169618"><ele>230.4</ele><time>2026-08-08T20:01:45Z</time></trkpt>
<trkpt lat="35.121116" lon="-85.169605"><ele>231.3</ele><time>2026-08-08T20:01:47Z</time></trkpt>
<trkpt lat="35.121086" lon="-85.169596"><ele>231.3</ele><time>2026-08-08T20:01:49Z</time></trkpt>
<trkpt lat="35.12106" lon="-85.169574"><ele>230.4</ele><time>2026-08-08T20:01:51Z</time></trkpt>
<trkpt lat="35.121033" lon="-85.169553"><ele>232.0</ele><time>2026-08-08T20:01:53Z</time></trkpt>
<trkpt lat="35.120996" lon="-85.169536"><ele>231.0</ele><time>2026-08-08T20:01:56Z</time></trkpt>
<trkpt lat="35.120969" lon="-85.169528"><ele>231.0</ele><time>2026-08-08T20:01:58Z</time></trkpt>
<trkpt lat="35.12094" lon="-85.169521"><ele>229.8</ele><time>2026-08-08T20:02:00Z</time></trkpt>
<trkpt lat="35.120913" lon="-85.169513"><ele>229.5</ele><time>2026-08-08T20:02:02Z</time></trkpt>
<trkpt lat="35.120873" lon="-85.1695"><ele>228.6</ele><time>2026-08-08T20:02:05Z</time></trkpt>
<trkpt lat="35.120845" lon="-85.169492"><ele>229.5</ele><time>2026-08-08T20:02:07Z</time></trkpt>
<trkpt lat="35.120813" lon="-85.169497"><ele>229.2</ele><time>2026-08-08T20:02:09Z</time></trkpt>
<trkpt lat="35.120781" lon="-85.169496"><ele>228.9</ele><time>2026-08-08T20:02:11Z</time></trkpt>
<trkpt lat="35.120752" lon="-85.169485"><ele>230.1</ele><time>2026-08-08T20:02:13Z</time></trkpt>
<trkpt lat="35.120722" lon="-85.169475"><ele>230.4</ele><time>2026-08-08T20:02:15Z</time></trkpt>
<trkpt lat="35.120693" lon="-85.169469"><ele>232.0</ele><time>2026-08-08T20:02:17Z</time></trkpt>
<trkpt lat="35.12066" lon="-85.169471"><ele>232.0</ele><time>2026-08-08T20:02:19Z</time></trkpt>
<trkpt lat="35.120632" lon="-85.169475"><ele>231.6</ele><time>2026-08-08T20:02:21Z</time></trkpt>
<trkpt lat="35.120594" lon="-85.169482"><ele>230.7</ele><time>2026-08-08T20:02:24Z</time></trkpt>
<trkpt lat="35.120564" lon="-85.16949"><ele>230.7</ele><time>2026-08-08T20:02:26Z</time></trkpt>
<trkpt lat="35.120538" lon="-85.169512"><ele>230.1</ele><time>2026-08-08T20:02:28Z</time></trkpt>
<trkpt lat="35.120515" lon="-85.169534"><ele>230.7</ele><time>2026-08-08T20:02:30Z</time></trkpt>
<trkpt lat="35.120489" lon="-85.169554"><ele>231.3</ele><time>2026-08-08T20:02:32Z</time></trkpt>
<trkpt lat="35.120458" lon="-85.169566"><ele>232.9</ele><time>2026-08-08T20:02:34Z</time></trkpt>
<trkpt lat="35.120431" lon="-85.169572"><ele>232.9</ele><time>2026-08-08T20:02:36Z</time></trkpt>
<trkpt lat="35.120404" lon="-85.169572"><ele>231.6</ele><time>2026-08-08T20:02:38Z</time></trkpt>
<trkpt lat="35.120377" lon="-85.169554"><ele>232.6</ele><time>2026-08-08T20:02:40Z</time></trkpt>
<trkpt lat="35.120344" lon="-85.169524"><ele>231.3</ele><time>2026-08-08T20:02:43Z</time></trkpt>
<trkpt lat="35.120314" lon="-85.169519"><ele>232.9</ele><time>2026-08-08T20:02:45Z</time></trkpt>
<trkpt lat="35.120287" lon="-85.169515"><ele>231.6</ele><time>2026-08-08T20:02:47Z</time></trkpt>
<trkpt lat="35.120258" lon="-85.169511"><ele>232.3</ele><time>2026-08-08T20:02:49Z</time></trkpt>
<trkpt lat="35.120231" lon="-85.169524"><ele>231.6</ele><time>2026-08-08T20:02:51Z</time></trkpt>
<trkpt lat="35.120205" lon="-85.169551"><ele>229.8</ele><time>2026-08-08T20:02:53Z</time></trkpt>
<trkpt lat="35.120182" lon="-85.169579"><ele>228.0</ele><time>2026-08-08T20:02:55Z</time></trkpt>
<trkpt lat="35.120164" lon="-85.16961"><ele>228.6</ele><time>2026-08-08T20:02:57Z</time></trkpt>
<trkpt lat="35.120137" lon="-85.169629"><ele>229.5</ele><time>2026-08-08T20:03:00Z</time></trkpt>
<trkpt lat="35.120098" lon="-85.169632"><ele>230.1</ele><time>2026-08-08T20:03:03Z</time></trkpt>
<trkpt lat="35.12007" lon="-85.16963"><ele>229.8</ele><time>2026-08-08T20:03:05Z</time></trkpt>
<trkpt lat="35.120042" lon="-85.169635"><ele>229.5</ele><time>2026-08-08T20:03:07Z</time></trkpt>
<trkpt lat="35.120003" lon="-85.169637"><ele>229.8</ele><time>2026-08-08T20:03:10Z</time></trkpt>
<trkpt lat="35.119962" lon="-85.169654"><ele>231.0</ele><time>2026-08-08T20:03:13Z</time></trkpt>
<trkpt lat="35.119938" lon="-85.169671"><ele>232.3</ele><time>2026-08-08T20:03:15Z</time></trkpt>
<trkpt lat="35.119898" lon="-85.169688"><ele>232.9</ele><time>2026-08-08T20:03:18Z</time></trkpt>
<trkpt lat="35.11987" lon="-85.169684"><ele>233.5</ele><time>2026-08-08T20:03:20Z</time></trkpt>
<trkpt lat="35.11983" lon="-85.169699"><ele>233.2</ele><time>2026-08-08T20:03:23Z</time></trkpt>
<trkpt lat="35.119806" lon="-85.16972"><ele>233.2</ele><time>2026-08-08T20:03:25Z</time></trkpt>
<trkpt lat="35.119787" lon="-85.169759"><ele>232.3</ele><time>2026-08-08T20:03:27Z</time></trkpt>
<trkpt lat="35.11977" lon="-85.169792"><ele>231.6</ele><time>2026-08-08T20:03:29Z</time></trkpt>
<trkpt lat="35.119738" lon="-85.169809"><ele>232.0</ele><time>2026-08-08T20:03:31Z</time></trkpt>
<trkpt lat="35.119711" lon="-85.16982"><ele>232.6</ele><time>2026-08-08T20:03:33Z</time></trkpt>
<trkpt lat="35.119683" lon="-85.169846"><ele>232.6</ele><time>2026-08-08T20:03:36Z</time></trkpt>
<trkpt lat="35.119658" lon="-85.169863"><ele>232.0</ele><time>2026-08-08T20:03:38Z</time></trkpt>
<trkpt lat="35.119633" lon="-85.169883"><ele>232.6</ele><time>2026-08-08T20:03:40Z</time></trkpt>
<trkpt lat="35.119606" lon="-85.169894"><ele>231.3</ele><time>2026-08-08T20:03:42Z</time></trkpt>
<trkpt lat="35.119576" lon="-85.169899"><ele>230.4</ele><time>2026-08-08T20:03:44Z</time></trkpt>
<trkpt lat="35.119545" lon="-85.169895"><ele>231.3</ele><time>2026-08-08T20:03:46Z</time></trkpt>
<trkpt lat="35.119506" lon="-85.169893"><ele>231.0</ele><time>2026-08-08T20:03:49Z</time></trkpt>
<trkpt lat="35.11947" lon="-85.169913"><ele>231.3</ele><time>2026-08-08T20:03:52Z</time></trkpt>
<trkpt lat="35.119443" lon="-85.169923"><ele>232.0</ele><time>2026-08-08T20:03:54Z</time></trkpt>
<trkpt lat="35.119418" lon="-85.16994"><ele>232.6</ele><time>2026-08-08T20:03:56Z</time></trkpt>
<trkpt lat="35.119391" lon="-85.169954"><ele>234.4</ele><time>2026-08-08T20:03:58Z</time></trkpt>
<trkpt lat="35.119361" lon="-85.169946"><ele>234.4</ele><time>2026-08-08T20:04:00Z</time></trkpt>
<trkpt lat="35.119322" lon="-85.169932"><ele>234.7</ele><time>2026-08-08T20:04:03Z</time></trkpt>
<trkpt lat="35.119294" lon="-85.169921"><ele>235.9</ele><time>2026-08-08T20:04:05Z</time></trkpt>
<trkpt lat="35.119264" lon="-85.169927"><ele>234.7</ele><time>2026-08-08T20:04:07Z</time></trkpt>
<trkpt lat="35.119228" lon="-85.169928"><ele>233.5</ele><time>2026-08-08T20:04:10Z</time></trkpt>
<trkpt lat="35.11919" lon="-85.169933"><ele>234.7</ele><time>2026-08-08T20:04:13Z</time></trkpt>
<trkpt lat="35.119163" lon="-85.169949"><ele>233.5</ele><time>2026-08-08T20:04:15Z</time></trkpt>
<trkpt lat="35.119136" lon="-85.169965"><ele>233.8</ele><time>2026-08-08T20:04:17Z</time></trkpt>
<trkpt lat="35.119098" lon="-85.16998"><ele>235.0</ele><time>2026-08-08T20:04:20Z</time></trkpt>
<trkpt lat="35.11907" lon="-85.169982"><ele>235.0</ele><time>2026-08-08T20:04:22Z</time></trkpt>
<trkpt lat="35.119042" lon="-85.169981"><ele>235.9</ele><time>2026-08-08T20:04:24Z</time></trkpt>
<trkpt lat="35.119006" lon="-85.169981"><ele>238.0</ele><time>2026-08-08T20:04:27Z</time></trkpt>
<trkpt lat="35.11897" lon="-85.16998"><ele>238.0</ele><time>2026-08-08T20:04:30Z</time></trkpt>
<trkpt lat="35.11894" lon="-85.169981"><ele>238.0</ele><time>2026-08-08T20:04:32Z</time></trkpt>
<trkpt lat="35.118914" lon="-85.17001"><ele>237.4</ele><time>2026-08-08T20:04:34Z</time></trkpt>
<trkpt lat="35.118894" lon="-85.170042"><ele>236.8</ele><time>2026-08-08T20:04:36Z</time></trkpt>
<trkpt lat="35.118873" lon="-85.170069"><ele>236.5</ele><time>2026-08-08T20:04:38Z</time></trkpt>
<trkpt lat="35.118853" lon="-85.170095"><ele>235.9</ele><time>2026-08-08T20:04:40Z</time></trkpt>
<trkpt lat="35.118829" lon="-85.170116"><ele>235.0</ele><time>2026-08-08T20:04:42Z</time></trkpt>
<trkpt lat="35.118804" lon="-85.17013"><ele>233.8</ele><time>2026-08-08T20:04:44Z</time></trkpt>
<trkpt lat="35.118769" lon="-85.170159"><ele>232.6</ele><time>2026-08-08T20:04:47Z</time></trkpt>
<trkpt lat="35.118748" lon="-85.170184"><ele>233.2</ele><time>2026-08-08T20:04:49Z</time></trkpt>
<trkpt lat="35.11873" lon="-85.170212"><ele>232.9</ele><time>2026-08-08T20:04:51Z</time></trkpt>
<trkpt lat="35.118695" lon="-85.170235"><ele>232.6</ele><time>2026-08-08T20:04:54Z</time></trkpt>
<trkpt lat="35.118658" lon="-85.170252"><ele>232.6</ele><time>2026-08-08T20:04:57Z</time></trkpt>
<trkpt lat="35.11862" lon="-85.170258"><ele>232.3</ele><time>2026-08-08T20:05:00Z</time></trkpt>
<trkpt lat="35.118597" lon="-85.170282"><ele>231.0</ele><time>2026-08-08T20:05:02Z</time></trkpt>
<trkpt lat="35.118584" lon="-85.170314"><ele>231.0</ele><time>2026-08-08T20:05:04Z</time></trkpt>
<trkpt lat="35.118575" lon="-85.170348"><ele>231.3</ele><time>2026-08-08T20:05:06Z</time></trkpt>
<trkpt lat="35.118569" lon="-85.170384"><ele>231.3</ele><time>2026-08-08T20:05:08Z</time></trkpt>
<trkpt lat="35.118565" lon="-85.170425"><ele>232.0</ele><time>2026-08-08T20:05:10Z</time></trkpt>
<trkpt lat="35.118562" lon="-85.170463"><ele>232.9</ele><time>2026-08-08T20:05:12Z</time></trkpt>
<trkpt lat="35.118561" lon="-85.170504"><ele>232.3</ele><time>2026-08-08T20:05:14Z</time></trkpt>
<trkpt lat="35.118563" lon="-85.170542"><ele>232.6</ele><time>2026-08-08T20:05:16Z</time></trkpt>
<trkpt lat="35.118568" lon="-85.170578"><ele>233.2</ele><time>2026-08-08T20:05:18Z</time></trkpt>
<trkpt lat="35.118561" lon="-85.170625"><ele>231.6</ele><time>2026-08-08T20:05:21Z</time></trkpt>
<trkpt lat="35.118556" lon="-85.170672"><ele>232.3</ele><time>2026-08-08T20:05:24Z</time></trkpt>
<trkpt lat="35.118554" lon="-85.170706"><ele>231.6</ele><time>2026-08-08T20:05:26Z</time></trkpt>
<trkpt lat="35.118541" lon="-85.170738"><ele>231.6</ele><time>2026-08-08T20:05:28Z</time></trkpt>
<trkpt lat="35.118516" lon="-85.170779"><ele>231.6</ele><time>2026-08-08T20:05:31Z</time></trkpt>
<trkpt lat="35.118494" lon="-85.170801"><ele>231.0</ele><time>2026-08-08T20:05:33Z</time></trkpt>
<trkpt lat="35.118463" lon="-85.17083"><ele>231.0</ele><time>2026-08-08T20:05:36Z</time></trkpt>
<trkpt lat="35.118435" lon="-85.170857"><ele>230.7</ele><time>2026-08-08T20:05:39Z</time></trkpt>
<trkpt lat="35.118415" lon="-85.170881"><ele>229.8</ele><time>2026-08-08T20:05:41Z</time></trkpt>
<trkpt lat="35.11839" lon="-85.170901"><ele>229.2</ele><time>2026-08-08T20:05:43Z</time></trkpt>
<trkpt lat="35.118365" lon="-85.170917"><ele>229.5</ele><time>2026-08-08T20:05:45Z</time></trkpt>
<trkpt lat="35.118327" lon="-85.170935"><ele>229.5</ele><time>2026-08-08T20:05:48Z</time></trkpt>
<trkpt lat="35.118296" lon="-85.170939"><ele>229.2</ele><time>2026-08-08T20:05:50Z</time></trkpt>
<trkpt lat="35.118268" lon="-85.170948"><ele>230.7</ele><time>2026-08-08T20:05:52Z</time></trkpt>
<trkpt lat="35.118245" lon="-85.170968"><ele>229.5</ele><time>2026-08-08T20:05:54Z</time></trkpt>
<trkpt lat="35.118238" lon="-85.171003"><ele>229.2</ele><time>2026-08-08T20:05:56Z</time></trkpt>
<trkpt lat="35.118238" lon="-85.171039"><ele>230.7</ele><time>2026-08-08T20:05:58Z</time></trkpt>
<trkpt lat="35.118247" lon="-85.171075"><ele>231.0</ele><time>2026-08-08T20:06:00Z</time></trkpt>
<trkpt lat="35.118251" lon="-85.17111"><ele>229.8</ele><time>2026-08-08T20:06:02Z</time></trkpt>
<trkpt lat="35.118254" lon="-85.171145"><ele>230.4</ele><time>2026-08-08T20:06:04Z</time></trkpt>
<trkpt lat="35.118256" lon="-85.171179"><ele>231.0</ele><time>2026-08-08T20:06:06Z</time></trkpt>
<trkpt lat="35.118237" lon="-85.171219"><ele>230.7</ele><time>2026-08-08T20:06:09Z</time></trkpt>
<trkpt lat="35.118199" lon="-85.171234"><ele>232.0</ele><time>2026-08-08T20:06:12Z</time></trkpt>
<trkpt lat="35.118164" lon="-85.171242"><ele>232.0</ele><time>2026-08-08T20:06:15Z</time></trkpt>
<trkpt lat="35.118125" lon="-85.171258"><ele>232.3</ele><time>2026-08-08T20:06:18Z</time></trkpt>
<trkpt lat="35.118089" lon="-85.171277"><ele>231.3</ele><time>2026-08-08T20:06:21Z</time></trkpt>
<trkpt lat="35.118061" lon="-85.17128"><ele>232.3</ele><time>2026-08-08T20:06:23Z</time></trkpt>
<trkpt lat="35.118032" lon="-85.171282"><ele>232.3</ele><time>2026-08-08T20:06:25Z</time></trkpt>
<trkpt lat="35.118004" lon="-85.17129"><ele>231.0</ele><time>2026-08-08T20:06:27Z</time></trkpt>
<trkpt lat="35.117975" lon="-85.171301"><ele>231.0</ele><time>2026-08-08T20:06:29Z</time></trkpt>
<trkpt lat="35.117949" lon="-85.171317"><ele>232.0</ele><time>2026-08-08T20:06:31Z</time></trkpt>
<trkpt lat="35.117935" lon="-85.171353"><ele>231.0</ele><time>2026-08-08T20:06:33Z</time></trkpt>
<trkpt lat="35.117925" lon="-85.171392"><ele>229.5</ele><time>2026-08-08T20:06:35Z</time></trkpt>
<trkpt lat="35.117909" lon="-85.171424"><ele>228.6</ele><time>2026-08-08T20:06:37Z</time></trkpt>
<trkpt lat="35.117888" lon="-85.171447"><ele>228.3</ele><time>2026-08-08T20:06:39Z</time></trkpt>
<trkpt lat="35.117852" lon="-85.171468"><ele>228.3</ele><time>2026-08-08T20:06:42Z</time></trkpt>
<trkpt lat="35.117824" lon="-85.171468"><ele>228.0</ele><time>2026-08-08T20:06:44Z</time></trkpt>
<trkpt lat="35.117785" lon="-85.171471"><ele>228.9</ele><time>2026-08-08T20:06:47Z</time></trkpt>
<trkpt lat="35.117749" lon="-85.171487"><ele>229.2</ele><time>2026-08-08T20:06:50Z</time></trkpt>
<trkpt lat="35.117726" lon="-85.171506"><ele>229.2</ele><time>2026-08-08T20:06:52Z</time></trkpt>
<trkpt lat="35.117691" lon="-85.171524"><ele>228.6</ele><time>2026-08-08T20:06:55Z</time></trkpt>
<trkpt lat="35.117651" lon="-85.171524"><ele>228.6</ele><time>2026-08-08T20:06:58Z</time></trkpt>
<trkpt lat="35.117612" lon="-85.171527"><ele>228.3</ele><time>2026-08-08T20:07:01Z</time></trkpt>
<trkpt lat="35.117576" lon="-85.171539"><ele>228.6</ele><time>2026-08-08T20:07:04Z</time></trkpt>
<trkpt lat="35.117539" lon="-85.17154"><ele>228.0</ele><time>2026-08-08T20:07:07Z</time></trkpt>
<trkpt lat="35.117511" lon="-85.171534"><ele>229.5</ele><time>2026-08-08T20:07:09Z</time></trkpt>
<trkpt lat="35.117485" lon="-85.171522"><ele>228.3</ele><time>2026-08-08T20:07:11Z</time></trkpt>
<trkpt lat="35.117458" lon="-85.171488"><ele>228.3</ele><time>2026-08-08T20:07:14Z</time></trkpt>
<trkpt lat="35.117439" lon="-85.171447"><ele>226.2</ele><time>2026-08-08T20:07:17Z</time></trkpt>
<trkpt lat="35.117443" lon="-85.171414"><ele>226.5</ele><time>2026-08-08T20:07:19Z</time></trkpt>
<trkpt lat="35.117458" lon="-85.171373"><ele>225.6</ele><time>2026-08-08T20:07:22Z</time></trkpt>
<trkpt lat="35.117473" lon="-85.171346"><ele>226.2</ele><time>2026-08-08T20:07:24Z</time></trkpt>
<trkpt lat="35.117499" lon="-85.171326"><ele>225.2</ele><time>2026-08-08T20:07:26Z</time></trkpt>
<trkpt lat="35.117528" lon="-85.171313"><ele>225.6</ele><time>2026-08-08T20:07:28Z</time></trkpt>
<trkpt lat="35.117558" lon="-85.171312"><ele>227.1</ele><time>2026-08-08T20:07:30Z</time></trkpt>
<trkpt lat="35.117587" lon="-85.171309"><ele>225.2</ele><time>2026-08-08T20:07:32Z</time></trkpt>
<trkpt lat="35.117625" lon="-85.171312"><ele>225.6</ele><time>2026-08-08T20:07:35Z</time></trkpt>
<trkpt lat="35.117653" lon="-85.171315"><ele>226.2</ele><time>2026-08-08T20:07:37Z</time></trkpt>
<trkpt lat="35.117692" lon="-85.171314"><ele>225.9</ele><time>2026-08-08T20:07:40Z</time></trkpt>
<trkpt lat="35.117732" lon="-85.171316"><ele>226.2</ele><time>2026-08-08T20:07:43Z</time></trkpt>
<trkpt lat="35.11777" lon="-85.171307"><ele>227.7</ele><time>2026-08-08T20:07:46Z</time></trkpt>
<trkpt lat="35.117797" lon="-85.171297"><ele>228.6</ele><time>2026-08-08T20:07:48Z</time></trkpt>
<trkpt lat="35.117833" lon="-85.171273"><ele>225.2</ele><time>2026-08-08T20:07:51Z</time></trkpt>
<trkpt lat="35.11785" lon="-85.171243"><ele>225.2</ele><time>2026-08-08T20:07:53Z</time></trkpt>
<trkpt lat="35.117865" lon="-85.17121"><ele>225.2</ele><time>2026-08-08T20:07:55Z</time></trkpt>
<trkpt lat="35.117884" lon="-85.171179"><ele>224.9</ele><time>2026-08-08T20:07:57Z</time></trkpt>
<trkpt lat="35.117902" lon="-85.171152"><ele>225.2</ele><time>2026-08-08T20:07:59Z</time></trkpt>
<trkpt lat="35.11792" lon="-85.17112"><ele>225.2</ele><time>2026-08-08T20:08:01Z</time></trkpt>
<trkpt lat="35.117936" lon="-85.171089"><ele>226.2</ele><time>2026-08-08T20:08:03Z</time></trkpt>
<trkpt lat="35.117956" lon="-85.171061"><ele>226.8</ele><time>2026-08-08T20:08:05Z</time></trkpt>
<trkpt lat="35.117971" lon="-85.171031"><ele>228.3</ele><time>2026-08-08T20:08:07Z</time></trkpt>
<trkpt lat="35.117983" lon="-85.171"><ele>228.3</ele><time>2026-08-08T20:08:09Z</time></trkpt>
<trkpt lat="35.117988" lon="-85.170965"><ele>228.3</ele><time>2026-08-08T20:08:11Z</time></trkpt>
<trkpt lat="35.117997" lon="-85.170931"><ele>227.1</ele><time>2026-08-08T20:08:13Z</time></trkpt>
<trkpt lat="35.118006" lon="-85.170898"><ele>226.2</ele><time>2026-08-08T20:08:15Z</time></trkpt>
<trkpt lat="35.118021" lon="-85.170852"><ele>227.1</ele><time>2026-08-08T20:08:18Z</time></trkpt>
<trkpt lat="35.118054" lon="-85.170821"><ele>226.5</ele><time>2026-08-08T20:08:21Z</time></trkpt>
<trkpt lat="35.11807" lon="-85.17079"><ele>228.9</ele><time>2026-08-08T20:08:23Z</time></trkpt>
<trkpt lat="35.11808" lon="-85.170756"><ele>230.1</ele><time>2026-08-08T20:08:25Z</time></trkpt>
<trkpt lat="35.118097" lon="-85.170723"><ele>230.7</ele><time>2026-08-08T20:08:27Z</time></trkpt>
<trkpt lat="35.118108" lon="-85.17069"><ele>231.6</ele><time>2026-08-08T20:08:29Z</time></trkpt>
<trkpt lat="35.118123" lon="-85.170647"><ele>232.9</ele><time>2026-08-08T20:08:32Z</time></trkpt>
<trkpt lat="35.118124" lon="-85.1706"><ele>234.1</ele><time>2026-08-08T20:08:35Z</time></trkpt>
<trkpt lat="35.118106" lon="-85.170562"><ele>231.3</ele><time>2026-08-08T20:08:37Z</time></trkpt>
<trkpt lat="35.118093" lon="-85.170523"><ele>230.1</ele><time>2026-08-08T20:08:39Z</time></trkpt>
<trkpt lat="35.118107" lon="-85.170478"><ele>228.3</ele><time>2026-08-08T20:08:41Z</time></trkpt>
<trkpt lat="35.11813" lon="-85.170449"><ele>227.7</ele><time>2026-08-08T20:08:43Z</time></trkpt>
<trkpt lat="35.118156" lon="-85.170432"><ele>229.5</ele><time>2026-08-08T20:08:45Z</time></trkpt>
<trkpt lat="35.118191" lon="-85.170411"><ele>229.5</ele><time>2026-08-08T20:08:48Z</time></trkpt>
<trkpt lat="35.118223" lon="-85.170385"><ele>232.0</ele><time>2026-08-08T20:08:51Z</time></trkpt>
<trkpt lat="35.118255" lon="-85.170366"><ele>232.0</ele><time>2026-08-08T20:08:54Z</time></trkpt>
<trkpt lat="35.118254" lon="-85.170369"><ele>231.6</ele><time>2026-08-08T20:08:55Z</time></trkpt>
<trkpt lat="35.118253" lon="-85.17037"><ele>231.6</ele><time>2026-08-08T20:08:56Z</time></trkpt>
<trkpt lat="35.118253" lon="-85.170368"><ele>232.0</ele><time>2026-08-08T20:08:57Z</time></trkpt>
<trkpt lat="35.118271" lon="-85.170328"><ele>233.8</ele><time>2026-08-08T20:09:00Z</time></trkpt>
<trkpt lat="35.118283" lon="-85.170287"><ele>232.3</ele><time>2026-08-08T20:09:03Z</time></trkpt>
<trkpt lat="35.118273" lon="-85.170253"><ele>230.4</ele><time>2026-08-08T20:09:05Z</time></trkpt>
<trkpt lat="35.118258" lon="-85.170209"><ele>230.4</ele><time>2026-08-08T20:09:08Z</time></trkpt>
<trkpt lat="35.118242" lon="-85.170168"><ele>229.2</ele><time>2026-08-08T20:09:11Z</time></trkpt>
<trkpt lat="35.118222" lon="-85.170125"><ele>230.1</ele><time>2026-08-08T20:09:14Z</time></trkpt>
<trkpt lat="35.118209" lon="-85.17008"><ele>229.8</ele><time>2026-08-08T20:09:17Z</time></trkpt>
<trkpt lat="35.118218" lon="-85.170048"><ele>230.4</ele><time>2026-08-08T20:09:19Z</time></trkpt>
<trkpt lat="35.11823" lon="-85.170002"><ele>230.1</ele><time>2026-08-08T20:09:22Z</time></trkpt>
<trkpt lat="35.118213" lon="-85.169971"><ele>228.6</ele><time>2026-08-08T20:09:24Z</time></trkpt>
<trkpt lat="35.118192" lon="-85.169946"><ele>227.4</ele><time>2026-08-08T20:09:26Z</time></trkpt>
<trkpt lat="35.118173" lon="-85.16992"><ele>228.3</ele><time>2026-08-08T20:09:28Z</time></trkpt>
<trkpt lat="35.118145" lon="-85.169905"><ele>228.3</ele><time>2026-08-08T20:09:30Z</time></trkpt>
<trkpt lat="35.118114" lon="-85.169902"><ele>227.1</ele><time>2026-08-08T20:09:32Z</time></trkpt>
<trkpt lat="35.118086" lon="-85.169917"><ele>227.4</ele><time>2026-08-08T20:09:34Z</time></trkpt>
<trkpt lat="35.118065" lon="-85.169945"><ele>226.8</ele><time>2026-08-08T20:09:36Z</time></trkpt>
<trkpt lat="35.118048" lon="-85.169977"><ele>226.2</ele><time>2026-08-08T20:09:38Z</time></trkpt>
<trkpt lat="35.118038" lon="-85.170019"><ele>224.9</ele><time>2026-08-08T20:09:40Z</time></trkpt>
<trkpt lat="35.118026" lon="-85.170056"><ele>226.2</ele><time>2026-08-08T20:09:42Z</time></trkpt>
<trkpt lat="35.11801" lon="-85.170091"><ele>225.2</ele><time>2026-08-08T20:09:44Z</time></trkpt>
<trkpt lat="35.117994" lon="-85.170125"><ele>224.9</ele><time>2026-08-08T20:09:46Z</time></trkpt>
<trkpt lat="35.117965" lon="-85.170143"><ele>222.8</ele><time>2026-08-08T20:09:48Z</time></trkpt>
<trkpt lat="35.117933" lon="-85.170153"><ele>223.4</ele><time>2026-08-08T20:09:50Z</time></trkpt>
<trkpt lat="35.117905" lon="-85.170155"><ele>222.8</ele><time>2026-08-08T20:09:52Z</time></trkpt>
<trkpt lat="35.117874" lon="-85.170151"><ele>222.5</ele><time>2026-08-08T20:09:54Z</time></trkpt>
<trkpt lat="35.117847" lon="-85.170145"><ele>221.9</ele><time>2026-08-08T20:09:56Z</time></trkpt>
<trkpt lat="35.117817" lon="-85.170129"><ele>221.6</ele><time>2026-08-08T20:09:58Z</time></trkpt>
<trkpt lat="35.117798" lon="-85.1701"><ele>221.3</ele><time>2026-08-08T20:10:00Z</time></trkpt>
<trkpt lat="35.117785" lon="-85.170069"><ele>220.7</ele><time>2026-08-08T20:10:02Z</time></trkpt>
<trkpt lat="35.117769" lon="-85.170041"><ele>221.0</ele><time>2026-08-08T20:10:04Z</time></trkpt>
<trkpt lat="35.117742" lon="-85.170024"><ele>221.3</ele><time>2026-08-08T20:10:06Z</time></trkpt>
<trkpt lat="35.117706" lon="-85.170031"><ele>221.0</ele><time>2026-08-08T20:10:08Z</time></trkpt>
<trkpt lat="35.117672" lon="-85.170044"><ele>222.2</ele><time>2026-08-08T20:10:10Z</time></trkpt>
<trkpt lat="35.11764" lon="-85.170042"><ele>222.5</ele><time>2026-08-08T20:10:12Z</time></trkpt>
<trkpt lat="35.117609" lon="-85.170029"><ele>224.3</ele><time>2026-08-08T20:10:14Z</time></trkpt>
<trkpt lat="35.117585" lon="-85.17001"><ele>224.3</ele><time>2026-08-08T20:10:16Z</time></trkpt>
<trkpt lat="35.117545" lon="-85.170004"><ele>221.6</ele><time>2026-08-08T20:10:19Z</time></trkpt>
<trkpt lat="35.117517" lon="-85.170024"><ele>221.6</ele><time>2026-08-08T20:10:21Z</time></trkpt>
<trkpt lat="35.117494" lon="-85.170054"><ele>220.7</ele><time>2026-08-08T20:10:23Z</time></trkpt>
<trkpt lat="35.117478" lon="-85.170093"><ele>220.1</ele><time>2026-08-08T20:10:25Z</time></trkpt>
<trkpt lat="35.117468" lon="-85.170128"><ele>221.9</ele><time>2026-08-08T20:10:27Z</time></trkpt>
<trkpt lat="35.117467" lon="-85.170165"><ele>221.3</ele><time>2026-08-08T20:10:29Z</time></trkpt>
<trkpt lat="35.117452" lon="-85.170212"><ele>223.4</ele><time>2026-08-08T20:10:32Z</time></trkpt>
<trkpt lat="35.117443" lon="-85.170249"><ele>222.8</ele><time>2026-08-08T20:10:34Z</time></trkpt>
<trkpt lat="35.117436" lon="-85.170286"><ele>222.5</ele><time>2026-08-08T20:10:36Z</time></trkpt>
<trkpt lat="35.117419" lon="-85.170316"><ele>222.8</ele><time>2026-08-08T20:10:38Z</time></trkpt>
<trkpt lat="35.117392" lon="-85.170332"><ele>222.5</ele><time>2026-08-08T20:10:40Z</time></trkpt>
<trkpt lat="35.117357" lon="-85.170356"><ele>223.1</ele><time>2026-08-08T20:10:43Z</time></trkpt>
<trkpt lat="35.117334" lon="-85.17038"><ele>223.4</ele><time>2026-08-08T20:10:45Z</time></trkpt>
<trkpt lat="35.117318" lon="-85.170413"><ele>222.5</ele><time>2026-08-08T20:10:47Z</time></trkpt>
<trkpt lat="35.117295" lon="-85.170435"><ele>223.4</ele><time>2026-08-08T20:10:49Z</time></trkpt>
<trkpt lat="35.117264" lon="-85.170464"><ele>222.8</ele><time>2026-08-08T20:10:52Z</time></trkpt>
<trkpt lat="35.117249" lon="-85.170494"><ele>223.4</ele><time>2026-08-08T20:10:54Z</time></trkpt>
<trkpt lat="35.117245" lon="-85.170531"><ele>223.1</ele><time>2026-08-08T20:10:56Z</time></trkpt>
<trkpt lat="35.117244" lon="-85.170568"><ele>223.1</ele><time>2026-08-08T20:10:58Z</time></trkpt>
<trkpt lat="35.117243" lon="-85.170619"><ele>221.9</ele><time>2026-08-08T20:11:01Z</time></trkpt>
<trkpt lat="35.117238" lon="-85.170655"><ele>221.0</ele><time>2026-08-08T20:11:03Z</time></trkpt>
<trkpt lat="35.117224" lon="-85.170686"><ele>221.0</ele><time>2026-08-08T20:11:05Z</time></trkpt>
<trkpt lat="35.117212" lon="-85.170717"><ele>220.4</ele><time>2026-08-08T20:11:07Z</time></trkpt>
<trkpt lat="35.117194" lon="-85.170749"><ele>219.2</ele><time>2026-08-08T20:11:09Z</time></trkpt>
<trkpt lat="35.117186" lon="-85.170785"><ele>218.5</ele><time>2026-08-08T20:11:11Z</time></trkpt>
<trkpt lat="35.117187" lon="-85.17082"><ele>218.8</ele><time>2026-08-08T20:11:13Z</time></trkpt>
<trkpt lat="35.117194" lon="-85.170868"><ele>218.2</ele><time>2026-08-08T20:11:16Z</time></trkpt>
<trkpt lat="35.117185" lon="-85.1709"><ele>218.2</ele><time>2026-08-08T20:11:18Z</time></trkpt>
<trkpt lat="35.117159" lon="-85.170935"><ele>218.8</ele><time>2026-08-08T20:11:21Z</time></trkpt>
<trkpt lat="35.117142" lon="-85.170961"><ele>220.1</ele><time>2026-08-08T20:11:23Z</time></trkpt>
<trkpt lat="35.117122" lon="-85.170989"><ele>220.4</ele><time>2026-08-08T20:11:25Z</time></trkpt>
<trkpt lat="35.117112" lon="-85.171022"><ele>219.5</ele><time>2026-08-08T20:11:27Z</time></trkpt>
<trkpt lat="35.117095" lon="-85.17105"><ele>219.5</ele><time>2026-08-08T20:11:29Z</time></trkpt>
<trkpt lat="35.117075" lon="-85.171073"><ele>219.5</ele><time>2026-08-08T20:11:31Z</time></trkpt>
<trkpt lat="35.117046" lon="-85.171082"><ele>220.1</ele><time>2026-08-08T20:11:33Z</time></trkpt>
<trkpt lat="35.117018" lon="-85.171101"><ele>220.7</ele><time>2026-08-08T20:11:35Z</time></trkpt>
<trkpt lat="35.117003" lon="-85.171132"><ele>220.1</ele><time>2026-08-08T20:11:37Z</time></trkpt>
<trkpt lat="35.116995" lon="-85.171165"><ele>219.5</ele><time>2026-08-08T20:11:39Z</time></trkpt>
<trkpt lat="35.116991" lon="-85.171205"><ele>219.2</ele><time>2026-08-08T20:11:41Z</time></trkpt>
<trkpt lat="35.116988" lon="-85.171244"><ele>219.2</ele><time>2026-08-08T20:11:43Z</time></trkpt>
<trkpt lat="35.116984" lon="-85.171284"><ele>219.2</ele><time>2026-08-08T20:11:45Z</time></trkpt>
<trkpt lat="35.116976" lon="-85.17132"><ele>221.3</ele><time>2026-08-08T20:11:47Z</time></trkpt>
<trkpt lat="35.116969" lon="-85.171356"><ele>221.0</ele><time>2026-08-08T20:11:49Z</time></trkpt>
<trkpt lat="35.11696" lon="-85.171391"><ele>221.0</ele><time>2026-08-08T20:11:51Z</time></trkpt>
<trkpt lat="35.116952" lon="-85.171425"><ele>221.6</ele><time>2026-08-08T20:11:53Z</time></trkpt>
<trkpt lat="35.116948" lon="-85.171475"><ele>221.6</ele><time>2026-08-08T20:11:56Z</time></trkpt>
<trkpt lat="35.116944" lon="-85.171511"><ele>222.5</ele><time>2026-08-08T20:11:58Z</time></trkpt>
<trkpt lat="35.116957" lon="-85.171542"><ele>222.2</ele><time>2026-08-08T20:12:00Z</time></trkpt>
<trkpt lat="35.116958" lon="-85.171578"><ele>223.1</ele><time>2026-08-08T20:12:02Z</time></trkpt>
<trkpt lat="35.116952" lon="-85.171612"><ele>224.0</ele><time>2026-08-08T20:12:04Z</time></trkpt>
<trkpt lat="35.116942" lon="-85.171644"><ele>224.0</ele><time>2026-08-08T20:12:06Z</time></trkpt>
<trkpt lat="35.116926" lon="-85.171687"><ele>223.7</ele><time>2026-08-08T20:12:09Z</time></trkpt>
<trkpt lat="35.116905" lon="-85.171724"><ele>223.7</ele><time>2026-08-08T20:12:12Z</time></trkpt>
<trkpt lat="35.116884" lon="-85.171767"><ele>221.9</ele><time>2026-08-08T20:12:15Z</time></trkpt>
<trkpt lat="35.11686" lon="-85.171787"><ele>222.2</ele><time>2026-08-08T20:12:17Z</time></trkpt>
<trkpt lat="35.116836" lon="-85.171805"><ele>222.5</ele><time>2026-08-08T20:12:19Z</time></trkpt>
<trkpt lat="35.116811" lon="-85.171846"><ele>224.0</ele><time>2026-08-08T20:12:22Z</time></trkpt>
<trkpt lat="35.116801" lon="-85.171882"><ele>223.7</ele><time>2026-08-08T20:12:24Z</time></trkpt>
<trkpt lat="35.11679" lon="-85.171914"><ele>223.4</ele><time>2026-08-08T20:12:26Z</time></trkpt>
<trkpt lat="35.116773" lon="-85.171941"><ele>223.7</ele><time>2026-08-08T20:12:28Z</time></trkpt>
<trkpt lat="35.11676" lon="-85.171972"><ele>224.3</ele><time>2026-08-08T20:12:30Z</time></trkpt>
<trkpt lat="35.116756" lon="-85.172007"><ele>223.7</ele><time>2026-08-08T20:12:32Z</time></trkpt>
<trkpt lat="35.11676" lon="-85.172042"><ele>222.5</ele><time>2026-08-08T20:12:34Z</time></trkpt>
<trkpt lat="35.116775" lon="-85.172076"><ele>221.6</ele><time>2026-08-08T20:12:36Z</time></trkpt>
<trkpt lat="35.116799" lon="-85.172106"><ele>221.0</ele><time>2026-08-08T20:12:38Z</time></trkpt>
<trkpt lat="35.116823" lon="-85.172131"><ele>220.4</ele><time>2026-08-08T20:12:40Z</time></trkpt>
<trkpt lat="35.116849" lon="-85.17215"><ele>221.0</ele><time>2026-08-08T20:12:42Z</time></trkpt>
<trkpt lat="35.116876" lon="-85.17217"><ele>219.2</ele><time>2026-08-08T20:12:44Z</time></trkpt>
<trkpt lat="35.116901" lon="-85.172187"><ele>218.2</ele><time>2026-08-08T20:12:46Z</time></trkpt>
<trkpt lat="35.116925" lon="-85.172209"><ele>217.3</ele><time>2026-08-08T20:12:48Z</time></trkpt>
<trkpt lat="35.116953" lon="-85.172213"><ele>217.3</ele><time>2026-08-08T20:12:50Z</time></trkpt>
<trkpt lat="35.11698" lon="-85.172227"><ele>217.3</ele><time>2026-08-08T20:12:52Z</time></trkpt>
<trkpt lat="35.117005" lon="-85.172253"><ele>217.3</ele><time>2026-08-08T20:12:54Z</time></trkpt>
<trkpt lat="35.117035" lon="-85.172285"><ele>217.3</ele><time>2026-08-08T20:12:57Z</time></trkpt>
<trkpt lat="35.117058" lon="-85.172308"><ele>217.6</ele><time>2026-08-08T20:12:59Z</time></trkpt>
<trkpt lat="35.117083" lon="-85.172323"><ele>221.9</ele><time>2026-08-08T20:13:01Z</time></trkpt>
<trkpt lat="35.11711" lon="-85.172335"><ele>223.1</ele><time>2026-08-08T20:13:03Z</time></trkpt>
<trkpt lat="35.117139" lon="-85.172341"><ele>223.4</ele><time>2026-08-08T20:13:05Z</time></trkpt>
<trkpt lat="35.117167" lon="-85.172348"><ele>223.1</ele><time>2026-08-08T20:13:07Z</time></trkpt>
<trkpt lat="35.117198" lon="-85.172346"><ele>224.0</ele><time>2026-08-08T20:13:09Z</time></trkpt>
<trkpt lat="35.117227" lon="-85.172352"><ele>224.3</ele><time>2026-08-08T20:13:11Z</time></trkpt>
<trkpt lat="35.117257" lon="-85.172352"><ele>226.2</ele><time>2026-08-08T20:13:13Z</time></trkpt>
<trkpt lat="35.117285" lon="-85.172357"><ele>224.9</ele><time>2026-08-08T20:13:15Z</time></trkpt>
<trkpt lat="35.117315" lon="-85.172365"><ele>225.2</ele><time>2026-08-08T20:13:17Z</time></trkpt>
<trkpt lat="35.11734" lon="-85.172381"><ele>223.7</ele><time>2026-08-08T20:13:19Z</time></trkpt>
<trkpt lat="35.117361" lon="-85.172404"><ele>222.2</ele><time>2026-08-08T20:13:21Z</time></trkpt>
<trkpt lat="35.117387" lon="-85.172424"><ele>222.5</ele><time>2026-08-08T20:13:23Z</time></trkpt>
<trkpt lat="35.117415" lon="-85.172439"><ele>221.9</ele><time>2026-08-08T20:13:25Z</time></trkpt>
<trkpt lat="35.117442" lon="-85.172447"><ele>224.0</ele><time>2026-08-08T20:13:27Z</time></trkpt>
<trkpt lat="35.117481" lon="-85.172457"><ele>226.5</ele><time>2026-08-08T20:13:30Z</time></trkpt>
<trkpt lat="35.117521" lon="-85.172463"><ele>226.2</ele><time>2026-08-08T20:13:33Z</time></trkpt>
<trkpt lat="35.117549" lon="-85.172467"><ele>226.5</ele><time>2026-08-08T20:13:35Z</time></trkpt>
<trkpt lat="35.117577" lon="-85.172471"><ele>227.1</ele><time>2026-08-08T20:13:37Z</time></trkpt>
<trkpt lat="35.117613" lon="-85.172494"><ele>229.2</ele><time>2026-08-08T20:13:40Z</time></trkpt>
<trkpt lat="35.117641" lon="-85.172502"><ele>228.3</ele><time>2026-08-08T20:13:42Z</time></trkpt>
<trkpt lat="35.117669" lon="-85.172503"><ele>227.7</ele><time>2026-08-08T20:13:44Z</time></trkpt>
<trkpt lat="35.117708" lon="-85.172503"><ele>229.8</ele><time>2026-08-08T20:13:47Z</time></trkpt>
<trkpt lat="35.117736" lon="-85.172498"><ele>230.7</ele><time>2026-08-08T20:13:49Z</time></trkpt>
<trkpt lat="35.117774" lon="-85.172508"><ele>231.3</ele><time>2026-08-08T20:13:52Z</time></trkpt>
<trkpt lat="35.117809" lon="-85.17253"><ele>228.9</ele><time>2026-08-08T20:13:55Z</time></trkpt>
<trkpt lat="35.117841" lon="-85.172543"><ele>228.0</ele><time>2026-08-08T20:13:57Z</time></trkpt>
<trkpt lat="35.117874" lon="-85.172552"><ele>229.2</ele><time>2026-08-08T20:13:59Z</time></trkpt>
<trkpt lat="35.117903" lon="-85.172557"><ele>230.1</ele><time>2026-08-08T20:14:01Z</time></trkpt>
<trkpt lat="35.117933" lon="-85.172553"><ele>230.7</ele><time>2026-08-08T20:14:03Z</time></trkpt>
<trkpt lat="35.117967" lon="-85.172552"><ele>232.6</ele><time>2026-08-08T20:14:06Z</time></trkpt>
<trkpt lat="35.118005" lon="-85.172548"><ele>234.1</ele><time>2026-08-08T20:14:09Z</time></trkpt>
<trkpt lat="35.118042" lon="-85.172543"><ele>234.4</ele><time>2026-08-08T20:14:12Z</time></trkpt>
<trkpt lat="35.118077" lon="-85.172552"><ele>236.5</ele><time>2026-08-08T20:14:15Z</time></trkpt>
<trkpt lat="35.118116" lon="-85.172551"><ele>236.8</ele><time>2026-08-08T20:14:18Z</time></trkpt>
<trkpt lat="35.118152" lon="-85.172545"><ele>235.9</ele><time>2026-08-08T20:14:21Z</time></trkpt>
<trkpt lat="35.118187" lon="-85.172537"><ele>234.4</ele><time>2026-08-08T20:14:24Z</time></trkpt>
<trkpt lat="35.11822" lon="-85.172523"><ele>232.3</ele><time>2026-08-08T20:14:27Z</time></trkpt>
<trkpt lat="35.118259" lon="-85.172509"><ele>230.7</ele><time>2026-08-08T20:14:30Z</time></trkpt>
<trkpt lat="35.118286" lon="-85.172503"><ele>231.3</ele><time>2026-08-08T20:14:32Z</time></trkpt>
<trkpt lat="35.118321" lon="-85.172485"><ele>230.4</ele><time>2026-08-08T20:14:35Z</time></trkpt>
<trkpt lat="35.118323" lon="-85.172438"><ele>228.3</ele><time>2026-08-08T20:14:37Z</time></trkpt>
<trkpt lat="35.118325" lon="-85.172401"><ele>229.2</ele><time>2026-08-08T20:14:39Z</time></trkpt>
<trkpt lat="35.11832" lon="-85.172364"><ele>226.8</ele><time>2026-08-08T20:14:41Z</time></trkpt>
<trkpt lat="35.118302" lon="-85.172335"><ele>225.6</ele><time>2026-08-08T20:14:43Z</time></trkpt>
<trkpt lat="35.118275" lon="-85.172315"><ele>224.9</ele><time>2026-08-08T20:14:45Z</time></trkpt>
<trkpt lat="35.11825" lon="-85.172293"><ele>224.0</ele><time>2026-08-08T20:14:47Z</time></trkpt>
<trkpt lat="35.118225" lon="-85.172269"><ele>226.8</ele><time>2026-08-08T20:14:49Z</time></trkpt>
<trkpt lat="35.118208" lon="-85.172242"><ele>226.8</ele><time>2026-08-08T20:14:51Z</time></trkpt>
<trkpt lat="35.118181" lon="-85.172211"><ele>228.0</ele><time>2026-08-08T20:14:54Z</time></trkpt>
<trkpt lat="35.118149" lon="-85.172183"><ele>229.2</ele><time>2026-08-08T20:14:57Z</time></trkpt>
<trkpt lat="35.118123" lon="-85.17216"><ele>231.3</ele><time>2026-08-08T20:15:00Z</time></trkpt>
<trkpt lat="35.118089" lon="-85.172149"><ele>231.3</ele><time>2026-08-08T20:15:03Z</time></trkpt>
<trkpt lat="35.11805" lon="-85.172148"><ele>231.6</ele><time>2026-08-08T20:15:06Z</time></trkpt>
<trkpt lat="35.118011" lon="-85.172141"><ele>232.3</ele><time>2026-08-08T20:15:09Z</time></trkpt>
<trkpt lat="35.117975" lon="-85.172131"><ele>232.3</ele><time>2026-08-08T20:15:12Z</time></trkpt>
<trkpt lat="35.117936" lon="-85.172118"><ele>231.6</ele><time>2026-08-08T20:15:15Z</time></trkpt>
<trkpt lat="35.117909" lon="-85.172112"><ele>231.3</ele><time>2026-08-08T20:15:17Z</time></trkpt>
<trkpt lat="35.117878" lon="-85.172078"><ele>229.2</ele><time>2026-08-08T20:15:20Z</time></trkpt>
<trkpt lat="35.117862" lon="-85.172045"><ele>228.6</ele><time>2026-08-08T20:15:22Z</time></trkpt>
<trkpt lat="35.117852" lon="-85.17201"><ele>227.7</ele><time>2026-08-08T20:15:24Z</time></trkpt>
<trkpt lat="35.117848" lon="-85.171975"><ele>228.3</ele><time>2026-08-08T20:15:26Z</time></trkpt>
<trkpt lat="35.117857" lon="-85.171939"><ele>228.9</ele><time>2026-08-08T20:15:28Z</time></trkpt>
<trkpt lat="35.117879" lon="-85.171911"><ele>230.1</ele><time>2026-08-08T20:15:30Z</time></trkpt>
<trkpt lat="35.117911" lon="-85.171883"><ele>230.1</ele><time>2026-08-08T20:15:33Z</time></trkpt>
<trkpt lat="35.117947" lon="-85.171859"><ele>229.2</ele><time>2026-08-08T20:15:36Z</time></trkpt>
<trkpt lat="35.117975" lon="-85.171848"><ele>228.6</ele><time>2026-08-08T20:15:38Z</time></trkpt>
<trkpt lat="35.118003" lon="-85.171844"><ele>228.6</ele><time>2026-08-08T20:15:40Z</time></trkpt>
<trkpt lat="35.118042" lon="-85.171835"><ele>230.4</ele><time>2026-08-08T20:15:43Z</time></trkpt>
<trkpt lat="35.118073" lon="-85.171834"><ele>229.5</ele><time>2026-08-08T20:15:45Z</time></trkpt>
<trkpt lat="35.118104" lon="-85.171832"><ele>230.1</ele><time>2026-08-08T20:15:47Z</time></trkpt>
<trkpt lat="35.118131" lon="-85.171839"><ele>231.0</ele><time>2026-08-08T20:15:49Z</time></trkpt>
<trkpt lat="35.11817" lon="-85.171845"><ele>232.6</ele><time>2026-08-08T20:15:52Z</time></trkpt>
<trkpt lat="35.118195" lon="-85.171831"><ele>232.9</ele><time>2026-08-08T20:15:54Z</time></trkpt>
<trkpt lat="35.118208" lon="-85.171796"><ele>232.9</ele><time>2026-08-08T20:15:56Z</time></trkpt>
<trkpt lat="35.118217" lon="-85.171761"><ele>232.9</ele><time>2026-08-08T20:15:58Z</time></trkpt>
<trkpt lat="35.11823" lon="-85.171728"><ele>234.7</ele><time>2026-08-08T20:16:00Z</time></trkpt>
<trkpt lat="35.11825" lon="-85.171704"><ele>234.1</ele><time>2026-08-08T20:16:02Z</time></trkpt>
<trkpt lat="35.118278" lon="-85.171694"><ele>233.8</ele><time>2026-08-08T20:16:04Z</time></trkpt>
<trkpt lat="35.118306" lon="-85.171695"><ele>232.9</ele><time>2026-08-08T20:16:06Z</time></trkpt>
<trkpt lat="35.11833" lon="-85.171714"><ele>232.3</ele><time>2026-08-08T20:16:08Z</time></trkpt>
<trkpt lat="35.118349" lon="-85.171739"><ele>233.5</ele><time>2026-08-08T20:16:10Z</time></trkpt>
<trkpt lat="35.118365" lon="-85.171767"><ele>233.2</ele><time>2026-08-08T20:16:12Z</time></trkpt>
<trkpt lat="35.118373" lon="-85.171803"><ele>233.5</ele><time>2026-08-08T20:16:14Z</time></trkpt>
<trkpt lat="35.118376" lon="-85.171839"><ele>233.8</ele><time>2026-08-08T20:16:16Z</time></trkpt>
<trkpt lat="35.118373" lon="-85.171878"><ele>233.5</ele><time>2026-08-08T20:16:18Z</time></trkpt>
<trkpt lat="35.118372" lon="-85.171914"><ele>235.3</ele><time>2026-08-08T20:16:20Z</time></trkpt>
<trkpt lat="35.118364" lon="-85.171949"><ele>235.6</ele><time>2026-08-08T20:16:22Z</time></trkpt>
<trkpt lat="35.118363" lon="-85.171987"><ele>234.7</ele><time>2026-08-08T20:16:24Z</time></trkpt>
<trkpt lat="35.118368" lon="-85.172024"><ele>234.7</ele><time>2026-08-08T20:16:26Z</time></trkpt>
<trkpt lat="35.118384" lon="-85.172055"><ele>234.7</ele><time>2026-08-08T20:16:28Z</time></trkpt>
<trkpt lat="35.118405" lon="-85.172083"><ele>233.8</ele><time>2026-08-08T20:16:30Z</time></trkpt>
<trkpt lat="35.118431" lon="-85.17212"><ele>232.0</ele><time>2026-08-08T20:16:33Z</time></trkpt>
<trkpt lat="35.118454" lon="-85.172159"><ele>234.7</ele><time>2026-08-08T20:16:36Z</time></trkpt>
<trkpt lat="35.118467" lon="-85.172189"><ele>233.2</ele><time>2026-08-08T20:16:38Z</time></trkpt>
<trkpt lat="35.118498" lon="-85.172216"><ele>233.5</ele><time>2026-08-08T20:16:41Z</time></trkpt>
<trkpt lat="35.118536" lon="-85.172236"><ele>232.6</ele><time>2026-08-08T20:16:44Z</time></trkpt>
<trkpt lat="35.118565" lon="-85.172235"><ele>233.2</ele><time>2026-08-08T20:16:46Z</time></trkpt>
<trkpt lat="35.118596" lon="-85.172221"><ele>232.6</ele><time>2026-08-08T20:16:48Z</time></trkpt>
<trkpt lat="35.118621" lon="-85.172201"><ele>233.2</ele><time>2026-08-08T20:16:50Z</time></trkpt>
<trkpt lat="35.11864" lon="-85.17217"><ele>234.4</ele><time>2026-08-08T20:16:52Z</time></trkpt>
<trkpt lat="35.118661" lon="-85.172148"><ele>236.2</ele><time>2026-08-08T20:16:54Z</time></trkpt>
<trkpt lat="35.118687" lon="-85.172132"><ele>238.7</ele><time>2026-08-08T20:16:56Z</time></trkpt>
<trkpt lat="35.118726" lon="-85.172117"><ele>237.1</ele><time>2026-08-08T20:16:59Z</time></trkpt>
<trkpt lat="35.118753" lon="-85.172109"><ele>237.7</ele><time>2026-08-08T20:17:01Z</time></trkpt>
<trkpt lat="35.11878" lon="-85.172099"><ele>238.0</ele><time>2026-08-08T20:17:03Z</time></trkpt>
<trkpt lat="35.118818" lon="-85.17209"><ele>236.8</ele><time>2026-08-08T20:17:06Z</time></trkpt>
<trkpt lat="35.118847" lon="-85.172085"><ele>235.9</ele><time>2026-08-08T20:17:08Z</time></trkpt>
<trkpt lat="35.118873" lon="-85.172076"><ele>236.2</ele><time>2026-08-08T20:17:10Z</time></trkpt>
<trkpt lat="35.118903" lon="-85.172064"><ele>235.3</ele><time>2026-08-08T20:17:12Z</time></trkpt>
<trkpt lat="35.118932" lon="-85.172062"><ele>235.9</ele><time>2026-08-08T20:17:14Z</time></trkpt>
<trkpt lat="35.11896" lon="-85.172056"><ele>235.3</ele><time>2026-08-08T20:17:16Z</time></trkpt>
<trkpt lat="35.118997" lon="-85.172039"><ele>233.8</ele><time>2026-08-08T20:17:19Z</time></trkpt>
<trkpt lat="35.119024" lon="-85.172028"><ele>233.5</ele><time>2026-08-08T20:17:21Z</time></trkpt>
<trkpt lat="35.119052" lon="-85.172024"><ele>234.4</ele><time>2026-08-08T20:17:23Z</time></trkpt>
<trkpt lat="35.119079" lon="-85.172015"><ele>233.8</ele><time>2026-08-08T20:17:25Z</time></trkpt>
<trkpt lat="35.119104" lon="-85.171997"><ele>232.6</ele><time>2026-08-08T20:17:27Z</time></trkpt>
<trkpt lat="35.11913" lon="-85.171986"><ele>233.5</ele><time>2026-08-08T20:17:29Z</time></trkpt>
<trkpt lat="35.119169" lon="-85.171979"><ele>233.8</ele><time>2026-08-08T20:17:32Z</time></trkpt>
<trkpt lat="35.119209" lon="-85.171968"><ele>233.5</ele><time>2026-08-08T20:17:35Z</time></trkpt>
<trkpt lat="35.119236" lon="-85.171957"><ele>231.6</ele><time>2026-08-08T20:17:37Z</time></trkpt>
<trkpt lat="35.119262" lon="-85.171945"><ele>231.3</ele><time>2026-08-08T20:17:39Z</time></trkpt>
<trkpt lat="35.119292" lon="-85.171937"><ele>231.6</ele><time>2026-08-08T20:17:41Z</time></trkpt>
<trkpt lat="35.119321" lon="-85.171934"><ele>232.3</ele><time>2026-08-08T20:17:43Z</time></trkpt>
<trkpt lat="35.119358" lon="-85.171945"><ele>231.6</ele><time>2026-08-08T20:17:46Z</time></trkpt>
<trkpt lat="35.119388" lon="-85.171968"><ele>231.6</ele><time>2026-08-08T20:17:49Z</time></trkpt>
<trkpt lat="35.11942" lon="-85.171989"><ele>231.6</ele><time>2026-08-08T20:17:52Z</time></trkpt>
<trkpt lat="35.119455" lon="-85.172003"><ele>233.2</ele><time>2026-08-08T20:17:55Z</time></trkpt>
<trkpt lat="35.119494" lon="-85.172017"><ele>233.5</ele><time>2026-08-08T20:17:58Z</time></trkpt>
<trkpt lat="35.119535" lon="-85.172009"><ele>234.7</ele><time>2026-08-08T20:18:01Z</time></trkpt>
<trkpt lat="35.119577" lon="-85.172016"><ele>235.6</ele><time>2026-08-08T20:18:04Z</time></trkpt>
<trkpt lat="35.119607" lon="-85.172019"><ele>236.2</ele><time>2026-08-08T20:18:06Z</time></trkpt>
<trkpt lat="35.119637" lon="-85.172014"><ele>235.3</ele><time>2026-08-08T20:18:08Z</time></trkpt>
<trkpt lat="35.119666" lon="-85.172004"><ele>235.3</ele><time>2026-08-08T20:18:10Z</time></trkpt>
<trkpt lat="35.119692" lon="-85.171979"><ele>232.9</ele><time>2026-08-08T20:18:12Z</time></trkpt>
<trkpt lat="35.119707" lon="-85.171942"><ele>231.6</ele><time>2026-08-08T20:18:14Z</time></trkpt>
<trkpt lat="35.119721" lon="-85.171907"><ele>231.3</ele><time>2026-08-08T20:18:16Z</time></trkpt>
<trkpt lat="35.11974" lon="-85.171881"><ele>231.3</ele><time>2026-08-08T20:18:18Z</time></trkpt>
<trkpt lat="35.119755" lon="-85.171851"><ele>234.7</ele><time>2026-08-08T20:18:20Z</time></trkpt>
<trkpt lat="35.119768" lon="-85.171819"><ele>235.9</ele><time>2026-08-08T20:18:22Z</time></trkpt>
<trkpt lat="35.119797" lon="-85.171783"><ele>237.4</ele><time>2026-08-08T20:18:25Z</time></trkpt>
<trkpt lat="35.119816" lon="-85.171757"><ele>238.0</ele><time>2026-08-08T20:18:27Z</time></trkpt>
<trkpt lat="35.119835" lon="-85.171732"><ele>237.4</ele><time>2026-08-08T20:18:29Z</time></trkpt>
<trkpt lat="35.119858" lon="-85.17171"><ele>237.4</ele><time>2026-08-08T20:18:31Z</time></trkpt>
<trkpt lat="35.119876" lon="-85.171681"><ele>238.0</ele><time>2026-08-08T20:18:33Z</time></trkpt>
<trkpt lat="35.119892" lon="-85.171654"><ele>239.6</ele><time>2026-08-08T20:18:35Z</time></trkpt>
<trkpt lat="35.119913" lon="-85.171632"><ele>240.2</ele><time>2026-08-08T20:18:37Z</time></trkpt>
<trkpt lat="35.119934" lon="-85.171606"><ele>239.3</ele><time>2026-08-08T20:18:39Z</time></trkpt>
<trkpt lat="35.119972" lon="-85.171592"><ele>238.4</ele><time>2026-08-08T20:18:42Z</time></trkpt>
<trkpt lat="35.119999" lon="-85.171593"><ele>238.7</ele><time>2026-08-08T20:18:44Z</time></trkpt>
<trkpt lat="35.120027" lon="-85.171595"><ele>239.0</ele><time>2026-08-08T20:18:46Z</time></trkpt>
<trkpt lat="35.120056" lon="-85.17159"><ele>240.5</ele><time>2026-08-08T20:18:48Z</time></trkpt>
<trkpt lat="35.120092" lon="-85.171569"><ele>239.9</ele><time>2026-08-08T20:18:51Z</time></trkpt>
<trkpt lat="35.12012" lon="-85.171563"><ele>238.7</ele><time>2026-08-08T20:18:53Z</time></trkpt>
<trkpt lat="35.120148" lon="-85.171555"><ele>238.7</ele><time>2026-08-08T20:18:55Z</time></trkpt>
<trkpt lat="35.120178" lon="-85.171557"><ele>240.2</ele><time>2026-08-08T20:18:57Z</time></trkpt>
<trkpt lat="35.120202" lon="-85.171575"><ele>240.2</ele><time>2026-08-08T20:18:59Z</time></trkpt>
<trkpt lat="35.120225" lon="-85.171593"><ele>241.4</ele><time>2026-08-08T20:19:01Z</time></trkpt>
<trkpt lat="35.120254" lon="-85.171604"><ele>240.8</ele><time>2026-08-08T20:19:03Z</time></trkpt>
<trkpt lat="35.120285" lon="-85.171602"><ele>240.8</ele><time>2026-08-08T20:19:05Z</time></trkpt>
<trkpt lat="35.120313" lon="-85.171584"><ele>240.2</ele><time>2026-08-08T20:19:07Z</time></trkpt>
<trkpt lat="35.120348" lon="-85.171554"><ele>240.8</ele><time>2026-08-08T20:19:10Z</time></trkpt>
<trkpt lat="35.12037" lon="-85.171527"><ele>240.2</ele><time>2026-08-08T20:19:12Z</time></trkpt>
<trkpt lat="35.120396" lon="-85.171506"><ele>240.2</ele><time>2026-08-08T20:19:14Z</time></trkpt>
<trkpt lat="35.120427" lon="-85.171492"><ele>237.7</ele><time>2026-08-08T20:19:16Z</time></trkpt>
<trkpt lat="35.120449" lon="-85.171469"><ele>236.8</ele><time>2026-08-08T20:19:18Z</time></trkpt>
<trkpt lat="35.120469" lon="-85.171443"><ele>236.8</ele><time>2026-08-08T20:19:20Z</time></trkpt>
<trkpt lat="35.120489" lon="-85.171416"><ele>237.4</ele><time>2026-08-08T20:19:22Z</time></trkpt>
<trkpt lat="35.120519" lon="-85.171385"><ele>240.2</ele><time>2026-08-08T20:19:25Z</time></trkpt>
<trkpt lat="35.120546" lon="-85.171347"><ele>243.2</ele><time>2026-08-08T20:19:28Z</time></trkpt>
<trkpt lat="35.12056" lon="-85.171315"><ele>243.8</ele><time>2026-08-08T20:19:30Z</time></trkpt>
<trkpt lat="35.120581" lon="-85.171272"><ele>243.2</ele><time>2026-08-08T20:19:33Z</time></trkpt>
<trkpt lat="35.120598" lon="-85.171245"><ele>240.8</ele><time>2026-08-08T20:19:35Z</time></trkpt>
<trkpt lat="35.120617" lon="-85.171219"><ele>242.9</ele><time>2026-08-08T20:19:37Z</time></trkpt>
<trkpt lat="35.120647" lon="-85.171193"><ele>242.9</ele><time>2026-08-08T20:19:40Z</time></trkpt>
<trkpt lat="35.120685" lon="-85.171172"><ele>242.6</ele><time>2026-08-08T20:19:43Z</time></trkpt>
<trkpt lat="35.120719" lon="-85.171153"><ele>242.9</ele><time>2026-08-08T20:19:46Z</time></trkpt>
<trkpt lat="35.120755" lon="-85.171141"><ele>243.8</ele><time>2026-08-08T20:19:49Z</time></trkpt>
<trkpt lat="35.120792" lon="-85.171144"><ele>244.4</ele><time>2026-08-08T20:19:52Z</time></trkpt>
<trkpt lat="35.120823" lon="-85.171157"><ele>245.7</ele><time>2026-08-08T20:19:55Z</time></trkpt>
<trkpt lat="35.120829" lon="-85.171198"><ele>244.4</ele><time>2026-08-08T20:19:57Z</time></trkpt>
<trkpt lat="35.120831" lon="-85.171234"><ele>244.4</ele><time>2026-08-08T20:19:59Z</time></trkpt>
<trkpt lat="35.120838" lon="-85.171277"><ele>244.4</ele><time>2026-08-08T20:20:02Z</time></trkpt>
<trkpt lat="35.120844" lon="-85.171311"><ele>242.6</ele><time>2026-08-08T20:20:04Z</time></trkpt>
<trkpt lat="35.120845" lon="-85.171344"><ele>243.8</ele><time>2026-08-08T20:20:06Z</time></trkpt>
<trkpt lat="35.120858" lon="-85.171389"><ele>243.2</ele><time>2026-08-08T20:20:09Z</time></trkpt>
<trkpt lat="35.120852" lon="-85.171426"><ele>243.2</ele><time>2026-08-08T20:20:11Z</time></trkpt>
<trkpt lat="35.120835" lon="-85.171456"><ele>241.7</ele><time>2026-08-08T20:20:13Z</time></trkpt>
<trkpt lat="35.12083" lon="-85.171492"><ele>241.4</ele><time>2026-08-08T20:20:15Z</time></trkpt>
<trkpt lat="35.120837" lon="-85.171526"><ele>242.3</ele><time>2026-08-08T20:20:17Z</time></trkpt>
<trkpt lat="35.120839" lon="-85.171559"><ele>246.3</ele><time>2026-08-08T20:20:19Z</time></trkpt>
<trkpt lat="35.120825" lon="-85.171595"><ele>246.6</ele><time>2026-08-08T20:20:21Z</time></trkpt>
<trkpt lat="35.120823" lon="-85.17163"><ele>247.2</ele><time>2026-08-08T20:20:23Z</time></trkpt>
<trkpt lat="35.120826" lon="-85.171663"><ele>246.0</ele><time>2026-08-08T20:20:25Z</time></trkpt>
<trkpt lat="35.120842" lon="-85.171696"><ele>243.8</ele><time>2026-08-08T20:20:27Z</time></trkpt>
<trkpt lat="35.120861" lon="-85.171726"><ele>244.8</ele><time>2026-08-08T20:20:29Z</time></trkpt>
<trkpt lat="35.120885" lon="-85.171748"><ele>243.8</ele><time>2026-08-08T20:20:31Z</time></trkpt>
<trkpt lat="35.120913" lon="-85.171768"><ele>243.2</ele><time>2026-08-08T20:20:33Z</time></trkpt>
<trkpt lat="35.120936" lon="-85.171795"><ele>242.6</ele><time>2026-08-08T20:20:35Z</time></trkpt>
<trkpt lat="35.120942" lon="-85.171832"><ele>242.0</ele><time>2026-08-08T20:20:37Z</time></trkpt>
<trkpt lat="35.120931" lon="-85.171865"><ele>241.7</ele><time>2026-08-08T20:20:39Z</time></trkpt>
<trkpt lat="35.120909" lon="-85.17189"><ele>241.7</ele><time>2026-08-08T20:20:41Z</time></trkpt>
<trkpt lat="35.120885" lon="-85.171907"><ele>242.0</ele><time>2026-08-08T20:20:43Z</time></trkpt>
<trkpt lat="35.120848" lon="-85.171911"><ele>239.6</ele><time>2026-08-08T20:20:46Z</time></trkpt>
<trkpt lat="35.120819" lon="-85.171928"><ele>237.4</ele><time>2026-08-08T20:20:48Z</time></trkpt>
<trkpt lat="35.120793" lon="-85.171947"><ele>236.2</ele><time>2026-08-08T20:20:50Z</time></trkpt>
<trkpt lat="35.120766" lon="-85.171966"><ele>236.5</ele><time>2026-08-08T20:20:52Z</time></trkpt>
<trkpt lat="35.120732" lon="-85.171983"><ele>236.2</ele><time>2026-08-08T20:20:55Z</time></trkpt>
<trkpt lat="35.120703" lon="-85.171975"><ele>235.0</ele><time>2026-08-08T20:20:57Z</time></trkpt>
<trkpt lat="35.120682" lon="-85.171943"><ele>236.2</ele><time>2026-08-08T20:20:59Z</time></trkpt>
<trkpt lat="35.120678" lon="-85.171895"><ele>239.0</ele><time>2026-08-08T20:21:01Z</time></trkpt>
<trkpt lat="35.120689" lon="-85.171859"><ele>239.0</ele><time>2026-08-08T20:21:03Z</time></trkpt>
<trkpt lat="35.120695" lon="-85.171821"><ele>238.4</ele><time>2026-08-08T20:21:05Z</time></trkpt>
<trkpt lat="35.120697" lon="-85.171783"><ele>238.7</ele><time>2026-08-08T20:21:07Z</time></trkpt>
<trkpt lat="35.120699" lon="-85.171744"><ele>238.4</ele><time>2026-08-08T20:21:09Z</time></trkpt>
<trkpt lat="35.120697" lon="-85.171704"><ele>238.0</ele><time>2026-08-08T20:21:11Z</time></trkpt>
<trkpt lat="35.12069" lon="-85.17166"><ele>241.4</ele><time>2026-08-08T20:21:13Z</time></trkpt>
<trkpt lat="35.1207" lon="-85.171623"><ele>242.9</ele><time>2026-08-08T20:21:15Z</time></trkpt>
<trkpt lat="35.120716" lon="-85.171594"><ele>244.4</ele><time>2026-08-08T20:21:17Z</time></trkpt>
<trkpt lat="35.120736" lon="-85.171565"><ele>243.5</ele><time>2026-08-08T20:21:19Z</time></trkpt>
<trkpt lat="35.120754" lon="-85.171536"><ele>245.4</ele><time>2026-08-08T20:21:21Z</time></trkpt>
<trkpt lat="35.120761" lon="-85.171503"><ele>244.8</ele><time>2026-08-08T20:21:23Z</time></trkpt>
<trkpt lat="35.120753" lon="-85.171469"><ele>243.5</ele><time>2026-08-08T20:21:25Z</time></trkpt>
<trkpt lat="35.120729" lon="-85.171431"><ele>242.3</ele><time>2026-08-08T20:21:28Z</time></trkpt>
<trkpt lat="35.120694" lon="-85.171406"><ele>242.6</ele><time>2026-08-08T20:21:31Z</time></trkpt>
<trkpt lat="35.120652" lon="-85.171408"><ele>237.4</ele><time>2026-08-08T20:21:34Z</time></trkpt>
<trkpt lat="35.120623" lon="-85.17142"><ele>235.0</ele><time>2026-08-08T20:21:36Z</time></trkpt>
<trkpt lat="35.120594" lon="-85.171432"><ele>235.0</ele><time>2026-08-08T20:21:38Z</time></trkpt>
<trkpt lat="35.120567" lon="-85.171455"><ele>235.6</ele><time>2026-08-08T20:21:40Z</time></trkpt>
<trkpt lat="35.12054" lon="-85.17147"><ele>235.3</ele><time>2026-08-08T20:21:42Z</time></trkpt>
<trkpt lat="35.120518" lon="-85.171496"><ele>235.0</ele><time>2026-08-08T20:21:44Z</time></trkpt>
<trkpt lat="35.120504" lon="-85.171534"><ele>235.9</ele><time>2026-08-08T20:21:46Z</time></trkpt>
<trkpt lat="35.120492" lon="-85.171572"><ele>237.7</ele><time>2026-08-08T20:21:48Z</time></trkpt>
<trkpt lat="35.12047" lon="-85.171591"><ele>237.1</ele><time>2026-08-08T20:21:50Z</time></trkpt>
<trkpt lat="35.120432" lon="-85.171599"><ele>237.7</ele><time>2026-08-08T20:21:53Z</time></trkpt>
<trkpt lat="35.120403" lon="-85.171601"><ele>239.0</ele><time>2026-08-08T20:21:55Z</time></trkpt>
<trkpt lat="35.120372" lon="-85.171611"><ele>239.0</ele><time>2026-08-08T20:21:57Z</time></trkpt>
<trkpt lat="35.12034" lon="-85.171623"><ele>238.4</ele><time>2026-08-08T20:21:59Z</time></trkpt>
<trkpt lat="35.120315" lon="-85.171651"><ele>238.4</ele><time>2026-08-08T20:22:01Z</time></trkpt>
<trkpt lat="35.120292" lon="-85.171678"><ele>239.0</ele><time>2026-08-08T20:22:03Z</time></trkpt>
<trkpt lat="35.120256" lon="-85.171678"><ele>236.8</ele><time>2026-08-08T20:22:05Z</time></trkpt>
<trkpt lat="35.12022" lon="-85.171669"><ele>237.4</ele><time>2026-08-08T20:22:07Z</time></trkpt>
<trkpt lat="35.120191" lon="-85.171666"><ele>237.1</ele><time>2026-08-08T20:22:09Z</time></trkpt>
<trkpt lat="35.120152" lon="-85.17168"><ele>236.8</ele><time>2026-08-08T20:22:12Z</time></trkpt>
<trkpt lat="35.120126" lon="-85.171697"><ele>236.2</ele><time>2026-08-08T20:22:14Z</time></trkpt>
<trkpt lat="35.120098" lon="-85.171706"><ele>236.2</ele><time>2026-08-08T20:22:16Z</time></trkpt>
<trkpt lat="35.120064" lon="-85.171717"><ele>234.1</ele><time>2026-08-08T20:22:19Z</time></trkpt>
<trkpt lat="35.12003" lon="-85.171709"><ele>235.0</ele><time>2026-08-08T20:22:22Z</time></trkpt>
<trkpt lat="35.119992" lon="-85.171696"><ele>234.7</ele><time>2026-08-08T20:22:25Z</time></trkpt>
<trkpt lat="35.119958" lon="-85.171705"><ele>236.8</ele><time>2026-08-08T20:22:28Z</time></trkpt>
<trkpt lat="35.119935" lon="-85.171726"><ele>237.1</ele><time>2026-08-08T20:22:30Z</time></trkpt>
<trkpt lat="35.119924" lon="-85.171761"><ele>238.0</ele><time>2026-08-08T20:22:32Z</time></trkpt>
<trkpt lat="35.119916" lon="-85.171795"><ele>238.0</ele><time>2026-08-08T20:22:34Z</time></trkpt>
<trkpt lat="35.119913" lon="-85.171834"><ele>236.5</ele><time>2026-08-08T20:22:36Z</time></trkpt>
<trkpt lat="35.119918" lon="-85.171873"><ele>234.7</ele><time>2026-08-08T20:22:38Z</time></trkpt>
<trkpt lat="35.119952" lon="-85.171896"><ele>235.3</ele><time>2026-08-08T20:22:40Z</time></trkpt>
<trkpt lat="35.119986" lon="-85.171909"><ele>232.6</ele><time>2026-08-08T20:22:42Z</time></trkpt>
<trkpt lat="35.120024" lon="-85.171907"><ele>231.3</ele><time>2026-08-08T20:22:44Z</time></trkpt>
<trkpt lat="35.120055" lon="-85.171916"><ele>230.4</ele><time>2026-08-08T20:22:46Z</time></trkpt>
<trkpt lat="35.120086" lon="-85.171926"><ele>230.7</ele><time>2026-08-08T20:22:48Z</time></trkpt>
<trkpt lat="35.120118" lon="-85.171923"><ele>230.4</ele><time>2026-08-08T20:22:50Z</time></trkpt>
<trkpt lat="35.120149" lon="-85.171922"><ele>230.4</ele><time>2026-08-08T20:22:52Z</time></trkpt>
<trkpt lat="35.120241" lon="-85.171975"><ele>238.0</ele><time>2026-08-08T20:22:54Z</time></trkpt>
<trkpt lat="35.120267" lon="-85.171955"><ele>238.4</ele><time>2026-08-08T20:22:56Z</time></trkpt>
<trkpt lat="35.120294" lon="-85.17193"><ele>237.7</ele><time>2026-08-08T20:22:57Z</time></trkpt>
<trkpt lat="35.120303" lon="-85.171882"><ele>236.5</ele><time>2026-08-08T20:22:58Z</time></trkpt>
<trkpt lat="35.120333" lon="-85.171875"><ele>236.8</ele><time>2026-08-08T20:22:59Z</time></trkpt>
<trkpt lat="35.120332" lon="-85.171834"><ele>237.7</ele><time>2026-08-08T20:23:01Z</time></trkpt>
<trkpt lat="35.120367" lon="-85.171818"><ele>238.0</ele><time>2026-08-08T20:23:04Z</time></trkpt>
<trkpt lat="35.120403" lon="-85.171816"><ele>238.4</ele><time>2026-08-08T20:23:06Z</time></trkpt>
<trkpt lat="35.120437" lon="-85.171798"><ele>240.5</ele><time>2026-08-08T20:23:09Z</time></trkpt>
<trkpt lat="35.120468" lon="-85.171786"><ele>239.9</ele><time>2026-08-08T20:23:12Z</time></trkpt>
<trkpt lat="35.1205" lon="-85.171756"><ele>237.4</ele><time>2026-08-08T20:23:15Z</time></trkpt>
<trkpt lat="35.120526" lon="-85.171726"><ele>239.0</ele><time>2026-08-08T20:23:18Z</time></trkpt>
<trkpt lat="35.120562" lon="-85.171713"><ele>236.5</ele><time>2026-08-08T20:23:21Z</time></trkpt>
<trkpt lat="35.12059" lon="-85.171724"><ele>236.2</ele><time>2026-08-08T20:23:24Z</time></trkpt>
<trkpt lat="35.120608" lon="-85.171755"><ele>235.0</ele><time>2026-08-08T20:23:27Z</time></trkpt>
<trkpt lat="35.120617" lon="-85.171801"><ele>232.6</ele><time>2026-08-08T20:23:30Z</time></trkpt>
<trkpt lat="35.120615" lon="-85.171837"><ele>231.3</ele><time>2026-08-08T20:23:32Z</time></trkpt>
<trkpt lat="35.120606" lon="-85.171877"><ele>231.3</ele><time>2026-08-08T20:23:34Z</time></trkpt>
<trkpt lat="35.120597" lon="-85.171911"><ele>231.6</ele><time>2026-08-08T20:23:36Z</time></trkpt>
<trkpt lat="35.120586" lon="-85.171945"><ele>232.9</ele><time>2026-08-08T20:23:38Z</time></trkpt>
<trkpt lat="35.120576" lon="-85.171977"><ele>232.6</ele><time>2026-08-08T20:23:40Z</time></trkpt>
<trkpt lat="35.120552" lon="-85.172018"><ele>230.1</ele><time>2026-08-08T20:23:43Z</time></trkpt>
<trkpt lat="35.120531" lon="-85.172043"><ele>229.5</ele><time>2026-08-08T20:23:45Z</time></trkpt>
<trkpt lat="35.120511" lon="-85.172068"><ele>230.1</ele><time>2026-08-08T20:23:47Z</time></trkpt>
<trkpt lat="35.120478" lon="-85.172093"><ele>231.0</ele><time>2026-08-08T20:23:50Z</time></trkpt>
<trkpt lat="35.120441" lon="-85.172109"><ele>231.6</ele><time>2026-08-08T20:23:53Z</time></trkpt>
<trkpt lat="35.120406" lon="-85.172124"><ele>234.4</ele><time>2026-08-08T20:23:56Z</time></trkpt>
<trkpt lat="35.12038" lon="-85.172142"><ele>235.3</ele><time>2026-08-08T20:23:58Z</time></trkpt>
<trkpt lat="35.120358" lon="-85.172167"><ele>234.7</ele><time>2026-08-08T20:24:00Z</time></trkpt>
<trkpt lat="35.120338" lon="-85.172192"><ele>235.0</ele><time>2026-08-08T20:24:02Z</time></trkpt>
<trkpt lat="35.120304" lon="-85.172221"><ele>233.8</ele><time>2026-08-08T20:24:05Z</time></trkpt>
<trkpt lat="35.120276" lon="-85.172227"><ele>234.7</ele><time>2026-08-08T20:24:07Z</time></trkpt>
<trkpt lat="35.120243" lon="-85.172221"><ele>235.3</ele><time>2026-08-08T20:24:10Z</time></trkpt>
<trkpt lat="35.120207" lon="-85.17222"><ele>235.9</ele><time>2026-08-08T20:24:13Z</time></trkpt>
<trkpt lat="35.120175" lon="-85.172228"><ele>236.5</ele><time>2026-08-08T20:24:16Z</time></trkpt>
<trkpt lat="35.120145" lon="-85.172252"><ele>236.5</ele><time>2026-08-08T20:24:19Z</time></trkpt>
<trkpt lat="35.120123" lon="-85.172283"><ele>235.9</ele><time>2026-08-08T20:24:21Z</time></trkpt>
<trkpt lat="35.120103" lon="-85.172314"><ele>235.9</ele><time>2026-08-08T20:24:23Z</time></trkpt>
<trkpt lat="35.120088" lon="-85.172347"><ele>236.2</ele><time>2026-08-08T20:24:25Z</time></trkpt>
<trkpt lat="35.120077" lon="-85.172382"><ele>236.5</ele><time>2026-08-08T20:24:27Z</time></trkpt>
<trkpt lat="35.120057" lon="-85.17241"><ele>235.3</ele><time>2026-08-08T20:24:29Z</time></trkpt>
<trkpt lat="35.120035" lon="-85.172435"><ele>235.0</ele><time>2026-08-08T20:24:31Z</time></trkpt>
<trkpt lat="35.120009" lon="-85.172454"><ele>234.1</ele><time>2026-08-08T20:24:33Z</time></trkpt>
<trkpt lat="35.119982" lon="-85.172474"><ele>234.1</ele><time>2026-08-08T20:24:35Z</time></trkpt>
<trkpt lat="35.11996" lon="-85.1725"><ele>233.2</ele><time>2026-08-08T20:24:37Z</time></trkpt>
<trkpt lat="35.119941" lon="-85.172528"><ele>234.7</ele><time>2026-08-08T20:24:39Z</time></trkpt>
<trkpt lat="35.119926" lon="-85.172568"><ele>235.3</ele><time>2026-08-08T20:24:42Z</time></trkpt>
<trkpt lat="35.119919" lon="-85.172612"><ele>235.6</ele><time>2026-08-08T20:24:45Z</time></trkpt>
<trkpt lat="35.119907" lon="-85.172657"><ele>235.9</ele><time>2026-08-08T20:24:48Z</time></trkpt>
<trkpt lat="35.119896" lon="-85.172703"><ele>236.2</ele><time>2026-08-08T20:24:51Z</time></trkpt>
<trkpt lat="35.11988" lon="-85.172744"><ele>236.2</ele><time>2026-08-08T20:24:54Z</time></trkpt>
<trkpt lat="35.119868" lon="-85.172776"><ele>236.8</ele><time>2026-08-08T20:24:56Z</time></trkpt>
<trkpt lat="35.11986" lon="-85.172808"><ele>235.9</ele><time>2026-08-08T20:24:58Z</time></trkpt>
<trkpt lat="35.119846" lon="-85.17284"><ele>236.5</ele><time>2026-08-08T20:25:00Z</time></trkpt>
<trkpt lat="35.119836" lon="-85.172886"><ele>236.8</ele><time>2026-08-08T20:25:03Z</time></trkpt>
<trkpt lat="35.119834" lon="-85.172921"><ele>237.7</ele><time>2026-08-08T20:25:05Z</time></trkpt>
<trkpt lat="35.119833" lon="-85.172955"><ele>239.3</ele><time>2026-08-08T20:25:07Z</time></trkpt>
<trkpt lat="35.119811" lon="-85.172999"><ele>239.9</ele><time>2026-08-08T20:25:10Z</time></trkpt>
<trkpt lat="35.119789" lon="-85.173019"><ele>239.6</ele><time>2026-08-08T20:25:12Z</time></trkpt>
<trkpt lat="35.119757" lon="-85.17302"><ele>238.4</ele><time>2026-08-08T20:25:15Z</time></trkpt>
<trkpt lat="35.119723" lon="-85.173017"><ele>235.6</ele><time>2026-08-08T20:25:18Z</time></trkpt>
<trkpt lat="35.119683" lon="-85.173031"><ele>232.9</ele><time>2026-08-08T20:25:21Z</time></trkpt>
<trkpt lat="35.119654" lon="-85.173043"><ele>233.2</ele><time>2026-08-08T20:25:24Z</time></trkpt>
<trkpt lat="35.119618" lon="-85.173064"><ele>235.0</ele><time>2026-08-08T20:25:27Z</time></trkpt>
<trkpt lat="35.119594" lon="-85.17308"><ele>235.0</ele><time>2026-08-08T20:25:29Z</time></trkpt>
<trkpt lat="35.11956" lon="-85.17311"><ele>234.7</ele><time>2026-08-08T20:25:32Z</time></trkpt>
<trkpt lat="35.119532" lon="-85.173128"><ele>234.1</ele><time>2026-08-08T20:25:34Z</time></trkpt>
<trkpt lat="35.1195" lon="-85.173153"><ele>234.1</ele><time>2026-08-08T20:25:37Z</time></trkpt>
<trkpt lat="35.119472" lon="-85.173174"><ele>233.2</ele><time>2026-08-08T20:25:39Z</time></trkpt>
<trkpt lat="35.119444" lon="-85.173191"><ele>232.6</ele><time>2026-08-08T20:25:41Z</time></trkpt>
<trkpt lat="35.119417" lon="-85.173208"><ele>233.2</ele><time>2026-08-08T20:25:43Z</time></trkpt>
<trkpt lat="35.119405" lon="-85.173246"><ele>232.9</ele><time>2026-08-08T20:25:45Z</time></trkpt>
<trkpt lat="35.119389" lon="-85.173278"><ele>231.6</ele><time>2026-08-08T20:25:47Z</time></trkpt>
<trkpt lat="35.119365" lon="-85.173302"><ele>231.0</ele><time>2026-08-08T20:25:49Z</time></trkpt>
<trkpt lat="35.11934" lon="-85.17332"><ele>232.0</ele><time>2026-08-08T20:25:51Z</time></trkpt>
<trkpt lat="35.119315" lon="-85.17334"><ele>230.4</ele><time>2026-08-08T20:25:53Z</time></trkpt>
<trkpt lat="35.11928" lon="-85.173348"><ele>230.4</ele><time>2026-08-08T20:25:56Z</time></trkpt>
<trkpt lat="35.119253" lon="-85.173338"><ele>230.7</ele><time>2026-08-08T20:25:58Z</time></trkpt>
<trkpt lat="35.119225" lon="-85.173337"><ele>232.6</ele><time>2026-08-08T20:26:00Z</time></trkpt>
<trkpt lat="35.119198" lon="-85.173356"><ele>234.1</ele><time>2026-08-08T20:26:02Z</time></trkpt>
<trkpt lat="35.119176" lon="-85.173383"><ele>234.4</ele><time>2026-08-08T20:26:04Z</time></trkpt>
<trkpt lat="35.119184" lon="-85.17342"><ele>231.6</ele><time>2026-08-08T20:26:06Z</time></trkpt>
<trkpt lat="35.119214" lon="-85.173454"><ele>229.8</ele><time>2026-08-08T20:26:08Z</time></trkpt>
<trkpt lat="35.119246" lon="-85.173469"><ele>230.7</ele><time>2026-08-08T20:26:10Z</time></trkpt>
<trkpt lat="35.119276" lon="-85.173471"><ele>232.3</ele><time>2026-08-08T20:26:12Z</time></trkpt>
<trkpt lat="35.119308" lon="-85.173467"><ele>232.0</ele><time>2026-08-08T20:26:14Z</time></trkpt>
<trkpt lat="35.119335" lon="-85.173476"><ele>232.9</ele><time>2026-08-08T20:26:16Z</time></trkpt>
<trkpt lat="35.119357" lon="-85.173497"><ele>233.5</ele><time>2026-08-08T20:26:18Z</time></trkpt>
<trkpt lat="35.119378" lon="-85.173522"><ele>232.3</ele><time>2026-08-08T20:26:20Z</time></trkpt>
<trkpt lat="35.119396" lon="-85.173549"><ele>231.6</ele><time>2026-08-08T20:26:22Z</time></trkpt>
<trkpt lat="35.119406" lon="-85.173596"><ele>232.9</ele><time>2026-08-08T20:26:25Z</time></trkpt>
<trkpt lat="35.119391" lon="-85.173638"><ele>233.5</ele><time>2026-08-08T20:26:28Z</time></trkpt>
<trkpt lat="35.119371" lon="-85.173679"><ele>234.1</ele><time>2026-08-08T20:26:31Z</time></trkpt>
<trkpt lat="35.119357" lon="-85.173718"><ele>235.3</ele><time>2026-08-08T20:26:34Z</time></trkpt>
<trkpt lat="35.119357" lon="-85.173753"><ele>234.1</ele><time>2026-08-08T20:26:36Z</time></trkpt>
<trkpt lat="35.119343" lon="-85.173798"><ele>235.0</ele><time>2026-08-08T20:26:39Z</time></trkpt>
<trkpt lat="35.119347" lon="-85.17385"><ele>232.9</ele><time>2026-08-08T20:26:42Z</time></trkpt>
<trkpt lat="35.119354" lon="-85.173885"><ele>231.6</ele><time>2026-08-08T20:26:44Z</time></trkpt>
<trkpt lat="35.119365" lon="-85.173918"><ele>232.3</ele><time>2026-08-08T20:26:46Z</time></trkpt>
<trkpt lat="35.119372" lon="-85.17396"><ele>232.3</ele><time>2026-08-08T20:26:48Z</time></trkpt>
<trkpt lat="35.119377" lon="-85.174002"><ele>233.8</ele><time>2026-08-08T20:26:50Z</time></trkpt>
<trkpt lat="35.119386" lon="-85.174035"><ele>232.0</ele><time>2026-08-08T20:26:52Z</time></trkpt>
<trkpt lat="35.119396" lon="-85.174067"><ele>232.3</ele><time>2026-08-08T20:26:54Z</time></trkpt>
<trkpt lat="35.119401" lon="-85.174111"><ele>233.8</ele><time>2026-08-08T20:26:57Z</time></trkpt>
<trkpt lat="35.119403" lon="-85.174156"><ele>234.7</ele><time>2026-08-08T20:27:00Z</time></trkpt>
<trkpt lat="35.119405" lon="-85.174203"><ele>235.3</ele><time>2026-08-08T20:27:03Z</time></trkpt>
<trkpt lat="35.11942" lon="-85.174234"><ele>235.6</ele><time>2026-08-08T20:27:05Z</time></trkpt>
<trkpt lat="35.119414" lon="-85.174269"><ele>236.8</ele><time>2026-08-08T20:27:07Z</time></trkpt>
<trkpt lat="35.11939" lon="-85.174305"><ele>239.6</ele><time>2026-08-08T20:27:10Z</time></trkpt>
<trkpt lat="35.119359" lon="-85.174329"><ele>239.3</ele><time>2026-08-08T20:27:13Z</time></trkpt>
<trkpt lat="35.119329" lon="-85.174334"><ele>237.4</ele><time>2026-08-08T20:27:15Z</time></trkpt>
<trkpt lat="35.119295" lon="-85.174335"><ele>235.6</ele><time>2026-08-08T20:27:18Z</time></trkpt>
<trkpt lat="35.119262" lon="-85.174339"><ele>235.9</ele><time>2026-08-08T20:27:21Z</time></trkpt>
<trkpt lat="35.119226" lon="-85.174347"><ele>236.5</ele><time>2026-08-08T20:27:24Z</time></trkpt>
<trkpt lat="35.1192" lon="-85.174377"><ele>235.9</ele><time>2026-08-08T20:27:27Z</time></trkpt>
<trkpt lat="35.119174" lon="-85.174417"><ele>237.1</ele><time>2026-08-08T20:27:30Z</time></trkpt>
<trkpt lat="35.119156" lon="-85.174447"><ele>236.8</ele><time>2026-08-08T20:27:32Z</time></trkpt>
<trkpt lat="35.119139" lon="-85.174478"><ele>238.0</ele><time>2026-08-08T20:27:34Z</time></trkpt>
<trkpt lat="35.119118" lon="-85.174506"><ele>237.7</ele><time>2026-08-08T20:27:36Z</time></trkpt>
<trkpt lat="35.119099" lon="-85.174536"><ele>237.7</ele><time>2026-08-08T20:27:38Z</time></trkpt>
<trkpt lat="35.119084" lon="-85.174565"><ele>237.4</ele><time>2026-08-08T20:27:40Z</time></trkpt>
<trkpt lat="35.119071" lon="-85.174595"><ele>238.4</ele><time>2026-08-08T20:27:42Z</time></trkpt>
<trkpt lat="35.119069" lon="-85.174631"><ele>237.7</ele><time>2026-08-08T20:27:44Z</time></trkpt>
<trkpt lat="35.119076" lon="-85.174668"><ele>237.1</ele><time>2026-08-08T20:27:46Z</time></trkpt>
<trkpt lat="35.11909" lon="-85.1747"><ele>235.3</ele><time>2026-08-08T20:27:48Z</time></trkpt>
<trkpt lat="35.119103" lon="-85.17473"><ele>236.2</ele><time>2026-08-08T20:27:50Z</time></trkpt>
<trkpt lat="35.11913" lon="-85.174751"><ele>234.1</ele><time>2026-08-08T20:27:52Z</time></trkpt>
<trkpt lat="35.119151" lon="-85.174773"><ele>232.9</ele><time>2026-08-08T20:27:54Z</time></trkpt>
<trkpt lat="35.119163" lon="-85.174803"><ele>233.5</ele><time>2026-08-08T20:27:56Z</time></trkpt>
<trkpt lat="35.119175" lon="-85.174834"><ele>234.1</ele><time>2026-08-08T20:27:58Z</time></trkpt>
<trkpt lat="35.119189" lon="-85.174864"><ele>234.7</ele><time>2026-08-08T20:28:00Z</time></trkpt>
<trkpt lat="35.119205" lon="-85.174892"><ele>234.7</ele><time>2026-08-08T20:28:02Z</time></trkpt>
<trkpt lat="35.119214" lon="-85.174924"><ele>235.9</ele><time>2026-08-08T20:28:04Z</time></trkpt>
<trkpt lat="35.119226" lon="-85.174956"><ele>235.6</ele><time>2026-08-08T20:28:06Z</time></trkpt>
<trkpt lat="35.119245" lon="-85.174981"><ele>235.9</ele><time>2026-08-08T20:28:08Z</time></trkpt>
<trkpt lat="35.119269" lon="-85.175001"><ele>235.9</ele><time>2026-08-08T20:28:10Z</time></trkpt>
<trkpt lat="35.119291" lon="-85.175021"><ele>235.3</ele><time>2026-08-08T20:28:12Z</time></trkpt>
<trkpt lat="35.119304" lon="-85.175054"><ele>235.0</ele><time>2026-08-08T20:28:14Z</time></trkpt>
<trkpt lat="35.119307" lon="-85.175092"><ele>235.6</ele><time>2026-08-08T20:28:16Z</time></trkpt>
<trkpt lat="35.1193" lon="-85.175127"><ele>236.8</ele><time>2026-08-08T20:28:18Z</time></trkpt>
<trkpt lat="35.119293" lon="-85.175162"><ele>237.4</ele><time>2026-08-08T20:28:20Z</time></trkpt>
<trkpt lat="35.119296" lon="-85.175199"><ele>239.0</ele><time>2026-08-08T20:28:22Z</time></trkpt>
<trkpt lat="35.11931" lon="-85.17523"><ele>238.7</ele><time>2026-08-08T20:28:24Z</time></trkpt>
<trkpt lat="35.119318" lon="-85.175262"><ele>239.3</ele><time>2026-08-08T20:28:26Z</time></trkpt>
<trkpt lat="35.119328" lon="-85.175306"><ele>238.4</ele><time>2026-08-08T20:28:29Z</time></trkpt>
<trkpt lat="35.119353" lon="-85.175342"><ele>238.7</ele><time>2026-08-08T20:28:32Z</time></trkpt>
<trkpt lat="35.119378" lon="-85.175356"><ele>238.7</ele><time>2026-08-08T20:28:34Z</time></trkpt>
<trkpt lat="35.119418" lon="-85.175359"><ele>239.9</ele><time>2026-08-08T20:28:37Z</time></trkpt>
<trkpt lat="35.119442" lon="-85.175338"><ele>239.9</ele><time>2026-08-08T20:28:39Z</time></trkpt>
<trkpt lat="35.119458" lon="-85.175304"><ele>240.8</ele><time>2026-08-08T20:28:41Z</time></trkpt>
<trkpt lat="35.119466" lon="-85.175269"><ele>240.5</ele><time>2026-08-08T20:28:43Z</time></trkpt>
<trkpt lat="35.119464" lon="-85.175231"><ele>239.9</ele><time>2026-08-08T20:28:45Z</time></trkpt>
<trkpt lat="35.119454" lon="-85.175183"><ele>239.6</ele><time>2026-08-08T20:28:48Z</time></trkpt>
<trkpt lat="35.11946" lon="-85.175149"><ele>241.7</ele><time>2026-08-08T20:28:50Z</time></trkpt>
<trkpt lat="35.119474" lon="-85.175117"><ele>243.8</ele><time>2026-08-08T20:28:52Z</time></trkpt>
<trkpt lat="35.119492" lon="-85.175086"><ele>242.9</ele><time>2026-08-08T20:28:54Z</time></trkpt>
<trkpt lat="35.11952" lon="-85.175066"><ele>239.9</ele><time>2026-08-08T20:28:56Z</time></trkpt>
<trkpt lat="35.119545" lon="-85.175043"><ele>239.0</ele><time>2026-08-08T20:28:58Z</time></trkpt>
<trkpt lat="35.11957" lon="-85.175023"><ele>238.7</ele><time>2026-08-08T20:29:00Z</time></trkpt>
<trkpt lat="35.119589" lon="-85.174995"><ele>238.4</ele><time>2026-08-08T20:29:02Z</time></trkpt>
<trkpt lat="35.119598" lon="-85.17496"><ele>238.7</ele><time>2026-08-08T20:29:04Z</time></trkpt>
<trkpt lat="35.119605" lon="-85.174922"><ele>237.7</ele><time>2026-08-08T20:29:06Z</time></trkpt>
<trkpt lat="35.119628" lon="-85.174897"><ele>236.2</ele><time>2026-08-08T20:29:08Z</time></trkpt>
<trkpt lat="35.119658" lon="-85.174887"><ele>236.5</ele><time>2026-08-08T20:29:10Z</time></trkpt>
<trkpt lat="35.119686" lon="-85.17489"><ele>236.2</ele><time>2026-08-08T20:29:12Z</time></trkpt>
<trkpt lat="35.119724" lon="-85.174893"><ele>237.4</ele><time>2026-08-08T20:29:15Z</time></trkpt>
<trkpt lat="35.11975" lon="-85.174882"><ele>237.1</ele><time>2026-08-08T20:29:17Z</time></trkpt>
<trkpt lat="35.119776" lon="-85.174866"><ele>237.1</ele><time>2026-08-08T20:29:19Z</time></trkpt>
<trkpt lat="35.119801" lon="-85.174848"><ele>236.2</ele><time>2026-08-08T20:29:21Z</time></trkpt>
<trkpt lat="35.11983" lon="-85.174846"><ele>237.7</ele><time>2026-08-08T20:29:23Z</time></trkpt>
<trkpt lat="35.119858" lon="-85.174846"><ele>237.7</ele><time>2026-08-08T20:29:25Z</time></trkpt>
<trkpt lat="35.119886" lon="-85.174864"><ele>239.0</ele><time>2026-08-08T20:29:27Z</time></trkpt>
<trkpt lat="35.119912" lon="-85.174881"><ele>239.0</ele><time>2026-08-08T20:29:29Z</time></trkpt>
<trkpt lat="35.119937" lon="-85.174903"><ele>238.7</ele><time>2026-08-08T20:29:31Z</time></trkpt>
<trkpt lat="35.119963" lon="-85.174917"><ele>238.7</ele><time>2026-08-08T20:29:33Z</time></trkpt>
<trkpt lat="35.119996" lon="-85.174942"><ele>240.2</ele><time>2026-08-08T20:29:36Z</time></trkpt>
<trkpt lat="35.120025" lon="-85.174935"><ele>242.0</ele><time>2026-08-08T20:29:38Z</time></trkpt>
<trkpt lat="35.120051" lon="-85.174918"><ele>242.3</ele><time>2026-08-08T20:29:40Z</time></trkpt>
<trkpt lat="35.120069" lon="-85.174888"><ele>242.0</ele><time>2026-08-08T20:29:42Z</time></trkpt>
<trkpt lat="35.120082" lon="-85.174852"><ele>242.6</ele><time>2026-08-08T20:29:44Z</time></trkpt>
<trkpt lat="35.120084" lon="-85.174812"><ele>242.3</ele><time>2026-08-08T20:29:46Z</time></trkpt>
<trkpt lat="35.120082" lon="-85.174763"><ele>242.0</ele><time>2026-08-08T20:29:49Z</time></trkpt>
<trkpt lat="35.120074" lon="-85.17473"><ele>242.3</ele><time>2026-08-08T20:29:51Z</time></trkpt>
<trkpt lat="35.120069" lon="-85.174693"><ele>241.7</ele><time>2026-08-08T20:29:53Z</time></trkpt>
<trkpt lat="35.120067" lon="-85.174658"><ele>243.2</ele><time>2026-08-08T20:29:55Z</time></trkpt>
<trkpt lat="35.120076" lon="-85.174623"><ele>242.6</ele><time>2026-08-08T20:29:57Z</time></trkpt>
<trkpt lat="35.120089" lon="-85.174592"><ele>242.3</ele><time>2026-08-08T20:29:59Z</time></trkpt>
<trkpt lat="35.1201" lon="-85.17456"><ele>241.1</ele><time>2026-08-08T20:30:01Z</time></trkpt>
<trkpt lat="35.120107" lon="-85.174527"><ele>242.3</ele><time>2026-08-08T20:30:03Z</time></trkpt>
<trkpt lat="35.120113" lon="-85.174494"><ele>242.6</ele><time>2026-08-08T20:30:05Z</time></trkpt>
<trkpt lat="35.12013" lon="-85.17445"><ele>244.4</ele><time>2026-08-08T20:30:08Z</time></trkpt>
<trkpt lat="35.120143" lon="-85.174419"><ele>246.3</ele><time>2026-08-08T20:30:10Z</time></trkpt>
<trkpt lat="35.120163" lon="-85.174375"><ele>247.8</ele><time>2026-08-08T20:30:13Z</time></trkpt>
<trkpt lat="35.120181" lon="-85.174333"><ele>249.6</ele><time>2026-08-08T20:30:16Z</time></trkpt>
<trkpt lat="35.120201" lon="-85.174292"><ele>249.6</ele><time>2026-08-08T20:30:19Z</time></trkpt>
<trkpt lat="35.120213" lon="-85.174246"><ele>250.2</ele><time>2026-08-08T20:30:22Z</time></trkpt>
<trkpt lat="35.120216" lon="-85.174212"><ele>248.1</ele><time>2026-08-08T20:30:24Z</time></trkpt>
<trkpt lat="35.12022" lon="-85.174177"><ele>248.1</ele><time>2026-08-08T20:30:26Z</time></trkpt>
<trkpt lat="35.120219" lon="-85.174127"><ele>250.9</ele><time>2026-08-08T20:30:29Z</time></trkpt>
<trkpt lat="35.120219" lon="-85.174092"><ele>248.1</ele><time>2026-08-08T20:30:31Z</time></trkpt>
<trkpt lat="35.120212" lon="-85.174043"><ele>248.4</ele><time>2026-08-08T20:30:34Z</time></trkpt>
<trkpt lat="35.1202" lon="-85.17401"><ele>249.6</ele><time>2026-08-08T20:30:36Z</time></trkpt>
<trkpt lat="35.12019" lon="-85.173961"><ele>248.7</ele><time>2026-08-08T20:30:39Z</time></trkpt>
<trkpt lat="35.120191" lon="-85.173914"><ele>247.5</ele><time>2026-08-08T20:30:42Z</time></trkpt>
<trkpt lat="35.120197" lon="-85.173862"><ele>248.7</ele><time>2026-08-08T20:30:45Z</time></trkpt>
<trkpt lat="35.120199" lon="-85.173821"><ele>249.9</ele><time>2026-08-08T20:30:47Z</time></trkpt>
<trkpt lat="35.120199" lon="-85.173783"><ele>249.6</ele><time>2026-08-08T20:30:49Z</time></trkpt>
<trkpt lat="35.120195" lon="-85.173749"><ele>250.5</ele><time>2026-08-08T20:30:51Z</time></trkpt>
<trkpt lat="35.120191" lon="-85.173697"><ele>254.5</ele><time>2026-08-08T20:30:53Z</time></trkpt>
<trkpt lat="35.120183" lon="-85.173663"><ele>255.4</ele><time>2026-08-08T20:30:55Z</time></trkpt>
<trkpt lat="35.120177" lon="-85.17362"><ele>253.9</ele><time>2026-08-08T20:30:58Z</time></trkpt>
<trkpt lat="35.120184" lon="-85.173582"><ele>254.5</ele><time>2026-08-08T20:31:00Z</time></trkpt>
<trkpt lat="35.120173" lon="-85.17355"><ele>256.0</ele><time>2026-08-08T20:31:02Z</time></trkpt>
<trkpt lat="35.120183" lon="-85.173518"><ele>254.5</ele><time>2026-08-08T20:31:05Z</time></trkpt>
<trkpt lat="35.120186" lon="-85.173473"><ele>253.0</ele><time>2026-08-08T20:31:08Z</time></trkpt>
<trkpt lat="35.120185" lon="-85.17343"><ele>250.2</ele><time>2026-08-08T20:31:10Z</time></trkpt>
<trkpt lat="35.120177" lon="-85.173392"><ele>251.8</ele><time>2026-08-08T20:31:12Z</time></trkpt>
<trkpt lat="35.120184" lon="-85.173345"><ele>251.5</ele><time>2026-08-08T20:31:15Z</time></trkpt>
<trkpt lat="35.120179" lon="-85.173304"><ele>249.6</ele><time>2026-08-08T20:31:18Z</time></trkpt>
<trkpt lat="35.120165" lon="-85.173273"><ele>249.6</ele><time>2026-08-08T20:31:20Z</time></trkpt>
<trkpt lat="35.120147" lon="-85.173244"><ele>249.3</ele><time>2026-08-08T20:31:22Z</time></trkpt>
<trkpt lat="35.120148" lon="-85.173206"><ele>249.9</ele><time>2026-08-08T20:31:24Z</time></trkpt>
<trkpt lat="35.120162" lon="-85.173177"><ele>246.6</ele><time>2026-08-08T20:31:26Z</time></trkpt>
<trkpt lat="35.12018" lon="-85.173148"><ele>246.3</ele><time>2026-08-08T20:31:28Z</time></trkpt>
<trkpt lat="35.120204" lon="-85.173107"><ele>245.1</ele><time>2026-08-08T20:31:31Z</time></trkpt>
<trkpt lat="35.12021" lon="-85.173072"><ele>246.0</ele><time>2026-08-08T20:31:33Z</time></trkpt>
<trkpt lat="35.120225" lon="-85.173035"><ele>244.1</ele><time>2026-08-08T20:31:36Z</time></trkpt>
<trkpt lat="35.120247" lon="-85.172998"><ele>242.0</ele><time>2026-08-08T20:31:39Z</time></trkpt>
<trkpt lat="35.120271" lon="-85.172966"><ele>240.2</ele><time>2026-08-08T20:31:42Z</time></trkpt>
<trkpt lat="35.120278" lon="-85.172926"><ele>239.3</ele><time>2026-08-08T20:31:45Z</time></trkpt>
<trkpt lat="35.120281" lon="-85.172891"><ele>240.5</ele><time>2026-08-08T20:31:47Z</time></trkpt>
<trkpt lat="35.12027" lon="-85.172846"><ele>240.2</ele><time>2026-08-08T20:31:50Z</time></trkpt>
<trkpt lat="35.12027" lon="-85.17281"><ele>240.2</ele><time>2026-08-08T20:31:52Z</time></trkpt>
<trkpt lat="35.12028" lon="-85.172776"><ele>240.5</ele><time>2026-08-08T20:31:54Z</time></trkpt>
<trkpt lat="35.120293" lon="-85.172744"><ele>242.3</ele><time>2026-08-08T20:31:56Z</time></trkpt>
<trkpt lat="35.120306" lon="-85.172713"><ele>242.6</ele><time>2026-08-08T20:31:58Z</time></trkpt>
<trkpt lat="35.120343" lon="-85.172689"><ele>243.2</ele><time>2026-08-08T20:32:01Z</time></trkpt>
<trkpt lat="35.120378" lon="-85.172676"><ele>243.2</ele><time>2026-08-08T20:32:04Z</time></trkpt>
<trkpt lat="35.120414" lon="-85.172668"><ele>244.1</ele><time>2026-08-08T20:32:07Z</time></trkpt>
<trkpt lat="35.12045" lon="-85.172664"><ele>244.1</ele><time>2026-08-08T20:32:10Z</time></trkpt>
<trkpt lat="35.120491" lon="-85.172671"><ele>245.7</ele><time>2026-08-08T20:32:13Z</time></trkpt>
<trkpt lat="35.12053" lon="-85.172669"><ele>246.9</ele><time>2026-08-08T20:32:16Z</time></trkpt>
<trkpt lat="35.12056" lon="-85.172643"><ele>248.1</ele><time>2026-08-08T20:32:19Z</time></trkpt>
<trkpt lat="35.120586" lon="-85.172609"><ele>251.2</ele><time>2026-08-08T20:32:22Z</time></trkpt>
<trkpt lat="35.120603" lon="-85.172567"><ele>251.2</ele><time>2026-08-08T20:32:25Z</time></trkpt>
<trkpt lat="35.120606" lon="-85.172522"><ele>250.5</ele><time>2026-08-08T20:32:28Z</time></trkpt>
<trkpt lat="35.120624" lon="-85.172478"><ele>249.6</ele><time>2026-08-08T20:32:31Z</time></trkpt>
<trkpt lat="35.120638" lon="-85.172449"><ele>249.3</ele><time>2026-08-08T20:32:33Z</time></trkpt>
<trkpt lat="35.120656" lon="-85.172421"><ele>248.4</ele><time>2026-08-08T20:32:35Z</time></trkpt>
<trkpt lat="35.120679" lon="-85.172381"><ele>248.7</ele><time>2026-08-08T20:32:38Z</time></trkpt>
<trkpt lat="35.120698" lon="-85.172356"><ele>249.6</ele><time>2026-08-08T20:32:40Z</time></trkpt>
<trkpt lat="35.120723" lon="-85.172338"><ele>247.8</ele><time>2026-08-08T20:32:42Z</time></trkpt>
<trkpt lat="35.12075" lon="-85.172322"><ele>248.1</ele><time>2026-08-08T20:32:44Z</time></trkpt>
<trkpt lat="35.120772" lon="-85.172303"><ele>244.4</ele><time>2026-08-08T20:32:46Z</time></trkpt>
<trkpt lat="35.12079" lon="-85.172276"><ele>243.8</ele><time>2026-08-08T20:32:48Z</time></trkpt>
<trkpt lat="35.120793" lon="-85.172241"><ele>245.7</ele><time>2026-08-08T20:32:50Z</time></trkpt>
<trkpt lat="35.120801" lon="-85.172206"><ele>244.8</ele><time>2026-08-08T20:32:52Z</time></trkpt>
<trkpt lat="35.120809" lon="-85.172169"><ele>242.3</ele><time>2026-08-08T20:32:54Z</time></trkpt>
<trkpt lat="35.120825" lon="-85.172141"><ele>242.6</ele><time>2026-08-08T20:32:56Z</time></trkpt>
<trkpt lat="35.120849" lon="-85.172121"><ele>241.1</ele><time>2026-08-08T20:32:58Z</time></trkpt>
<trkpt lat="35.120871" lon="-85.1721"><ele>240.8</ele><time>2026-08-08T20:33:00Z</time></trkpt>
<trkpt lat="35.120899" lon="-85.172066"><ele>242.9</ele><time>2026-08-08T20:33:03Z</time></trkpt>
<trkpt lat="35.120925" lon="-85.172048"><ele>244.8</ele><time>2026-08-08T20:33:05Z</time></trkpt>
<trkpt lat="35.120944" lon="-85.172021"><ele>244.4</ele><time>2026-08-08T20:33:07Z</time></trkpt>
<trkpt lat="35.120961" lon="-85.171978"><ele>245.4</ele><time>2026-08-08T20:33:10Z</time></trkpt>
<trkpt lat="35.12098" lon="-85.171934"><ele>245.1</ele><time>2026-08-08T20:33:13Z</time></trkpt>
<trkpt lat="35.121013" lon="-85.17192"><ele>245.7</ele><time>2026-08-08T20:33:15Z</time></trkpt>
<trkpt lat="35.121043" lon="-85.171891"><ele>246.0</ele><time>2026-08-08T20:33:18Z</time></trkpt>
<trkpt lat="35.12108" lon="-85.171875"><ele>242.9</ele><time>2026-08-08T20:33:21Z</time></trkpt>
<trkpt lat="35.12112" lon="-85.171863"><ele>242.6</ele><time>2026-08-08T20:33:24Z</time></trkpt>
<trkpt lat="35.12116" lon="-85.171858"><ele>241.4</ele><time>2026-08-08T20:33:27Z</time></trkpt>
<trkpt lat="35.121201" lon="-85.171861"><ele>240.5</ele><time>2026-08-08T20:33:30Z</time></trkpt>
<trkpt lat="35.121229" lon="-85.171861"><ele>240.8</ele><time>2026-08-08T20:33:32Z</time></trkpt>
<trkpt lat="35.121257" lon="-85.171873"><ele>240.8</ele><time>2026-08-08T20:33:34Z</time></trkpt>
<trkpt lat="35.12128" lon="-85.171892"><ele>240.5</ele><time>2026-08-08T20:33:36Z</time></trkpt>
<trkpt lat="35.121314" lon="-85.171908"><ele>239.0</ele><time>2026-08-08T20:33:39Z</time></trkpt>
<trkpt lat="35.121348" lon="-85.171926"><ele>240.5</ele><time>2026-08-08T20:33:42Z</time></trkpt>
<trkpt lat="35.121383" lon="-85.1719"><ele>240.5</ele><time>2026-08-08T20:33:45Z</time></trkpt>
<trkpt lat="35.121401" lon="-85.171867"><ele>241.1</ele><time>2026-08-08T20:33:47Z</time></trkpt>
<trkpt lat="35.121418" lon="-85.171836"><ele>240.8</ele><time>2026-08-08T20:33:49Z</time></trkpt>
<trkpt lat="35.121455" lon="-85.171823"><ele>242.0</ele><time>2026-08-08T20:33:52Z</time></trkpt>
<trkpt lat="35.121488" lon="-85.171813"><ele>243.2</ele><time>2026-08-08T20:33:55Z</time></trkpt>
<trkpt lat="35.121521" lon="-85.171784"><ele>243.5</ele><time>2026-08-08T20:33:58Z</time></trkpt>
<trkpt lat="35.121547" lon="-85.17175"><ele>246.6</ele><time>2026-08-08T20:34:01Z</time></trkpt>
<trkpt lat="35.121569" lon="-85.171725"><ele>243.2</ele><time>2026-08-08T20:34:03Z</time></trkpt>
<trkpt lat="35.121602" lon="-85.171699"><ele>242.6</ele><time>2026-08-08T20:34:06Z</time></trkpt>
<trkpt lat="35.121622" lon="-85.171674"><ele>242.6</ele><time>2026-08-08T20:34:08Z</time></trkpt>
<trkpt lat="35.121626" lon="-85.171635"><ele>243.8</ele><time>2026-08-08T20:34:10Z</time></trkpt>
<trkpt lat="35.12162" lon="-85.171597"><ele>243.5</ele><time>2026-08-08T20:34:12Z</time></trkpt>
<trkpt lat="35.121587" lon="-85.171568"><ele>243.8</ele><time>2026-08-08T20:34:15Z</time></trkpt>
<trkpt lat="35.12155" lon="-85.171559"><ele>243.2</ele><time>2026-08-08T20:34:18Z</time></trkpt>
<trkpt lat="35.121518" lon="-85.171538"><ele>242.3</ele><time>2026-08-08T20:34:21Z</time></trkpt>
<trkpt lat="35.121504" lon="-85.171509"><ele>241.4</ele><time>2026-08-08T20:34:23Z</time></trkpt>
<trkpt lat="35.121481" lon="-85.171473"><ele>241.4</ele><time>2026-08-08T20:34:26Z</time></trkpt>
<trkpt lat="35.12146" lon="-85.171433"><ele>241.4</ele><time>2026-08-08T20:34:29Z</time></trkpt>
<trkpt lat="35.121442" lon="-85.171391"><ele>242.6</ele><time>2026-08-08T20:34:32Z</time></trkpt>
<trkpt lat="35.121421" lon="-85.171364"><ele>244.1</ele><time>2026-08-08T20:34:34Z</time></trkpt>
<trkpt lat="35.12141" lon="-85.171333"><ele>245.1</ele><time>2026-08-08T20:34:36Z</time></trkpt>
<trkpt lat="35.121403" lon="-85.171299"><ele>245.7</ele><time>2026-08-08T20:34:38Z</time></trkpt>
<trkpt lat="35.121408" lon="-85.171266"><ele>246.9</ele><time>2026-08-08T20:34:40Z</time></trkpt>
<trkpt lat="35.121417" lon="-85.171223"><ele>245.7</ele><time>2026-08-08T20:34:43Z</time></trkpt>
<trkpt lat="35.121409" lon="-85.171191"><ele>245.7</ele><time>2026-08-08T20:34:45Z</time></trkpt>
<trkpt lat="35.121394" lon="-85.171161"><ele>246.9</ele><time>2026-08-08T20:34:47Z</time></trkpt>
<trkpt lat="35.121375" lon="-85.171134"><ele>246.0</ele><time>2026-08-08T20:34:49Z</time></trkpt>
<trkpt lat="35.121358" lon="-85.171106"><ele>245.7</ele><time>2026-08-08T20:34:51Z</time></trkpt>
<trkpt lat="35.121329" lon="-85.171076"><ele>244.8</ele><time>2026-08-08T20:34:54Z</time></trkpt>
<trkpt lat="35.121302" lon="-85.171065"><ele>244.4</ele><time>2026-08-08T20:34:56Z</time></trkpt>
<trkpt lat="35.121275" lon="-85.17106"><ele>242.9</ele><time>2026-08-08T20:34:58Z</time></trkpt>
<trkpt lat="35.121249" lon="-85.171042"><ele>243.2</ele><time>2026-08-08T20:35:00Z</time></trkpt>
<trkpt lat="35.121229" lon="-85.171015"><ele>244.4</ele><time>2026-08-08T20:35:02Z</time></trkpt>
<trkpt lat="35.121213" lon="-85.17098"><ele>243.8</ele><time>2026-08-08T20:35:04Z</time></trkpt>
<trkpt lat="35.121214" lon="-85.170941"><ele>242.3</ele><time>2026-08-08T20:35:06Z</time></trkpt>
<trkpt lat="35.121229" lon="-85.17091"><ele>240.8</ele><time>2026-08-08T20:35:08Z</time></trkpt>
<trkpt lat="35.121254" lon="-85.170893"><ele>240.2</ele><time>2026-08-08T20:35:10Z</time></trkpt>
<trkpt lat="35.12128" lon="-85.170876"><ele>240.2</ele><time>2026-08-08T20:35:12Z</time></trkpt>
<trkpt lat="35.12131" lon="-85.170872"><ele>241.1</ele><time>2026-08-08T20:35:14Z</time></trkpt>
<trkpt lat="35.121338" lon="-85.17087"><ele>241.7</ele><time>2026-08-08T20:35:16Z</time></trkpt>
<trkpt lat="35.121378" lon="-85.170879"><ele>240.5</ele><time>2026-08-08T20:35:19Z</time></trkpt>
<trkpt lat="35.121402" lon="-85.1709"><ele>240.8</ele><time>2026-08-08T20:35:21Z</time></trkpt>
<trkpt lat="35.121434" lon="-85.170926"><ele>239.3</ele><time>2026-08-08T20:35:24Z</time></trkpt>
<trkpt lat="35.121456" lon="-85.170949"><ele>239.0</ele><time>2026-08-08T20:35:26Z</time></trkpt>
<trkpt lat="35.121481" lon="-85.170965"><ele>238.0</ele><time>2026-08-08T20:35:28Z</time></trkpt>
<trkpt lat="35.121511" lon="-85.170975"><ele>238.4</ele><time>2026-08-08T20:35:30Z</time></trkpt>
<trkpt lat="35.121536" lon="-85.17099"><ele>239.3</ele><time>2026-08-08T20:35:32Z</time></trkpt>
<trkpt lat="35.121575" lon="-85.17099"><ele>238.0</ele><time>2026-08-08T20:35:35Z</time></trkpt>
<trkpt lat="35.121603" lon="-85.170984"><ele>239.9</ele><time>2026-08-08T20:35:37Z</time></trkpt>
<trkpt lat="35.121643" lon="-85.170972"><ele>242.6</ele><time>2026-08-08T20:35:40Z</time></trkpt>
<trkpt lat="35.121684" lon="-85.170979"><ele>241.7</ele><time>2026-08-08T20:35:43Z</time></trkpt>
<trkpt lat="35.121713" lon="-85.170992"><ele>240.2</ele><time>2026-08-08T20:35:45Z</time></trkpt>
<trkpt lat="35.121742" lon="-85.171008"><ele>242.0</ele><time>2026-08-08T20:35:47Z</time></trkpt>
<trkpt lat="35.121771" lon="-85.17102"><ele>240.8</ele><time>2026-08-08T20:35:49Z</time></trkpt>
<trkpt lat="35.121794" lon="-85.171043"><ele>239.0</ele><time>2026-08-08T20:35:51Z</time></trkpt>
<trkpt lat="35.121818" lon="-85.171063"><ele>237.7</ele><time>2026-08-08T20:35:53Z</time></trkpt>
<trkpt lat="35.121843" lon="-85.171082"><ele>237.7</ele><time>2026-08-08T20:35:55Z</time></trkpt>
<trkpt lat="35.121868" lon="-85.1711"><ele>237.7</ele><time>2026-08-08T20:35:57Z</time></trkpt>
<trkpt lat="35.121889" lon="-85.171126"><ele>238.4</ele><time>2026-08-08T20:35:59Z</time></trkpt>
<trkpt lat="35.121915" lon="-85.171145"><ele>237.4</ele><time>2026-08-08T20:36:01Z</time></trkpt>
<trkpt lat="35.121946" lon="-85.171138"><ele>238.0</ele><time>2026-08-08T20:36:03Z</time></trkpt>
<trkpt lat="35.121972" lon="-85.171114"><ele>238.0</ele><time>2026-08-08T20:36:05Z</time></trkpt>
<trkpt lat="35.122007" lon="-85.17109"><ele>238.0</ele><time>2026-08-08T20:36:08Z</time></trkpt>
<trkpt lat="35.122033" lon="-85.171081"><ele>237.7</ele><time>2026-08-08T20:36:10Z</time></trkpt>
<trkpt lat="35.122061" lon="-85.171079"><ele>239.3</ele><time>2026-08-08T20:36:12Z</time></trkpt>
<trkpt lat="35.122092" lon="-85.171079"><ele>239.0</ele><time>2026-08-08T20:36:14Z</time></trkpt>
<trkpt lat="35.122121" lon="-85.171072"><ele>237.7</ele><time>2026-08-08T20:36:16Z</time></trkpt>
<trkpt lat="35.122159" lon="-85.171065"><ele>240.5</ele><time>2026-08-08T20:36:19Z</time></trkpt>
<trkpt lat="35.122197" lon="-85.171064"><ele>242.0</ele><time>2026-08-08T20:36:22Z</time></trkpt>
<trkpt lat="35.122222" lon="-85.171029"><ele>240.5</ele><time>2026-08-08T20:36:25Z</time></trkpt>
<trkpt lat="35.122256" lon="-85.171016"><ele>241.1</ele><time>2026-08-08T20:36:28Z</time></trkpt>
<trkpt lat="35.122289" lon="-85.171"><ele>241.7</ele><time>2026-08-08T20:36:31Z</time></trkpt>
<trkpt lat="35.122322" lon="-85.171001"><ele>242.0</ele><time>2026-08-08T20:36:34Z</time></trkpt>
<trkpt lat="35.122356" lon="-85.170998"><ele>240.5</ele><time>2026-08-08T20:36:37Z</time></trkpt>
<trkpt lat="35.122387" lon="-85.171013"><ele>238.4</ele><time>2026-08-08T20:36:40Z</time></trkpt>
<trkpt lat="35.12242" lon="-85.171029"><ele>239.0</ele><time>2026-08-08T20:36:43Z</time></trkpt>
<trkpt lat="35.122455" lon="-85.171034"><ele>238.7</ele><time>2026-08-08T20:36:46Z</time></trkpt>
<trkpt lat="35.122492" lon="-85.171023"><ele>238.0</ele><time>2026-08-08T20:36:49Z</time></trkpt>
<trkpt lat="35.122515" lon="-85.171001"><ele>237.4</ele><time>2026-08-08T20:36:51Z</time></trkpt>
<trkpt lat="35.122543" lon="-85.17099"><ele>237.4</ele><time>2026-08-08T20:36:53Z</time></trkpt>
<trkpt lat="35.122582" lon="-85.170992"><ele>239.0</ele><time>2026-08-08T20:36:56Z</time></trkpt>
<trkpt lat="35.12261" lon="-85.170996"><ele>239.0</ele><time>2026-08-08T20:36:58Z</time></trkpt>
<trkpt lat="35.122638" lon="-85.17099"><ele>236.5</ele><time>2026-08-08T20:37:00Z</time></trkpt>
<trkpt lat="35.122666" lon="-85.17099"><ele>236.5</ele><time>2026-08-08T20:37:02Z</time></trkpt>
<trkpt lat="35.122695" lon="-85.170999"><ele>235.6</ele><time>2026-08-08T20:37:04Z</time></trkpt>
<trkpt lat="35.122722" lon="-85.171004"><ele>235.0</ele><time>2026-08-08T20:37:06Z</time></trkpt>
<trkpt lat="35.122759" lon="-85.170994"><ele>233.5</ele><time>2026-08-08T20:37:09Z</time></trkpt>
<trkpt lat="35.122796" lon="-85.170984"><ele>233.5</ele><time>2026-08-08T20:37:12Z</time></trkpt>
<trkpt lat="35.122834" lon="-85.170973"><ele>233.5</ele><time>2026-08-08T20:37:15Z</time></trkpt>
<trkpt lat="35.122871" lon="-85.170984"><ele>232.9</ele><time>2026-08-08T20:37:18Z</time></trkpt>
<trkpt lat="35.122903" lon="-85.171009"><ele>233.2</ele><time>2026-08-08T20:37:21Z</time></trkpt>
<trkpt lat="35.122922" lon="-85.171033"><ele>233.5</ele><time>2026-08-08T20:37:23Z</time></trkpt>
<trkpt lat="35.12295" lon="-85.171063"><ele>233.5</ele><time>2026-08-08T20:37:26Z</time></trkpt>
<trkpt lat="35.122989" lon="-85.171065"><ele>232.0</ele><time>2026-08-08T20:37:29Z</time></trkpt>
<trkpt lat="35.12301" lon="-85.171026"><ele>230.7</ele><time>2026-08-08T20:37:31Z</time></trkpt>
<trkpt lat="35.123022" lon="-85.170985"><ele>230.4</ele><time>2026-08-08T20:37:33Z</time></trkpt>
<trkpt lat="35.123034" lon="-85.170948"><ele>230.7</ele><time>2026-08-08T20:37:35Z</time></trkpt>
<trkpt lat="35.123048" lon="-85.170918"><ele>230.1</ele><time>2026-08-08T20:37:37Z</time></trkpt>
<trkpt lat="35.123068" lon="-85.170888"><ele>230.4</ele><time>2026-08-08T20:37:39Z</time></trkpt>
<trkpt lat="35.123089" lon="-85.170862"><ele>231.0</ele><time>2026-08-08T20:37:41Z</time></trkpt>
<trkpt lat="35.123118" lon="-85.170832"><ele>230.4</ele><time>2026-08-08T20:37:44Z</time></trkpt>
<trkpt lat="35.123153" lon="-85.170807"><ele>230.7</ele><time>2026-08-08T20:37:47Z</time></trkpt>
<trkpt lat="35.123181" lon="-85.1708"><ele>230.4</ele><time>2026-08-08T20:37:49Z</time></trkpt>
<trkpt lat="35.123219" lon="-85.170794"><ele>230.1</ele><time>2026-08-08T20:37:52Z</time></trkpt>
<trkpt lat="35.123238" lon="-85.170767"><ele>229.8</ele><time>2026-08-08T20:37:54Z</time></trkpt>
<trkpt lat="35.12325" lon="-85.170734"><ele>229.2</ele><time>2026-08-08T20:37:56Z</time></trkpt>
<trkpt lat="35.123266" lon="-85.170702"><ele>227.4</ele><time>2026-08-08T20:37:58Z</time></trkpt>
<trkpt lat="35.123281" lon="-85.170671"><ele>228.0</ele><time>2026-08-08T20:38:00Z</time></trkpt>
<trkpt lat="35.123314" lon="-85.170643"><ele>228.0</ele><time>2026-08-08T20:38:03Z</time></trkpt>
<trkpt lat="35.123335" lon="-85.17062"><ele>228.6</ele><time>2026-08-08T20:38:05Z</time></trkpt>
<trkpt lat="35.12336" lon="-85.1706"><ele>227.4</ele><time>2026-08-08T20:38:07Z</time></trkpt>
<trkpt lat="35.123386" lon="-85.170587"><ele>228.0</ele><time>2026-08-08T20:38:09Z</time></trkpt>
<trkpt lat="35.123425" lon="-85.170578"><ele>226.8</ele><time>2026-08-08T20:38:12Z</time></trkpt>
<trkpt lat="35.123465" lon="-85.170572"><ele>227.7</ele><time>2026-08-08T20:38:15Z</time></trkpt>
<trkpt lat="35.123493" lon="-85.170571"><ele>228.0</ele><time>2026-08-08T20:38:17Z</time></trkpt>
<trkpt lat="35.123532" lon="-85.170585"><ele>228.0</ele><time>2026-08-08T20:38:20Z</time></trkpt>
<trkpt lat="35.123564" lon="-85.170607"><ele>227.7</ele><time>2026-08-08T20:38:23Z</time></trkpt>
<trkpt lat="35.123592" lon="-85.170642"><ele>226.5</ele><time>2026-08-08T20:38:26Z</time></trkpt>
<trkpt lat="35.123603" lon="-85.170686"><ele>225.6</ele><time>2026-08-08T20:38:29Z</time></trkpt>
<trkpt lat="35.123598" lon="-85.170734"><ele>224.3</ele><time>2026-08-08T20:38:32Z</time></trkpt>
<trkpt lat="35.12359" lon="-85.170766"><ele>224.6</ele><time>2026-08-08T20:38:34Z</time></trkpt>
<trkpt lat="35.123572" lon="-85.170795"><ele>224.0</ele><time>2026-08-08T20:38:36Z</time></trkpt>
<trkpt lat="35.12355" lon="-85.17082"><ele>223.4</ele><time>2026-08-08T20:38:38Z</time></trkpt>
<trkpt lat="35.123527" lon="-85.170845"><ele>224.0</ele><time>2026-08-08T20:38:40Z</time></trkpt>
<trkpt lat="35.12351" lon="-85.170873"><ele>224.6</ele><time>2026-08-08T20:38:42Z</time></trkpt>
<trkpt lat="35.123476" lon="-85.170896"><ele>224.0</ele><time>2026-08-08T20:38:45Z</time></trkpt>
<trkpt lat="35.123452" lon="-85.170913"><ele>223.4</ele><time>2026-08-08T20:38:47Z</time></trkpt>
<trkpt lat="35.123422" lon="-85.170939"><ele>221.6</ele><time>2026-08-08T20:38:50Z</time></trkpt>
<trkpt lat="35.123398" lon="-85.170956"><ele>221.6</ele><time>2026-08-08T20:38:52Z</time></trkpt>
<trkpt lat="35.123359" lon="-85.170964"><ele>221.9</ele><time>2026-08-08T20:38:55Z</time></trkpt>
<trkpt lat="35.123332" lon="-85.170974"><ele>221.9</ele><time>2026-08-08T20:38:57Z</time></trkpt>
<trkpt lat="35.123304" lon="-85.170978"><ele>222.8</ele><time>2026-08-08T20:38:59Z</time></trkpt>
<trkpt lat="35.123278" lon="-85.170989"><ele>223.1</ele><time>2026-08-08T20:39:01Z</time></trkpt>
<trkpt lat="35.123259" lon="-85.171017"><ele>222.2</ele><time>2026-08-08T20:39:03Z</time></trkpt>
<trkpt lat="35.123242" lon="-85.171045"><ele>221.9</ele><time>2026-08-08T20:39:05Z</time></trkpt>
<trkpt lat="35.123228" lon="-85.171074"><ele>221.9</ele><time>2026-08-08T20:39:07Z</time></trkpt>
<trkpt lat="35.123214" lon="-85.171106"><ele>221.0</ele><time>2026-08-08T20:39:09Z</time></trkpt>
<trkpt lat="35.123197" lon="-85.171132"><ele>221.6</ele><time>2026-08-08T20:39:11Z</time></trkpt>
<trkpt lat="35.123171" lon="-85.171171"><ele>224.3</ele><time>2026-08-08T20:39:14Z</time></trkpt>
<trkpt lat="35.123141" lon="-85.171205"><ele>225.6</ele><time>2026-08-08T20:39:17Z</time></trkpt>
<trkpt lat="35.123112" lon="-85.171235"><ele>226.8</ele><time>2026-08-08T20:39:20Z</time></trkpt>
<trkpt lat="35.123085" lon="-85.171266"><ele>228.9</ele><time>2026-08-08T20:39:23Z</time></trkpt>
<trkpt lat="35.123058" lon="-85.171291"><ele>230.1</ele><time>2026-08-08T20:39:26Z</time></trkpt>
<trkpt lat="35.123026" lon="-85.171315"><ele>227.4</ele><time>2026-08-08T20:39:29Z</time></trkpt>
<trkpt lat="35.122989" lon="-85.17132"><ele>227.7</ele><time>2026-08-08T20:39:32Z</time></trkpt>
<trkpt lat="35.122956" lon="-85.171319"><ele>228.9</ele><time>2026-08-08T20:39:35Z</time></trkpt>
<trkpt lat="35.122926" lon="-85.171316"><ele>230.4</ele><time>2026-08-08T20:39:38Z</time></trkpt>
<trkpt lat="35.122899" lon="-85.171335"><ele>230.7</ele><time>2026-08-08T20:39:41Z</time></trkpt>
<trkpt lat="35.122869" lon="-85.171357"><ele>231.0</ele><time>2026-08-08T20:39:44Z</time></trkpt>
<trkpt lat="35.122836" lon="-85.171384"><ele>231.3</ele><time>2026-08-08T20:39:47Z</time></trkpt>
<trkpt lat="35.12281" lon="-85.171414"><ele>232.3</ele><time>2026-08-08T20:39:50Z</time></trkpt>
<trkpt lat="35.122797" lon="-85.171455"><ele>232.0</ele><time>2026-08-08T20:39:53Z</time></trkpt>
<trkpt lat="35.122787" lon="-85.171498"><ele>232.0</ele><time>2026-08-08T20:39:56Z</time></trkpt>
<trkpt lat="35.122763" lon="-85.171536"><ele>231.0</ele><time>2026-08-08T20:39:59Z</time></trkpt>
<trkpt lat="35.122732" lon="-85.171559"><ele>230.4</ele><time>2026-08-08T20:40:02Z</time></trkpt>
<trkpt lat="35.122699" lon="-85.171578"><ele>231.0</ele><time>2026-08-08T20:40:05Z</time></trkpt>
<trkpt lat="35.12267" lon="-85.171594"><ele>232.3</ele><time>2026-08-08T20:40:08Z</time></trkpt>
<trkpt lat="35.122642" lon="-85.171628"><ele>232.3</ele><time>2026-08-08T20:40:11Z</time></trkpt>
<trkpt lat="35.122618" lon="-85.171663"><ele>232.6</ele><time>2026-08-08T20:40:14Z</time></trkpt>
<trkpt lat="35.122593" lon="-85.1717"><ele>232.6</ele><time>2026-08-08T20:40:17Z</time></trkpt>
<trkpt lat="35.122557" lon="-85.171722"><ele>232.9</ele><time>2026-08-08T20:40:20Z</time></trkpt>
<trkpt lat="35.122519" lon="-85.171716"><ele>232.9</ele><time>2026-08-08T20:40:23Z</time></trkpt>
<trkpt lat="35.122484" lon="-85.171714"><ele>233.8</ele><time>2026-08-08T20:40:26Z</time></trkpt>
<trkpt lat="35.122449" lon="-85.171731"><ele>234.4</ele><time>2026-08-08T20:40:29Z</time></trkpt>
<trkpt lat="35.122416" lon="-85.171756"><ele>235.3</ele><time>2026-08-08T20:40:32Z</time></trkpt>
<trkpt lat="35.122402" lon="-85.171786"><ele>234.1</ele><time>2026-08-08T20:40:34Z</time></trkpt>
<trkpt lat="35.122397" lon="-85.17182"><ele>234.4</ele><time>2026-08-08T20:40:36Z</time></trkpt>
<trkpt lat="35.122403" lon="-85.171868"><ele>235.9</ele><time>2026-08-08T20:40:39Z</time></trkpt>
<trkpt lat="35.122405" lon="-85.171916"><ele>234.4</ele><time>2026-08-08T20:40:42Z</time></trkpt>
<trkpt lat="35.122389" lon="-85.171959"><ele>234.4</ele><time>2026-08-08T20:40:45Z</time></trkpt>
<trkpt lat="35.122367" lon="-85.171999"><ele>235.3</ele><time>2026-08-08T20:40:48Z</time></trkpt>
<trkpt lat="35.122351" lon="-85.172028"><ele>235.9</ele><time>2026-08-08T20:40:50Z</time></trkpt>
<trkpt lat="35.122324" lon="-85.172065"><ele>237.4</ele><time>2026-08-08T20:40:53Z</time></trkpt>
<trkpt lat="35.122293" lon="-85.1721"><ele>236.8</ele><time>2026-08-08T20:40:56Z</time></trkpt>
<trkpt lat="35.122273" lon="-85.172126"><ele>237.4</ele><time>2026-08-08T20:40:58Z</time></trkpt>
<trkpt lat="35.122253" lon="-85.172149"><ele>235.9</ele><time>2026-08-08T20:41:00Z</time></trkpt>
<trkpt lat="35.122223" lon="-85.172182"><ele>235.0</ele><time>2026-08-08T20:41:03Z</time></trkpt>
<trkpt lat="35.122197" lon="-85.172217"><ele>234.7</ele><time>2026-08-08T20:41:06Z</time></trkpt>
<trkpt lat="35.122172" lon="-85.172252"><ele>235.0</ele><time>2026-08-08T20:41:09Z</time></trkpt>
<trkpt lat="35.122154" lon="-85.172279"><ele>236.2</ele><time>2026-08-08T20:41:11Z</time></trkpt>
<trkpt lat="35.122134" lon="-85.172305"><ele>236.2</ele><time>2026-08-08T20:41:13Z</time></trkpt>
<trkpt lat="35.12212" lon="-85.172335"><ele>236.5</ele><time>2026-08-08T20:41:15Z</time></trkpt>
<trkpt lat="35.122107" lon="-85.172367"><ele>236.2</ele><time>2026-08-08T20:41:17Z</time></trkpt>
<trkpt lat="35.12209" lon="-85.172413"><ele>237.1</ele><time>2026-08-08T20:41:20Z</time></trkpt>
<trkpt lat="35.122075" lon="-85.172446"><ele>237.4</ele><time>2026-08-08T20:41:22Z</time></trkpt>
<trkpt lat="35.122056" lon="-85.172479"><ele>237.7</ele><time>2026-08-08T20:41:24Z</time></trkpt>
<trkpt lat="35.122038" lon="-85.172507"><ele>238.4</ele><time>2026-08-08T20:41:26Z</time></trkpt>
<trkpt lat="35.122" lon="-85.17252"><ele>238.7</ele><time>2026-08-08T20:41:29Z</time></trkpt>
<trkpt lat="35.121965" lon="-85.172522"><ele>239.3</ele><time>2026-08-08T20:41:32Z</time></trkpt>
<trkpt lat="35.121931" lon="-85.172545"><ele>241.1</ele><time>2026-08-08T20:41:35Z</time></trkpt>
<trkpt lat="35.121908" lon="-85.172565"><ele>243.8</ele><time>2026-08-08T20:41:37Z</time></trkpt>
<trkpt lat="35.121892" lon="-85.172596"><ele>242.3</ele><time>2026-08-08T20:41:39Z</time></trkpt>
<trkpt lat="35.121874" lon="-85.172624"><ele>241.7</ele><time>2026-08-08T20:41:41Z</time></trkpt>
<trkpt lat="35.121859" lon="-85.172652"><ele>241.7</ele><time>2026-08-08T20:41:43Z</time></trkpt>
<trkpt lat="35.121842" lon="-85.172681"><ele>241.1</ele><time>2026-08-08T20:41:45Z</time></trkpt>
<trkpt lat="35.121822" lon="-85.17271"><ele>241.1</ele><time>2026-08-08T20:41:47Z</time></trkpt>
<trkpt lat="35.121804" lon="-85.172735"><ele>241.4</ele><time>2026-08-08T20:41:49Z</time></trkpt>
<trkpt lat="35.12179" lon="-85.172765"><ele>242.0</ele><time>2026-08-08T20:41:51Z</time></trkpt>
<trkpt lat="35.121775" lon="-85.172812"><ele>239.6</ele><time>2026-08-08T20:41:54Z</time></trkpt>
<trkpt lat="35.121764" lon="-85.172854"><ele>239.9</ele><time>2026-08-08T20:41:57Z</time></trkpt>
<trkpt lat="35.121747" lon="-85.17288"><ele>241.7</ele><time>2026-08-08T20:41:59Z</time></trkpt>
<trkpt lat="35.121725" lon="-85.172919"><ele>240.2</ele><time>2026-08-08T20:42:02Z</time></trkpt>
<trkpt lat="35.121701" lon="-85.172958"><ele>239.6</ele><time>2026-08-08T20:42:05Z</time></trkpt>
<trkpt lat="35.121676" lon="-85.172993"><ele>239.9</ele><time>2026-08-08T20:42:08Z</time></trkpt>
<trkpt lat="35.121656" lon="-85.17302"><ele>240.2</ele><time>2026-08-08T20:42:10Z</time></trkpt>
<trkpt lat="35.121635" lon="-85.173043"><ele>240.5</ele><time>2026-08-08T20:42:12Z</time></trkpt>
<trkpt lat="35.121619" lon="-85.173073"><ele>239.6</ele><time>2026-08-08T20:42:14Z</time></trkpt>
<trkpt lat="35.121607" lon="-85.173106"><ele>240.5</ele><time>2026-08-08T20:42:16Z</time></trkpt>
<trkpt lat="35.121593" lon="-85.173146"><ele>240.8</ele><time>2026-08-08T20:42:19Z</time></trkpt>
<trkpt lat="35.121577" lon="-85.173175"><ele>242.6</ele><time>2026-08-08T20:42:21Z</time></trkpt>
<trkpt lat="35.121546" lon="-85.173201"><ele>243.5</ele><time>2026-08-08T20:42:24Z</time></trkpt>
<trkpt lat="35.12152" lon="-85.173216"><ele>243.2</ele><time>2026-08-08T20:42:26Z</time></trkpt>
<trkpt lat="35.121501" lon="-85.173241"><ele>243.5</ele><time>2026-08-08T20:42:28Z</time></trkpt>
<trkpt lat="35.12147" lon="-85.173264"><ele>245.1</ele><time>2026-08-08T20:42:31Z</time></trkpt>
<trkpt lat="35.121447" lon="-85.173302"><ele>245.4</ele><time>2026-08-08T20:42:34Z</time></trkpt>
<trkpt lat="35.121431" lon="-85.173342"><ele>245.7</ele><time>2026-08-08T20:42:37Z</time></trkpt>
<trkpt lat="35.121411" lon="-85.173384"><ele>246.6</ele><time>2026-08-08T20:42:40Z</time></trkpt>
<trkpt lat="35.121394" lon="-85.173421"><ele>246.3</ele><time>2026-08-08T20:42:43Z</time></trkpt>
<trkpt lat="35.121359" lon="-85.17344"><ele>246.9</ele><time>2026-08-08T20:42:46Z</time></trkpt>
<trkpt lat="35.121325" lon="-85.173444"><ele>247.2</ele><time>2026-08-08T20:42:49Z</time></trkpt>
<trkpt lat="35.121287" lon="-85.173457"><ele>248.1</ele><time>2026-08-08T20:42:52Z</time></trkpt>
<trkpt lat="35.12125" lon="-85.173478"><ele>249.3</ele><time>2026-08-08T20:42:55Z</time></trkpt>
<trkpt lat="35.121226" lon="-85.173508"><ele>249.9</ele><time>2026-08-08T20:42:58Z</time></trkpt>
<trkpt lat="35.121208" lon="-85.173548"><ele>250.5</ele><time>2026-08-08T20:43:01Z</time></trkpt>
<trkpt lat="35.121191" lon="-85.173589"><ele>252.4</ele><time>2026-08-08T20:43:04Z</time></trkpt>
<trkpt lat="35.121169" lon="-85.17363"><ele>250.9</ele><time>2026-08-08T20:43:07Z</time></trkpt>
<trkpt lat="35.121145" lon="-85.173672"><ele>252.1</ele><time>2026-08-08T20:43:10Z</time></trkpt>
<trkpt lat="35.121121" lon="-85.173711"><ele>251.2</ele><time>2026-08-08T20:43:13Z</time></trkpt>
<trkpt lat="35.121108" lon="-85.173757"><ele>251.5</ele><time>2026-08-08T20:43:16Z</time></trkpt>
<trkpt lat="35.121127" lon="-85.173788"><ele>251.8</ele><time>2026-08-08T20:43:18Z</time></trkpt>
<trkpt lat="35.121148" lon="-85.173811"><ele>250.9</ele><time>2026-08-08T20:43:20Z</time></trkpt>
<trkpt lat="35.121162" lon="-85.173839"><ele>249.6</ele><time>2026-08-08T20:43:22Z</time></trkpt>
<trkpt lat="35.121172" lon="-85.173887"><ele>249.9</ele><time>2026-08-08T20:43:25Z</time></trkpt>
<trkpt lat="35.121153" lon="-85.173932"><ele>250.5</ele><time>2026-08-08T20:43:28Z</time></trkpt>
<trkpt lat="35.121124" lon="-85.173968"><ele>251.8</ele><time>2026-08-08T20:43:31Z</time></trkpt>
<trkpt lat="35.121105" lon="-85.174009"><ele>252.1</ele><time>2026-08-08T20:43:34Z</time></trkpt>
<trkpt lat="35.121114" lon="-85.174054"><ele>253.0</ele><time>2026-08-08T20:43:37Z</time></trkpt>
<trkpt lat="35.121135" lon="-85.174093"><ele>252.4</ele><time>2026-08-08T20:43:40Z</time></trkpt>
<trkpt lat="35.121152" lon="-85.174136"><ele>253.9</ele><time>2026-08-08T20:43:43Z</time></trkpt>
<trkpt lat="35.121174" lon="-85.174177"><ele>252.7</ele><time>2026-08-08T20:43:46Z</time></trkpt>
<trkpt lat="35.121185" lon="-85.174208"><ele>253.3</ele><time>2026-08-08T20:43:48Z</time></trkpt>
<trkpt lat="35.1212" lon="-85.174238"><ele>252.1</ele><time>2026-08-08T20:43:50Z</time></trkpt>
<trkpt lat="35.121215" lon="-85.174266"><ele>253.0</ele><time>2026-08-08T20:43:52Z</time></trkpt>
<trkpt lat="35.121238" lon="-85.174303"><ele>253.6</ele><time>2026-08-08T20:43:55Z</time></trkpt>
<trkpt lat="35.121253" lon="-85.174347"><ele>253.6</ele><time>2026-08-08T20:43:58Z</time></trkpt>
<trkpt lat="35.121261" lon="-85.174382"><ele>255.1</ele><time>2026-08-08T20:44:00Z</time></trkpt>
<trkpt lat="35.121268" lon="-85.174415"><ele>255.1</ele><time>2026-08-08T20:44:02Z</time></trkpt>
<trkpt lat="35.121271" lon="-85.174462"><ele>253.6</ele><time>2026-08-08T20:44:05Z</time></trkpt>
<trkpt lat="35.121267" lon="-85.174496"><ele>252.4</ele><time>2026-08-08T20:44:07Z</time></trkpt>
<trkpt lat="35.121256" lon="-85.174529"><ele>252.1</ele><time>2026-08-08T20:44:09Z</time></trkpt>
<trkpt lat="35.121242" lon="-85.174559"><ele>252.4</ele><time>2026-08-08T20:44:11Z</time></trkpt>
<trkpt lat="35.121233" lon="-85.174605"><ele>250.5</ele><time>2026-08-08T20:44:14Z</time></trkpt>
<trkpt lat="35.12123" lon="-85.174653"><ele>248.7</ele><time>2026-08-08T20:44:17Z</time></trkpt>
<trkpt lat="35.1212" lon="-85.174685"><ele>248.4</ele><time>2026-08-08T20:44:20Z</time></trkpt>
<trkpt lat="35.121172" lon="-85.174687"><ele>248.7</ele><time>2026-08-08T20:44:22Z</time></trkpt>
<trkpt lat="35.121142" lon="-85.174686"><ele>249.0</ele><time>2026-08-08T20:44:24Z</time></trkpt>
<trkpt lat="35.121112" lon="-85.174684"><ele>249.0</ele><time>2026-08-08T20:44:26Z</time></trkpt>
<trkpt lat="35.121071" lon="-85.174677"><ele>249.0</ele><time>2026-08-08T20:44:29Z</time></trkpt>
<trkpt lat="35.121033" lon="-85.174689"><ele>247.2</ele><time>2026-08-08T20:44:32Z</time></trkpt>
<trkpt lat="35.121004" lon="-85.174723"><ele>247.5</ele><time>2026-08-08T20:44:35Z</time></trkpt>
<trkpt lat="35.120996" lon="-85.174756"><ele>246.3</ele><time>2026-08-08T20:44:37Z</time></trkpt>
<trkpt lat="35.12097" lon="-85.174793"><ele>247.5</ele><time>2026-08-08T20:44:40Z</time></trkpt>
<trkpt lat="35.120939" lon="-85.174826"><ele>247.2</ele><time>2026-08-08T20:44:43Z</time></trkpt>
<trkpt lat="35.120906" lon="-85.174853"><ele>248.1</ele><time>2026-08-08T20:44:46Z</time></trkpt>
<trkpt lat="35.120887" lon="-85.174881"><ele>246.9</ele><time>2026-08-08T20:44:48Z</time></trkpt>
<trkpt lat="35.120865" lon="-85.174902"><ele>246.3</ele><time>2026-08-08T20:44:50Z</time></trkpt>
<trkpt lat="35.12084" lon="-85.174923"><ele>246.0</ele><time>2026-08-08T20:44:52Z</time></trkpt>
<trkpt lat="35.120823" lon="-85.17495"><ele>245.4</ele><time>2026-08-08T20:44:54Z</time></trkpt>
<trkpt lat="35.120809" lon="-85.174982"><ele>245.7</ele><time>2026-08-08T20:44:56Z</time></trkpt>
<trkpt lat="35.120796" lon="-85.175013"><ele>244.4</ele><time>2026-08-08T20:44:58Z</time></trkpt>
<trkpt lat="35.120771" lon="-85.175051"><ele>245.7</ele><time>2026-08-08T20:45:01Z</time></trkpt>
<trkpt lat="35.120735" lon="-85.175078"><ele>245.4</ele><time>2026-08-08T20:45:04Z</time></trkpt>
<trkpt lat="35.120706" lon="-85.175079"><ele>245.7</ele><time>2026-08-08T20:45:06Z</time></trkpt>
<trkpt lat="35.120679" lon="-85.175072"><ele>246.6</ele><time>2026-08-08T20:45:08Z</time></trkpt>
<trkpt lat="35.120643" lon="-85.175049"><ele>248.7</ele><time>2026-08-08T20:45:11Z</time></trkpt>
<trkpt lat="35.120621" lon="-85.175028"><ele>247.8</ele><time>2026-08-08T20:45:13Z</time></trkpt>
<trkpt lat="35.120589" lon="-85.175007"><ele>247.8</ele><time>2026-08-08T20:45:16Z</time></trkpt>
<trkpt lat="35.120549" lon="-85.175012"><ele>247.5</ele><time>2026-08-08T20:45:19Z</time></trkpt>
<trkpt lat="35.120511" lon="-85.175026"><ele>245.4</ele><time>2026-08-08T20:45:22Z</time></trkpt>
<trkpt lat="35.120483" lon="-85.175022"><ele>245.4</ele><time>2026-08-08T20:45:24Z</time></trkpt>
<trkpt lat="35.120446" lon="-85.175003"><ele>245.7</ele><time>2026-08-08T20:45:27Z</time></trkpt>
<trkpt lat="35.120409" lon="-85.174991"><ele>246.9</ele><time>2026-08-08T20:45:30Z</time></trkpt>
<trkpt lat="35.120369" lon="-85.174999"><ele>246.6</ele><time>2026-08-08T20:45:33Z</time></trkpt>
<trkpt lat="35.120344" lon="-85.175015"><ele>245.4</ele><time>2026-08-08T20:45:35Z</time></trkpt>
<trkpt lat="35.120304" lon="-85.17503"><ele>244.1</ele><time>2026-08-08T20:45:38Z</time></trkpt>
<trkpt lat="35.120279" lon="-85.17505"><ele>244.1</ele><time>2026-08-08T20:45:40Z</time></trkpt>
<trkpt lat="35.120247" lon="-85.175082"><ele>243.5</ele><time>2026-08-08T20:45:43Z</time></trkpt>
<trkpt lat="35.120215" lon="-85.175111"><ele>242.6</ele><time>2026-08-08T20:45:46Z</time></trkpt>
<trkpt lat="35.120177" lon="-85.175119"><ele>242.0</ele><time>2026-08-08T20:45:49Z</time></trkpt>
<trkpt lat="35.120139" lon="-85.175125"><ele>242.0</ele><time>2026-08-08T20:45:52Z</time></trkpt>
<trkpt lat="35.1201" lon="-85.175131"><ele>243.8</ele><time>2026-08-08T20:45:55Z</time></trkpt>
<trkpt lat="35.120074" lon="-85.175144"><ele>243.5</ele><time>2026-08-08T20:45:57Z</time></trkpt>
<trkpt lat="35.120039" lon="-85.175155"><ele>241.4</ele><time>2026-08-08T20:46:00Z</time></trkpt>
<trkpt lat="35.120003" lon="-85.175155"><ele>240.8</ele><time>2026-08-08T20:46:03Z</time></trkpt>
<trkpt lat="35.119967" lon="-85.175165"><ele>240.8</ele><time>2026-08-08T20:46:06Z</time></trkpt>
<trkpt lat="35.119935" lon="-85.175183"><ele>239.6</ele><time>2026-08-08T20:46:09Z</time></trkpt>
<trkpt lat="35.119903" lon="-85.175201"><ele>239.6</ele><time>2026-08-08T20:46:12Z</time></trkpt>
<trkpt lat="35.119873" lon="-85.175231"><ele>238.0</ele><time>2026-08-08T20:46:15Z</time></trkpt>
<trkpt lat="35.119849" lon="-85.175264"><ele>237.1</ele><time>2026-08-08T20:46:18Z</time></trkpt>
<trkpt lat="35.119825" lon="-85.175302"><ele>237.1</ele><time>2026-08-08T20:46:21Z</time></trkpt>
<trkpt lat="35.119798" lon="-85.175334"><ele>238.0</ele><time>2026-08-08T20:46:24Z</time></trkpt>
<trkpt lat="35.119771" lon="-85.175363"><ele>237.7</ele><time>2026-08-08T20:46:27Z</time></trkpt>
<trkpt lat="35.119739" lon="-85.175379"><ele>238.0</ele><time>2026-08-08T20:46:30Z</time></trkpt>
<trkpt lat="35.119711" lon="-85.175407"><ele>237.4</ele><time>2026-08-08T20:46:33Z</time></trkpt>
<trkpt lat="35.119676" lon="-85.175432"><ele>239.6</ele><time>2026-08-08T20:46:36Z</time></trkpt>
<trkpt lat="35.119639" lon="-85.175456"><ele>240.2</ele><time>2026-08-08T20:46:39Z</time></trkpt>
<trkpt lat="35.119615" lon="-85.175473"><ele>239.9</ele><time>2026-08-08T20:46:41Z</time></trkpt>
<trkpt lat="35.119583" lon="-85.175506"><ele>238.4</ele><time>2026-08-08T20:46:44Z</time></trkpt>
<trkpt lat="35.119562" lon="-85.175531"><ele>237.7</ele><time>2026-08-08T20:46:46Z</time></trkpt>
<trkpt lat="35.11954" lon="-85.175552"><ele>236.5</ele><time>2026-08-08T20:46:48Z</time></trkpt>
<trkpt lat="35.119518" lon="-85.175589"><ele>236.2</ele><time>2026-08-08T20:46:51Z</time></trkpt>
<trkpt lat="35.119484" lon="-85.175617"><ele>236.8</ele><time>2026-08-08T20:46:54Z</time></trkpt>
<trkpt lat="35.119465" lon="-85.175643"><ele>237.1</ele><time>2026-08-08T20:46:56Z</time></trkpt>
<trkpt lat="35.119437" lon="-85.175674"><ele>236.8</ele><time>2026-08-08T20:46:59Z</time></trkpt>
<trkpt lat="35.11942" lon="-85.175702"><ele>236.8</ele><time>2026-08-08T20:47:01Z</time></trkpt>
<trkpt lat="35.119404" lon="-85.175744"><ele>236.8</ele><time>2026-08-08T20:47:04Z</time></trkpt>
<trkpt lat="35.119374" lon="-85.175775"><ele>236.5</ele><time>2026-08-08T20:47:07Z</time></trkpt>
<trkpt lat="35.119346" lon="-85.175783"><ele>237.1</ele><time>2026-08-08T20:47:09Z</time></trkpt>
<trkpt lat="35.119311" lon="-85.175792"><ele>236.8</ele><time>2026-08-08T20:47:12Z</time></trkpt>
<trkpt lat="35.119292" lon="-85.175816"><ele>237.4</ele><time>2026-08-08T20:47:14Z</time></trkpt>
<trkpt lat="35.119267" lon="-85.175853"><ele>237.7</ele><time>2026-08-08T20:47:17Z</time></trkpt>
<trkpt lat="35.119239" lon="-85.175847"><ele>238.0</ele><time>2026-08-08T20:47:19Z</time></trkpt>
<trkpt lat="35.119222" lon="-85.175821"><ele>238.4</ele><time>2026-08-08T20:47:21Z</time></trkpt>
<trkpt lat="35.119211" lon="-85.175788"><ele>238.4</ele><time>2026-08-08T20:47:23Z</time></trkpt>
<trkpt lat="35.119188" lon="-85.175751"><ele>239.0</ele><time>2026-08-08T20:47:26Z</time></trkpt>
<trkpt lat="35.119158" lon="-85.175722"><ele>239.9</ele><time>2026-08-08T20:47:29Z</time></trkpt>
<trkpt lat="35.11913" lon="-85.175688"><ele>241.4</ele><time>2026-08-08T20:47:32Z</time></trkpt>
<trkpt lat="35.119118" lon="-85.175644"><ele>242.3</ele><time>2026-08-08T20:47:35Z</time></trkpt>
<trkpt lat="35.119115" lon="-85.175597"><ele>244.1</ele><time>2026-08-08T20:47:38Z</time></trkpt>
<trkpt lat="35.119116" lon="-85.175562"><ele>243.5</ele><time>2026-08-08T20:47:40Z</time></trkpt>
<trkpt lat="35.119105" lon="-85.175521"><ele>243.5</ele><time>2026-08-08T20:47:43Z</time></trkpt>
<trkpt lat="35.119093" lon="-85.175478"><ele>242.6</ele><time>2026-08-08T20:47:46Z</time></trkpt>
<trkpt lat="35.119098" lon="-85.175431"><ele>242.6</ele><time>2026-08-08T20:47:49Z</time></trkpt>
<trkpt lat="35.119107" lon="-85.175396"><ele>242.3</ele><time>2026-08-08T20:47:51Z</time></trkpt>
<trkpt lat="35.119108" lon="-85.175351"><ele>240.2</ele><time>2026-08-08T20:47:54Z</time></trkpt>
<trkpt lat="35.119103" lon="-85.175302"><ele>239.3</ele><time>2026-08-08T20:47:57Z</time></trkpt>
<trkpt lat="35.119107" lon="-85.175255"><ele>238.0</ele><time>2026-08-08T20:48:00Z</time></trkpt>
<trkpt lat="35.11912" lon="-85.175222"><ele>238.0</ele><time>2026-08-08T20:48:02Z</time></trkpt>
<trkpt lat="35.119121" lon="-85.175174"><ele>237.4</ele><time>2026-08-08T20:48:05Z</time></trkpt>
<trkpt lat="35.119101" lon="-85.175147"><ele>237.4</ele><time>2026-08-08T20:48:07Z</time></trkpt>
<trkpt lat="35.119066" lon="-85.175124"><ele>237.4</ele><time>2026-08-08T20:48:10Z</time></trkpt>
<trkpt lat="35.11903" lon="-85.175108"><ele>238.4</ele><time>2026-08-08T20:48:13Z</time></trkpt>
<trkpt lat="35.119" lon="-85.175105"><ele>239.3</ele><time>2026-08-08T20:48:15Z</time></trkpt>
<trkpt lat="35.118971" lon="-85.175094"><ele>239.9</ele><time>2026-08-08T20:48:17Z</time></trkpt>
<trkpt lat="35.118946" lon="-85.175073"><ele>241.7</ele><time>2026-08-08T20:48:19Z</time></trkpt>
<trkpt lat="35.118915" lon="-85.175039"><ele>235.6</ele><time>2026-08-08T20:48:22Z</time></trkpt>
<trkpt lat="35.11888" lon="-85.175041"><ele>233.2</ele><time>2026-08-08T20:48:26Z</time></trkpt>
<trkpt lat="35.11886" lon="-85.17507"><ele>233.8</ele><time>2026-08-08T20:48:29Z</time></trkpt>
<trkpt lat="35.118851" lon="-85.175069"><ele>233.5</ele><time>2026-08-08T20:48:30Z</time></trkpt>
<trkpt lat="35.118855" lon="-85.17507"><ele>233.5</ele><time>2026-08-08T20:48:31Z</time></trkpt>
<trkpt lat="35.118853" lon="-85.175069"><ele>232.9</ele><time>2026-08-08T20:48:32Z</time></trkpt>
<trkpt lat="35.118854" lon="-85.175071"><ele>232.9</ele><time>2026-08-08T20:48:33Z</time></trkpt>
<trkpt lat="35.118852" lon="-85.175073"><ele>235.3</ele><time>2026-08-08T20:48:34Z</time></trkpt>
<trkpt lat="35.11886" lon="-85.175066"><ele>234.4</ele><time>2026-08-08T20:48:36Z</time></trkpt>
<trkpt lat="35.118862" lon="-85.175071"><ele>234.7</ele><time>2026-08-08T20:48:37Z</time></trkpt>
<trkpt lat="35.118862" lon="-85.175075"><ele>234.7</ele><time>2026-08-08T20:48:45Z</time></trkpt>
<trkpt lat="35.118859" lon="-85.175078"><ele>234.7</ele><time>2026-08-08T20:48:46Z</time></trkpt>
<trkpt lat="35.118826" lon="-85.175055"><ele>234.1</ele><time>2026-08-08T20:48:50Z</time></trkpt>
<trkpt lat="35.118798" lon="-85.175033"><ele>233.8</ele><time>2026-08-08T20:48:52Z</time></trkpt>
<trkpt lat="35.118771" lon="-85.175018"><ele>233.2</ele><time>2026-08-08T20:48:54Z</time></trkpt>
<trkpt lat="35.118736" lon="-85.175002"><ele>234.1</ele><time>2026-08-08T20:48:57Z</time></trkpt>
<trkpt lat="35.11871" lon="-85.17499"><ele>234.7</ele><time>2026-08-08T20:48:59Z</time></trkpt>
<trkpt lat="35.118676" lon="-85.174971"><ele>236.8</ele><time>2026-08-08T20:49:02Z</time></trkpt>
<trkpt lat="35.118645" lon="-85.17496"><ele>236.8</ele><time>2026-08-08T20:49:04Z</time></trkpt>
<trkpt lat="35.118618" lon="-85.174941"><ele>236.2</ele><time>2026-08-08T20:49:06Z</time></trkpt>
<trkpt lat="35.118593" lon="-85.174913"><ele>237.7</ele><time>2026-08-08T20:49:08Z</time></trkpt>
<trkpt lat="35.11857" lon="-85.174886"><ele>238.4</ele><time>2026-08-08T20:49:10Z</time></trkpt>
<trkpt lat="35.118551" lon="-85.174838"><ele>239.6</ele><time>2026-08-08T20:49:13Z</time></trkpt>
<trkpt lat="35.118548" lon="-85.174796"><ele>237.7</ele><time>2026-08-08T20:49:15Z</time></trkpt>
<trkpt lat="35.118546" lon="-85.174758"><ele>238.7</ele><time>2026-08-08T20:49:17Z</time></trkpt>
<trkpt lat="35.118538" lon="-85.174716"><ele>240.8</ele><time>2026-08-08T20:49:19Z</time></trkpt>
<trkpt lat="35.118528" lon="-85.174681"><ele>241.1</ele><time>2026-08-08T20:49:21Z</time></trkpt>
<trkpt lat="35.118515" lon="-85.174644"><ele>242.3</ele><time>2026-08-08T20:49:23Z</time></trkpt>
<trkpt lat="35.118506" lon="-85.174603"><ele>242.9</ele><time>2026-08-08T20:49:25Z</time></trkpt>
<trkpt lat="35.11849" lon="-85.174572"><ele>243.5</ele><time>2026-08-08T20:49:27Z</time></trkpt>
<trkpt lat="35.118485" lon="-85.174524"><ele>245.1</ele><time>2026-08-08T20:49:30Z</time></trkpt>
<trkpt lat="35.118474" lon="-85.174481"><ele>246.0</ele><time>2026-08-08T20:49:33Z</time></trkpt>
<trkpt lat="35.118464" lon="-85.174436"><ele>246.3</ele><time>2026-08-08T20:49:35Z</time></trkpt>
<trkpt lat="35.118449" lon="-85.174396"><ele>247.2</ele><time>2026-08-08T20:49:37Z</time></trkpt>
<trkpt lat="35.118426" lon="-85.174367"><ele>246.6</ele><time>2026-08-08T20:49:39Z</time></trkpt>
<trkpt lat="35.118398" lon="-85.174339"><ele>246.3</ele><time>2026-08-08T20:49:42Z</time></trkpt>
<trkpt lat="35.11838" lon="-85.174308"><ele>248.4</ele><time>2026-08-08T20:49:44Z</time></trkpt>
<trkpt lat="35.118362" lon="-85.174277"><ele>250.2</ele><time>2026-08-08T20:49:46Z</time></trkpt>
<trkpt lat="35.11834" lon="-85.174249"><ele>250.9</ele><time>2026-08-08T20:49:48Z</time></trkpt>
<trkpt lat="35.118327" lon="-85.174206"><ele>248.1</ele><time>2026-08-08T20:49:51Z</time></trkpt>
<trkpt lat="35.118314" lon="-85.17417"><ele>247.2</ele><time>2026-08-08T20:49:54Z</time></trkpt>
<trkpt lat="35.118297" lon="-85.174141"><ele>247.2</ele><time>2026-08-08T20:49:56Z</time></trkpt>
<trkpt lat="35.118269" lon="-85.174116"><ele>246.3</ele><time>2026-08-08T20:49:58Z</time></trkpt>
<trkpt lat="35.118245" lon="-85.174087"><ele>246.6</ele><time>2026-08-08T20:50:00Z</time></trkpt>
<trkpt lat="35.118228" lon="-85.174056"><ele>246.9</ele><time>2026-08-08T20:50:02Z</time></trkpt>
<trkpt lat="35.118213" lon="-85.174027"><ele>244.8</ele><time>2026-08-08T20:50:04Z</time></trkpt>
<trkpt lat="35.118194" lon="-85.173988"><ele>243.8</ele><time>2026-08-08T20:50:07Z</time></trkpt>
<trkpt lat="35.118161" lon="-85.173963"><ele>243.2</ele><time>2026-08-08T20:50:10Z</time></trkpt>
<trkpt lat="35.118121" lon="-85.173959"><ele>242.3</ele><time>2026-08-08T20:50:13Z</time></trkpt>
<trkpt lat="35.118092" lon="-85.173969"><ele>240.8</ele><time>2026-08-08T20:50:15Z</time></trkpt>
<trkpt lat="35.118066" lon="-85.173981"><ele>239.6</ele><time>2026-08-08T20:50:17Z</time></trkpt>
<trkpt lat="35.118031" lon="-85.173996"><ele>237.4</ele><time>2026-08-08T20:50:20Z</time></trkpt>
<trkpt lat="35.118002" lon="-85.174007"><ele>236.5</ele><time>2026-08-08T20:50:22Z</time></trkpt>
<trkpt lat="35.117972" lon="-85.174005"><ele>235.6</ele><time>2026-08-08T20:50:24Z</time></trkpt>
<trkpt lat="35.117954" lon="-85.173975"><ele>236.5</ele><time>2026-08-08T20:50:26Z</time></trkpt>
<trkpt lat="35.117957" lon="-85.173927"><ele>237.4</ele><time>2026-08-08T20:50:29Z</time></trkpt>
<trkpt lat="35.117965" lon="-85.173877"><ele>237.7</ele><time>2026-08-08T20:50:32Z</time></trkpt>
<trkpt lat="35.117967" lon="-85.173829"><ele>238.7</ele><time>2026-08-08T20:50:35Z</time></trkpt>
<trkpt lat="35.117968" lon="-85.173776"><ele>238.7</ele><time>2026-08-08T20:50:38Z</time></trkpt>
<trkpt lat="35.117969" lon="-85.173739"><ele>238.4</ele><time>2026-08-08T20:50:40Z</time></trkpt>
<trkpt lat="35.117964" lon="-85.17369"><ele>237.1</ele><time>2026-08-08T20:50:43Z</time></trkpt>
<trkpt lat="35.117949" lon="-85.173644"><ele>236.2</ele><time>2026-08-08T20:50:46Z</time></trkpt>
<trkpt lat="35.117945" lon="-85.173603"><ele>235.3</ele><time>2026-08-08T20:50:49Z</time></trkpt>
<trkpt lat="35.117953" lon="-85.173564"><ele>235.0</ele><time>2026-08-08T20:50:51Z</time></trkpt>
<trkpt lat="35.117959" lon="-85.173518"><ele>235.9</ele><time>2026-08-08T20:50:53Z</time></trkpt>
<trkpt lat="35.117954" lon="-85.173483"><ele>235.9</ele><time>2026-08-08T20:50:55Z</time></trkpt>
<trkpt lat="35.117941" lon="-85.173453"><ele>236.8</ele><time>2026-08-08T20:50:57Z</time></trkpt>
<trkpt lat="35.11792" lon="-85.173428"><ele>236.8</ele><time>2026-08-08T20:50:59Z</time></trkpt>
<trkpt lat="35.117897" lon="-85.173402"><ele>236.8</ele><time>2026-08-08T20:51:01Z</time></trkpt>
<trkpt lat="35.117875" lon="-85.173378"><ele>237.1</ele><time>2026-08-08T20:51:03Z</time></trkpt>
<trkpt lat="35.117851" lon="-85.173358"><ele>235.3</ele><time>2026-08-08T20:51:05Z</time></trkpt>
<trkpt lat="35.117833" lon="-85.173315"><ele>234.7</ele><time>2026-08-08T20:51:08Z</time></trkpt>
<trkpt lat="35.117817" lon="-85.173287"><ele>234.4</ele><time>2026-08-08T20:51:10Z</time></trkpt>
<trkpt lat="35.117809" lon="-85.173254"><ele>234.7</ele><time>2026-08-08T20:51:12Z</time></trkpt>
<trkpt lat="35.117803" lon="-85.17322"><ele>234.4</ele><time>2026-08-08T20:51:14Z</time></trkpt>
<trkpt lat="35.117787" lon="-85.173178"><ele>234.4</ele><time>2026-08-08T20:51:17Z</time></trkpt>
<trkpt lat="35.117772" lon="-85.173141"><ele>234.7</ele><time>2026-08-08T20:51:20Z</time></trkpt>
<trkpt lat="35.117745" lon="-85.173127"><ele>233.8</ele><time>2026-08-08T20:51:22Z</time></trkpt>
<trkpt lat="35.117713" lon="-85.173103"><ele>233.2</ele><time>2026-08-08T20:51:25Z</time></trkpt>
<trkpt lat="35.117685" lon="-85.173073"><ele>231.0</ele><time>2026-08-08T20:51:28Z</time></trkpt>
<trkpt lat="35.117653" lon="-85.173042"><ele>232.0</ele><time>2026-08-08T20:51:31Z</time></trkpt>
<trkpt lat="35.117628" lon="-85.17302"><ele>232.0</ele><time>2026-08-08T20:51:33Z</time></trkpt>
<trkpt lat="35.117602" lon="-85.172998"><ele>231.6</ele><time>2026-08-08T20:51:35Z</time></trkpt>
<trkpt lat="35.117575" lon="-85.172984"><ele>231.3</ele><time>2026-08-08T20:51:37Z</time></trkpt>
<trkpt lat="35.117549" lon="-85.172974"><ele>230.7</ele><time>2026-08-08T20:51:39Z</time></trkpt>
<trkpt lat="35.117518" lon="-85.172944"><ele>230.7</ele><time>2026-08-08T20:51:42Z</time></trkpt>
<trkpt lat="35.117497" lon="-85.172918"><ele>230.4</ele><time>2026-08-08T20:51:44Z</time></trkpt>
<trkpt lat="35.117462" lon="-85.17289"><ele>228.9</ele><time>2026-08-08T20:51:47Z</time></trkpt>
<trkpt lat="35.117438" lon="-85.172875"><ele>228.9</ele><time>2026-08-08T20:51:49Z</time></trkpt>
<trkpt lat="35.117401" lon="-85.172853"><ele>228.0</ele><time>2026-08-08T20:51:52Z</time></trkpt>
<trkpt lat="35.117381" lon="-85.172826"><ele>228.6</ele><time>2026-08-08T20:51:54Z</time></trkpt>
<trkpt lat="35.117364" lon="-85.172798"><ele>228.3</ele><time>2026-08-08T20:51:56Z</time></trkpt>
<trkpt lat="35.117339" lon="-85.172783"><ele>228.0</ele><time>2026-08-08T20:51:58Z</time></trkpt>
<trkpt lat="35.117316" lon="-85.172762"><ele>227.7</ele><time>2026-08-08T20:52:00Z</time></trkpt>
<trkpt lat="35.117287" lon="-85.172756"><ele>227.1</ele><time>2026-08-08T20:52:02Z</time></trkpt>
<trkpt lat="35.117256" lon="-85.172754"><ele>227.1</ele><time>2026-08-08T20:52:04Z</time></trkpt>
<trkpt lat="35.11723" lon="-85.172738"><ele>227.4</ele><time>2026-08-08T20:52:06Z</time></trkpt>
<trkpt lat="35.117209" lon="-85.172714"><ele>229.2</ele><time>2026-08-08T20:52:08Z</time></trkpt>
<trkpt lat="35.117182" lon="-85.17268"><ele>230.7</ele><time>2026-08-08T20:52:11Z</time></trkpt>
<trkpt lat="35.117166" lon="-85.172648"><ele>231.3</ele><time>2026-08-08T20:52:13Z</time></trkpt>
<trkpt lat="35.117147" lon="-85.172614"><ele>231.0</ele><time>2026-08-08T20:52:15Z</time></trkpt>
<trkpt lat="35.117125" lon="-85.172587"><ele>231.3</ele><time>2026-08-08T20:52:17Z</time></trkpt>
<trkpt lat="35.117088" lon="-85.17257"><ele>231.3</ele><time>2026-08-08T20:52:20Z</time></trkpt>
<trkpt lat="35.11706" lon="-85.172571"><ele>230.1</ele><time>2026-08-08T20:52:22Z</time></trkpt>
<trkpt lat="35.11703" lon="-85.17258"><ele>229.5</ele><time>2026-08-08T20:52:24Z</time></trkpt>
<trkpt lat="35.117003" lon="-85.172596"><ele>228.3</ele><time>2026-08-08T20:52:26Z</time></trkpt>
<trkpt lat="35.116966" lon="-85.172615"><ele>228.3</ele><time>2026-08-08T20:52:29Z</time></trkpt>
<trkpt lat="35.116936" lon="-85.172628"><ele>228.0</ele><time>2026-08-08T20:52:32Z</time></trkpt>
<trkpt lat="35.116899" lon="-85.172642"><ele>227.7</ele><time>2026-08-08T20:52:35Z</time></trkpt>
<trkpt lat="35.116873" lon="-85.172656"><ele>228.0</ele><time>2026-08-08T20:52:37Z</time></trkpt>
<trkpt lat="35.116836" lon="-85.172676"><ele>227.4</ele><time>2026-08-08T20:52:40Z</time></trkpt>
<trkpt lat="35.1168" lon="-85.172674"><ele>225.9</ele><time>2026-08-08T20:52:43Z</time></trkpt>
<trkpt lat="35.116763" lon="-85.172673"><ele>224.6</ele><time>2026-08-08T20:52:46Z</time></trkpt>
<trkpt lat="35.116724" lon="-85.17269"><ele>224.0</ele><time>2026-08-08T20:52:49Z</time></trkpt>
<trkpt lat="35.116701" lon="-85.17272"><ele>223.7</ele><time>2026-08-08T20:52:51Z</time></trkpt>
<trkpt lat="35.116697" lon="-85.172762"><ele>224.9</ele><time>2026-08-08T20:52:53Z</time></trkpt>
<trkpt lat="35.116724" lon="-85.172795"><ele>224.3</ele><time>2026-08-08T20:52:55Z</time></trkpt>
<trkpt lat="35.116765" lon="-85.172794"><ele>224.0</ele><time>2026-08-08T20:52:58Z</time></trkpt>
<trkpt lat="35.116797" lon="-85.172787"><ele>224.3</ele><time>2026-08-08T20:53:00Z</time></trkpt>
<trkpt lat="35.11683" lon="-85.172802"><ele>222.2</ele><time>2026-08-08T20:53:02Z</time></trkpt>
<trkpt lat="35.116859" lon="-85.172805"><ele>223.1</ele><time>2026-08-08T20:53:04Z</time></trkpt>
<trkpt lat="35.116883" lon="-85.172824"><ele>224.0</ele><time>2026-08-08T20:53:06Z</time></trkpt>
<trkpt lat="35.116917" lon="-85.17284"><ele>224.6</ele><time>2026-08-08T20:53:09Z</time></trkpt>
<trkpt lat="35.116956" lon="-85.172835"><ele>226.2</ele><time>2026-08-08T20:53:12Z</time></trkpt>
<trkpt lat="35.116991" lon="-85.172831"><ele>226.2</ele><time>2026-08-08T20:53:15Z</time></trkpt>
<trkpt lat="35.117027" lon="-85.172816"><ele>224.3</ele><time>2026-08-08T20:53:18Z</time></trkpt>
<trkpt lat="35.117066" lon="-85.172824"><ele>224.0</ele><time>2026-08-08T20:53:21Z</time></trkpt>
<trkpt lat="35.117092" lon="-85.172841"><ele>223.4</ele><time>2026-08-08T20:53:23Z</time></trkpt>
<trkpt lat="35.117114" lon="-85.172864"><ele>223.4</ele><time>2026-08-08T20:53:25Z</time></trkpt>
<trkpt lat="35.117138" lon="-85.172881"><ele>224.6</ele><time>2026-08-08T20:53:27Z</time></trkpt>
<trkpt lat="35.117177" lon="-85.172895"><ele>223.1</ele><time>2026-08-08T20:53:30Z</time></trkpt>
<trkpt lat="35.117205" lon="-85.172901"><ele>221.3</ele><time>2026-08-08T20:53:32Z</time></trkpt>
<trkpt lat="35.117231" lon="-85.172912"><ele>221.0</ele><time>2026-08-08T20:53:34Z</time></trkpt>
<trkpt lat="35.117261" lon="-85.172951"><ele>221.0</ele><time>2026-08-08T20:53:37Z</time></trkpt>
<trkpt lat="35.117267" lon="-85.17299"><ele>221.0</ele><time>2026-08-08T20:53:39Z</time></trkpt>
<trkpt lat="35.117256" lon="-85.173028"><ele>223.1</ele><time>2026-08-08T20:53:41Z</time></trkpt>
<trkpt lat="35.117235" lon="-85.173054"><ele>221.3</ele><time>2026-08-08T20:53:43Z</time></trkpt>
<trkpt lat="35.1172" lon="-85.173049"><ele>222.2</ele><time>2026-08-08T20:53:46Z</time></trkpt>
<trkpt lat="35.117163" lon="-85.17303"><ele>221.0</ele><time>2026-08-08T20:53:49Z</time></trkpt>
<trkpt lat="35.117139" lon="-85.173009"><ele>220.7</ele><time>2026-08-08T20:53:51Z</time></trkpt>
<trkpt lat="35.117112" lon="-85.172987"><ele>221.6</ele><time>2026-08-08T20:53:53Z</time></trkpt>
<trkpt lat="35.117089" lon="-85.172963"><ele>221.3</ele><time>2026-08-08T20:53:55Z</time></trkpt>
<trkpt lat="35.117054" lon="-85.172955"><ele>220.7</ele><time>2026-08-08T20:53:58Z</time></trkpt>
<trkpt lat="35.117017" lon="-85.172965"><ele>220.7</ele><time>2026-08-08T20:54:01Z</time></trkpt>
<trkpt lat="35.116979" lon="-85.172963"><ele>220.1</ele><time>2026-08-08T20:54:04Z</time></trkpt>
<trkpt lat="35.116949" lon="-85.172968"><ele>220.7</ele><time>2026-08-08T20:54:06Z</time></trkpt>
<trkpt lat="35.116914" lon="-85.172994"><ele>222.2</ele><time>2026-08-08T20:54:09Z</time></trkpt>
<trkpt lat="35.116889" lon="-85.173031"><ele>222.5</ele><time>2026-08-08T20:54:12Z</time></trkpt>
<trkpt lat="35.116874" lon="-85.173063"><ele>222.8</ele><time>2026-08-08T20:54:14Z</time></trkpt>
<trkpt lat="35.11686" lon="-85.173096"><ele>223.1</ele><time>2026-08-08T20:54:16Z</time></trkpt>
<trkpt lat="35.116848" lon="-85.173131"><ele>222.5</ele><time>2026-08-08T20:54:18Z</time></trkpt>
<trkpt lat="35.116825" lon="-85.173157"><ele>221.6</ele><time>2026-08-08T20:54:20Z</time></trkpt>
<trkpt lat="35.116789" lon="-85.173174"><ele>220.7</ele><time>2026-08-08T20:54:23Z</time></trkpt>
<trkpt lat="35.116749" lon="-85.173181"><ele>221.6</ele><time>2026-08-08T20:54:26Z</time></trkpt>
<trkpt lat="35.116722" lon="-85.17319"><ele>222.5</ele><time>2026-08-08T20:54:28Z</time></trkpt>
<trkpt lat="35.116693" lon="-85.173199"><ele>222.8</ele><time>2026-08-08T20:54:30Z</time></trkpt>
<trkpt lat="35.11667" lon="-85.17322"><ele>222.5</ele><time>2026-08-08T20:54:32Z</time></trkpt>
<trkpt lat="35.116648" lon="-85.173243"><ele>223.1</ele><time>2026-08-08T20:54:34Z</time></trkpt>
<trkpt lat="35.116618" lon="-85.173275"><ele>224.6</ele><time>2026-08-08T20:54:37Z</time></trkpt>
<trkpt lat="35.116597" lon="-85.173296"><ele>224.3</ele><time>2026-08-08T20:54:39Z</time></trkpt>
<trkpt lat="35.11656" lon="-85.173295"><ele>224.9</ele><time>2026-08-08T20:54:42Z</time></trkpt>
<trkpt lat="35.116544" lon="-85.173261"><ele>225.9</ele><time>2026-08-08T20:54:44Z</time></trkpt>
<trkpt lat="35.116531" lon="-85.173229"><ele>226.5</ele><time>2026-08-08T20:54:46Z</time></trkpt>
<trkpt lat="35.116508" lon="-85.173206"><ele>228.3</ele><time>2026-08-08T20:54:48Z</time></trkpt>
<trkpt lat="35.116472" lon="-85.173208"><ele>228.0</ele><time>2026-08-08T20:54:51Z</time></trkpt>
<trkpt lat="35.116449" lon="-85.173228"><ele>227.1</ele><time>2026-08-08T20:54:53Z</time></trkpt>
<trkpt lat="35.116434" lon="-85.173264"><ele>228.0</ele><time>2026-08-08T20:54:55Z</time></trkpt>
<trkpt lat="35.116435" lon="-85.173303"><ele>228.3</ele><time>2026-08-08T20:54:57Z</time></trkpt>
<trkpt lat="35.116424" lon="-85.173337"><ele>228.9</ele><time>2026-08-08T20:54:59Z</time></trkpt>
<trkpt lat="35.116399" lon="-85.173369"><ele>228.9</ele><time>2026-08-08T20:55:02Z</time></trkpt>
<trkpt lat="35.116371" lon="-85.173357"><ele>230.7</ele><time>2026-08-08T20:55:04Z</time></trkpt>
<trkpt lat="35.116347" lon="-85.173387"><ele>230.7</ele><time>2026-08-08T20:55:07Z</time></trkpt>
<trkpt lat="35.116311" lon="-85.173408"><ele>229.2</ele><time>2026-08-08T20:55:10Z</time></trkpt>
<trkpt lat="35.116282" lon="-85.173424"><ele>228.3</ele><time>2026-08-08T20:55:13Z</time></trkpt>
<trkpt lat="35.116245" lon="-85.17341"><ele>229.5</ele><time>2026-08-08T20:55:16Z</time></trkpt>
<trkpt lat="35.116212" lon="-85.173397"><ele>229.5</ele><time>2026-08-08T20:55:19Z</time></trkpt>
<trkpt lat="35.116177" lon="-85.1734"><ele>229.5</ele><time>2026-08-08T20:55:22Z</time></trkpt>
<trkpt lat="35.116148" lon="-85.173379"><ele>228.9</ele><time>2026-08-08T20:55:25Z</time></trkpt>
<trkpt lat="35.11612" lon="-85.173382"><ele>229.2</ele><time>2026-08-08T20:55:27Z</time></trkpt>
<trkpt lat="35.116091" lon="-85.173398"><ele>228.6</ele><time>2026-08-08T20:55:29Z</time></trkpt>
<trkpt lat="35.116068" lon="-85.173423"><ele>228.3</ele><time>2026-08-08T20:55:31Z</time></trkpt>
<trkpt lat="35.116048" lon="-85.173469"><ele>228.0</ele><time>2026-08-08T20:55:34Z</time></trkpt>
<trkpt lat="35.11604" lon="-85.173508"><ele>227.7</ele><time>2026-08-08T20:55:36Z</time></trkpt>
<trkpt lat="35.116021" lon="-85.173538"><ele>228.6</ele><time>2026-08-08T20:55:38Z</time></trkpt>
<trkpt lat="35.115999" lon="-85.17356"><ele>228.9</ele><time>2026-08-08T20:55:40Z</time></trkpt>
<trkpt lat="35.115973" lon="-85.173576"><ele>229.2</ele><time>2026-08-08T20:55:42Z</time></trkpt>
<trkpt lat="35.115946" lon="-85.173594"><ele>229.8</ele><time>2026-08-08T20:55:44Z</time></trkpt>
<trkpt lat="35.115925" lon="-85.173624"><ele>229.8</ele><time>2026-08-08T20:55:46Z</time></trkpt>
<trkpt lat="35.115908" lon="-85.173651"><ele>229.2</ele><time>2026-08-08T20:55:48Z</time></trkpt>
<trkpt lat="35.115896" lon="-85.173684"><ele>228.6</ele><time>2026-08-08T20:55:50Z</time></trkpt>
<trkpt lat="35.115887" lon="-85.173717"><ele>227.7</ele><time>2026-08-08T20:55:52Z</time></trkpt>
<trkpt lat="35.115874" lon="-85.173749"><ele>228.0</ele><time>2026-08-08T20:55:54Z</time></trkpt>
<trkpt lat="35.115862" lon="-85.173779"><ele>228.3</ele><time>2026-08-08T20:55:56Z</time></trkpt>
<trkpt lat="35.115845" lon="-85.173821"><ele>227.1</ele><time>2026-08-08T20:55:59Z</time></trkpt>
<trkpt lat="35.115824" lon="-85.17386"><ele>228.0</ele><time>2026-08-08T20:56:02Z</time></trkpt>
<trkpt lat="35.115823" lon="-85.173896"><ele>226.8</ele><time>2026-08-08T20:56:04Z</time></trkpt>
<trkpt lat="35.115824" lon="-85.173934"><ele>225.6</ele><time>2026-08-08T20:56:06Z</time></trkpt>
<trkpt lat="35.115837" lon="-85.173966"><ele>223.7</ele><time>2026-08-08T20:56:08Z</time></trkpt>
<trkpt lat="35.115851" lon="-85.174"><ele>222.8</ele><time>2026-08-08T20:56:10Z</time></trkpt>
<trkpt lat="35.115852" lon="-85.174034"><ele>223.1</ele><time>2026-08-08T20:56:12Z</time></trkpt>
<trkpt lat="35.115858" lon="-85.174083"><ele>224.3</ele><time>2026-08-08T20:56:15Z</time></trkpt>
<trkpt lat="35.115869" lon="-85.174128"><ele>224.3</ele><time>2026-08-08T20:56:18Z</time></trkpt>
<trkpt lat="35.115846" lon="-85.174166"><ele>224.0</ele><time>2026-08-08T20:56:21Z</time></trkpt>
<trkpt lat="35.115809" lon="-85.174182"><ele>224.9</ele><time>2026-08-08T20:56:24Z</time></trkpt>
<trkpt lat="35.115782" lon="-85.174191"><ele>223.7</ele><time>2026-08-08T20:56:26Z</time></trkpt>
<trkpt lat="35.115757" lon="-85.174208"><ele>223.1</ele><time>2026-08-08T20:56:28Z</time></trkpt>
<trkpt lat="35.115737" lon="-85.174235"><ele>224.0</ele><time>2026-08-08T20:56:30Z</time></trkpt>
<trkpt lat="35.115726" lon="-85.174266"><ele>223.4</ele><time>2026-08-08T20:56:32Z</time></trkpt>
<trkpt lat="35.115717" lon="-85.174299"><ele>222.8</ele><time>2026-08-08T20:56:34Z</time></trkpt>
<trkpt lat="35.115706" lon="-85.17433"><ele>224.0</ele><time>2026-08-08T20:56:36Z</time></trkpt>
<trkpt lat="35.115695" lon="-85.174362"><ele>224.9</ele><time>2026-08-08T20:56:38Z</time></trkpt>
<trkpt lat="35.115684" lon="-85.174393"><ele>224.6</ele><time>2026-08-08T20:56:40Z</time></trkpt>
<trkpt lat="35.115665" lon="-85.174422"><ele>224.9</ele><time>2026-08-08T20:56:42Z</time></trkpt>
<trkpt lat="35.115642" lon="-85.174457"><ele>224.3</ele><time>2026-08-08T20:56:45Z</time></trkpt>
<trkpt lat="35.115618" lon="-85.174477"><ele>226.2</ele><time>2026-08-08T20:56:47Z</time></trkpt>
<trkpt lat="35.115596" lon="-85.174516"><ele>227.1</ele><time>2026-08-08T20:56:50Z</time></trkpt>
<trkpt lat="35.115603" lon="-85.17455"><ele>226.2</ele><time>2026-08-08T20:56:52Z</time></trkpt>
<trkpt lat="35.115625" lon="-85.174582"><ele>225.9</ele><time>2026-08-08T20:56:54Z</time></trkpt>
<trkpt lat="35.115647" lon="-85.174607"><ele>225.6</ele><time>2026-08-08T20:56:56Z</time></trkpt>
<trkpt lat="35.115674" lon="-85.174629"><ele>225.2</ele><time>2026-08-08T20:56:58Z</time></trkpt>
<trkpt lat="35.115695" lon="-85.174655"><ele>224.9</ele><time>2026-08-08T20:57:00Z</time></trkpt>
<trkpt lat="35.115702" lon="-85.174689"><ele>223.7</ele><time>2026-08-08T20:57:02Z</time></trkpt>
<trkpt lat="35.115674" lon="-85.174719"><ele>223.4</ele><time>2026-08-08T20:57:04Z</time></trkpt>
<trkpt lat="35.115651" lon="-85.174738"><ele>223.4</ele><time>2026-08-08T20:57:06Z</time></trkpt>
<trkpt lat="35.115612" lon="-85.174743"><ele>221.3</ele><time>2026-08-08T20:57:09Z</time></trkpt>
<trkpt lat="35.115583" lon="-85.174741"><ele>220.4</ele><time>2026-08-08T20:57:11Z</time></trkpt>
<trkpt lat="35.115556" lon="-85.174747"><ele>219.2</ele><time>2026-08-08T20:57:13Z</time></trkpt>
<trkpt lat="35.115525" lon="-85.174769"><ele>219.2</ele><time>2026-08-08T20:57:16Z</time></trkpt>
<trkpt lat="35.115497" lon="-85.174771"><ele>218.8</ele><time>2026-08-08T20:57:18Z</time></trkpt>
<trkpt lat="35.115457" lon="-85.174777"><ele>217.3</ele><time>2026-08-08T20:57:21Z</time></trkpt>
<trkpt lat="35.115427" lon="-85.174746"><ele>221.0</ele><time>2026-08-08T20:57:22Z</time></trkpt>
<trkpt lat="35.115388" lon="-85.174746"><ele>219.8</ele><time>2026-08-08T20:57:24Z</time></trkpt>
<trkpt lat="35.115359" lon="-85.174752"><ele>220.7</ele><time>2026-08-08T20:57:26Z</time></trkpt>
<trkpt lat="35.115321" lon="-85.174754"><ele>223.4</ele><time>2026-08-08T20:57:29Z</time></trkpt>
<trkpt lat="35.115284" lon="-85.174752"><ele>224.0</ele><time>2026-08-08T20:57:32Z</time></trkpt>
<trkpt lat="35.115245" lon="-85.174748"><ele>224.0</ele><time>2026-08-08T20:57:35Z</time></trkpt>
<trkpt lat="35.115204" lon="-85.174744"><ele>223.1</ele><time>2026-08-08T20:57:38Z</time></trkpt>
<trkpt lat="35.115169" lon="-85.174743"><ele>222.8</ele><time>2026-08-08T20:57:41Z</time></trkpt>
<trkpt lat="35.115129" lon="-85.174745"><ele>221.9</ele><time>2026-08-08T20:57:44Z</time></trkpt>
<trkpt lat="35.115108" lon="-85.174782"><ele>220.4</ele><time>2026-08-08T20:57:46Z</time></trkpt>
<trkpt lat="35.115101" lon="-85.174823"><ele>221.0</ele><time>2026-08-08T20:57:48Z</time></trkpt>
<trkpt lat="35.115085" lon="-85.174857"><ele>221.0</ele><time>2026-08-08T20:57:50Z</time></trkpt>
<trkpt lat="35.115068" lon="-85.174886"><ele>220.1</ele><time>2026-08-08T20:57:52Z</time></trkpt>
<trkpt lat="35.115042" lon="-85.174919"><ele>220.4</ele><time>2026-08-08T20:57:55Z</time></trkpt>
<trkpt lat="35.115015" lon="-85.174954"><ele>219.2</ele><time>2026-08-08T20:57:58Z</time></trkpt>
<trkpt lat="35.114989" lon="-85.174986"><ele>220.4</ele><time>2026-08-08T20:58:01Z</time></trkpt>
<trkpt lat="35.114969" lon="-85.17501"><ele>221.9</ele><time>2026-08-08T20:58:03Z</time></trkpt>
<trkpt lat="35.114949" lon="-85.175039"><ele>221.9</ele><time>2026-08-08T20:58:05Z</time></trkpt>
<trkpt lat="35.114942" lon="-85.175078"><ele>220.7</ele><time>2026-08-08T20:58:07Z</time></trkpt>
<trkpt lat="35.114938" lon="-85.175114"><ele>223.1</ele><time>2026-08-08T20:58:09Z</time></trkpt>
<trkpt lat="35.114932" lon="-85.175161"><ele>223.7</ele><time>2026-08-08T20:58:12Z</time></trkpt>
<trkpt lat="35.114942" lon="-85.175201"><ele>222.5</ele><time>2026-08-08T20:58:14Z</time></trkpt>
<trkpt lat="35.114962" lon="-85.175238"><ele>221.0</ele><time>2026-08-08T20:58:16Z</time></trkpt>
<trkpt lat="35.114977" lon="-85.175273"><ele>221.9</ele><time>2026-08-08T20:58:18Z</time></trkpt>
<trkpt lat="35.114978" lon="-85.175307"><ele>221.6</ele><time>2026-08-08T20:58:20Z</time></trkpt>
<trkpt lat="35.114968" lon="-85.17534"><ele>220.7</ele><time>2026-08-08T20:58:22Z</time></trkpt>
<trkpt lat="35.114955" lon="-85.175372"><ele>221.0</ele><time>2026-08-08T20:58:24Z</time></trkpt>
<trkpt lat="35.114942" lon="-85.175402"><ele>220.7</ele><time>2026-08-08T20:58:26Z</time></trkpt>
<trkpt lat="35.114919" lon="-85.175438"><ele>221.0</ele><time>2026-08-08T20:58:29Z</time></trkpt>
<trkpt lat="35.1149" lon="-85.175478"><ele>221.3</ele><time>2026-08-08T20:58:32Z</time></trkpt>
<trkpt lat="35.114885" lon="-85.175523"><ele>225.2</ele><time>2026-08-08T20:58:35Z</time></trkpt>
<trkpt lat="35.114866" lon="-85.175548"><ele>225.6</ele><time>2026-08-08T20:58:37Z</time></trkpt>
<trkpt lat="35.114842" lon="-85.175591"><ele>226.8</ele><time>2026-08-08T20:58:40Z</time></trkpt>
<trkpt lat="35.114824" lon="-85.175627"><ele>227.7</ele><time>2026-08-08T20:58:43Z</time></trkpt>
<trkpt lat="35.114801" lon="-85.175655"><ele>227.4</ele><time>2026-08-08T20:58:46Z</time></trkpt>
<trkpt lat="35.114783" lon="-85.175695"><ele>227.7</ele><time>2026-08-08T20:58:49Z</time></trkpt>
<trkpt lat="35.114764" lon="-85.175739"><ele>228.0</ele><time>2026-08-08T20:58:52Z</time></trkpt>
<trkpt lat="35.114753" lon="-85.175773"><ele>227.4</ele><time>2026-08-08T20:58:54Z</time></trkpt>
<trkpt lat="35.114741" lon="-85.175804"><ele>227.7</ele><time>2026-08-08T20:58:56Z</time></trkpt>
<trkpt lat="35.114736" lon="-85.175838"><ele>226.5</ele><time>2026-08-08T20:58:58Z</time></trkpt>
<trkpt lat="35.114707" lon="-85.175871"><ele>225.9</ele><time>2026-08-08T20:59:01Z</time></trkpt>
<trkpt lat="35.114681" lon="-85.175886"><ele>224.3</ele><time>2026-08-08T20:59:03Z</time></trkpt>
<trkpt lat="35.11467" lon="-85.175926"><ele>224.0</ele><time>2026-08-08T20:59:05Z</time></trkpt>
<trkpt lat="35.11467" lon="-85.17597"><ele>223.1</ele><time>2026-08-08T20:59:07Z</time></trkpt>
<trkpt lat="35.11468" lon="-85.176015"><ele>222.5</ele><time>2026-08-08T20:59:09Z</time></trkpt>
<trkpt lat="35.114681" lon="-85.176052"><ele>223.4</ele><time>2026-08-08T20:59:11Z</time></trkpt>
<trkpt lat="35.114678" lon="-85.176091"><ele>224.6</ele><time>2026-08-08T20:59:13Z</time></trkpt>
<trkpt lat="35.114672" lon="-85.176128"><ele>224.9</ele><time>2026-08-08T20:59:15Z</time></trkpt>
<trkpt lat="35.114673" lon="-85.176167"><ele>225.2</ele><time>2026-08-08T20:59:17Z</time></trkpt>
<trkpt lat="35.114675" lon="-85.176216"><ele>222.5</ele><time>2026-08-08T20:59:20Z</time></trkpt>
<trkpt lat="35.11467" lon="-85.176263"><ele>222.2</ele><time>2026-08-08T20:59:23Z</time></trkpt>
<trkpt lat="35.114671" lon="-85.176303"><ele>221.9</ele><time>2026-08-08T20:59:27Z</time></trkpt>
<trkpt lat="35.114673" lon="-85.176339"><ele>220.4</ele><time>2026-08-08T20:59:29Z</time></trkpt>
<trkpt lat="35.114665" lon="-85.176375"><ele>221.0</ele><time>2026-08-08T20:59:31Z</time></trkpt>
<trkpt lat="35.114644" lon="-85.176408"><ele>221.3</ele><time>2026-08-08T20:59:33Z</time></trkpt>
<trkpt lat="35.114624" lon="-85.176431"><ele>220.7</ele><time>2026-08-08T20:59:35Z</time></trkpt>
<trkpt lat="35.114592" lon="-85.176455"><ele>220.1</ele><time>2026-08-08T20:59:38Z</time></trkpt>
<trkpt lat="35.114566" lon="-85.176473"><ele>220.4</ele><time>2026-08-08T20:59:40Z</time></trkpt>
<trkpt lat="35.11454" lon="-85.176493"><ele>220.7</ele><time>2026-08-08T20:59:42Z</time></trkpt>
<trkpt lat="35.114521" lon="-85.176521"><ele>220.4</ele><time>2026-08-08T20:59:44Z</time></trkpt>
<trkpt lat="35.114503" lon="-85.176548"><ele>220.4</ele><time>2026-08-08T20:59:46Z</time></trkpt>
<trkpt lat="35.114481" lon="-85.176571"><ele>221.6</ele><time>2026-08-08T20:59:48Z</time></trkpt>
<trkpt lat="35.114443" lon="-85.176591"><ele>221.3</ele><time>2026-08-08T20:59:51Z</time></trkpt>
<trkpt lat="35.114415" lon="-85.176598"><ele>220.4</ele><time>2026-08-08T20:59:53Z</time></trkpt>
<trkpt lat="35.114389" lon="-85.176612"><ele>220.1</ele><time>2026-08-08T20:59:55Z</time></trkpt>
<trkpt lat="35.114366" lon="-85.176632"><ele>219.8</ele><time>2026-08-08T20:59:57Z</time></trkpt>
<trkpt lat="35.114345" lon="-85.176657"><ele>219.8</ele><time>2026-08-08T20:59:59Z</time></trkpt>
<trkpt lat="35.114325" lon="-85.176681"><ele>221.3</ele><time>2026-08-08T21:00:01Z</time></trkpt>
<trkpt lat="35.114296" lon="-85.176712"><ele>219.8</ele><time>2026-08-08T21:00:04Z</time></trkpt>
<trkpt lat="35.114272" lon="-85.176744"><ele>217.3</ele><time>2026-08-08T21:00:07Z</time></trkpt>
<trkpt lat="35.114249" lon="-85.176764"><ele>217.6</ele><time>2026-08-08T21:00:09Z</time></trkpt>
<trkpt lat="35.114215" lon="-85.176791"><ele>218.5</ele><time>2026-08-08T21:00:12Z</time></trkpt>
<trkpt lat="35.114182" lon="-85.176805"><ele>217.6</ele><time>2026-08-08T21:00:15Z</time></trkpt>
<trkpt lat="35.114144" lon="-85.176813"><ele>217.9</ele><time>2026-08-08T21:00:18Z</time></trkpt>
<trkpt lat="35.114111" lon="-85.176839"><ele>216.4</ele><time>2026-08-08T21:00:21Z</time></trkpt>
<trkpt lat="35.114086" lon="-85.17686"><ele>216.4</ele><time>2026-08-08T21:00:23Z</time></trkpt>
<trkpt lat="35.114053" lon="-85.176887"><ele>216.1</ele><time>2026-08-08T21:00:26Z</time></trkpt>
<trkpt lat="35.114037" lon="-85.176915"><ele>216.1</ele><time>2026-08-08T21:00:28Z</time></trkpt>
<trkpt lat="35.11403" lon="-85.17695"><ele>217.0</ele><time>2026-08-08T21:00:30Z</time></trkpt>
<trkpt lat="35.114011" lon="-85.176995"><ele>218.2</ele><time>2026-08-08T21:00:33Z</time></trkpt>
<trkpt lat="35.113992" lon="-85.177022"><ele>220.1</ele><time>2026-08-08T21:00:35Z</time></trkpt>
<trkpt lat="35.113966" lon="-85.177036"><ele>221.6</ele><time>2026-08-08T21:00:37Z</time></trkpt>
<trkpt lat="35.113934" lon="-85.177064"><ele>221.0</ele><time>2026-08-08T21:00:40Z</time></trkpt>
<trkpt lat="35.113914" lon="-85.177089"><ele>220.7</ele><time>2026-08-08T21:00:42Z</time></trkpt>
<trkpt lat="35.113896" lon="-85.17712"><ele>220.1</ele><time>2026-08-08T21:00:44Z</time></trkpt>
<trkpt lat="35.113875" lon="-85.17715"><ele>218.5</ele><time>2026-08-08T21:00:46Z</time></trkpt>
<trkpt lat="35.113858" lon="-85.177186"><ele>218.5</ele><time>2026-08-08T21:00:48Z</time></trkpt>
<trkpt lat="35.113846" lon="-85.177225"><ele>218.2</ele><time>2026-08-08T21:00:50Z</time></trkpt>
<trkpt lat="35.113856" lon="-85.177265"><ele>218.8</ele><time>2026-08-08T21:00:52Z</time></trkpt>
<trkpt lat="35.113867" lon="-85.177303"><ele>217.6</ele><time>2026-08-08T21:00:54Z</time></trkpt>
<trkpt lat="35.113888" lon="-85.177332"><ele>216.7</ele><time>2026-08-08T21:00:56Z</time></trkpt>
<trkpt lat="35.113921" lon="-85.177365"><ele>215.5</ele><time>2026-08-08T21:00:59Z</time></trkpt>
<trkpt lat="35.113946" lon="-85.177381"><ele>215.5</ele><time>2026-08-08T21:01:01Z</time></trkpt>
<trkpt lat="35.113987" lon="-85.177377"><ele>217.0</ele><time>2026-08-08T21:01:04Z</time></trkpt>
<trkpt lat="35.114007" lon="-85.177354"><ele>217.9</ele><time>2026-08-08T21:01:06Z</time></trkpt>
<trkpt lat="35.114022" lon="-85.177311"><ele>220.1</ele><time>2026-08-08T21:01:09Z</time></trkpt>
<trkpt lat="35.114035" lon="-85.177266"><ele>221.0</ele><time>2026-08-08T21:01:12Z</time></trkpt>
<trkpt lat="35.114057" lon="-85.177244"><ele>220.7</ele><time>2026-08-08T21:01:14Z</time></trkpt>
<trkpt lat="35.114088" lon="-85.177218"><ele>221.3</ele><time>2026-08-08T21:01:17Z</time></trkpt>
<trkpt lat="35.114116" lon="-85.177217"><ele>222.2</ele><time>2026-08-08T21:01:19Z</time></trkpt>
<trkpt lat="35.114144" lon="-85.177224"><ele>221.9</ele><time>2026-08-08T21:01:21Z</time></trkpt>
<trkpt lat="35.114169" lon="-85.177244"><ele>221.9</ele><time>2026-08-08T21:01:23Z</time></trkpt>
<trkpt lat="35.114184" lon="-85.177273"><ele>221.3</ele><time>2026-08-08T21:01:25Z</time></trkpt>
<trkpt lat="35.114185" lon="-85.177308"><ele>219.5</ele><time>2026-08-08T21:01:27Z</time></trkpt>
<trkpt lat="35.114185" lon="-85.177344"><ele>218.8</ele><time>2026-08-08T21:01:29Z</time></trkpt>
<trkpt lat="35.114204" lon="-85.177372"><ele>218.2</ele><time>2026-08-08T21:01:31Z</time></trkpt>
<trkpt lat="35.114243" lon="-85.177375"><ele>219.5</ele><time>2026-08-08T21:01:34Z</time></trkpt>
<trkpt lat="35.114268" lon="-85.177356"><ele>220.1</ele><time>2026-08-08T21:01:36Z</time></trkpt>
<trkpt lat="35.114287" lon="-85.177325"><ele>219.8</ele><time>2026-08-08T21:01:38Z</time></trkpt>
<trkpt lat="35.114297" lon="-85.177292"><ele>220.4</ele><time>2026-08-08T21:01:40Z</time></trkpt>
<trkpt lat="35.114318" lon="-85.177249"><ele>221.6</ele><time>2026-08-08T21:01:43Z</time></trkpt>
<trkpt lat="35.114346" lon="-85.177214"><ele>221.6</ele><time>2026-08-08T21:01:46Z</time></trkpt>
<trkpt lat="35.114378" lon="-85.177184"><ele>221.3</ele><time>2026-08-08T21:01:49Z</time></trkpt>
<trkpt lat="35.114401" lon="-85.177166"><ele>221.6</ele><time>2026-08-08T21:01:51Z</time></trkpt>
<trkpt lat="35.114433" lon="-85.17714"><ele>220.7</ele><time>2026-08-08T21:01:54Z</time></trkpt>
<trkpt lat="35.114455" lon="-85.177118"><ele>220.4</ele><time>2026-08-08T21:01:56Z</time></trkpt>
<trkpt lat="35.114479" lon="-85.177096"><ele>220.4</ele><time>2026-08-08T21:01:58Z</time></trkpt>
<trkpt lat="35.114503" lon="-85.177077"><ele>220.1</ele><time>2026-08-08T21:02:00Z</time></trkpt>
<trkpt lat="35.114528" lon="-85.177063"><ele>221.3</ele><time>2026-08-08T21:02:02Z</time></trkpt>
<trkpt lat="35.114568" lon="-85.177047"><ele>221.9</ele><time>2026-08-08T21:02:05Z</time></trkpt>
<trkpt lat="35.114595" lon="-85.177032"><ele>220.1</ele><time>2026-08-08T21:02:07Z</time></trkpt>
<trkpt lat="35.114634" lon="-85.177018"><ele>221.0</ele><time>2026-08-08T21:02:10Z</time></trkpt>
<trkpt lat="35.114671" lon="-85.176998"><ele>221.6</ele><time>2026-08-08T21:02:13Z</time></trkpt>
<trkpt lat="35.114698" lon="-85.176992"><ele>221.9</ele><time>2026-08-08T21:02:15Z</time></trkpt>
<trkpt lat="35.114726" lon="-85.176996"><ele>221.6</ele><time>2026-08-08T21:02:17Z</time></trkpt>
<trkpt lat="35.114757" lon="-85.177025"><ele>220.7</ele><time>2026-08-08T21:02:20Z</time></trkpt>
<trkpt lat="35.114762" lon="-85.177065"><ele>220.7</ele><time>2026-08-08T21:02:23Z</time></trkpt>
<trkpt lat="35.114752" lon="-85.177109"><ele>221.0</ele><time>2026-08-08T21:02:26Z</time></trkpt>
<trkpt lat="35.114748" lon="-85.177151"><ele>221.3</ele><time>2026-08-08T21:02:29Z</time></trkpt>
<trkpt lat="35.114741" lon="-85.177183"><ele>223.1</ele><time>2026-08-08T21:02:31Z</time></trkpt>
<trkpt lat="35.114734" lon="-85.177218"><ele>223.7</ele><time>2026-08-08T21:02:33Z</time></trkpt>
<trkpt lat="35.114737" lon="-85.177254"><ele>224.3</ele><time>2026-08-08T21:02:35Z</time></trkpt>
<trkpt lat="35.114745" lon="-85.177288"><ele>224.6</ele><time>2026-08-08T21:02:37Z</time></trkpt>
<trkpt lat="35.11476" lon="-85.177319"><ele>225.6</ele><time>2026-08-08T21:02:39Z</time></trkpt>
<trkpt lat="35.114779" lon="-85.177345"><ele>225.6</ele><time>2026-08-08T21:02:41Z</time></trkpt>
<trkpt lat="35.114813" lon="-85.177373"><ele>225.2</ele><time>2026-08-08T21:02:44Z</time></trkpt>
<trkpt lat="35.114841" lon="-85.177384"><ele>226.8</ele><time>2026-08-08T21:02:46Z</time></trkpt>
<trkpt lat="35.114873" lon="-85.177384"><ele>226.5</ele><time>2026-08-08T21:02:48Z</time></trkpt>
<trkpt lat="35.114901" lon="-85.177369"><ele>225.9</ele><time>2026-08-08T21:02:50Z</time></trkpt>
<trkpt lat="35.114936" lon="-85.177341"><ele>224.9</ele><time>2026-08-08T21:02:53Z</time></trkpt>
<trkpt lat="35.114972" lon="-85.177321"><ele>226.8</ele><time>2026-08-08T21:02:56Z</time></trkpt>
<trkpt lat="35.114998" lon="-85.177308"><ele>228.0</ele><time>2026-08-08T21:02:58Z</time></trkpt>
<trkpt lat="35.115025" lon="-85.177302"><ele>229.2</ele><time>2026-08-08T21:03:00Z</time></trkpt>
<trkpt lat="35.115063" lon="-85.177284"><ele>227.1</ele><time>2026-08-08T21:03:03Z</time></trkpt>
<trkpt lat="35.115086" lon="-85.177265"><ele>227.4</ele><time>2026-08-08T21:03:05Z</time></trkpt>
<trkpt lat="35.115111" lon="-85.177232"><ele>226.5</ele><time>2026-08-08T21:03:08Z</time></trkpt>
<trkpt lat="35.11514" lon="-85.1772"><ele>228.6</ele><time>2026-08-08T21:03:11Z</time></trkpt>
<trkpt lat="35.115164" lon="-85.177175"><ele>228.0</ele><time>2026-08-08T21:03:13Z</time></trkpt>
<trkpt lat="35.115181" lon="-85.177148"><ele>227.7</ele><time>2026-08-08T21:03:15Z</time></trkpt>
<trkpt lat="35.115199" lon="-85.177121"><ele>229.2</ele><time>2026-08-08T21:03:17Z</time></trkpt>
<trkpt lat="35.115221" lon="-85.177095"><ele>229.2</ele><time>2026-08-08T21:03:19Z</time></trkpt>
<trkpt lat="35.115239" lon="-85.177064"><ele>228.6</ele><time>2026-08-08T21:03:21Z</time></trkpt>
<trkpt lat="35.11526" lon="-85.17704"><ele>229.5</ele><time>2026-08-08T21:03:23Z</time></trkpt>
<trkpt lat="35.115277" lon="-85.177008"><ele>227.7</ele><time>2026-08-08T21:03:25Z</time></trkpt>
<trkpt lat="35.115288" lon="-85.176976"><ele>227.1</ele><time>2026-08-08T21:03:27Z</time></trkpt>
<trkpt lat="35.115296" lon="-85.176928"><ele>227.1</ele><time>2026-08-08T21:03:30Z</time></trkpt>
<trkpt lat="35.115307" lon="-85.176885"><ele>227.1</ele><time>2026-08-08T21:03:33Z</time></trkpt>
<trkpt lat="35.11532" lon="-85.176843"><ele>226.2</ele><time>2026-08-08T21:03:36Z</time></trkpt>
<trkpt lat="35.115343" lon="-85.176802"><ele>224.6</ele><time>2026-08-08T21:03:39Z</time></trkpt>
<trkpt lat="35.115366" lon="-85.176782"><ele>224.6</ele><time>2026-08-08T21:03:41Z</time></trkpt>
<trkpt lat="35.115393" lon="-85.176773"><ele>224.6</ele><time>2026-08-08T21:03:43Z</time></trkpt>
<trkpt lat="35.115431" lon="-85.176783"><ele>224.9</ele><time>2026-08-08T21:03:46Z</time></trkpt>
<trkpt lat="35.115454" lon="-85.176808"><ele>224.9</ele><time>2026-08-08T21:03:48Z</time></trkpt>
<trkpt lat="35.115462" lon="-85.17685"><ele>226.2</ele><time>2026-08-08T21:03:50Z</time></trkpt>
<trkpt lat="35.115474" lon="-85.176887"><ele>226.8</ele><time>2026-08-08T21:03:52Z</time></trkpt>
<trkpt lat="35.115493" lon="-85.176914"><ele>227.7</ele><time>2026-08-08T21:03:54Z</time></trkpt>
<trkpt lat="35.115523" lon="-85.176933"><ele>227.7</ele><time>2026-08-08T21:03:57Z</time></trkpt>
<trkpt lat="35.11556" lon="-85.176915"><ele>226.8</ele><time>2026-08-08T21:04:00Z</time></trkpt>
<trkpt lat="35.115577" lon="-85.1769"><ele>227.1</ele><time>2026-08-08T21:04:03Z</time></trkpt>
<trkpt lat="35.115573" lon="-85.176899"><ele>227.1</ele><time>2026-08-08T21:04:04Z</time></trkpt>
<trkpt lat="35.115572" lon="-85.176895"><ele>227.7</ele><time>2026-08-08T21:04:05Z</time></trkpt>
<trkpt lat="35.115575" lon="-85.176884"><ele>228.0</ele><time>2026-08-08T21:04:07Z</time></trkpt>
<trkpt lat="35.115576" lon="-85.176886"><ele>228.3</ele><time>2026-08-08T21:04:08Z</time></trkpt>
<trkpt lat="35.115591" lon="-85.176883"><ele>228.0</ele><time>2026-08-08T21:04:09Z</time></trkpt>
<trkpt lat="35.115622" lon="-85.176897"><ele>228.9</ele><time>2026-08-08T21:04:12Z</time></trkpt>
<trkpt lat="35.115654" lon="-85.176908"><ele>226.8</ele><time>2026-08-08T21:04:16Z</time></trkpt>
<trkpt lat="35.115685" lon="-85.176893"><ele>227.1</ele><time>2026-08-08T21:04:19Z</time></trkpt>
<trkpt lat="35.115714" lon="-85.17691"><ele>228.0</ele><time>2026-08-08T21:04:22Z</time></trkpt>
<trkpt lat="35.115744" lon="-85.176929"><ele>229.8</ele><time>2026-08-08T21:04:25Z</time></trkpt>
<trkpt lat="35.115778" lon="-85.176935"><ele>232.6</ele><time>2026-08-08T21:04:28Z</time></trkpt>
<trkpt lat="35.11581" lon="-85.176945"><ele>232.0</ele><time>2026-08-08T21:04:31Z</time></trkpt>
<trkpt lat="35.115843" lon="-85.176966"><ele>232.0</ele><time>2026-08-08T21:04:34Z</time></trkpt>
<trkpt lat="35.115869" lon="-85.176995"><ele>233.8</ele><time>2026-08-08T21:04:37Z</time></trkpt>
<trkpt lat="35.115907" lon="-85.176996"><ele>235.3</ele><time>2026-08-08T21:04:40Z</time></trkpt>
<trkpt lat="35.11593" lon="-85.176974"><ele>234.7</ele><time>2026-08-08T21:04:42Z</time></trkpt>
<trkpt lat="35.115944" lon="-85.176942"><ele>233.8</ele><time>2026-08-08T21:04:44Z</time></trkpt>
<trkpt lat="35.115938" lon="-85.176908"><ele>235.0</ele><time>2026-08-08T21:04:46Z</time></trkpt>
<trkpt lat="35.115926" lon="-85.176875"><ele>235.0</ele><time>2026-08-08T21:04:48Z</time></trkpt>
<trkpt lat="35.115906" lon="-85.176846"><ele>234.4</ele><time>2026-08-08T21:04:50Z</time></trkpt>
<trkpt lat="35.115886" lon="-85.176822"><ele>233.8</ele><time>2026-08-08T21:04:52Z</time></trkpt>
<trkpt lat="35.115858" lon="-85.176792"><ele>233.8</ele><time>2026-08-08T21:04:55Z</time></trkpt>
<trkpt lat="35.115825" lon="-85.176763"><ele>235.3</ele><time>2026-08-08T21:04:58Z</time></trkpt>
<trkpt lat="35.115798" lon="-85.176744"><ele>234.4</ele><time>2026-08-08T21:05:00Z</time></trkpt>
<trkpt lat="35.115773" lon="-85.176726"><ele>234.7</ele><time>2026-08-08T21:05:02Z</time></trkpt>
<trkpt lat="35.115748" lon="-85.176706"><ele>234.7</ele><time>2026-08-08T21:05:04Z</time></trkpt>
<trkpt lat="35.115727" lon="-85.17668"><ele>233.5</ele><time>2026-08-08T21:05:06Z</time></trkpt>
<trkpt lat="35.115712" lon="-85.176649"><ele>234.1</ele><time>2026-08-08T21:05:08Z</time></trkpt>
<trkpt lat="35.1157" lon="-85.176616"><ele>233.5</ele><time>2026-08-08T21:05:10Z</time></trkpt>
<trkpt lat="35.115691" lon="-85.176583"><ele>233.2</ele><time>2026-08-08T21:05:12Z</time></trkpt>
<trkpt lat="35.115677" lon="-85.176554"><ele>232.9</ele><time>2026-08-08T21:05:14Z</time></trkpt>
<trkpt lat="35.11567" lon="-85.176512"><ele>232.6</ele><time>2026-08-08T21:05:17Z</time></trkpt>
<trkpt lat="35.115698" lon="-85.176477"><ele>233.5</ele><time>2026-08-08T21:05:20Z</time></trkpt>
<trkpt lat="35.115735" lon="-85.176472"><ele>233.2</ele><time>2026-08-08T21:05:23Z</time></trkpt>
<trkpt lat="35.115768" lon="-85.1765"><ele>235.3</ele><time>2026-08-08T21:05:26Z</time></trkpt>
<trkpt lat="35.115796" lon="-85.17653"><ele>234.7</ele><time>2026-08-08T21:05:29Z</time></trkpt>
<trkpt lat="35.115813" lon="-85.176564"><ele>233.8</ele><time>2026-08-08T21:05:32Z</time></trkpt>
<trkpt lat="35.115828" lon="-85.176603"><ele>233.5</ele><time>2026-08-08T21:05:35Z</time></trkpt>
<trkpt lat="35.11585" lon="-85.176639"><ele>234.4</ele><time>2026-08-08T21:05:38Z</time></trkpt>
<trkpt lat="35.115866" lon="-85.176681"><ele>233.8</ele><time>2026-08-08T21:05:41Z</time></trkpt>
<trkpt lat="35.115883" lon="-85.176724"><ele>235.3</ele><time>2026-08-08T21:05:44Z</time></trkpt>
<trkpt lat="35.115913" lon="-85.176754"><ele>236.2</ele><time>2026-08-08T21:05:47Z</time></trkpt>
<trkpt lat="35.115944" lon="-85.176757"><ele>235.6</ele><time>2026-08-08T21:05:49Z</time></trkpt>
<trkpt lat="35.115971" lon="-85.176744"><ele>234.7</ele><time>2026-08-08T21:05:51Z</time></trkpt>
<trkpt lat="35.11599" lon="-85.176719"><ele>235.6</ele><time>2026-08-08T21:05:53Z</time></trkpt>
<trkpt lat="35.116004" lon="-85.176687"><ele>236.2</ele><time>2026-08-08T21:05:55Z</time></trkpt>
<trkpt lat="35.116007" lon="-85.176652"><ele>237.1</ele><time>2026-08-08T21:05:57Z</time></trkpt>
<trkpt lat="35.116014" lon="-85.176619"><ele>238.4</ele><time>2026-08-08T21:05:59Z</time></trkpt>
<trkpt lat="35.116023" lon="-85.176586"><ele>239.3</ele><time>2026-08-08T21:06:01Z</time></trkpt>
<trkpt lat="35.116027" lon="-85.176537"><ele>238.7</ele><time>2026-08-08T21:06:04Z</time></trkpt>
<trkpt lat="35.116021" lon="-85.176488"><ele>239.0</ele><time>2026-08-08T21:06:07Z</time></trkpt>
<trkpt lat="35.116002" lon="-85.176444"><ele>238.0</ele><time>2026-08-08T21:06:10Z</time></trkpt>
<trkpt lat="35.115981" lon="-85.176403"><ele>237.1</ele><time>2026-08-08T21:06:13Z</time></trkpt>
<trkpt lat="35.115948" lon="-85.17638"><ele>237.4</ele><time>2026-08-08T21:06:16Z</time></trkpt>
<trkpt lat="35.11591" lon="-85.17637"><ele>235.9</ele><time>2026-08-08T21:06:19Z</time></trkpt>
<trkpt lat="35.115869" lon="-85.176371"><ele>234.4</ele><time>2026-08-08T21:06:22Z</time></trkpt>
<trkpt lat="35.11583" lon="-85.176372"><ele>233.8</ele><time>2026-08-08T21:06:25Z</time></trkpt>
<trkpt lat="35.115802" lon="-85.176355"><ele>233.8</ele><time>2026-08-08T21:06:27Z</time></trkpt>
<trkpt lat="35.115777" lon="-85.176337"><ele>233.8</ele><time>2026-08-08T21:06:29Z</time></trkpt>
<trkpt lat="35.115749" lon="-85.176303"><ele>231.6</ele><time>2026-08-08T21:06:32Z</time></trkpt>
<trkpt lat="35.115733" lon="-85.176275"><ele>232.0</ele><time>2026-08-08T21:06:34Z</time></trkpt>
<trkpt lat="35.115713" lon="-85.176252"><ele>232.3</ele><time>2026-08-08T21:06:36Z</time></trkpt>
<trkpt lat="35.115686" lon="-85.176218"><ele>232.3</ele><time>2026-08-08T21:06:39Z</time></trkpt>
<trkpt lat="35.115657" lon="-85.176192"><ele>232.9</ele><time>2026-08-08T21:06:42Z</time></trkpt>
<trkpt lat="35.115634" lon="-85.176158"><ele>232.0</ele><time>2026-08-08T21:06:45Z</time></trkpt>
<trkpt lat="35.115609" lon="-85.17612"><ele>234.1</ele><time>2026-08-08T21:06:48Z</time></trkpt>
<trkpt lat="35.115594" lon="-85.176092"><ele>234.1</ele><time>2026-08-08T21:06:50Z</time></trkpt>
<trkpt lat="35.115571" lon="-85.176052"><ele>232.9</ele><time>2026-08-08T21:06:53Z</time></trkpt>
<trkpt lat="35.115556" lon="-85.176008"><ele>232.9</ele><time>2026-08-08T21:06:56Z</time></trkpt>
<trkpt lat="35.115557" lon="-85.175974"><ele>234.1</ele><time>2026-08-08T21:06:58Z</time></trkpt>
<trkpt lat="35.115577" lon="-85.175949"><ele>233.8</ele><time>2026-08-08T21:07:00Z</time></trkpt>
<trkpt lat="35.115606" lon="-85.175919"><ele>233.8</ele><time>2026-08-08T21:07:03Z</time></trkpt>
<trkpt lat="35.115637" lon="-85.175898"><ele>233.5</ele><time>2026-08-08T21:07:06Z</time></trkpt>
<trkpt lat="35.11567" lon="-85.175886"><ele>234.1</ele><time>2026-08-08T21:07:09Z</time></trkpt>
<trkpt lat="35.115709" lon="-85.175882"><ele>234.1</ele><time>2026-08-08T21:07:12Z</time></trkpt>
<trkpt lat="35.115746" lon="-85.175866"><ele>233.8</ele><time>2026-08-08T21:07:15Z</time></trkpt>
<trkpt lat="35.115772" lon="-85.175851"><ele>234.1</ele><time>2026-08-08T21:07:17Z</time></trkpt>
<trkpt lat="35.115811" lon="-85.175849"><ele>235.3</ele><time>2026-08-08T21:07:20Z</time></trkpt>
<trkpt lat="35.115846" lon="-85.17587"><ele>234.7</ele><time>2026-08-08T21:07:23Z</time></trkpt>
<trkpt lat="35.115873" lon="-85.175885"><ele>234.7</ele><time>2026-08-08T21:07:25Z</time></trkpt>
<trkpt lat="35.115912" lon="-85.175892"><ele>235.3</ele><time>2026-08-08T21:07:28Z</time></trkpt>
<trkpt lat="35.115941" lon="-85.175894"><ele>236.5</ele><time>2026-08-08T21:07:30Z</time></trkpt>
<trkpt lat="35.115979" lon="-85.175909"><ele>236.5</ele><time>2026-08-08T21:07:33Z</time></trkpt>
<trkpt lat="35.116005" lon="-85.17592"><ele>238.0</ele><time>2026-08-08T21:07:35Z</time></trkpt>
<trkpt lat="35.116044" lon="-85.175932"><ele>238.4</ele><time>2026-08-08T21:07:38Z</time></trkpt>
<trkpt lat="35.116078" lon="-85.175954"><ele>238.4</ele><time>2026-08-08T21:07:41Z</time></trkpt>
<trkpt lat="35.116113" lon="-85.17597"><ele>238.7</ele><time>2026-08-08T21:07:44Z</time></trkpt>
<trkpt lat="35.11615" lon="-85.175991"><ele>239.0</ele><time>2026-08-08T21:07:47Z</time></trkpt>
<trkpt lat="35.116177" lon="-85.176"><ele>238.0</ele><time>2026-08-08T21:07:49Z</time></trkpt>
<trkpt lat="35.116206" lon="-85.175998"><ele>238.4</ele><time>2026-08-08T21:07:51Z</time></trkpt>
<trkpt lat="35.116233" lon="-85.175984"><ele>239.3</ele><time>2026-08-08T21:07:53Z</time></trkpt>
<trkpt lat="35.116267" lon="-85.175958"><ele>239.0</ele><time>2026-08-08T21:07:56Z</time></trkpt>
<trkpt lat="35.116307" lon="-85.17596"><ele>238.7</ele><time>2026-08-08T21:07:59Z</time></trkpt>
<trkpt lat="35.116343" lon="-85.175972"><ele>239.3</ele><time>2026-08-08T21:08:02Z</time></trkpt>
<trkpt lat="35.116383" lon="-85.175984"><ele>240.5</ele><time>2026-08-08T21:08:05Z</time></trkpt>
<trkpt lat="35.116411" lon="-85.175981"><ele>240.5</ele><time>2026-08-08T21:08:07Z</time></trkpt>
<trkpt lat="35.116439" lon="-85.175971"><ele>239.3</ele><time>2026-08-08T21:08:09Z</time></trkpt>
<trkpt lat="35.116476" lon="-85.175958"><ele>238.0</ele><time>2026-08-08T21:08:12Z</time></trkpt>
<trkpt lat="35.116498" lon="-85.175936"><ele>238.4</ele><time>2026-08-08T21:08:14Z</time></trkpt>
<trkpt lat="35.116519" lon="-85.175912"><ele>237.1</ele><time>2026-08-08T21:08:16Z</time></trkpt>
<trkpt lat="35.116541" lon="-85.175891"><ele>236.5</ele><time>2026-08-08T21:08:18Z</time></trkpt>
<trkpt lat="35.116576" lon="-85.175865"><ele>236.5</ele><time>2026-08-08T21:08:21Z</time></trkpt>
<trkpt lat="35.116616" lon="-85.175871"><ele>238.0</ele><time>2026-08-08T21:08:24Z</time></trkpt>
<trkpt lat="35.116655" lon="-85.175862"><ele>240.2</ele><time>2026-08-08T21:08:27Z</time></trkpt>
<trkpt lat="35.116692" lon="-85.175851"><ele>239.6</ele><time>2026-08-08T21:08:30Z</time></trkpt>
<trkpt lat="35.11672" lon="-85.175844"><ele>238.4</ele><time>2026-08-08T21:08:32Z</time></trkpt>
<trkpt lat="35.11675" lon="-85.175839"><ele>238.0</ele><time>2026-08-08T21:08:34Z</time></trkpt>
<trkpt lat="35.116791" lon="-85.175836"><ele>239.3</ele><time>2026-08-08T21:08:37Z</time></trkpt>
<trkpt lat="35.116819" lon="-85.175847"><ele>239.6</ele><time>2026-08-08T21:08:39Z</time></trkpt>
<trkpt lat="35.116847" lon="-85.175852"><ele>239.0</ele><time>2026-08-08T21:08:41Z</time></trkpt>
<trkpt lat="35.116873" lon="-85.17587"><ele>239.9</ele><time>2026-08-08T21:08:43Z</time></trkpt>
<trkpt lat="35.116897" lon="-85.175894"><ele>239.3</ele><time>2026-08-08T21:08:45Z</time></trkpt>
<trkpt lat="35.116912" lon="-85.175923"><ele>239.9</ele><time>2026-08-08T21:08:47Z</time></trkpt>
<trkpt lat="35.116928" lon="-85.175951"><ele>240.5</ele><time>2026-08-08T21:08:49Z</time></trkpt>
<trkpt lat="35.116947" lon="-85.175976"><ele>241.1</ele><time>2026-08-08T21:08:51Z</time></trkpt>
<trkpt lat="35.116984" lon="-85.175994"><ele>242.3</ele><time>2026-08-08T21:08:54Z</time></trkpt>
<trkpt lat="35.117018" lon="-85.176009"><ele>243.5</ele><time>2026-08-08T21:08:57Z</time></trkpt>
<trkpt lat="35.117058" lon="-85.176014"><ele>244.8</ele><time>2026-08-08T21:09:00Z</time></trkpt>
<trkpt lat="35.11709" lon="-85.176026"><ele>244.4</ele><time>2026-08-08T21:09:03Z</time></trkpt>
<trkpt lat="35.11712" lon="-85.176037"><ele>243.8</ele><time>2026-08-08T21:09:06Z</time></trkpt>
<trkpt lat="35.117155" lon="-85.176048"><ele>243.8</ele><time>2026-08-08T21:09:09Z</time></trkpt>
<trkpt lat="35.117195" lon="-85.176036"><ele>243.5</ele><time>2026-08-08T21:09:12Z</time></trkpt>
<trkpt lat="35.117226" lon="-85.176008"><ele>243.5</ele><time>2026-08-08T21:09:15Z</time></trkpt>
<trkpt lat="35.117259" lon="-85.175989"><ele>241.1</ele><time>2026-08-08T21:09:18Z</time></trkpt>
<trkpt lat="35.117294" lon="-85.175984"><ele>242.0</ele><time>2026-08-08T21:09:21Z</time></trkpt>
<trkpt lat="35.117331" lon="-85.17597"><ele>242.6</ele><time>2026-08-08T21:09:24Z</time></trkpt>
<trkpt lat="35.117357" lon="-85.175934"><ele>242.9</ele><time>2026-08-08T21:09:27Z</time></trkpt>
<trkpt lat="35.117361" lon="-85.175896"><ele>242.9</ele><time>2026-08-08T21:09:29Z</time></trkpt>
<trkpt lat="35.11735" lon="-85.175864"><ele>242.6</ele><time>2026-08-08T21:09:31Z</time></trkpt>
<trkpt lat="35.117337" lon="-85.175833"><ele>240.2</ele><time>2026-08-08T21:09:33Z</time></trkpt>
<trkpt lat="35.117334" lon="-85.175787"><ele>241.1</ele><time>2026-08-08T21:09:36Z</time></trkpt>
<trkpt lat="35.117346" lon="-85.175754"><ele>240.2</ele><time>2026-08-08T21:09:38Z</time></trkpt>
<trkpt lat="35.117357" lon="-85.175721"><ele>241.1</ele><time>2026-08-08T21:09:40Z</time></trkpt>
<trkpt lat="35.117367" lon="-85.175689"><ele>241.1</ele><time>2026-08-08T21:09:42Z</time></trkpt>
<trkpt lat="35.117373" lon="-85.175655"><ele>242.0</ele><time>2026-08-08T21:09:44Z</time></trkpt>
<trkpt lat="35.117385" lon="-85.17561"><ele>242.6</ele><time>2026-08-08T21:09:47Z</time></trkpt>
<trkpt lat="35.117419" lon="-85.175584"><ele>241.1</ele><time>2026-08-08T21:09:50Z</time></trkpt>
<trkpt lat="35.117448" lon="-85.175572"><ele>240.2</ele><time>2026-08-08T21:09:52Z</time></trkpt>
<trkpt lat="35.117484" lon="-85.175564"><ele>241.1</ele><time>2026-08-08T21:09:55Z</time></trkpt>
<trkpt lat="35.117517" lon="-85.175548"><ele>242.9</ele><time>2026-08-08T21:09:58Z</time></trkpt>
<trkpt lat="35.117557" lon="-85.175544"><ele>241.4</ele><time>2026-08-08T21:10:01Z</time></trkpt>
<trkpt lat="35.117594" lon="-85.175525"><ele>243.5</ele><time>2026-08-08T21:10:04Z</time></trkpt>
<trkpt lat="35.117625" lon="-85.175494"><ele>243.2</ele><time>2026-08-08T21:10:07Z</time></trkpt>
<trkpt lat="35.11765" lon="-85.175473"><ele>243.5</ele><time>2026-08-08T21:10:09Z</time></trkpt>
<trkpt lat="35.117678" lon="-85.175466"><ele>244.1</ele><time>2026-08-08T21:10:11Z</time></trkpt>
<trkpt lat="35.117717" lon="-85.175453"><ele>244.1</ele><time>2026-08-08T21:10:14Z</time></trkpt>
<trkpt lat="35.117757" lon="-85.175446"><ele>244.4</ele><time>2026-08-08T21:10:17Z</time></trkpt>
<trkpt lat="35.117794" lon="-85.175427"><ele>244.4</ele><time>2026-08-08T21:10:20Z</time></trkpt>
<trkpt lat="35.117813" lon="-85.1754"><ele>244.4</ele><time>2026-08-08T21:10:22Z</time></trkpt>
<trkpt lat="35.117824" lon="-85.17535"><ele>242.9</ele><time>2026-08-08T21:10:25Z</time></trkpt>
<trkpt lat="35.117822" lon="-85.175316"><ele>243.5</ele><time>2026-08-08T21:10:27Z</time></trkpt>
<trkpt lat="35.117824" lon="-85.175281"><ele>242.9</ele><time>2026-08-08T21:10:29Z</time></trkpt>
<trkpt lat="35.117815" lon="-85.175249"><ele>243.2</ele><time>2026-08-08T21:10:31Z</time></trkpt>
<trkpt lat="35.117799" lon="-85.175222"><ele>242.9</ele><time>2026-08-08T21:10:33Z</time></trkpt>
<trkpt lat="35.117777" lon="-85.1752"><ele>242.3</ele><time>2026-08-08T21:10:35Z</time></trkpt>
<trkpt lat="35.117751" lon="-85.175163"><ele>242.3</ele><time>2026-08-08T21:10:38Z</time></trkpt>
<trkpt lat="35.117739" lon="-85.175133"><ele>244.4</ele><time>2026-08-08T21:10:40Z</time></trkpt>
<trkpt lat="35.117735" lon="-85.175086"><ele>244.1</ele><time>2026-08-08T21:10:43Z</time></trkpt>
<trkpt lat="35.117753" lon="-85.175041"><ele>241.7</ele><time>2026-08-08T21:10:46Z</time></trkpt>
<trkpt lat="35.117786" lon="-85.175016"><ele>240.5</ele><time>2026-08-08T21:10:49Z</time></trkpt>
<trkpt lat="35.117829" lon="-85.175021"><ele>240.5</ele><time>2026-08-08T21:10:52Z</time></trkpt>
<trkpt lat="35.117858" lon="-85.175027"><ele>239.3</ele><time>2026-08-08T21:10:54Z</time></trkpt>
<trkpt lat="35.117887" lon="-85.175033"><ele>239.0</ele><time>2026-08-08T21:10:56Z</time></trkpt>
<trkpt lat="35.117924" lon="-85.175035"><ele>238.4</ele><time>2026-08-08T21:10:59Z</time></trkpt>
<trkpt lat="35.117963" lon="-85.175032"><ele>237.7</ele><time>2026-08-08T21:11:02Z</time></trkpt>
<trkpt lat="35.11799" lon="-85.175037"><ele>236.8</ele><time>2026-08-08T21:11:04Z</time></trkpt>
<trkpt lat="35.118017" lon="-85.175046"><ele>237.4</ele><time>2026-08-08T21:11:06Z</time></trkpt>
<trkpt lat="35.118056" lon="-85.175047"><ele>237.1</ele><time>2026-08-08T21:11:09Z</time></trkpt>
<trkpt lat="35.118092" lon="-85.175042"><ele>237.7</ele><time>2026-08-08T21:11:12Z</time></trkpt>
<trkpt lat="35.118132" lon="-85.175031"><ele>237.7</ele><time>2026-08-08T21:11:15Z</time></trkpt>
<trkpt lat="35.11817" lon="-85.175024"><ele>237.7</ele><time>2026-08-08T21:11:18Z</time></trkpt>
<trkpt lat="35.118208" lon="-85.175019"><ele>238.7</ele><time>2026-08-08T21:11:21Z</time></trkpt>
<trkpt lat="35.11824" lon="-85.175026"><ele>239.0</ele><time>2026-08-08T21:11:23Z</time></trkpt>
<trkpt lat="35.118267" lon="-85.17504"><ele>239.9</ele><time>2026-08-08T21:11:25Z</time></trkpt>
<trkpt lat="35.118294" lon="-85.175065"><ele>240.5</ele><time>2026-08-08T21:11:27Z</time></trkpt>
<trkpt lat="35.118311" lon="-85.175097"><ele>239.9</ele><time>2026-08-08T21:11:29Z</time></trkpt>
<trkpt lat="35.11833" lon="-85.175123"><ele>239.9</ele><time>2026-08-08T21:11:31Z</time></trkpt>
<trkpt lat="35.118349" lon="-85.175151"><ele>239.0</ele><time>2026-08-08T21:11:33Z</time></trkpt>
<trkpt lat="35.118364" lon="-85.17518"><ele>238.4</ele><time>2026-08-08T21:11:35Z</time></trkpt>
<trkpt lat="35.118379" lon="-85.175223"><ele>237.1</ele><time>2026-08-08T21:11:38Z</time></trkpt>
<trkpt lat="35.118397" lon="-85.17525"><ele>237.1</ele><time>2026-08-08T21:11:40Z</time></trkpt>
<trkpt lat="35.11842" lon="-85.175287"><ele>236.2</ele><time>2026-08-08T21:11:43Z</time></trkpt>
<trkpt lat="35.118425" lon="-85.175321"><ele>236.5</ele><time>2026-08-08T21:11:45Z</time></trkpt>
<trkpt lat="35.118423" lon="-85.175356"><ele>237.1</ele><time>2026-08-08T21:11:47Z</time></trkpt>
<trkpt lat="35.118424" lon="-85.175401"><ele>236.8</ele><time>2026-08-08T21:11:50Z</time></trkpt>
<trkpt lat="35.118444" lon="-85.175438"><ele>239.3</ele><time>2026-08-08T21:11:53Z</time></trkpt>
<trkpt lat="35.118473" lon="-85.175452"><ele>242.6</ele><time>2026-08-08T21:11:56Z</time></trkpt>
<trkpt lat="35.11847" lon="-85.17545"><ele>242.9</ele><time>2026-08-08T21:11:57Z</time></trkpt>
<trkpt lat="35.118468" lon="-85.175449"><ele>242.9</ele><time>2026-08-08T21:12:00Z</time></trkpt>
<trkpt lat="35.118468" lon="-85.175453"><ele>242.6</ele><time>2026-08-08T21:12:01Z</time></trkpt>
<trkpt lat="35.118453" lon="-85.17549"><ele>242.9</ele><time>2026-08-08T21:12:04Z</time></trkpt>
<trkpt lat="35.118445" lon="-85.175523"><ele>243.2</ele><time>2026-08-08T21:12:06Z</time></trkpt>
<trkpt lat="35.118441" lon="-85.175557"><ele>242.3</ele><time>2026-08-08T21:12:08Z</time></trkpt>
<trkpt lat="35.11842" lon="-85.175598"><ele>240.8</ele><time>2026-08-08T21:12:11Z</time></trkpt>
<trkpt lat="35.118401" lon="-85.175623"><ele>240.8</ele><time>2026-08-08T21:12:13Z</time></trkpt>
<trkpt lat="35.118376" lon="-85.175656"><ele>240.2</ele><time>2026-08-08T21:12:16Z</time></trkpt>
<trkpt lat="35.118346" lon="-85.175689"><ele>237.7</ele><time>2026-08-08T21:12:19Z</time></trkpt>
<trkpt lat="35.118329" lon="-85.175731"><ele>234.1</ele><time>2026-08-08T21:12:22Z</time></trkpt>
<trkpt lat="35.118315" lon="-85.175772"><ele>235.0</ele><time>2026-08-08T21:12:25Z</time></trkpt>
<trkpt lat="35.118316" lon="-85.175819"><ele>236.2</ele><time>2026-08-08T21:12:28Z</time></trkpt>
<trkpt lat="35.118311" lon="-85.175867"><ele>236.8</ele><time>2026-08-08T21:12:31Z</time></trkpt>
<trkpt lat="35.118293" lon="-85.175894"><ele>236.5</ele><time>2026-08-08T21:12:33Z</time></trkpt>
<trkpt lat="35.118273" lon="-85.175918"><ele>236.2</ele><time>2026-08-08T21:12:35Z</time></trkpt>
<trkpt lat="35.118241" lon="-85.17595"><ele>236.2</ele><time>2026-08-08T21:12:38Z</time></trkpt>
<trkpt lat="35.118205" lon="-85.175977"><ele>238.4</ele><time>2026-08-08T21:12:41Z</time></trkpt>
<trkpt lat="35.118185" lon="-85.176001"><ele>239.0</ele><time>2026-08-08T21:12:43Z</time></trkpt>
<trkpt lat="35.118171" lon="-85.176044"><ele>239.0</ele><time>2026-08-08T21:12:46Z</time></trkpt>
<trkpt lat="35.118156" lon="-85.176084"><ele>239.9</ele><time>2026-08-08T21:12:49Z</time></trkpt>
<trkpt lat="35.118124" lon="-85.176107"><ele>239.3</ele><time>2026-08-08T21:12:52Z</time></trkpt>
<trkpt lat="35.118086" lon="-85.176125"><ele>239.6</ele><time>2026-08-08T21:12:55Z</time></trkpt>
<trkpt lat="35.118062" lon="-85.176165"><ele>240.8</ele><time>2026-08-08T21:12:58Z</time></trkpt>
<trkpt lat="35.118052" lon="-85.176198"><ele>240.8</ele><time>2026-08-08T21:13:00Z</time></trkpt>
<trkpt lat="35.118041" lon="-85.17623"><ele>241.7</ele><time>2026-08-08T21:13:02Z</time></trkpt>
<trkpt lat="35.118019" lon="-85.176256"><ele>243.2</ele><time>2026-08-08T21:13:04Z</time></trkpt>
<trkpt lat="35.117997" lon="-85.176276"><ele>243.8</ele><time>2026-08-08T21:13:06Z</time></trkpt>
<trkpt lat="35.117965" lon="-85.176304"><ele>244.4</ele><time>2026-08-08T21:13:09Z</time></trkpt>
<trkpt lat="35.117933" lon="-85.176322"><ele>243.8</ele><time>2026-08-08T21:13:12Z</time></trkpt>
<trkpt lat="35.117895" lon="-85.176313"><ele>243.2</ele><time>2026-08-08T21:13:15Z</time></trkpt>
<trkpt lat="35.117866" lon="-85.176298"><ele>243.8</ele><time>2026-08-08T21:13:17Z</time></trkpt>
<trkpt lat="35.117842" lon="-85.176279"><ele>244.8</ele><time>2026-08-08T21:13:19Z</time></trkpt>
<trkpt lat="35.117821" lon="-85.176256"><ele>245.7</ele><time>2026-08-08T21:13:21Z</time></trkpt>
<trkpt lat="35.117786" lon="-85.176234"><ele>245.7</ele><time>2026-08-08T21:13:24Z</time></trkpt>
<trkpt lat="35.117746" lon="-85.176227"><ele>246.3</ele><time>2026-08-08T21:13:27Z</time></trkpt>
<trkpt lat="35.117707" lon="-85.176231"><ele>247.5</ele><time>2026-08-08T21:13:30Z</time></trkpt>
<trkpt lat="35.117669" lon="-85.176219"><ele>249.0</ele><time>2026-08-08T21:13:33Z</time></trkpt>
<trkpt lat="35.117633" lon="-85.176204"><ele>249.9</ele><time>2026-08-08T21:13:36Z</time></trkpt>
<trkpt lat="35.117595" lon="-85.17619"><ele>250.5</ele><time>2026-08-08T21:13:39Z</time></trkpt>
<trkpt lat="35.117557" lon="-85.176182"><ele>250.2</ele><time>2026-08-08T21:13:42Z</time></trkpt>
<trkpt lat="35.117524" lon="-85.176171"><ele>251.5</ele><time>2026-08-08T21:13:45Z</time></trkpt>
<trkpt lat="35.11749" lon="-85.176172"><ele>252.4</ele><time>2026-08-08T21:13:48Z</time></trkpt>
<trkpt lat="35.117473" lon="-85.176208"><ele>250.5</ele><time>2026-08-08T21:13:51Z</time></trkpt>
<trkpt lat="35.117455" lon="-85.176237"><ele>247.5</ele><time>2026-08-08T21:13:54Z</time></trkpt>
<trkpt lat="35.117442" lon="-85.176271"><ele>246.9</ele><time>2026-08-08T21:13:56Z</time></trkpt>
<trkpt lat="35.117425" lon="-85.176304"><ele>245.7</ele><time>2026-08-08T21:13:58Z</time></trkpt>
<trkpt lat="35.117401" lon="-85.176329"><ele>244.4</ele><time>2026-08-08T21:14:00Z</time></trkpt>
<trkpt lat="35.117376" lon="-85.176348"><ele>243.8</ele><time>2026-08-08T21:14:02Z</time></trkpt>
<trkpt lat="35.117353" lon="-85.176372"><ele>244.4</ele><time>2026-08-08T21:14:04Z</time></trkpt>
<trkpt lat="35.117329" lon="-85.176396"><ele>245.1</ele><time>2026-08-08T21:14:06Z</time></trkpt>
<trkpt lat="35.117298" lon="-85.176407"><ele>245.4</ele><time>2026-08-08T21:14:08Z</time></trkpt>
<trkpt lat="35.117273" lon="-85.176429"><ele>245.4</ele><time>2026-08-08T21:14:10Z</time></trkpt>
<trkpt lat="35.117245" lon="-85.176467"><ele>245.1</ele><time>2026-08-08T21:14:13Z</time></trkpt>
<trkpt lat="35.11722" lon="-85.176488"><ele>245.4</ele><time>2026-08-08T21:14:15Z</time></trkpt>
<trkpt lat="35.117183" lon="-85.176506"><ele>244.1</ele><time>2026-08-08T21:14:18Z</time></trkpt>
<trkpt lat="35.11716" lon="-85.176525"><ele>244.4</ele><time>2026-08-08T21:14:20Z</time></trkpt>
<trkpt lat="35.117135" lon="-85.176553"><ele>242.6</ele><time>2026-08-08T21:14:23Z</time></trkpt>
<trkpt lat="35.117105" lon="-85.176589"><ele>242.3</ele><time>2026-08-08T21:14:26Z</time></trkpt>
<trkpt lat="35.117085" lon="-85.17663"><ele>241.1</ele><time>2026-08-08T21:14:29Z</time></trkpt>
<trkpt lat="35.117065" lon="-85.176654"><ele>242.0</ele><time>2026-08-08T21:14:31Z</time></trkpt>
<trkpt lat="35.117035" lon="-85.176687"><ele>242.9</ele><time>2026-08-08T21:14:34Z</time></trkpt>
<trkpt lat="35.117006" lon="-85.176725"><ele>243.2</ele><time>2026-08-08T21:14:37Z</time></trkpt>
<trkpt lat="35.11698" lon="-85.176762"><ele>243.5</ele><time>2026-08-08T21:14:40Z</time></trkpt>
<trkpt lat="35.116956" lon="-85.176801"><ele>244.1</ele><time>2026-08-08T21:14:43Z</time></trkpt>
<trkpt lat="35.11693" lon="-85.176836"><ele>242.6</ele><time>2026-08-08T21:14:46Z</time></trkpt>
<trkpt lat="35.11691" lon="-85.176864"><ele>241.7</ele><time>2026-08-08T21:14:48Z</time></trkpt>
<trkpt lat="35.116887" lon="-85.176888"><ele>242.0</ele><time>2026-08-08T21:14:50Z</time></trkpt>
<trkpt lat="35.116856" lon="-85.176916"><ele>242.6</ele><time>2026-08-08T21:14:53Z</time></trkpt>
<trkpt lat="35.11682" lon="-85.176939"><ele>240.2</ele><time>2026-08-08T21:14:56Z</time></trkpt>
<trkpt lat="35.116796" lon="-85.176962"><ele>240.2</ele><time>2026-08-08T21:14:58Z</time></trkpt>
<trkpt lat="35.116763" lon="-85.176985"><ele>239.0</ele><time>2026-08-08T21:15:01Z</time></trkpt>
<trkpt lat="35.116736" lon="-85.177"><ele>238.4</ele><time>2026-08-08T21:15:03Z</time></trkpt>
<trkpt lat="35.11671" lon="-85.177013"><ele>238.0</ele><time>2026-08-08T21:15:05Z</time></trkpt>
<trkpt lat="35.116683" lon="-85.177024"><ele>237.7</ele><time>2026-08-08T21:15:07Z</time></trkpt>
<trkpt lat="35.116653" lon="-85.177028"><ele>237.4</ele><time>2026-08-08T21:15:09Z</time></trkpt>
<trkpt lat="35.116624" lon="-85.177034"><ele>238.0</ele><time>2026-08-08T21:15:11Z</time></trkpt>
<trkpt lat="35.116589" lon="-85.177055"><ele>236.2</ele><time>2026-08-08T21:15:14Z</time></trkpt>
<trkpt lat="35.116553" lon="-85.177076"><ele>235.9</ele><time>2026-08-08T21:15:17Z</time></trkpt>
<trkpt lat="35.11653" lon="-85.177095"><ele>236.2</ele><time>2026-08-08T21:15:19Z</time></trkpt>
<trkpt lat="35.116503" lon="-85.17711"><ele>235.0</ele><time>2026-08-08T21:15:21Z</time></trkpt>
<trkpt lat="35.116473" lon="-85.177123"><ele>236.2</ele><time>2026-08-08T21:15:23Z</time></trkpt>
<trkpt lat="35.116447" lon="-85.177135"><ele>236.5</ele><time>2026-08-08T21:15:25Z</time></trkpt>
<trkpt lat="35.116407" lon="-85.177144"><ele>237.4</ele><time>2026-08-08T21:15:28Z</time></trkpt>
<trkpt lat="35.116377" lon="-85.177139"><ele>237.4</ele><time>2026-08-08T21:15:30Z</time></trkpt>
<trkpt lat="35.116348" lon="-85.17714"><ele>237.1</ele><time>2026-08-08T21:15:32Z</time></trkpt>
<trkpt lat="35.116319" lon="-85.177143"><ele>236.5</ele><time>2026-08-08T21:15:34Z</time></trkpt>
<trkpt lat="35.116293" lon="-85.177159"><ele>236.2</ele><time>2026-08-08T21:15:36Z</time></trkpt>
<trkpt lat="35.116271" lon="-85.17719"><ele>235.6</ele><time>2026-08-08T21:15:38Z</time></trkpt>
<trkpt lat="35.116251" lon="-85.177214"><ele>235.3</ele><time>2026-08-08T21:15:40Z</time></trkpt>
<trkpt lat="35.11623" lon="-85.177236"><ele>236.2</ele><time>2026-08-08T21:15:42Z</time></trkpt>
<trkpt lat="35.116204" lon="-85.177246"><ele>237.1</ele><time>2026-08-08T21:15:44Z</time></trkpt>
<trkpt lat="35.116164" lon="-85.177255"><ele>235.6</ele><time>2026-08-08T21:15:47Z</time></trkpt>
<trkpt lat="35.116137" lon="-85.17727"><ele>235.0</ele><time>2026-08-08T21:15:49Z</time></trkpt>
<trkpt lat="35.116099" lon="-85.17729"><ele>234.1</ele><time>2026-08-08T21:15:52Z</time></trkpt>
<trkpt lat="35.116066" lon="-85.177318"><ele>235.9</ele><time>2026-08-08T21:15:55Z</time></trkpt>
<trkpt lat="35.116042" lon="-85.177345"><ele>235.6</ele><time>2026-08-08T21:15:57Z</time></trkpt>
<trkpt lat="35.116006" lon="-85.177367"><ele>234.1</ele><time>2026-08-08T21:16:00Z</time></trkpt>
<trkpt lat="35.115977" lon="-85.177369"><ele>233.8</ele><time>2026-08-08T21:16:02Z</time></trkpt>
<trkpt lat="35.115949" lon="-85.177371"><ele>234.4</ele><time>2026-08-08T21:16:04Z</time></trkpt>
<trkpt lat="35.115921" lon="-85.177375"><ele>234.4</ele><time>2026-08-08T21:16:06Z</time></trkpt>
<trkpt lat="35.115891" lon="-85.177385"><ele>233.5</ele><time>2026-08-08T21:16:08Z</time></trkpt>
<trkpt lat="35.115852" lon="-85.177397"><ele>231.6</ele><time>2026-08-08T21:16:11Z</time></trkpt>
<trkpt lat="35.115818" lon="-85.177426"><ele>231.0</ele><time>2026-08-08T21:16:14Z</time></trkpt>
<trkpt lat="35.115802" lon="-85.177454"><ele>229.2</ele><time>2026-08-08T21:16:16Z</time></trkpt>
<trkpt lat="35.115783" lon="-85.177483"><ele>229.5</ele><time>2026-08-08T21:16:18Z</time></trkpt>
<trkpt lat="35.115748" lon="-85.177509"><ele>228.9</ele><time>2026-08-08T21:16:21Z</time></trkpt>
<trkpt lat="35.11572" lon="-85.177518"><ele>228.9</ele><time>2026-08-08T21:16:23Z</time></trkpt>
<trkpt lat="35.115692" lon="-85.177523"><ele>228.3</ele><time>2026-08-08T21:16:25Z</time></trkpt>
<trkpt lat="35.115664" lon="-85.177532"><ele>228.3</ele><time>2026-08-08T21:16:27Z</time></trkpt>
<trkpt lat="35.115637" lon="-85.177542"><ele>228.6</ele><time>2026-08-08T21:16:29Z</time></trkpt>
<trkpt lat="35.115601" lon="-85.177564"><ele>228.9</ele><time>2026-08-08T21:16:32Z</time></trkpt>
<trkpt lat="35.115564" lon="-85.177581"><ele>227.7</ele><time>2026-08-08T21:16:35Z</time></trkpt>
<trkpt lat="35.115533" lon="-85.177583"><ele>228.9</ele><time>2026-08-08T21:16:37Z</time></trkpt>
<trkpt lat="35.115505" lon="-85.177575"><ele>229.2</ele><time>2026-08-08T21:16:39Z</time></trkpt>
<trkpt lat="35.11547" lon="-85.177578"><ele>231.0</ele><time>2026-08-08T21:16:42Z</time></trkpt>
<trkpt lat="35.115446" lon="-85.177616"><ele>229.2</ele><time>2026-08-08T21:16:45Z</time></trkpt>
<trkpt lat="35.115427" lon="-85.177655"><ele>229.8</ele><time>2026-08-08T21:16:48Z</time></trkpt>
<trkpt lat="35.115407" lon="-85.177678"><ele>230.4</ele><time>2026-08-08T21:16:50Z</time></trkpt>
<trkpt lat="35.115371" lon="-85.177693"><ele>228.6</ele><time>2026-08-08T21:16:53Z</time></trkpt>
<trkpt lat="35.115334" lon="-85.177714"><ele>228.9</ele><time>2026-08-08T21:16:56Z</time></trkpt>
<trkpt lat="35.115304" lon="-85.177717"><ele>229.2</ele><time>2026-08-08T21:16:58Z</time></trkpt>
<trkpt lat="35.115279" lon="-85.177733"><ele>229.8</ele><time>2026-08-08T21:17:00Z</time></trkpt>
<trkpt lat="35.115254" lon="-85.177748"><ele>230.7</ele><time>2026-08-08T21:17:02Z</time></trkpt>
<trkpt lat="35.115225" lon="-85.177761"><ele>229.5</ele><time>2026-08-08T21:17:04Z</time></trkpt>
<trkpt lat="35.115199" lon="-85.177774"><ele>229.2</ele><time>2026-08-08T21:17:06Z</time></trkpt>
<trkpt lat="35.115164" lon="-85.177795"><ele>228.9</ele><time>2026-08-08T21:17:09Z</time></trkpt>
<trkpt lat="35.115125" lon="-85.177813"><ele>229.2</ele><time>2026-08-08T21:17:12Z</time></trkpt>
<trkpt lat="35.1151" lon="-85.17783"><ele>230.4</ele><time>2026-08-08T21:17:14Z</time></trkpt>
<trkpt lat="35.11507" lon="-85.177836"><ele>230.1</ele><time>2026-08-08T21:17:16Z</time></trkpt>
<trkpt lat="35.115041" lon="-85.177836"><ele>230.4</ele><time>2026-08-08T21:17:18Z</time></trkpt>
<trkpt lat="35.115001" lon="-85.17783"><ele>229.8</ele><time>2026-08-08T21:17:21Z</time></trkpt>
<trkpt lat="35.114973" lon="-85.177828"><ele>229.2</ele><time>2026-08-08T21:17:23Z</time></trkpt>
<trkpt lat="35.114945" lon="-85.177829"><ele>229.8</ele><time>2026-08-08T21:17:25Z</time></trkpt>
<trkpt lat="35.114905" lon="-85.177837"><ele>229.8</ele><time>2026-08-08T21:17:28Z</time></trkpt>
<trkpt lat="35.11487" lon="-85.177849"><ele>231.0</ele><time>2026-08-08T21:17:31Z</time></trkpt>
<trkpt lat="35.114837" lon="-85.177845"><ele>230.4</ele><time>2026-08-08T21:17:34Z</time></trkpt>
<trkpt lat="35.114796" lon="-85.177845"><ele>229.2</ele><time>2026-08-08T21:17:37Z</time></trkpt>
<trkpt lat="35.114759" lon="-85.177831"><ele>228.6</ele><time>2026-08-08T21:17:40Z</time></trkpt>
<trkpt lat="35.114726" lon="-85.177809"><ele>229.8</ele><time>2026-08-08T21:17:43Z</time></trkpt>
<trkpt lat="35.114691" lon="-85.177811"><ele>229.2</ele><time>2026-08-08T21:17:46Z</time></trkpt>
<trkpt lat="35.114672" lon="-85.177837"><ele>229.5</ele><time>2026-08-08T21:17:48Z</time></trkpt>
<trkpt lat="35.114647" lon="-85.177853"><ele>229.8</ele><time>2026-08-08T21:17:50Z</time></trkpt>
<trkpt lat="35.114618" lon="-85.177841"><ele>231.0</ele><time>2026-08-08T21:17:52Z</time></trkpt>
<trkpt lat="35.114598" lon="-85.177812"><ele>230.1</ele><time>2026-08-08T21:17:54Z</time></trkpt>
<trkpt lat="35.114566" lon="-85.177788"><ele>230.1</ele><time>2026-08-08T21:17:57Z</time></trkpt>
<trkpt lat="35.114529" lon="-85.177771"><ele>229.5</ele><time>2026-08-08T21:18:00Z</time></trkpt>
<trkpt lat="35.114502" lon="-85.177758"><ele>229.2</ele><time>2026-08-08T21:18:02Z</time></trkpt>
<trkpt lat="35.114462" lon="-85.177747"><ele>229.2</ele><time>2026-08-08T21:18:05Z</time></trkpt>
<trkpt lat="35.114436" lon="-85.177712"><ele>228.3</ele><time>2026-08-08T21:18:08Z</time></trkpt>
<trkpt lat="35.114423" lon="-85.177682"><ele>229.2</ele><time>2026-08-08T21:18:10Z</time></trkpt>
<trkpt lat="35.114407" lon="-85.177645"><ele>229.8</ele><time>2026-08-08T21:18:13Z</time></trkpt>
<trkpt lat="35.114382" lon="-85.177613"><ele>229.2</ele><time>2026-08-08T21:18:16Z</time></trkpt>
<trkpt lat="35.114354" lon="-85.177588"><ele>228.9</ele><time>2026-08-08T21:18:19Z</time></trkpt>
<trkpt lat="35.114326" lon="-85.177557"><ele>230.1</ele><time>2026-08-08T21:18:22Z</time></trkpt>
<trkpt lat="35.114286" lon="-85.177541"><ele>228.6</ele><time>2026-08-08T21:18:25Z</time></trkpt>
<trkpt lat="35.114255" lon="-85.177547"><ele>227.4</ele><time>2026-08-08T21:18:27Z</time></trkpt>
<trkpt lat="35.114222" lon="-85.177535"><ele>228.0</ele><time>2026-08-08T21:18:29Z</time></trkpt>
<trkpt lat="35.11419" lon="-85.177531"><ele>227.4</ele><time>2026-08-08T21:18:31Z</time></trkpt>
<trkpt lat="35.114159" lon="-85.177539"><ele>226.5</ele><time>2026-08-08T21:18:33Z</time></trkpt>
<trkpt lat="35.114132" lon="-85.177565"><ele>226.2</ele><time>2026-08-08T21:18:35Z</time></trkpt>
<trkpt lat="35.114115" lon="-85.177606"><ele>225.2</ele><time>2026-08-08T21:18:37Z</time></trkpt>
<trkpt lat="35.114115" lon="-85.177651"><ele>223.7</ele><time>2026-08-08T21:18:39Z</time></trkpt>
<trkpt lat="35.114107" lon="-85.177688"><ele>224.0</ele><time>2026-08-08T21:18:41Z</time></trkpt>
<trkpt lat="35.114078" lon="-85.177719"><ele>224.3</ele><time>2026-08-08T21:18:44Z</time></trkpt>
<trkpt lat="35.114043" lon="-85.177729"><ele>223.7</ele><time>2026-08-08T21:18:47Z</time></trkpt>
<trkpt lat="35.114009" lon="-85.177747"><ele>222.8</ele><time>2026-08-08T21:18:50Z</time></trkpt>
<trkpt lat="35.113984" lon="-85.177786"><ele>223.7</ele><time>2026-08-08T21:18:53Z</time></trkpt>
<trkpt lat="35.113975" lon="-85.177827"><ele>224.9</ele><time>2026-08-08T21:18:56Z</time></trkpt>
<trkpt lat="35.113965" lon="-85.17787"><ele>225.6</ele><time>2026-08-08T21:18:59Z</time></trkpt>
<trkpt lat="35.113975" lon="-85.177918"><ele>222.8</ele><time>2026-08-08T21:19:02Z</time></trkpt>
<trkpt lat="35.113995" lon="-85.177943"><ele>221.6</ele><time>2026-08-08T21:19:04Z</time></trkpt>
<trkpt lat="35.114012" lon="-85.177971"><ele>222.8</ele><time>2026-08-08T21:19:06Z</time></trkpt>
<trkpt lat="35.114028" lon="-85.177998"><ele>222.5</ele><time>2026-08-08T21:19:08Z</time></trkpt>
<trkpt lat="35.114044" lon="-85.178027"><ele>221.9</ele><time>2026-08-08T21:19:10Z</time></trkpt>
<trkpt lat="35.114076" lon="-85.17806"><ele>222.2</ele><time>2026-08-08T21:19:13Z</time></trkpt>
<trkpt lat="35.114101" lon="-85.178081"><ele>221.0</ele><time>2026-08-08T21:19:15Z</time></trkpt>
<trkpt lat="35.114118" lon="-85.178126"><ele>220.4</ele><time>2026-08-08T21:19:18Z</time></trkpt>
<trkpt lat="35.11411" lon="-85.178162"><ele>220.7</ele><time>2026-08-08T21:19:20Z</time></trkpt>
<trkpt lat="35.114093" lon="-85.178206"><ele>220.7</ele><time>2026-08-08T21:19:23Z</time></trkpt>
<trkpt lat="35.114077" lon="-85.178234"><ele>219.5</ele><time>2026-08-08T21:19:25Z</time></trkpt>
<trkpt lat="35.114056" lon="-85.17827"><ele>217.6</ele><time>2026-08-08T21:19:28Z</time></trkpt>
<trkpt lat="35.114035" lon="-85.17831"><ele>217.6</ele><time>2026-08-08T21:19:31Z</time></trkpt>
<trkpt lat="35.114013" lon="-85.178331"><ele>216.7</ele><time>2026-08-08T21:19:33Z</time></trkpt>
<trkpt lat="35.113981" lon="-85.178361"><ele>217.9</ele><time>2026-08-08T21:19:36Z</time></trkpt>
<trkpt lat="35.113953" lon="-85.178398"><ele>217.0</ele><time>2026-08-08T21:19:39Z</time></trkpt>
<trkpt lat="35.113931" lon="-85.17842"><ele>216.4</ele><time>2026-08-08T21:19:41Z</time></trkpt>
<trkpt lat="35.113907" lon="-85.178439"><ele>216.1</ele><time>2026-08-08T21:19:43Z</time></trkpt>
<trkpt lat="35.113881" lon="-85.17845"><ele>216.4</ele><time>2026-08-08T21:19:45Z</time></trkpt>
<trkpt lat="35.113852" lon="-85.178447"><ele>217.3</ele><time>2026-08-08T21:19:47Z</time></trkpt>
<trkpt lat="35.113824" lon="-85.178444"><ele>217.9</ele><time>2026-08-08T21:19:49Z</time></trkpt>
<trkpt lat="35.113798" lon="-85.17843"><ele>218.8</ele><time>2026-08-08T21:19:51Z</time></trkpt>
<trkpt lat="35.113772" lon="-85.178417"><ele>219.5</ele><time>2026-08-08T21:19:53Z</time></trkpt>
<trkpt lat="35.113737" lon="-85.178404"><ele>219.2</ele><time>2026-08-08T21:19:56Z</time></trkpt>
<trkpt lat="35.113697" lon="-85.178411"><ele>218.5</ele><time>2026-08-08T21:19:59Z</time></trkpt>
<trkpt lat="35.113666" lon="-85.178443"><ele>218.2</ele><time>2026-08-08T21:20:02Z</time></trkpt>
<trkpt lat="35.113633" lon="-85.178469"><ele>216.1</ele><time>2026-08-08T21:20:05Z</time></trkpt>
<trkpt lat="35.113596" lon="-85.178483"><ele>215.5</ele><time>2026-08-08T21:20:08Z</time></trkpt>
<trkpt lat="35.113558" lon="-85.178486"><ele>215.2</ele><time>2026-08-08T21:20:11Z</time></trkpt>
<trkpt lat="35.11353" lon="-85.178491"><ele>215.2</ele><time>2026-08-08T21:20:13Z</time></trkpt>
<trkpt lat="35.113501" lon="-85.178492"><ele>215.2</ele><time>2026-08-08T21:20:15Z</time></trkpt>
<trkpt lat="35.113473" lon="-85.178493"><ele>215.2</ele><time>2026-08-08T21:20:17Z</time></trkpt>
<trkpt lat="35.113444" lon="-85.178488"><ele>214.9</ele><time>2026-08-08T21:20:19Z</time></trkpt>
<trkpt lat="35.113407" lon="-85.178467"><ele>214.9</ele><time>2026-08-08T21:20:22Z</time></trkpt>
<trkpt lat="35.113387" lon="-85.178429"><ele>216.1</ele><time>2026-08-08T21:20:25Z</time></trkpt>
<trkpt lat="35.113364" lon="-85.17839"><ele>216.4</ele><time>2026-08-08T21:20:28Z</time></trkpt>
<trkpt lat="35.113331" lon="-85.178368"><ele>216.4</ele><time>2026-08-08T21:20:31Z</time></trkpt>
<trkpt lat="35.113304" lon="-85.178373"><ele>216.4</ele><time>2026-08-08T21:20:33Z</time></trkpt>
<trkpt lat="35.113276" lon="-85.178383"><ele>217.0</ele><time>2026-08-08T21:20:35Z</time></trkpt>
<trkpt lat="35.113249" lon="-85.178394"><ele>217.3</ele><time>2026-08-08T21:20:37Z</time></trkpt>
<trkpt lat="35.113221" lon="-85.178393"><ele>217.6</ele><time>2026-08-08T21:20:39Z</time></trkpt>
<trkpt lat="35.113193" lon="-85.178401"><ele>217.9</ele><time>2026-08-08T21:20:41Z</time></trkpt>
<trkpt lat="35.113158" lon="-85.178415"><ele>217.0</ele><time>2026-08-08T21:20:44Z</time></trkpt>
<trkpt lat="35.113127" lon="-85.178431"><ele>217.0</ele><time>2026-08-08T21:20:47Z</time></trkpt>
<trkpt lat="35.11309" lon="-85.178423"><ele>216.7</ele><time>2026-08-08T21:20:50Z</time></trkpt>
<trkpt lat="35.113056" lon="-85.178404"><ele>215.2</ele><time>2026-08-08T21:20:53Z</time></trkpt>
<trkpt lat="35.113044" lon="-85.17837"><ele>214.6</ele><time>2026-08-08T21:20:55Z</time></trkpt>
<trkpt lat="35.113042" lon="-85.178336"><ele>215.5</ele><time>2026-08-08T21:20:57Z</time></trkpt>
<trkpt lat="35.113052" lon="-85.178301"><ele>216.7</ele><time>2026-08-08T21:20:59Z</time></trkpt>
<trkpt lat="35.113055" lon="-85.178264"><ele>218.5</ele><time>2026-08-08T21:21:01Z</time></trkpt>
<trkpt lat="35.113068" lon="-85.178233"><ele>217.6</ele><time>2026-08-08T21:21:03Z</time></trkpt>
<trkpt lat="35.113092" lon="-85.178196"><ele>216.7</ele><time>2026-08-08T21:21:06Z</time></trkpt>
<trkpt lat="35.113118" lon="-85.178177"><ele>216.7</ele><time>2026-08-08T21:21:08Z</time></trkpt>
<trkpt lat="35.11314" lon="-85.178138"><ele>217.0</ele><time>2026-08-08T21:21:11Z</time></trkpt>
<trkpt lat="35.113144" lon="-85.178091"><ele>216.4</ele><time>2026-08-08T21:21:14Z</time></trkpt>
<trkpt lat="35.113146" lon="-85.178046"><ele>215.8</ele><time>2026-08-08T21:21:17Z</time></trkpt>
<trkpt lat="35.113146" lon="-85.177999"><ele>215.5</ele><time>2026-08-08T21:21:20Z</time></trkpt>
<trkpt lat="35.113131" lon="-85.177956"><ele>215.2</ele><time>2026-08-08T21:21:23Z</time></trkpt>
<trkpt lat="35.113117" lon="-85.177921"><ele>216.1</ele><time>2026-08-08T21:21:25Z</time></trkpt>
<trkpt lat="35.113124" lon="-85.177881"><ele>215.5</ele><time>2026-08-08T21:21:27Z</time></trkpt>
<trkpt lat="35.113132" lon="-85.177847"><ele>217.0</ele><time>2026-08-08T21:21:29Z</time></trkpt>
<trkpt lat="35.113135" lon="-85.177812"><ele>217.0</ele><time>2026-08-08T21:21:31Z</time></trkpt>
<trkpt lat="35.113145" lon="-85.177779"><ele>216.1</ele><time>2026-08-08T21:21:33Z</time></trkpt>
<trkpt lat="35.11316" lon="-85.177749"><ele>216.4</ele><time>2026-08-08T21:21:35Z</time></trkpt>
<trkpt lat="35.113168" lon="-85.177715"><ele>216.1</ele><time>2026-08-08T21:21:37Z</time></trkpt>
<trkpt lat="35.113178" lon="-85.177668"><ele>215.8</ele><time>2026-08-08T21:21:40Z</time></trkpt>
<trkpt lat="35.113198" lon="-85.177632"><ele>214.9</ele><time>2026-08-08T21:21:43Z</time></trkpt>
<trkpt lat="35.113222" lon="-85.177595"><ele>214.6</ele><time>2026-08-08T21:21:46Z</time></trkpt>
<trkpt lat="35.113234" lon="-85.177549"><ele>214.9</ele><time>2026-08-08T21:21:49Z</time></trkpt>
<trkpt lat="35.113245" lon="-85.177518"><ele>215.2</ele><time>2026-08-08T21:21:51Z</time></trkpt>
<trkpt lat="35.11327" lon="-85.177498"><ele>215.8</ele><time>2026-08-08T21:21:53Z</time></trkpt>
<trkpt lat="35.113294" lon="-85.177481"><ele>216.7</ele><time>2026-08-08T21:21:55Z</time></trkpt>
<trkpt lat="35.113308" lon="-85.177451"><ele>216.4</ele><time>2026-08-08T21:21:57Z</time></trkpt>
<trkpt lat="35.113331" lon="-85.17742"><ele>216.7</ele><time>2026-08-08T21:22:00Z</time></trkpt>
<trkpt lat="35.113361" lon="-85.177398"><ele>215.8</ele><time>2026-08-08T21:22:03Z</time></trkpt>
<trkpt lat="35.113394" lon="-85.177373"><ele>214.9</ele><time>2026-08-08T21:22:06Z</time></trkpt>
<trkpt lat="35.113417" lon="-85.177343"><ele>214.9</ele><time>2026-08-08T21:22:09Z</time></trkpt>
<trkpt lat="35.113438" lon="-85.177303"><ele>212.8</ele><time>2026-08-08T21:22:12Z</time></trkpt>
<trkpt lat="35.11346" lon="-85.177263"><ele>212.8</ele><time>2026-08-08T21:22:15Z</time></trkpt>
<trkpt lat="35.113474" lon="-85.177233"><ele>212.8</ele><time>2026-08-08T21:22:17Z</time></trkpt>
<trkpt lat="35.113503" lon="-85.177201"><ele>213.4</ele><time>2026-08-08T21:22:20Z</time></trkpt>
<trkpt lat="35.113533" lon="-85.177165"><ele>212.8</ele><time>2026-08-08T21:22:23Z</time></trkpt>
<trkpt lat="35.11355" lon="-85.177139"><ele>211.8</ele><time>2026-08-08T21:22:25Z</time></trkpt>
<trkpt lat="35.11357" lon="-85.177114"><ele>212.1</ele><time>2026-08-08T21:22:27Z</time></trkpt>
<trkpt lat="35.113584" lon="-85.177083"><ele>212.4</ele><time>2026-08-08T21:22:29Z</time></trkpt>
<trkpt lat="35.113598" lon="-85.177053"><ele>211.2</ele><time>2026-08-08T21:22:31Z</time></trkpt>
<trkpt lat="35.113614" lon="-85.177014"><ele>211.5</ele><time>2026-08-08T21:22:34Z</time></trkpt>
<trkpt lat="35.113625" lon="-85.176973"><ele>210.6</ele><time>2026-08-08T21:22:37Z</time></trkpt>
<trkpt lat="35.113637" lon="-85.176929"><ele>210.3</ele><time>2026-08-08T21:22:40Z</time></trkpt>
<trkpt lat="35.113657" lon="-85.176889"><ele>209.4</ele><time>2026-08-08T21:22:43Z</time></trkpt>
<trkpt lat="35.11368" lon="-85.176852"><ele>210.3</ele><time>2026-08-08T21:22:46Z</time></trkpt>
<trkpt lat="35.113697" lon="-85.176825"><ele>210.0</ele><time>2026-08-08T21:22:48Z</time></trkpt>
<trkpt lat="35.113713" lon="-85.176796"><ele>209.1</ele><time>2026-08-08T21:22:50Z</time></trkpt>
<trkpt lat="35.113722" lon="-85.176761"><ele>209.7</ele><time>2026-08-08T21:22:52Z</time></trkpt>
<trkpt lat="35.113727" lon="-85.176725"><ele>210.0</ele><time>2026-08-08T21:22:54Z</time></trkpt>
<trkpt lat="35.113749" lon="-85.176682"><ele>209.1</ele><time>2026-08-08T21:22:57Z</time></trkpt>
<trkpt lat="35.113781" lon="-85.17665"><ele>208.5</ele><time>2026-08-08T21:23:00Z</time></trkpt>
<trkpt lat="35.113802" lon="-85.176627"><ele>208.8</ele><time>2026-08-08T21:23:02Z</time></trkpt>
<trkpt lat="35.113831" lon="-85.176594"><ele>210.3</ele><time>2026-08-08T21:23:05Z</time></trkpt>
<trkpt lat="35.113841" lon="-85.176561"><ele>208.8</ele><time>2026-08-08T21:23:07Z</time></trkpt>
<trkpt lat="35.11385" lon="-85.176528"><ele>209.4</ele><time>2026-08-08T21:23:09Z</time></trkpt>
<trkpt lat="35.113861" lon="-85.176495"><ele>210.3</ele><time>2026-08-08T21:23:11Z</time></trkpt>
<trkpt lat="35.113876" lon="-85.176464"><ele>211.2</ele><time>2026-08-08T21:23:13Z</time></trkpt>
<trkpt lat="35.113905" lon="-85.17645"><ele>212.4</ele><time>2026-08-08T21:23:15Z</time></trkpt>
<trkpt lat="35.113936" lon="-85.176446"><ele>213.1</ele><time>2026-08-08T21:23:17Z</time></trkpt>
<trkpt lat="35.11397" lon="-85.176422"><ele>213.7</ele><time>2026-08-08T21:23:20Z</time></trkpt>
<trkpt lat="35.113997" lon="-85.176385"><ele>214.3</ele><time>2026-08-08T21:23:23Z</time></trkpt>
<trkpt lat="35.114013" lon="-85.176355"><ele>214.6</ele><time>2026-08-08T21:23:25Z</time></trkpt>
<trkpt lat="35.114028" lon="-85.176327"><ele>214.9</ele><time>2026-08-08T21:23:27Z</time></trkpt>
<trkpt lat="35.114052" lon="-85.176307"><ele>214.9</ele><time>2026-08-08T21:23:29Z</time></trkpt>
<trkpt lat="35.114081" lon="-85.1763"><ele>214.0</ele><time>2026-08-08T21:23:31Z</time></trkpt>
<trkpt lat="35.11412" lon="-85.176291"><ele>214.6</ele><time>2026-08-08T21:23:34Z</time></trkpt>
<trkpt lat="35.114157" lon="-85.176274"><ele>214.9</ele><time>2026-08-08T21:23:37Z</time></trkpt>
<trkpt lat="35.114191" lon="-85.176252"><ele>214.3</ele><time>2026-08-08T21:23:40Z</time></trkpt>
<trkpt lat="35.114216" lon="-85.176236"><ele>214.3</ele><time>2026-08-08T21:23:42Z</time></trkpt>
<trkpt lat="35.114242" lon="-85.176224"><ele>214.0</ele><time>2026-08-08T21:23:44Z</time></trkpt>
<trkpt lat="35.11427" lon="-85.176218"><ele>214.0</ele><time>2026-08-08T21:23:46Z</time></trkpt>
<trkpt lat="35.114309" lon="-85.176208"><ele>214.3</ele><time>2026-08-08T21:23:49Z</time></trkpt>
<trkpt lat="35.114344" lon="-85.176181"><ele>214.0</ele><time>2026-08-08T21:23:52Z</time></trkpt>
<trkpt lat="35.114377" lon="-85.176151"><ele>214.0</ele><time>2026-08-08T21:23:55Z</time></trkpt>
<trkpt lat="35.114396" lon="-85.17611"><ele>214.9</ele><time>2026-08-08T21:23:58Z</time></trkpt>
<trkpt lat="35.114416" lon="-85.176068"><ele>214.6</ele><time>2026-08-08T21:24:01Z</time></trkpt>
<trkpt lat="35.114429" lon="-85.176024"><ele>214.0</ele><time>2026-08-08T21:24:04Z</time></trkpt>
<trkpt lat="35.114442" lon="-85.175978"><ele>214.9</ele><time>2026-08-08T21:24:07Z</time></trkpt>
<trkpt lat="35.11445" lon="-85.175931"><ele>215.5</ele><time>2026-08-08T21:24:10Z</time></trkpt>
<trkpt lat="35.114454" lon="-85.175881"><ele>215.8</ele><time>2026-08-08T21:24:13Z</time></trkpt>
<trkpt lat="35.114458" lon="-85.175847"><ele>215.5</ele><time>2026-08-08T21:24:15Z</time></trkpt>
<trkpt lat="35.114472" lon="-85.175801"><ele>217.3</ele><time>2026-08-08T21:24:18Z</time></trkpt>
<trkpt lat="35.114481" lon="-85.175769"><ele>216.1</ele><time>2026-08-08T21:24:20Z</time></trkpt>
<trkpt lat="35.114478" lon="-85.175734"><ele>216.4</ele><time>2026-08-08T21:24:22Z</time></trkpt>
<trkpt lat="35.114465" lon="-85.175699"><ele>216.4</ele><time>2026-08-08T21:24:24Z</time></trkpt>
<trkpt lat="35.114446" lon="-85.17567"><ele>215.5</ele><time>2026-08-08T21:24:26Z</time></trkpt>
<trkpt lat="35.114441" lon="-85.175628"><ele>215.5</ele><time>2026-08-08T21:24:28Z</time></trkpt>
<trkpt lat="35.114444" lon="-85.175591"><ele>217.0</ele><time>2026-08-08T21:24:30Z</time></trkpt>
<trkpt lat="35.114446" lon="-85.175557"><ele>217.0</ele><time>2026-08-08T21:24:32Z</time></trkpt>
<trkpt lat="35.114442" lon="-85.175507"><ele>216.7</ele><time>2026-08-08T21:24:35Z</time></trkpt>
<trkpt lat="35.114432" lon="-85.175474"><ele>217.0</ele><time>2026-08-08T21:24:37Z</time></trkpt>
<trkpt lat="35.114423" lon="-85.175442"><ele>216.7</ele><time>2026-08-08T21:24:39Z</time></trkpt>
<trkpt lat="35.11441" lon="-85.175409"><ele>216.7</ele><time>2026-08-08T21:24:41Z</time></trkpt>
<trkpt lat="35.114401" lon="-85.175371"><ele>216.1</ele><time>2026-08-08T21:24:43Z</time></trkpt>
<trkpt lat="35.114396" lon="-85.175334"><ele>216.7</ele><time>2026-08-08T21:24:45Z</time></trkpt>
<trkpt lat="35.114392" lon="-85.175298"><ele>216.7</ele><time>2026-08-08T21:24:47Z</time></trkpt>
<trkpt lat="35.114404" lon="-85.175265"><ele>217.3</ele><time>2026-08-08T21:24:49Z</time></trkpt>
<trkpt lat="35.114424" lon="-85.175235"><ele>215.8</ele><time>2026-08-08T21:24:51Z</time></trkpt>
<trkpt lat="35.11445" lon="-85.175215"><ele>215.5</ele><time>2026-08-08T21:24:53Z</time></trkpt>
<trkpt lat="35.114473" lon="-85.175196"><ele>215.5</ele><time>2026-08-08T21:24:55Z</time></trkpt>
<trkpt lat="35.114504" lon="-85.175166"><ele>213.7</ele><time>2026-08-08T21:24:58Z</time></trkpt>
<trkpt lat="35.114537" lon="-85.175144"><ele>214.3</ele><time>2026-08-08T21:25:01Z</time></trkpt>
<trkpt lat="35.114574" lon="-85.175135"><ele>216.1</ele><time>2026-08-08T21:25:04Z</time></trkpt>
<trkpt lat="35.114601" lon="-85.175128"><ele>216.4</ele><time>2026-08-08T21:25:06Z</time></trkpt>
<trkpt lat="35.11463" lon="-85.175119"><ele>216.7</ele><time>2026-08-08T21:25:08Z</time></trkpt>
<trkpt lat="35.114662" lon="-85.175095"><ele>217.3</ele><time>2026-08-08T21:25:11Z</time></trkpt>
<trkpt lat="35.114681" lon="-85.175068"><ele>216.4</ele><time>2026-08-08T21:25:13Z</time></trkpt>
<trkpt lat="35.114698" lon="-85.175039"><ele>217.3</ele><time>2026-08-08T21:25:15Z</time></trkpt>
<trkpt lat="35.114711" lon="-85.175008"><ele>217.3</ele><time>2026-08-08T21:25:17Z</time></trkpt>
<trkpt lat="35.114729" lon="-85.174962"><ele>216.7</ele><time>2026-08-08T21:25:20Z</time></trkpt>
<trkpt lat="35.114743" lon="-85.174915"><ele>216.7</ele><time>2026-08-08T21:25:23Z</time></trkpt>
<trkpt lat="35.114748" lon="-85.174881"><ele>215.5</ele><time>2026-08-08T21:25:25Z</time></trkpt>
<trkpt lat="35.114756" lon="-85.174845"><ele>215.2</ele><time>2026-08-08T21:25:27Z</time></trkpt>
<trkpt lat="35.114767" lon="-85.174809"><ele>215.5</ele><time>2026-08-08T21:25:29Z</time></trkpt>
<trkpt lat="35.114791" lon="-85.174784"><ele>214.9</ele><time>2026-08-08T21:25:31Z</time></trkpt>
<trkpt lat="35.114809" lon="-85.174756"><ele>214.9</ele><time>2026-08-08T21:25:33Z</time></trkpt>
<trkpt lat="35.114812" lon="-85.174723"><ele>215.2</ele><time>2026-08-08T21:25:35Z</time></trkpt>
<trkpt lat="35.114813" lon="-85.174687"><ele>215.2</ele><time>2026-08-08T21:25:37Z</time></trkpt>
<trkpt lat="35.114816" lon="-85.174652"><ele>216.1</ele><time>2026-08-08T21:25:39Z</time></trkpt>
<trkpt lat="35.114833" lon="-85.174623"><ele>216.4</ele><time>2026-08-08T21:25:41Z</time></trkpt>
<trkpt lat="35.11485" lon="-85.174595"><ele>215.2</ele><time>2026-08-08T21:25:43Z</time></trkpt>
<trkpt lat="35.114869" lon="-85.174571"><ele>216.4</ele><time>2026-08-08T21:25:45Z</time></trkpt>
<trkpt lat="35.114892" lon="-85.174551"><ele>216.1</ele><time>2026-08-08T21:25:47Z</time></trkpt>
<trkpt lat="35.114916" lon="-85.174532"><ele>216.7</ele><time>2026-08-08T21:25:49Z</time></trkpt>
<trkpt lat="35.114941" lon="-85.174517"><ele>215.8</ele><time>2026-08-08T21:25:51Z</time></trkpt>
<trkpt lat="35.114978" lon="-85.174517"><ele>215.8</ele><time>2026-08-08T21:25:54Z</time></trkpt>
<trkpt lat="35.115019" lon="-85.174524"><ele>218.2</ele><time>2026-08-08T21:25:57Z</time></trkpt>
<trkpt lat="35.115047" lon="-85.174522"><ele>217.6</ele><time>2026-08-08T21:25:59Z</time></trkpt>
<trkpt lat="35.115074" lon="-85.17451"><ele>218.2</ele><time>2026-08-08T21:26:01Z</time></trkpt>
<trkpt lat="35.115095" lon="-85.174486"><ele>217.6</ele><time>2026-08-08T21:26:03Z</time></trkpt>
<trkpt lat="35.115114" lon="-85.17446"><ele>217.9</ele><time>2026-08-08T21:26:05Z</time></trkpt>
<trkpt lat="35.115133" lon="-85.174416"><ele>217.9</ele><time>2026-08-08T21:26:08Z</time></trkpt>
<trkpt lat="35.115141" lon="-85.174383"><ele>217.3</ele><time>2026-08-08T21:26:10Z</time></trkpt>
<trkpt lat="35.115156" lon="-85.174338"><ele>216.4</ele><time>2026-08-08T21:26:13Z</time></trkpt>
<trkpt lat="35.115168" lon="-85.174292"><ele>216.4</ele><time>2026-08-08T21:26:16Z</time></trkpt>
<trkpt lat="35.115181" lon="-85.174262"><ele>217.3</ele><time>2026-08-08T21:26:18Z</time></trkpt>
<trkpt lat="35.115191" lon="-85.17423"><ele>216.1</ele><time>2026-08-08T21:26:20Z</time></trkpt>
<trkpt lat="35.115216" lon="-85.174196"><ele>216.4</ele><time>2026-08-08T21:26:23Z</time></trkpt>
<trkpt lat="35.115235" lon="-85.174172"><ele>215.5</ele><time>2026-08-08T21:26:25Z</time></trkpt>
<trkpt lat="35.11525" lon="-85.174128"><ele>215.8</ele><time>2026-08-08T21:26:28Z</time></trkpt>
<trkpt lat="35.115246" lon="-85.174091"><ele>216.1</ele><time>2026-08-08T21:26:30Z</time></trkpt>
<trkpt lat="35.115236" lon="-85.174059"><ele>216.1</ele><time>2026-08-08T21:26:32Z</time></trkpt>
<trkpt lat="35.115228" lon="-85.17401"><ele>215.5</ele><time>2026-08-08T21:26:35Z</time></trkpt>
<trkpt lat="35.11521" lon="-85.173978"><ele>215.2</ele><time>2026-08-08T21:26:37Z</time></trkpt>
<trkpt lat="35.115199" lon="-85.173945"><ele>216.4</ele><time>2026-08-08T21:26:39Z</time></trkpt>
<trkpt lat="35.11519" lon="-85.173912"><ele>215.2</ele><time>2026-08-08T21:26:41Z</time></trkpt>
<trkpt lat="35.115188" lon="-85.173877"><ele>215.5</ele><time>2026-08-08T21:26:43Z</time></trkpt>
<trkpt lat="35.115182" lon="-85.173843"><ele>215.5</ele><time>2026-08-08T21:26:45Z</time></trkpt>
<trkpt lat="35.115185" lon="-85.17381"><ele>215.5</ele><time>2026-08-08T21:26:47Z</time></trkpt>
<trkpt lat="35.115193" lon="-85.173771"><ele>216.1</ele><time>2026-08-08T21:26:49Z</time></trkpt>
<trkpt lat="35.115212" lon="-85.17374"><ele>216.7</ele><time>2026-08-08T21:26:51Z</time></trkpt>
<trkpt lat="35.115232" lon="-85.173715"><ele>217.6</ele><time>2026-08-08T21:26:53Z</time></trkpt>
<trkpt lat="35.115247" lon="-85.17367"><ele>218.2</ele><time>2026-08-08T21:26:56Z</time></trkpt>
<trkpt lat="35.115254" lon="-85.173636"><ele>218.2</ele><time>2026-08-08T21:26:58Z</time></trkpt>
<trkpt lat="35.115275" lon="-85.17361"><ele>218.8</ele><time>2026-08-08T21:27:00Z</time></trkpt>
<trkpt lat="35.115311" lon="-85.173613"><ele>217.6</ele><time>2026-08-08T21:27:02Z</time></trkpt>
<trkpt lat="35.11534" lon="-85.173622"><ele>217.0</ele><time>2026-08-08T21:27:04Z</time></trkpt>
<trkpt lat="35.115367" lon="-85.17363"><ele>216.4</ele><time>2026-08-08T21:27:06Z</time></trkpt>
<trkpt lat="35.115396" lon="-85.173647"><ele>215.2</ele><time>2026-08-08T21:27:08Z</time></trkpt>
<trkpt lat="35.115419" lon="-85.173671"><ele>216.1</ele><time>2026-08-08T21:27:10Z</time></trkpt>
<trkpt lat="35.115445" lon="-85.173689"><ele>215.2</ele><time>2026-08-08T21:27:12Z</time></trkpt>
<trkpt lat="35.115482" lon="-85.173672"><ele>214.6</ele><time>2026-08-08T21:27:14Z</time></trkpt>
<trkpt lat="35.115503" lon="-85.173641"><ele>215.5</ele><time>2026-08-08T21:27:16Z</time></trkpt>
<trkpt lat="35.115529" lon="-85.173603"><ele>216.1</ele><time>2026-08-08T21:27:19Z</time></trkpt>
<trkpt lat="35.115555" lon="-85.173565"><ele>216.7</ele><time>2026-08-08T21:27:22Z</time></trkpt>
<trkpt lat="35.115573" lon="-85.173523"><ele>218.5</ele><time>2026-08-08T21:27:25Z</time></trkpt>
<trkpt lat="35.115568" lon="-85.173487"><ele>217.9</ele><time>2026-08-08T21:27:27Z</time></trkpt>
<trkpt lat="35.115581" lon="-85.173441"><ele>218.5</ele><time>2026-08-08T21:27:30Z</time></trkpt>
<trkpt lat="35.115608" lon="-85.173426"><ele>219.8</ele><time>2026-08-08T21:27:32Z</time></trkpt>
<trkpt lat="35.115633" lon="-85.17344"><ele>219.8</ele><time>2026-08-08T21:27:34Z</time></trkpt>
<trkpt lat="35.115654" lon="-85.173463"><ele>218.2</ele><time>2026-08-08T21:27:36Z</time></trkpt>
<trkpt lat="35.115682" lon="-85.17347"><ele>218.5</ele><time>2026-08-08T21:27:38Z</time></trkpt>
<trkpt lat="35.115719" lon="-85.173456"><ele>218.5</ele><time>2026-08-08T21:27:41Z</time></trkpt>
<trkpt lat="35.115752" lon="-85.173434"><ele>218.2</ele><time>2026-08-08T21:27:44Z</time></trkpt>
<trkpt lat="35.115776" lon="-85.173413"><ele>217.3</ele><time>2026-08-08T21:27:46Z</time></trkpt>
<trkpt lat="35.115811" lon="-85.173385"><ele>216.7</ele><time>2026-08-08T21:27:49Z</time></trkpt>
<trkpt lat="35.11583" lon="-85.17336"><ele>216.1</ele><time>2026-08-08T21:27:51Z</time></trkpt>
<trkpt lat="35.115847" lon="-85.173316"><ele>215.8</ele><time>2026-08-08T21:27:54Z</time></trkpt>
<trkpt lat="35.115863" lon="-85.173272"><ele>216.1</ele><time>2026-08-08T21:27:57Z</time></trkpt>
<trkpt lat="35.11587" lon="-85.173238"><ele>215.8</ele><time>2026-08-08T21:27:59Z</time></trkpt>
<trkpt lat="35.115874" lon="-85.173201"><ele>217.0</ele><time>2026-08-08T21:28:01Z</time></trkpt>
<trkpt lat="35.115897" lon="-85.173177"><ele>216.7</ele><time>2026-08-08T21:28:03Z</time></trkpt>
<trkpt lat="35.115915" lon="-85.173149"><ele>217.3</ele><time>2026-08-08T21:28:05Z</time></trkpt>
<trkpt lat="35.115931" lon="-85.17312"><ele>216.1</ele><time>2026-08-08T21:28:07Z</time></trkpt>
<trkpt lat="35.115944" lon="-85.173086"><ele>214.6</ele><time>2026-08-08T21:28:09Z</time></trkpt>
<trkpt lat="35.11596" lon="-85.173055"><ele>214.6</ele><time>2026-08-08T21:28:11Z</time></trkpt>
<trkpt lat="35.115971" lon="-85.173023"><ele>213.4</ele><time>2026-08-08T21:28:13Z</time></trkpt>
<trkpt lat="35.115989" lon="-85.172996"><ele>212.4</ele><time>2026-08-08T21:28:15Z</time></trkpt>
<trkpt lat="35.11601" lon="-85.172974"><ele>213.7</ele><time>2026-08-08T21:28:17Z</time></trkpt>
<trkpt lat="35.116038" lon="-85.17297"><ele>213.4</ele><time>2026-08-08T21:28:19Z</time></trkpt>
<trkpt lat="35.116066" lon="-85.172979"><ele>212.4</ele><time>2026-08-08T21:28:21Z</time></trkpt>
<trkpt lat="35.116083" lon="-85.173011"><ele>212.4</ele><time>2026-08-08T21:28:23Z</time></trkpt>
<trkpt lat="35.116112" lon="-85.173043"><ele>214.0</ele><time>2026-08-08T21:28:26Z</time></trkpt>
<trkpt lat="35.116148" lon="-85.17304"><ele>214.6</ele><time>2026-08-08T21:28:29Z</time></trkpt>
<trkpt lat="35.116177" lon="-85.173036"><ele>215.2</ele><time>2026-08-08T21:28:31Z</time></trkpt>
<trkpt lat="35.116207" lon="-85.173002"><ele>215.2</ele><time>2026-08-08T21:28:34Z</time></trkpt>
<trkpt lat="35.116225" lon="-85.172975"><ele>214.9</ele><time>2026-08-08T21:28:36Z</time></trkpt>
<trkpt lat="35.116242" lon="-85.172948"><ele>215.5</ele><time>2026-08-08T21:28:38Z</time></trkpt>
<trkpt lat="35.116255" lon="-85.172916"><ele>215.5</ele><time>2026-08-08T21:28:40Z</time></trkpt>
<trkpt lat="35.116272" lon="-85.172888"><ele>215.5</ele><time>2026-08-08T21:28:42Z</time></trkpt>
<trkpt lat="35.116286" lon="-85.172855"><ele>214.6</ele><time>2026-08-08T21:28:44Z</time></trkpt>
<trkpt lat="35.1163" lon="-85.172823"><ele>214.0</ele><time>2026-08-08T21:28:46Z</time></trkpt>
<trkpt lat="35.116305" lon="-85.172787"><ele>213.7</ele><time>2026-08-08T21:28:48Z</time></trkpt>
<trkpt lat="35.116308" lon="-85.172749"><ele>214.0</ele><time>2026-08-08T21:28:50Z</time></trkpt>
<trkpt lat="35.116312" lon="-85.172712"><ele>214.0</ele><time>2026-08-08T21:28:52Z</time></trkpt>
<trkpt lat="35.116325" lon="-85.172675"><ele>214.3</ele><time>2026-08-08T21:28:54Z</time></trkpt>
<trkpt lat="35.116336" lon="-85.172641"><ele>215.2</ele><time>2026-08-08T21:28:56Z</time></trkpt>
<trkpt lat="35.116361" lon="-85.172617"><ele>216.4</ele><time>2026-08-08T21:28:58Z</time></trkpt>
<trkpt lat="35.116393" lon="-85.172612"><ele>216.4</ele><time>2026-08-08T21:29:00Z</time></trkpt>
<trkpt lat="35.116425" lon="-85.172621"><ele>216.1</ele><time>2026-08-08T21:29:02Z</time></trkpt>
<trkpt lat="35.116452" lon="-85.17261"><ele>215.8</ele><time>2026-08-08T21:29:04Z</time></trkpt>
<trkpt lat="35.11647" lon="-85.172582"><ele>215.8</ele><time>2026-08-08T21:29:06Z</time></trkpt>
<trkpt lat="35.116472" lon="-85.17253"><ele>215.8</ele><time>2026-08-08T21:29:09Z</time></trkpt>
<trkpt lat="35.116462" lon="-85.172497"><ele>214.6</ele><time>2026-08-08T21:29:11Z</time></trkpt>
<trkpt lat="35.116454" lon="-85.172448"><ele>214.6</ele><time>2026-08-08T21:29:14Z</time></trkpt>
<trkpt lat="35.11645" lon="-85.1724"><ele>213.7</ele><time>2026-08-08T21:29:17Z</time></trkpt>
<trkpt lat="35.116443" lon="-85.17235"><ele>213.1</ele><time>2026-08-08T21:29:20Z</time></trkpt>
<trkpt lat="35.116442" lon="-85.172314"><ele>213.4</ele><time>2026-08-08T21:29:22Z</time></trkpt>
<trkpt lat="35.116438" lon="-85.172279"><ele>213.4</ele><time>2026-08-08T21:29:24Z</time></trkpt>
<trkpt lat="35.116439" lon="-85.17223"><ele>213.1</ele><time>2026-08-08T21:29:27Z</time></trkpt>
<trkpt lat="35.11645" lon="-85.172184"><ele>213.7</ele><time>2026-08-08T21:29:30Z</time></trkpt>
<trkpt lat="35.11646" lon="-85.172151"><ele>213.7</ele><time>2026-08-08T21:29:32Z</time></trkpt>
<trkpt lat="35.116474" lon="-85.172121"><ele>215.2</ele><time>2026-08-08T21:29:34Z</time></trkpt>
<trkpt lat="35.116483" lon="-85.172074"><ele>216.1</ele><time>2026-08-08T21:29:37Z</time></trkpt>
<trkpt lat="35.116489" lon="-85.172024"><ele>216.1</ele><time>2026-08-08T21:29:40Z</time></trkpt>
<trkpt lat="35.116492" lon="-85.171978"><ele>216.4</ele><time>2026-08-08T21:29:43Z</time></trkpt>
<trkpt lat="35.116479" lon="-85.171932"><ele>215.8</ele><time>2026-08-08T21:29:46Z</time></trkpt>
<trkpt lat="35.116471" lon="-85.171898"><ele>215.8</ele><time>2026-08-08T21:29:48Z</time></trkpt>
<trkpt lat="35.11646" lon="-85.171851"><ele>219.8</ele><time>2026-08-08T21:29:51Z</time></trkpt>
<trkpt lat="35.116456" lon="-85.171815"><ele>220.4</ele><time>2026-08-08T21:29:53Z</time></trkpt>
<trkpt lat="35.116452" lon="-85.171765"><ele>219.8</ele><time>2026-08-08T21:29:56Z</time></trkpt>
<trkpt lat="35.116469" lon="-85.171731"><ele>218.5</ele><time>2026-08-08T21:29:58Z</time></trkpt>
<trkpt lat="35.116488" lon="-85.171703"><ele>218.5</ele><time>2026-08-08T21:30:00Z</time></trkpt>
<trkpt lat="35.116514" lon="-85.17167"><ele>218.5</ele><time>2026-08-08T21:30:03Z</time></trkpt>
<trkpt lat="35.116535" lon="-85.171648"><ele>217.0</ele><time>2026-08-08T21:30:05Z</time></trkpt>
<trkpt lat="35.116563" lon="-85.171613"><ele>217.0</ele><time>2026-08-08T21:30:08Z</time></trkpt>
<trkpt lat="35.116594" lon="-85.171607"><ele>216.7</ele><time>2026-08-08T21:30:10Z</time></trkpt>
<trkpt lat="35.116618" lon="-85.171587"><ele>217.3</ele><time>2026-08-08T21:30:12Z</time></trkpt>
<trkpt lat="35.116633" lon="-85.171559"><ele>219.5</ele><time>2026-08-08T21:30:14Z</time></trkpt>
<trkpt lat="35.116653" lon="-85.171519"><ele>218.2</ele><time>2026-08-08T21:30:17Z</time></trkpt>
<trkpt lat="35.116667" lon="-85.171474"><ele>218.8</ele><time>2026-08-08T21:30:20Z</time></trkpt>
<trkpt lat="35.116671" lon="-85.171427"><ele>218.2</ele><time>2026-08-08T21:30:23Z</time></trkpt>
<trkpt lat="35.116677" lon="-85.171379"><ele>217.0</ele><time>2026-08-08T21:30:26Z</time></trkpt>
<trkpt lat="35.116686" lon="-85.171334"><ele>216.4</ele><time>2026-08-08T21:30:29Z</time></trkpt>
<trkpt lat="35.116699" lon="-85.171302"><ele>216.7</ele><time>2026-08-08T21:30:31Z</time></trkpt>
<trkpt lat="35.116706" lon="-85.171253"><ele>216.7</ele><time>2026-08-08T21:30:34Z</time></trkpt>
<trkpt lat="35.116713" lon="-85.171203"><ele>214.9</ele><time>2026-08-08T21:30:37Z</time></trkpt>
<trkpt lat="35.116727" lon="-85.171171"><ele>214.9</ele><time>2026-08-08T21:30:39Z</time></trkpt>
<trkpt lat="35.116753" lon="-85.171131"><ele>214.3</ele><time>2026-08-08T21:30:42Z</time></trkpt>
<trkpt lat="35.116781" lon="-85.171114"><ele>214.0</ele><time>2026-08-08T21:30:44Z</time></trkpt>
<trkpt lat="35.116809" lon="-85.171101"><ele>213.4</ele><time>2026-08-08T21:30:46Z</time></trkpt>
<trkpt lat="35.116828" lon="-85.171075"><ele>213.7</ele><time>2026-08-08T21:30:48Z</time></trkpt>
<trkpt lat="35.116845" lon="-85.171047"><ele>214.3</ele><time>2026-08-08T21:30:50Z</time></trkpt>
<trkpt lat="35.116854" lon="-85.171013"><ele>213.4</ele><time>2026-08-08T21:30:52Z</time></trkpt>
<trkpt lat="35.116869" lon="-85.170981"><ele>213.7</ele><time>2026-08-08T21:30:54Z</time></trkpt>
<trkpt lat="35.116892" lon="-85.170959"><ele>213.4</ele><time>2026-08-08T21:30:56Z</time></trkpt>
<trkpt lat="35.116926" lon="-85.170933"><ele>213.1</ele><time>2026-08-08T21:30:59Z</time></trkpt>
<trkpt lat="35.116939" lon="-85.1709"><ele>213.4</ele><time>2026-08-08T21:31:01Z</time></trkpt>
<trkpt lat="35.11695" lon="-85.170866"><ele>211.5</ele><time>2026-08-08T21:31:03Z</time></trkpt>
<trkpt lat="35.116952" lon="-85.170828"><ele>211.8</ele><time>2026-08-08T21:31:05Z</time></trkpt>
<trkpt lat="35.116932" lon="-85.170766"><ele>211.2</ele><time>2026-08-08T21:31:08Z</time></trkpt>
<trkpt lat="35.116922" lon="-85.170726"><ele>212.8</ele><time>2026-08-08T21:31:10Z</time></trkpt>
<trkpt lat="35.116913" lon="-85.170693"><ele>212.1</ele><time>2026-08-08T21:31:12Z</time></trkpt>
<trkpt lat="35.116901" lon="-85.17066"><ele>213.4</ele><time>2026-08-08T21:31:14Z</time></trkpt>
<trkpt lat="35.116883" lon="-85.170627"><ele>214.0</ele><time>2026-08-08T21:31:17Z</time></trkpt>
<trkpt lat="35.116868" lon="-85.170594"><ele>216.4</ele><time>2026-08-08T21:31:19Z</time></trkpt>
<trkpt lat="35.116855" lon="-85.170559"><ele>215.8</ele><time>2026-08-08T21:31:21Z</time></trkpt>
<trkpt lat="35.116828" lon="-85.170533"><ele>215.2</ele><time>2026-08-08T21:31:23Z</time></trkpt>
<trkpt lat="35.116802" lon="-85.170509"><ele>215.8</ele><time>2026-08-08T21:31:25Z</time></trkpt>
<trkpt lat="35.116784" lon="-85.170482"><ele>217.6</ele><time>2026-08-08T21:31:27Z</time></trkpt>
<trkpt lat="35.116757" lon="-85.170454"><ele>219.2</ele><time>2026-08-08T21:31:29Z</time></trkpt>
<trkpt lat="35.116725" lon="-85.170457"><ele>219.2</ele><time>2026-08-08T21:31:31Z</time></trkpt>
<trkpt lat="35.116692" lon="-85.170472"><ele>219.5</ele><time>2026-08-08T21:31:33Z</time></trkpt>
<trkpt lat="35.116662" lon="-85.170487"><ele>218.2</ele><time>2026-08-08T21:31:35Z</time></trkpt>
<trkpt lat="35.116632" lon="-85.170483"><ele>218.5</ele><time>2026-08-08T21:31:37Z</time></trkpt>
<trkpt lat="35.116593" lon="-85.170493"><ele>218.2</ele><time>2026-08-08T21:31:40Z</time></trkpt>
<trkpt lat="35.116562" lon="-85.170501"><ele>217.6</ele><time>2026-08-08T21:31:42Z</time></trkpt>
<trkpt lat="35.116533" lon="-85.170505"><ele>216.7</ele><time>2026-08-08T21:31:44Z</time></trkpt>
<trkpt lat="35.116492" lon="-85.170501"><ele>216.4</ele><time>2026-08-08T21:31:47Z</time></trkpt>
<trkpt lat="35.116457" lon="-85.170495"><ele>217.9</ele><time>2026-08-08T21:31:49Z</time></trkpt>
<trkpt lat="35.11643" lon="-85.170503"><ele>216.1</ele><time>2026-08-08T21:31:51Z</time></trkpt>
<trkpt lat="35.116403" lon="-85.170509"><ele>216.1</ele><time>2026-08-08T21:31:53Z</time></trkpt>
<trkpt lat="35.116367" lon="-85.170525"><ele>214.3</ele><time>2026-08-08T21:31:56Z</time></trkpt>
<trkpt lat="35.116329" lon="-85.170519"><ele>214.0</ele><time>2026-08-08T21:31:59Z</time></trkpt>
<trkpt lat="35.116287" lon="-85.170523"><ele>213.7</ele><time>2026-08-08T21:32:02Z</time></trkpt>
<trkpt lat="35.116249" lon="-85.170531"><ele>213.7</ele><time>2026-08-08T21:32:05Z</time></trkpt>
<trkpt lat="35.116214" lon="-85.170528"><ele>214.0</ele><time>2026-08-08T21:32:08Z</time></trkpt>
<trkpt lat="35.116184" lon="-85.170533"><ele>214.3</ele><time>2026-08-08T21:32:10Z</time></trkpt>
<trkpt lat="35.11616" lon="-85.170554"><ele>213.1</ele><time>2026-08-08T21:32:12Z</time></trkpt>
<trkpt lat="35.116141" lon="-85.170586"><ele>212.4</ele><time>2026-08-08T21:32:14Z</time></trkpt>
<trkpt lat="35.116129" lon="-85.170621"><ele>212.4</ele><time>2026-08-08T21:32:16Z</time></trkpt>
<trkpt lat="35.11611" lon="-85.170647"><ele>211.8</ele><time>2026-08-08T21:32:18Z</time></trkpt>
<trkpt lat="35.11609" lon="-85.170671"><ele>211.5</ele><time>2026-08-08T21:32:20Z</time></trkpt>
<trkpt lat="35.116069" lon="-85.170717"><ele>211.8</ele><time>2026-08-08T21:32:23Z</time></trkpt>
<trkpt lat="35.116063" lon="-85.170753"><ele>211.5</ele><time>2026-08-08T21:32:25Z</time></trkpt>
<trkpt lat="35.116063" lon="-85.17079"><ele>211.8</ele><time>2026-08-08T21:32:27Z</time></trkpt>
<trkpt lat="35.116064" lon="-85.170826"><ele>211.5</ele><time>2026-08-08T21:32:29Z</time></trkpt>
<trkpt lat="35.116052" lon="-85.170857"><ele>212.1</ele><time>2026-08-08T21:32:31Z</time></trkpt>
<trkpt lat="35.11603" lon="-85.170896"><ele>212.8</ele><time>2026-08-08T21:32:34Z</time></trkpt>
<trkpt lat="35.116007" lon="-85.170933"><ele>212.8</ele><time>2026-08-08T21:32:37Z</time></trkpt>
<trkpt lat="35.11599" lon="-85.170961"><ele>213.7</ele><time>2026-08-08T21:32:39Z</time></trkpt>
<trkpt lat="35.115979" lon="-85.170993"><ele>214.3</ele><time>2026-08-08T21:32:41Z</time></trkpt>
<trkpt lat="35.115971" lon="-85.171027"><ele>214.3</ele><time>2026-08-08T21:32:43Z</time></trkpt>
<trkpt lat="35.115953" lon="-85.171066"><ele>214.3</ele><time>2026-08-08T21:32:46Z</time></trkpt>
<trkpt lat="35.115937" lon="-85.17111"><ele>213.7</ele><time>2026-08-08T21:32:49Z</time></trkpt>
<trkpt lat="35.115925" lon="-85.171141"><ele>212.8</ele><time>2026-08-08T21:32:51Z</time></trkpt>
<trkpt lat="35.115908" lon="-85.17118"><ele>212.4</ele><time>2026-08-08T21:32:54Z</time></trkpt>
<trkpt lat="35.115871" lon="-85.171192"><ele>211.8</ele><time>2026-08-08T21:32:57Z</time></trkpt>
<trkpt lat="35.11583" lon="-85.171199"><ele>212.4</ele><time>2026-08-08T21:33:00Z</time></trkpt>
<trkpt lat="35.115802" lon="-85.1712"><ele>212.8</ele><time>2026-08-08T21:33:02Z</time></trkpt>
<trkpt lat="35.115772" lon="-85.171198"><ele>213.4</ele><time>2026-08-08T21:33:04Z</time></trkpt>
<trkpt lat="35.115733" lon="-85.171202"><ele>214.0</ele><time>2026-08-08T21:33:07Z</time></trkpt>
<trkpt lat="35.115699" lon="-85.171228"><ele>213.4</ele><time>2026-08-08T21:33:10Z</time></trkpt>
<trkpt lat="35.115678" lon="-85.171251"><ele>213.4</ele><time>2026-08-08T21:33:12Z</time></trkpt>
<trkpt lat="35.115644" lon="-85.171277"><ele>212.8</ele><time>2026-08-08T21:33:15Z</time></trkpt>
<trkpt lat="35.115617" lon="-85.171289"><ele>212.4</ele><time>2026-08-08T21:33:17Z</time></trkpt>
<trkpt lat="35.115577" lon="-85.171286"><ele>213.7</ele><time>2026-08-08T21:33:20Z</time></trkpt>
<trkpt lat="35.115551" lon="-85.171276"><ele>213.7</ele><time>2026-08-08T21:33:22Z</time></trkpt>
<trkpt lat="35.115516" lon="-85.171285"><ele>215.2</ele><time>2026-08-08T21:33:25Z</time></trkpt>
<trkpt lat="35.115487" lon="-85.171317"><ele>214.0</ele><time>2026-08-08T21:33:28Z</time></trkpt>
<trkpt lat="35.115477" lon="-85.17135"><ele>214.0</ele><time>2026-08-08T21:33:30Z</time></trkpt>
<trkpt lat="35.11547" lon="-85.171384"><ele>213.4</ele><time>2026-08-08T21:33:32Z</time></trkpt>
<trkpt lat="35.115461" lon="-85.171416"><ele>213.7</ele><time>2026-08-08T21:33:34Z</time></trkpt>
<trkpt lat="35.115448" lon="-85.171449"><ele>213.4</ele><time>2026-08-08T21:33:36Z</time></trkpt>
<trkpt lat="35.115417" lon="-85.171473"><ele>213.1</ele><time>2026-08-08T21:33:39Z</time></trkpt>
<trkpt lat="35.115377" lon="-85.171483"><ele>213.4</ele><time>2026-08-08T21:33:42Z</time></trkpt>
<trkpt lat="35.11535" lon="-85.171491"><ele>214.3</ele><time>2026-08-08T21:33:44Z</time></trkpt>
<trkpt lat="35.115324" lon="-85.171505"><ele>214.0</ele><time>2026-08-08T21:33:46Z</time></trkpt>
<trkpt lat="35.115308" lon="-85.171533"><ele>214.9</ele><time>2026-08-08T21:33:48Z</time></trkpt>
<trkpt lat="35.115292" lon="-85.171561"><ele>214.6</ele><time>2026-08-08T21:33:50Z</time></trkpt>
<trkpt lat="35.11527" lon="-85.171601"><ele>215.5</ele><time>2026-08-08T21:33:53Z</time></trkpt>
<trkpt lat="35.115257" lon="-85.171632"><ele>214.3</ele><time>2026-08-08T21:33:55Z</time></trkpt>
<trkpt lat="35.115239" lon="-85.171674"><ele>213.7</ele><time>2026-08-08T21:33:58Z</time></trkpt>
<trkpt lat="35.115225" lon="-85.171719"><ele>212.4</ele><time>2026-08-08T21:34:01Z</time></trkpt>
<trkpt lat="35.115207" lon="-85.171744"><ele>213.4</ele><time>2026-08-08T21:34:03Z</time></trkpt>
<trkpt lat="35.115183" lon="-85.171763"><ele>214.3</ele><time>2026-08-08T21:34:05Z</time></trkpt>
<trkpt lat="35.115155" lon="-85.171763"><ele>214.9</ele><time>2026-08-08T21:34:07Z</time></trkpt>
<trkpt lat="35.115126" lon="-85.171768"><ele>213.4</ele><time>2026-08-08T21:34:09Z</time></trkpt>
<trkpt lat="35.115087" lon="-85.171777"><ele>215.5</ele><time>2026-08-08T21:34:12Z</time></trkpt>
<trkpt lat="35.115063" lon="-85.171808"><ele>214.9</ele><time>2026-08-08T21:34:15Z</time></trkpt>
<trkpt lat="35.115044" lon="-85.171837"><ele>214.6</ele><time>2026-08-08T21:34:17Z</time></trkpt>
<trkpt lat="35.115031" lon="-85.171872"><ele>214.6</ele><time>2026-08-08T21:34:19Z</time></trkpt>
<trkpt lat="35.115019" lon="-85.171908"><ele>214.6</ele><time>2026-08-08T21:34:21Z</time></trkpt>
<trkpt lat="35.115" lon="-85.171935"><ele>215.8</ele><time>2026-08-08T21:34:23Z</time></trkpt>
<trkpt lat="35.114978" lon="-85.171961"><ele>216.1</ele><time>2026-08-08T21:34:25Z</time></trkpt>
<trkpt lat="35.114958" lon="-85.171985"><ele>215.5</ele><time>2026-08-08T21:34:27Z</time></trkpt>
<trkpt lat="35.114933" lon="-85.172012"><ele>215.2</ele><time>2026-08-08T21:34:30Z</time></trkpt>
<trkpt lat="35.1149" lon="-85.172026"><ele>215.2</ele><time>2026-08-08T21:34:33Z</time></trkpt>
<trkpt lat="35.114862" lon="-85.172031"><ele>214.6</ele><time>2026-08-08T21:34:36Z</time></trkpt>
<trkpt lat="35.114824" lon="-85.172037"><ele>215.8</ele><time>2026-08-08T21:34:39Z</time></trkpt>
<trkpt lat="35.114789" lon="-85.172038"><ele>214.9</ele><time>2026-08-08T21:34:42Z</time></trkpt>
<trkpt lat="35.114754" lon="-85.172056"><ele>213.1</ele><time>2026-08-08T21:34:45Z</time></trkpt>
<trkpt lat="35.11473" lon="-85.172073"><ele>213.7</ele><time>2026-08-08T21:34:47Z</time></trkpt>
<trkpt lat="35.114712" lon="-85.172101"><ele>214.0</ele><time>2026-08-08T21:34:49Z</time></trkpt>
<trkpt lat="35.114679" lon="-85.172121"><ele>213.4</ele><time>2026-08-08T21:34:52Z</time></trkpt>
<trkpt lat="35.114645" lon="-85.172141"><ele>213.7</ele><time>2026-08-08T21:34:55Z</time></trkpt>
<trkpt lat="35.114608" lon="-85.172146"><ele>213.7</ele><time>2026-08-08T21:34:58Z</time></trkpt>
<trkpt lat="35.114588" lon="-85.172178"><ele>211.8</ele><time>2026-08-08T21:35:01Z</time></trkpt>
<trkpt lat="35.114561" lon="-85.172208"><ele>211.5</ele><time>2026-08-08T21:35:04Z</time></trkpt>
<trkpt lat="35.114523" lon="-85.172212"><ele>211.2</ele><time>2026-08-08T21:35:07Z</time></trkpt>
<trkpt lat="35.11449" lon="-85.172212"><ele>211.2</ele><time>2026-08-08T21:35:10Z</time></trkpt>
<trkpt lat="35.114455" lon="-85.17221"><ele>212.1</ele><time>2026-08-08T21:35:13Z</time></trkpt>
<trkpt lat="35.114417" lon="-85.172201"><ele>212.8</ele><time>2026-08-08T21:35:16Z</time></trkpt>
<trkpt lat="35.114388" lon="-85.172212"><ele>214.3</ele><time>2026-08-08T21:35:19Z</time></trkpt>
<trkpt lat="35.114364" lon="-85.172245"><ele>214.6</ele><time>2026-08-08T21:35:22Z</time></trkpt>
<trkpt lat="35.114324" lon="-85.172255"><ele>212.8</ele><time>2026-08-08T21:35:25Z</time></trkpt>
<trkpt lat="35.114286" lon="-85.17227"><ele>213.4</ele><time>2026-08-08T21:35:28Z</time></trkpt>
<trkpt lat="35.114252" lon="-85.172297"><ele>213.7</ele><time>2026-08-08T21:35:31Z</time></trkpt>
<trkpt lat="35.114218" lon="-85.172323"><ele>213.4</ele><time>2026-08-08T21:35:34Z</time></trkpt>
<trkpt lat="35.114203" lon="-85.172351"><ele>213.4</ele><time>2026-08-08T21:35:36Z</time></trkpt>
<trkpt lat="35.114189" lon="-85.172394"><ele>213.4</ele><time>2026-08-08T21:35:39Z</time></trkpt>
<trkpt lat="35.114178" lon="-85.172427"><ele>213.4</ele><time>2026-08-08T21:35:41Z</time></trkpt>
<trkpt lat="35.114157" lon="-85.17247"><ele>211.8</ele><time>2026-08-08T21:35:44Z</time></trkpt>
<trkpt lat="35.114142" lon="-85.1725"><ele>211.5</ele><time>2026-08-08T21:35:46Z</time></trkpt>
<trkpt lat="35.114127" lon="-85.172531"><ele>210.9</ele><time>2026-08-08T21:35:48Z</time></trkpt>
<trkpt lat="35.114101" lon="-85.172566"><ele>210.6</ele><time>2026-08-08T21:35:51Z</time></trkpt>
<trkpt lat="35.11408" lon="-85.172592"><ele>210.6</ele><time>2026-08-08T21:35:53Z</time></trkpt>
<trkpt lat="35.114058" lon="-85.172631"><ele>210.6</ele><time>2026-08-08T21:35:56Z</time></trkpt>
<trkpt lat="35.114034" lon="-85.172663"><ele>210.6</ele><time>2026-08-08T21:35:59Z</time></trkpt>
<trkpt lat="35.114016" lon="-85.172708"><ele>210.6</ele><time>2026-08-08T21:36:02Z</time></trkpt>
<trkpt lat="35.114005" lon="-85.172739"><ele>210.6</ele><time>2026-08-08T21:36:04Z</time></trkpt>
<trkpt lat="35.113988" lon="-85.172767"><ele>210.0</ele><time>2026-08-08T21:36:06Z</time></trkpt>
<trkpt lat="35.113965" lon="-85.172789"><ele>210.0</ele><time>2026-08-08T21:36:08Z</time></trkpt>
<trkpt lat="35.113939" lon="-85.172802"><ele>210.0</ele><time>2026-08-08T21:36:10Z</time></trkpt>
<trkpt lat="35.113904" lon="-85.172821"><ele>209.1</ele><time>2026-08-08T21:36:13Z</time></trkpt>
<trkpt lat="35.113875" lon="-85.17285"><ele>209.4</ele><time>2026-08-08T21:36:16Z</time></trkpt>
<trkpt lat="35.113848" lon="-85.172887"><ele>209.7</ele><time>2026-08-08T21:36:19Z</time></trkpt>
<trkpt lat="35.113818" lon="-85.172919"><ele>210.9</ele><time>2026-08-08T21:36:22Z</time></trkpt>
<trkpt lat="35.113787" lon="-85.17295"><ele>211.5</ele><time>2026-08-08T21:36:25Z</time></trkpt>
<trkpt lat="35.113759" lon="-85.17298"><ele>212.4</ele><time>2026-08-08T21:36:28Z</time></trkpt>
<trkpt lat="35.113725" lon="-85.173"><ele>213.4</ele><time>2026-08-08T21:36:31Z</time></trkpt>
<trkpt lat="35.113689" lon="-85.173022"><ele>215.2</ele><time>2026-08-08T21:36:34Z</time></trkpt>
<trkpt lat="35.113666" lon="-85.173043"><ele>215.8</ele><time>2026-08-08T21:36:36Z</time></trkpt>
<trkpt lat="35.113647" lon="-85.173084"><ele>216.1</ele><time>2026-08-08T21:36:39Z</time></trkpt>
<trkpt lat="35.113631" lon="-85.173112"><ele>215.8</ele><time>2026-08-08T21:36:41Z</time></trkpt>
<trkpt lat="35.113603" lon="-85.173149"><ele>217.3</ele><time>2026-08-08T21:36:44Z</time></trkpt>
<trkpt lat="35.113586" lon="-85.173177"><ele>217.3</ele><time>2026-08-08T21:36:46Z</time></trkpt>
<trkpt lat="35.113572" lon="-85.173207"><ele>218.8</ele><time>2026-08-08T21:36:48Z</time></trkpt>
<trkpt lat="35.113561" lon="-85.173238"><ele>217.9</ele><time>2026-08-08T21:36:50Z</time></trkpt>
<trkpt lat="35.113561" lon="-85.173276"><ele>217.9</ele><time>2026-08-08T21:36:52Z</time></trkpt>
<trkpt lat="35.113565" lon="-85.173311"><ele>218.8</ele><time>2026-08-08T21:36:54Z</time></trkpt>
<trkpt lat="35.113567" lon="-85.173347"><ele>218.2</ele><time>2026-08-08T21:36:56Z</time></trkpt>
<trkpt lat="35.113562" lon="-85.173383"><ele>218.2</ele><time>2026-08-08T21:36:58Z</time></trkpt>
<trkpt lat="35.113558" lon="-85.173416"><ele>218.2</ele><time>2026-08-08T21:37:00Z</time></trkpt>
<trkpt lat="35.113559" lon="-85.17345"><ele>217.0</ele><time>2026-08-08T21:37:02Z</time></trkpt>
<trkpt lat="35.11356" lon="-85.173484"><ele>215.8</ele><time>2026-08-08T21:37:04Z</time></trkpt>
<trkpt lat="35.113563" lon="-85.17352"><ele>215.2</ele><time>2026-08-08T21:37:06Z</time></trkpt>
<trkpt lat="35.113564" lon="-85.173557"><ele>215.5</ele><time>2026-08-08T21:37:08Z</time></trkpt>
<trkpt lat="35.113561" lon="-85.173595"><ele>216.4</ele><time>2026-08-08T21:37:10Z</time></trkpt>
<trkpt lat="35.113555" lon="-85.173628"><ele>216.1</ele><time>2026-08-08T21:37:12Z</time></trkpt>
<trkpt lat="35.113545" lon="-85.17366"><ele>218.2</ele><time>2026-08-08T21:37:14Z</time></trkpt>
<trkpt lat="35.113534" lon="-85.173696"><ele>219.2</ele><time>2026-08-08T21:37:16Z</time></trkpt>
<trkpt lat="35.113531" lon="-85.173732"><ele>218.2</ele><time>2026-08-08T21:37:18Z</time></trkpt>
<trkpt lat="35.113532" lon="-85.173768"><ele>218.2</ele><time>2026-08-08T21:37:20Z</time></trkpt>
<trkpt lat="35.113532" lon="-85.173804"><ele>218.8</ele><time>2026-08-08T21:37:22Z</time></trkpt>
<trkpt lat="35.113518" lon="-85.173836"><ele>218.2</ele><time>2026-08-08T21:37:24Z</time></trkpt>
<trkpt lat="35.1135" lon="-85.173865"><ele>217.6</ele><time>2026-08-08T21:37:26Z</time></trkpt>
<trkpt lat="35.113481" lon="-85.173892"><ele>217.6</ele><time>2026-08-08T21:37:28Z</time></trkpt>
<trkpt lat="35.113453" lon="-85.173929"><ele>218.2</ele><time>2026-08-08T21:37:31Z</time></trkpt>
<trkpt lat="35.113429" lon="-85.173969"><ele>219.2</ele><time>2026-08-08T21:37:34Z</time></trkpt>
<trkpt lat="35.113416" lon="-85.174007"><ele>220.7</ele><time>2026-08-08T21:37:37Z</time></trkpt>
<trkpt lat="35.113401" lon="-85.174044"><ele>219.8</ele><time>2026-08-08T21:37:40Z</time></trkpt>
<trkpt lat="35.113382" lon="-85.174084"><ele>219.8</ele><time>2026-08-08T21:37:43Z</time></trkpt>
<trkpt lat="35.113358" lon="-85.174123"><ele>219.5</ele><time>2026-08-08T21:37:46Z</time></trkpt>
<trkpt lat="35.113334" lon="-85.174139"><ele>218.5</ele><time>2026-08-08T21:37:48Z</time></trkpt>
<trkpt lat="35.113318" lon="-85.174177"><ele>218.2</ele><time>2026-08-08T21:37:51Z</time></trkpt>
<trkpt lat="35.113289" lon="-85.174209"><ele>218.5</ele><time>2026-08-08T21:37:54Z</time></trkpt>
<trkpt lat="35.113262" lon="-85.174221"><ele>218.8</ele><time>2026-08-08T21:37:56Z</time></trkpt>
<trkpt lat="35.113232" lon="-85.174242"><ele>218.5</ele><time>2026-08-08T21:37:59Z</time></trkpt>
<trkpt lat="35.113214" lon="-85.17427"><ele>217.3</ele><time>2026-08-08T21:38:01Z</time></trkpt>
<trkpt lat="35.113188" lon="-85.174306"><ele>216.7</ele><time>2026-08-08T21:38:04Z</time></trkpt>
<trkpt lat="35.113159" lon="-85.174341"><ele>216.1</ele><time>2026-08-08T21:38:07Z</time></trkpt>
<trkpt lat="35.113139" lon="-85.174365"><ele>215.5</ele><time>2026-08-08T21:38:09Z</time></trkpt>
<trkpt lat="35.113109" lon="-85.174396"><ele>214.9</ele><time>2026-08-08T21:38:12Z</time></trkpt>
<trkpt lat="35.113076" lon="-85.174422"><ele>214.3</ele><time>2026-08-08T21:38:15Z</time></trkpt>
<trkpt lat="35.11305" lon="-85.174454"><ele>213.1</ele><time>2026-08-08T21:38:18Z</time></trkpt>
<trkpt lat="35.113026" lon="-85.174487"><ele>211.5</ele><time>2026-08-08T21:38:21Z</time></trkpt>
<trkpt lat="35.113007" lon="-85.174529"><ele>211.2</ele><time>2026-08-08T21:38:24Z</time></trkpt>
<trkpt lat="35.112998" lon="-85.174575"><ele>211.5</ele><time>2026-08-08T21:38:27Z</time></trkpt>
<trkpt lat="35.112979" lon="-85.174617"><ele>212.4</ele><time>2026-08-08T21:38:30Z</time></trkpt>
<trkpt lat="35.112955" lon="-85.174654"><ele>214.0</ele><time>2026-08-08T21:38:33Z</time></trkpt>
<trkpt lat="35.112942" lon="-85.174683"><ele>214.0</ele><time>2026-08-08T21:38:35Z</time></trkpt>
<trkpt lat="35.112933" lon="-85.174716"><ele>212.8</ele><time>2026-08-08T21:38:37Z</time></trkpt>
<trkpt lat="35.11292" lon="-85.174747"><ele>212.8</ele><time>2026-08-08T21:38:39Z</time></trkpt>
<trkpt lat="35.1129" lon="-85.17477"><ele>212.4</ele><time>2026-08-08T21:38:41Z</time></trkpt>
<trkpt lat="35.11287" lon="-85.174798"><ele>212.1</ele><time>2026-08-08T21:38:44Z</time></trkpt>
<trkpt lat="35.112837" lon="-85.174815"><ele>212.1</ele><time>2026-08-08T21:38:47Z</time></trkpt>
<trkpt lat="35.112806" lon="-85.174827"><ele>210.9</ele><time>2026-08-08T21:38:50Z</time></trkpt>
<trkpt lat="35.112771" lon="-85.174826"><ele>211.2</ele><time>2026-08-08T21:38:53Z</time></trkpt>
<trkpt lat="35.112734" lon="-85.174828"><ele>212.1</ele><time>2026-08-08T21:38:56Z</time></trkpt>
<trkpt lat="35.112708" lon="-85.17484"><ele>212.1</ele><time>2026-08-08T21:38:58Z</time></trkpt>
<trkpt lat="35.112669" lon="-85.174855"><ele>213.1</ele><time>2026-08-08T21:39:01Z</time></trkpt>
<trkpt lat="35.112644" lon="-85.174827"><ele>213.4</ele><time>2026-08-08T21:39:04Z</time></trkpt>
<trkpt lat="35.112662" lon="-85.174805"><ele>212.1</ele><time>2026-08-08T21:39:05Z</time></trkpt>
<trkpt lat="35.11267" lon="-85.174802"><ele>211.8</ele><time>2026-08-08T21:39:06Z</time></trkpt>
<trkpt lat="35.112672" lon="-85.174802"><ele>211.8</ele><time>2026-08-08T21:39:08Z</time></trkpt>
<trkpt lat="35.112673" lon="-85.174796"><ele>211.2</ele><time>2026-08-08T21:39:09Z</time></trkpt>
<trkpt lat="35.112705" lon="-85.174783"><ele>210.9</ele><time>2026-08-08T21:39:12Z</time></trkpt>
<trkpt lat="35.112721" lon="-85.174798"><ele>210.9</ele><time>2026-08-08T21:39:13Z</time></trkpt>
<trkpt lat="35.112719" lon="-85.174805"><ele>211.5</ele><time>2026-08-08T21:39:14Z</time></trkpt>
<trkpt lat="35.112721" lon="-85.174808"><ele>211.8</ele><time>2026-08-08T21:39:15Z</time></trkpt>
<trkpt lat="35.112725" lon="-85.174808"><ele>211.5</ele><time>2026-08-08T21:39:16Z</time></trkpt>
<trkpt lat="35.112753" lon="-85.174823"><ele>211.2</ele><time>2026-08-08T21:39:19Z</time></trkpt>
<trkpt lat="35.112782" lon="-85.174818"><ele>210.6</ele><time>2026-08-08T21:39:22Z</time></trkpt>
<trkpt lat="35.112793" lon="-85.174815"><ele>210.3</ele><time>2026-08-08T21:39:23Z</time></trkpt>
<trkpt lat="35.112793" lon="-85.174813"><ele>210.0</ele><time>2026-08-08T21:39:24Z</time></trkpt>
<trkpt lat="35.112791" lon="-85.174814"><ele>209.1</ele><time>2026-08-08T21:39:26Z</time></trkpt>
<trkpt lat="35.112789" lon="-85.174817"><ele>208.5</ele><time>2026-08-08T21:39:27Z</time></trkpt>
<trkpt lat="35.112761" lon="-85.174815"><ele>208.5</ele><time>2026-08-08T21:39:29Z</time></trkpt>
<trkpt lat="35.112724" lon="-85.174816"><ele>210.0</ele><time>2026-08-08T21:39:31Z</time></trkpt>
<trkpt lat="35.11269" lon="-85.174824"><ele>210.3</ele><time>2026-08-08T21:39:33Z</time></trkpt>
<trkpt lat="35.11266" lon="-85.174839"><ele>210.6</ele><time>2026-08-08T21:39:35Z</time></trkpt>
<trkpt lat="35.112628" lon="-85.174846"><ele>209.7</ele><time>2026-08-08T21:39:37Z</time></trkpt>
<trkpt lat="35.112592" lon="-85.174852"><ele>210.9</ele><time>2026-08-08T21:39:39Z</time></trkpt>
<trkpt lat="35.112559" lon="-85.174869"><ele>211.5</ele><time>2026-08-08T21:39:41Z</time></trkpt>
<trkpt lat="35.11253" lon="-85.174891"><ele>211.5</ele><time>2026-08-08T21:39:43Z</time></trkpt>
<trkpt lat="35.112507" lon="-85.174919"><ele>211.5</ele><time>2026-08-08T21:39:45Z</time></trkpt>
<trkpt lat="35.112488" lon="-85.174946"><ele>211.2</ele><time>2026-08-08T21:39:47Z</time></trkpt>
<trkpt lat="35.112473" lon="-85.174974"><ele>211.8</ele><time>2026-08-08T21:39:49Z</time></trkpt>
<trkpt lat="35.112453" lon="-85.175015"><ele>212.4</ele><time>2026-08-08T21:39:52Z</time></trkpt>
<trkpt lat="35.11244" lon="-85.175046"><ele>212.8</ele><time>2026-08-08T21:39:54Z</time></trkpt>
<trkpt lat="35.112428" lon="-85.175078"><ele>213.1</ele><time>2026-08-08T21:39:56Z</time></trkpt>
<trkpt lat="35.112415" lon="-85.175109"><ele>213.4</ele><time>2026-08-08T21:39:58Z</time></trkpt>
<trkpt lat="35.112404" lon="-85.17514"><ele>213.4</ele><time>2026-08-08T21:40:00Z</time></trkpt>
<trkpt lat="35.112387" lon="-85.175184"><ele>213.1</ele><time>2026-08-08T21:40:03Z</time></trkpt>
<trkpt lat="35.112377" lon="-85.175217"><ele>213.7</ele><time>2026-08-08T21:40:05Z</time></trkpt>
<trkpt lat="35.112363" lon="-85.175251"><ele>213.1</ele><time>2026-08-08T21:40:07Z</time></trkpt>
<trkpt lat="35.112343" lon="-85.17528"><ele>212.8</ele><time>2026-08-08T21:40:09Z</time></trkpt>
<trkpt lat="35.112315" lon="-85.175295"><ele>212.8</ele><time>2026-08-08T21:40:11Z</time></trkpt>
<trkpt lat="35.112284" lon="-85.175294"><ele>213.4</ele><time>2026-08-08T21:40:13Z</time></trkpt>
<trkpt lat="35.112258" lon="-85.175286"><ele>214.0</ele><time>2026-08-08T21:40:15Z</time></trkpt>
<trkpt lat="35.112222" lon="-85.17529"><ele>214.3</ele><time>2026-08-08T21:40:18Z</time></trkpt>
<trkpt lat="35.112187" lon="-85.175267"><ele>214.9</ele><time>2026-08-08T21:40:21Z</time></trkpt>
<trkpt lat="35.112167" lon="-85.175243"><ele>215.2</ele><time>2026-08-08T21:40:23Z</time></trkpt>
<trkpt lat="35.112143" lon="-85.175223"><ele>215.5</ele><time>2026-08-08T21:40:25Z</time></trkpt>
<trkpt lat="35.112117" lon="-85.175205"><ele>215.2</ele><time>2026-08-08T21:40:27Z</time></trkpt>
<trkpt lat="35.11209" lon="-85.175185"><ele>215.5</ele><time>2026-08-08T21:40:29Z</time></trkpt>
<trkpt lat="35.112063" lon="-85.175173"><ele>215.8</ele><time>2026-08-08T21:40:31Z</time></trkpt>
<trkpt lat="35.112035" lon="-85.175162"><ele>216.1</ele><time>2026-08-08T21:40:33Z</time></trkpt>
<trkpt lat="35.112005" lon="-85.175155"><ele>216.1</ele><time>2026-08-08T21:40:35Z</time></trkpt>
<trkpt lat="35.111978" lon="-85.175147"><ele>216.4</ele><time>2026-08-08T21:40:37Z</time></trkpt>
<trkpt lat="35.11195" lon="-85.175136"><ele>216.4</ele><time>2026-08-08T21:40:39Z</time></trkpt>
<trkpt lat="35.111927" lon="-85.175115"><ele>216.7</ele><time>2026-08-08T21:40:41Z</time></trkpt>
<trkpt lat="35.111899" lon="-85.175082"><ele>216.1</ele><time>2026-08-08T21:40:44Z</time></trkpt>
<trkpt lat="35.11189" lon="-85.175071"><ele>216.7</ele><time>2026-08-08T21:40:45Z</time></trkpt>
<trkpt lat="35.111889" lon="-85.17507"><ele>216.7</ele><time>2026-08-08T21:40:46Z</time></trkpt>
</trkseg></trk></gpx>